XML Sitemap

This is a XML Sitemap which is supposed to be processed by search engines which follow the XML Sitemap standard like Ask.com, Bing, Google and Yahoo.
It was generated using the Blogging-Software WordPress and the Google Sitemap Generator Plugin by Arne Brachhold.
You can find more information about XML sitemaps on sitemaps.org and Google's list of sitemap programs.

URLPriorityChange frequencyLast modified (GMT)
http://www.hotnewdeal.com/2019/04/30/291084_eBay__5_Off_Purchase_No_Minimum__YMMV/20%Monthly2019-04-30 23:46
http://www.hotnewdeal.com/2019/04/30/291083_28_Fiskars_Inch_Bypass_Lopper_10__Amazon_w_Pri/20%Monthly2019-04-30 23:46
http://www.hotnewdeal.com/2019/04/30/291082_AAA_members_save_05_per_gallon_on_gas_on_every_f/20%Monthly2019-04-30 23:14
http://www.hotnewdeal.com/2019/04/30/291081_LG_70_Class_695_Diag_4K_Ultra_HD_LED_LCD_TV_/20%Monthly2019-04-30 22:55
http://www.hotnewdeal.com/2019/04/30/291080_VIZIO_SB3651F6_36_51_Home_Theater_Sound_Bar_Sys/20%Monthly2019-04-30 22:38
http://www.hotnewdeal.com/2019/04/30/291079_Fitbit_Charge_2_for_30_at_Walmart_YMMV/20%Monthly2019-04-30 22:29
http://www.hotnewdeal.com/2019/04/30/291078_Acellories_10000mAh_Power_Badge_Power_Bank__15_/20%Monthly2019-04-30 21:48
http://www.hotnewdeal.com/2019/04/30/291077_5pc_Calivirgin_100ml_Extra_Virgin_Finishing_Olive_/20%Monthly2019-04-30 21:33
http://www.hotnewdeal.com/2019/04/30/291076_Super_Smash_Bros_and_Nintendo_Pro_Controller_Vide/20%Monthly2019-04-30 21:18
http://www.hotnewdeal.com/2019/04/30/291075_Irish_Spring_Body_Wash_Moisture_Blast_18_fluid_o/20%Monthly2019-04-30 21:09
http://www.hotnewdeal.com/2019/04/30/291073_King_Arthur_Flour_GlutenFree_Measure_for_Measure_/20%Monthly2019-04-30 20:42
http://www.hotnewdeal.com/2019/04/30/291072_Ebay_Coupon_Deal_3Pack_Puma_Womens_Low_Cut_2_/20%Monthly2019-04-30 20:42
http://www.hotnewdeal.com/2019/04/30/291071_Samsung_Monitors_32_Samsung_CF391_1920x1080_Curve/20%Monthly2019-04-30 20:42
http://www.hotnewdeal.com/2019/04/30/291070_Southwest_Airlines__Nationwide_SUMMER_Travel_3Da/20%Monthly2019-04-30 20:41
http://www.hotnewdeal.com/2019/04/30/291069_Peets_Coffee_Espresso_Capsules_Ristretto_Intensit/20%Monthly2019-04-30 20:12
http://www.hotnewdeal.com/2019/04/30/291068_Fender_FA235E_Concert_Acoustic_Electric_Guitar_1/20%Monthly2019-04-30 20:12
http://www.hotnewdeal.com/2019/04/30/291067_EZVIZ_Outdoor_Camera_Kit_4ct_of_4k_Outdoor_Bulle/20%Monthly2019-04-30 19:59
http://www.hotnewdeal.com/2019/04/30/291066_Onkyo_TXNR686_72Channel_4K_Network_AV_Receiver/20%Monthly2019-04-30 19:28
http://www.hotnewdeal.com/2019/04/30/291065_JCPenney_Bath_TowelsHome_Expressions_Solid_or_Str/20%Monthly2019-04-30 19:16
http://www.hotnewdeal.com/2019/04/30/291064_Addon_Item_AmazonBasics_Striped_Memory_Foam_Bath/20%Monthly2019-04-30 19:16
http://www.hotnewdeal.com/2019/04/30/291063_chlage_ZWave_Connect_Camelot_Touchscreen_Deadbolt/20%Monthly2019-04-30 19:15
http://www.hotnewdeal.com/2019/04/30/291062_Dyson_Airwrap_Complete_Styler_NickelFuchsia_55/20%Monthly2019-04-30 19:15
http://www.hotnewdeal.com/2019/04/30/291061_Samsung_QLED_556FN_for_650_at_walmart/20%Monthly2019-04-30 19:15
http://www.hotnewdeal.com/2019/04/30/291060_Nautica_Polarized_Classic_Navigator_Sunglasses_25/20%Monthly2019-04-30 19:15
http://www.hotnewdeal.com/2019/04/30/291059_Final_Fantasy_XII_Zodiac_Age_for_Nintendo_Switch_/20%Monthly2019-04-30 18:51
http://www.hotnewdeal.com/2019/04/30/291058_TODAY_ONLY_43019_Shrimp_for_399lbs__Sprouts/20%Monthly2019-04-30 18:29
http://www.hotnewdeal.com/2019/04/30/291057_Amazon_Addon_Grease_Monkey_Tool_Handler_All_Purp/20%Monthly2019-04-30 18:16
http://www.hotnewdeal.com/2019/04/30/291056_Resin_Planters_1275_Stone_Resin_Midway_Tuscan_/20%Monthly2019-04-30 18:16
http://www.hotnewdeal.com/2019/04/30/291055_Beats_Powerbeats3_Bluetooth_Wireless_Earphones__/20%Monthly2019-04-30 18:07
http://www.hotnewdeal.com/2019/04/30/291054_Despicable_Me_3_Region_Free_Bluray_3D__Bluray/20%Monthly2019-04-30 18:06
http://www.hotnewdeal.com/2019/04/30/291053_AmazonBasics_Silicone_BBQ_Gloves_One_Pair_Amazon_/20%Monthly2019-04-30 17:55
http://www.hotnewdeal.com/2019/04/30/291052_Bodum_34Oz_Electric_Water_Kettle_14__free_stor/20%Monthly2019-04-30 17:55
http://www.hotnewdeal.com/2019/04/30/291051_VAVA_5in1_USB_C_HUB_4K_HDMI_SD_Card_Reader_2_/20%Monthly2019-04-30 17:55
http://www.hotnewdeal.com/2019/04/30/291050_Capn_Crunch_Cereal_14_oz_Variety_Pack_4_Pack_/20%Monthly2019-04-30 17:37
http://www.hotnewdeal.com/2019/04/30/291049_Coleman_Wonderlake_Dome_Youth_Tent_4x7_1199__Am/20%Monthly2019-04-30 17:37
http://www.hotnewdeal.com/2019/04/30/291048_YMMV_3043_Bayonetta_2_Physical_Game_Card__Bay/20%Monthly2019-04-30 17:36
http://www.hotnewdeal.com/2019/04/30/291047_Acer_Nitro_50_Gaming_Desktop_i58400_12GB_DDR4_/20%Monthly2019-04-30 17:26
http://www.hotnewdeal.com/2019/04/30/291046_256GB_Intel_545s_25_Solid_State_Drive_3599__F/20%Monthly2019-04-30 17:16
http://www.hotnewdeal.com/2019/04/30/291045_2Count_12oz_Bodum_Pavina_Double_Wall_Insulate_Gl/20%Monthly2019-04-30 17:16
http://www.hotnewdeal.com/2019/04/30/291044_20_Off_Hanes_on_Rakuten__10_Back_in_Rakuten_Sup/20%Monthly2019-04-30 17:16
http://www.hotnewdeal.com/2019/04/30/291043_BLACKDECKER_20V_MAX_Chainsaw__Blower_w_Battery_/20%Monthly2019-04-30 17:09
http://www.hotnewdeal.com/2019/04/30/291042_Shopkins_Lil_Secrets_Mini_Playset_Peacock_Gala_/20%Monthly2019-04-30 16:58
http://www.hotnewdeal.com/2019/04/30/291041_AirPods_Wireless_Headphones_with_Wireless_Charging/20%Monthly2019-04-30 16:31
http://www.hotnewdeal.com/2019/04/30/291040_NU7300_65_Class_HDR_UHD_Smart_Curved_LED_TV_649/20%Monthly2019-04-30 16:31
http://www.hotnewdeal.com/2019/04/30/291039_Logitech_G29_Gaming_Racing_Wheel_for_PCPS4PS3_1/20%Monthly2019-04-30 16:21
http://www.hotnewdeal.com/2019/04/30/291038_AMD_RYZEN_5_2600_6Core_cpu__ASRock_X470_Taichi_M/20%Monthly2019-04-30 16:21
http://www.hotnewdeal.com/2019/04/30/291037_PS4PS3_Digital_Game_Sale_GTA_V_Premium_Online_E/20%Monthly2019-04-30 16:11
http://www.hotnewdeal.com/2019/04/30/291036_National_Grid_Marketplace_NYLong_Island_Metro_U/20%Monthly2019-04-30 16:11
http://www.hotnewdeal.com/2019/04/30/291035_100_Ct_Solimo_Light_Roast_Coffee_KCup_Pods__Ama/20%Monthly2019-04-30 15:44
http://www.hotnewdeal.com/2019/04/30/291034_JBL_Focus_300_In_Ear_Wired_Headphones_199_FS_aft/20%Monthly2019-04-30 15:36
http://www.hotnewdeal.com/2019/04/30/291033_Teac_TN300SE_Analog_Turntable_150__free_sh/20%Monthly2019-04-30 15:36
http://www.hotnewdeal.com/2019/04/30/291032_Kenmore_400_Series_Bagged_Canister_Vacuum_Red_81/20%Monthly2019-04-30 15:36
http://www.hotnewdeal.com/2019/04/30/291031_Dark_Souls_Latex_Helmet_30_Shipped/20%Monthly2019-04-30 15:36
http://www.hotnewdeal.com/2019/04/30/291030_6Pack_6oz_Colgate_Baking_Soda_and_Peroxide_Whiten/20%Monthly2019-04-30 15:26
http://www.hotnewdeal.com/2019/04/30/291029_3Piece_American_Tourister_Arona_Hardside_Spinner_/20%Monthly2019-04-30 15:12
http://www.hotnewdeal.com/2019/04/30/291027_Humble_LEGO_Games_Bundle_PCDD_games_starting_at_/20%Monthly2019-04-30 14:58
http://www.hotnewdeal.com/2019/04/30/291026_HyperX_ChargePlay_Quad_JoyCon_Charging_Station_fo/20%Monthly2019-04-30 14:58
http://www.hotnewdeal.com/2019/04/30/291025_Philips_Fidelio_X2HR_Premium_Over_Ear_Headphone_1/20%Monthly2019-04-30 14:39
http://www.hotnewdeal.com/2019/04/30/291024_Tom_Clancys_The_Division_2__Standard_Edition_for/20%Monthly2019-04-30 14:39
http://www.hotnewdeal.com/2019/04/30/291023_Chrono_Trigger_PC_50_off_749_on_Steam_thru_/20%Monthly2019-04-30 14:39
http://www.hotnewdeal.com/2019/04/30/291022_YMMV_Star_Wars_Tie_Fighter_Vintage_Collection_Walm/20%Monthly2019-04-30 14:39
http://www.hotnewdeal.com/2019/04/30/291021_Canon_50MM_F18_STM_Lens_79_AC__Free_Shipping_/20%Monthly2019-04-30 14:39
http://www.hotnewdeal.com/2019/04/30/291020_Lowes_Elmers_Carpenters_Wood_Glue_Max_Adhesive/20%Monthly2019-04-30 14:39
http://www.hotnewdeal.com/2019/04/30/291019_Mixed_Purple_Passion_Bouquet_for_Mothers_Day_35/20%Monthly2019-04-30 14:20
http://www.hotnewdeal.com/2019/04/30/291018_Hoover_Turbo_Scrub_Upright_Pet_Carpet_Cleaner_Expe/20%Monthly2019-04-30 14:20
http://www.hotnewdeal.com/2019/04/30/291017_1TB_WD_Blue_3D_NAND_Internal_25_inch_SSD_SATA_III/20%Monthly2019-04-30 13:58
http://www.hotnewdeal.com/2019/04/30/291016_Apple__MacBook_Air__133_Retina_Display__Intel/20%Monthly2019-04-30 13:49
http://www.hotnewdeal.com/2019/04/30/291015_Apple_Watch_Series_4_GPS_44mm_GoldSpace_Gray_FS_w/20%Monthly2019-04-30 13:49
http://www.hotnewdeal.com/2019/04/30/291014_Olympus_OMD_EM10_Mark_III_Camera_with_Olympus_14/20%Monthly2019-04-30 13:49
http://www.hotnewdeal.com/2019/04/30/291013_Johnsons_Baby_Powder_from_042_Amazon_Addon_It/20%Monthly2019-04-30 13:49
http://www.hotnewdeal.com/2019/04/30/291012_Aukey_25_to_USBC_External_Drive_Enclosure_8_AC/20%Monthly2019-04-30 13:33
http://www.hotnewdeal.com/2019/04/30/291011_Google_Home_Hub_7_Touchscreen_Smart_Display_Perso/20%Monthly2019-04-30 13:26
http://www.hotnewdeal.com/2019/04/30/291010_Marc_Jacobs_Grey_Gradient_Polarized_Sunglasses_40/20%Monthly2019-04-30 13:13
http://www.hotnewdeal.com/2019/04/30/291009_Costco_Kenneth_Cole_NY_Ladies_Knit_Hoodie_vario/20%Monthly2019-04-30 13:07
http://www.hotnewdeal.com/2019/04/30/291007_Lowes_Amazing_GOOP_1fl_oz_Bonding_Clear_Multipu/20%Monthly2019-04-30 13:07
http://www.hotnewdeal.com/2019/04/30/291006_ADATA_XPG_Spectrix_D80_16GB_Dram_8074_AC__FS/20%Monthly2019-04-30 12:57
http://www.hotnewdeal.com/2019/04/30/291005_24Pack_12_oz_LaCroix_Sparkling_Water_Lemon_L/20%Monthly2019-04-30 12:48
http://www.hotnewdeal.com/2019/04/30/291004_ELEMENT_32_Class_720P_LED_HDTV_ELEFW328C_25_ym/20%Monthly2019-04-30 12:48
http://www.hotnewdeal.com/2019/04/30/291003_500GB_SanDisk_Ultra_3D_25_Solid_State_Drive_SSD_/20%Monthly2019-04-30 11:58
http://www.hotnewdeal.com/2019/04/30/291002_Lasko_2511_36_Tower_Fan_with_Remote_Control_273/20%Monthly2019-04-30 11:42
http://www.hotnewdeal.com/2019/04/30/291001_6Pound_Bag_Black_Forest_Gummy_Bears_882_w_5_S/20%Monthly2019-04-30 11:42
http://www.hotnewdeal.com/2019/04/30/291000_Frontier_Airlines_Friends_Fly_Free_for_Discount_De/20%Monthly2019-04-30 11:11
http://www.hotnewdeal.com/2019/04/30/290999_96Count_Tide_Pods_Liquid_Laundry_Detergent_Pacs_/20%Monthly2019-04-30 11:00
http://www.hotnewdeal.com/2019/04/30/290998_Gilmour_Garden_Hose_Nozzle_Thumb_Control_Valve_L/20%Monthly2019-04-30 10:44
http://www.hotnewdeal.com/2019/04/30/290997_Newegg_Silicon_Power_128GB_Elite_microSDXC_UHSI/20%Monthly2019-04-30 10:43
http://www.hotnewdeal.com/2019/04/30/290996_Livenation_20_concert_AllIn_Tickets_is_back/20%Monthly2019-04-30 10:43
http://www.hotnewdeal.com/2019/04/30/290995_5Quart_Pennzoil_Platinum_Full_Synthetic_and_an_ST/20%Monthly2019-04-30 09:43
http://www.hotnewdeal.com/2019/04/30/290994_Dyson_V7_Motorhead_Cordless_Vacuum_Refurbished_f/20%Monthly2019-04-30 09:43
http://www.hotnewdeal.com/2019/04/30/290993_PC_Digital_Download_Nioh_Complete_Edition_2099/20%Monthly2019-04-30 09:43
http://www.hotnewdeal.com/2019/04/30/290992_TPLink_AC1750_Archer_A7_Dual_Band_Gigabit_Wirel/20%Monthly2019-04-30 09:29
http://www.hotnewdeal.com/2019/04/30/290991_RYOBI_18Volt_ONE_LithiumIon_Cordless_Stick_Vacu/20%Monthly2019-04-30 09:29
http://www.hotnewdeal.com/2019/04/30/290990_Eco_Smart_BR30_LED_3_Pack_Clearance__528_BM_Ho/20%Monthly2019-04-30 09:29
http://www.hotnewdeal.com/2019/04/30/290989_Cuisinart__Convection_ToasterPizza_Oven__Brushe/20%Monthly2019-04-30 09:02
http://www.hotnewdeal.com/2019/04/30/290987_CarcassonnePandemic__More_AndroidiOS_Apps_1/20%Monthly2019-04-30 08:31
http://www.hotnewdeal.com/2019/04/30/290986_Apple_iMac_27inch_Retina_5K_display_35GHz_quad/20%Monthly2019-04-30 08:16
http://www.hotnewdeal.com/2019/04/30/290984_Sony_PlayStation_4_Pro_1TB_Console__Black__339/20%Monthly2019-04-30 08:15
http://www.hotnewdeal.com/2019/04/30/290983_6_pack_Colgate_Extra_Clean_Full_Head_Toothbrush_M/20%Monthly2019-04-30 08:03
http://www.hotnewdeal.com/2019/04/30/290982_Instant_Pot_Duo_Mini_3Quart_7In1_Programmable_P/20%Monthly2019-04-30 07:44
http://www.hotnewdeal.com/2019/04/30/290981_Microsoft_Xbox_Wireless_Controller__Sport_Red_Spe/20%Monthly2019-04-30 07:44
http://www.hotnewdeal.com/2019/04/30/290980_Nespresso_Essenza_Mini_Original_Espresso_Machine_B/20%Monthly2019-04-30 07:29
http://www.hotnewdeal.com/2019/04/30/290979_Lowes_Devcon_Home_5Minute_Epoxy_Glue_2Pack_7/20%Monthly2019-04-30 07:14
http://www.hotnewdeal.com/2019/04/30/290978_18Pair_Mens_Dickies_DriTech_Moisture_Control_Cr/20%Monthly2019-04-30 06:47
http://www.hotnewdeal.com/2019/04/30/290977_3D_USBPowered_LED_Moon_Lamp_999/20%Monthly2019-04-30 06:46
http://www.hotnewdeal.com/2019/04/30/290976_Digital_4K_UHD_Movies_Heat_1995_499_Die_Hard/20%Monthly2019-04-30 06:35
http://www.hotnewdeal.com/2019/04/30/290975_SteelSeries_Arctis_Pro_Wireless_Gaming_Headset_22/20%Monthly2019-04-30 06:35
http://www.hotnewdeal.com/2019/04/30/290973_Premium_AirPods_Silicone_Case_Cover_Protective_Ski/20%Monthly2019-04-30 04:08
http://www.hotnewdeal.com/2019/04/30/290972_Philips_Norelco_Electric_Shaver_8900_with_SmartCle/20%Monthly2019-04-30 02:54
http://www.hotnewdeal.com/2019/04/30/290971_Amazon_Prime_Puritans_Pride_Super_Strength_Melat/20%Monthly2019-04-30 01:50
http://www.hotnewdeal.com/2019/04/30/290970_GoWISE_USA_1700Watt_8in1_Digital_Air_Fryer_58/20%Monthly2019-04-30 01:50
http://www.hotnewdeal.com/2019/04/30/290969_Microsoft_Natural_Ergonomic_4000_Keyboard_15__Fr/20%Monthly2019-04-30 01:37
http://www.hotnewdeal.com/2019/04/30/290968_Chicago_Cutlery_Knife_Block_Without_Knives_Storage/20%Monthly2019-04-30 01:14
http://www.hotnewdeal.com/2019/04/30/290967_Nikon_AFS_DX_Nikkor_35mm_F18G_Lens_17695_Nik/20%Monthly2019-04-30 00:25
http://www.hotnewdeal.com/2019/04/30/290966_Colgate_Sensitive_Toothpaste_Complete_Protection/20%Monthly2019-04-30 00:07
http://www.hotnewdeal.com/2019/04/30/290965_USB_Type_C_Cable_CABEPOW_2Pack_3ft_USB_C_to_USB_A/20%Monthly2019-04-30 00:07
http://www.hotnewdeal.com/2019/04/29/290964_Pruveeo_MX2_Dash_Cam_720p_Front_and_480p_Rear_Dual/20%Monthly2019-04-29 23:36
http://www.hotnewdeal.com/2019/04/29/290963_Hubitat_Smart_Home_Hub_8995__Hubitatcom/20%Monthly2019-04-29 23:36
http://www.hotnewdeal.com/2019/04/29/290962_AMD_Ryzen_7_1700_8_Core_16_Thread_AM4_Processor_/20%Monthly2019-04-29 23:20
http://www.hotnewdeal.com/2019/04/29/290961_Apple_iPhone_X_64GB_Unlocked_Space_Gray_or_Silver_/20%Monthly2019-04-29 22:56
http://www.hotnewdeal.com/2019/04/29/290960_MobiFren_FlexL_Wireless_Bluetooth_Headset_100_OF/20%Monthly2019-04-29 22:54
http://www.hotnewdeal.com/2019/04/29/290959_CRC_QD_Quick_Dry_Electronic_Parts__Contact_Cleane/20%Monthly2019-04-29 22:54
http://www.hotnewdeal.com/2019/04/29/290958_Lenovo_Ideapad_S340_156_FHD_IPS_i58265U_8GB/20%Monthly2019-04-29 22:43
http://www.hotnewdeal.com/2019/04/29/290957_Starbucks_Frappuccino_Coffee_95_Ounce_Glass_Bot/20%Monthly2019-04-29 22:39
http://www.hotnewdeal.com/2019/04/29/290956_Lowes_DURO_Liquid_Super_Glue_4Pack_099/20%Monthly2019-04-29 22:36
http://www.hotnewdeal.com/2019/04/29/290955_MSI_Gaming_GeForce_GTX_1660_Ti_Graphics_Card__25/20%Monthly2019-04-29 22:36
http://www.hotnewdeal.com/2019/04/29/290954_Unigear_35L_Waterproof_Backpack__Detachable_Lapto/20%Monthly2019-04-29 22:36
http://www.hotnewdeal.com/2019/04/29/290953_CableMod_BasicPro_Cable_Extension_Kits_15/20%Monthly2019-04-29 22:36
http://www.hotnewdeal.com/2019/04/29/290952_Target_Cartwheel_125oz_Capn_Crunch_Chocolatey_B/20%Monthly2019-04-29 22:35
http://www.hotnewdeal.com/2019/04/29/290951_MiracleGro_Twelve_Indoor_Growing_System__239__/20%Monthly2019-04-29 22:35
http://www.hotnewdeal.com/2019/04/29/290950_AAFES_MILVET_Surface_Laptop_2_i5_8GB_128GB_Plat/20%Monthly2019-04-29 22:15
http://www.hotnewdeal.com/2019/04/29/290949_Xbox_One_Digital_Games_Forza_Horizon_3_Expansion_/20%Monthly2019-04-29 22:06
http://www.hotnewdeal.com/2019/04/29/290948_Improved_Lemon_Meyer_Tree_only_5699_at_Costco/20%Monthly2019-04-29 22:06
http://www.hotnewdeal.com/2019/04/29/290947_Region_Free_Avengers_Endgame_PreOrder_Bluray_/20%Monthly2019-04-29 21:31
http://www.hotnewdeal.com/2019/04/29/290946_Digital_HD_Movies_District_9_They_Live_Being_Jo/20%Monthly2019-04-29 21:14
http://www.hotnewdeal.com/2019/04/29/290945_Hooters__Free_10_voucher/20%Monthly2019-04-29 21:13
http://www.hotnewdeal.com/2019/04/29/290944_Samsung_Galaxy_Active_Smartwatch_40mm__16999__/20%Monthly2019-04-29 21:06
http://www.hotnewdeal.com/2019/04/29/290943_Back_in_Stock_Refurbished_EOS_M50_EFM_1545mm_f/20%Monthly2019-04-29 21:06
http://www.hotnewdeal.com/2019/04/29/290942_God_of_War_for_PS4__Free_Shipping_19/20%Monthly2019-04-29 20:57
http://www.hotnewdeal.com/2019/04/29/290941_Krazy_Super_Glue_all_styles/20%Monthly2019-04-29 20:57
http://www.hotnewdeal.com/2019/04/29/290940_Waterproof_Facial_Cleansing_Brush_4in1_Set_149/20%Monthly2019-04-29 20:57
http://www.hotnewdeal.com/2019/04/29/290939_ANBES_Wireless_Bluetooth_50_InEar_Stereo_Earbuds/20%Monthly2019-04-29 20:41
http://www.hotnewdeal.com/2019/04/29/290938_San_Francisco_to_Bangkok_Thailand_574_RT_Airfares/20%Monthly2019-04-29 20:28
http://www.hotnewdeal.com/2019/04/29/290937_Dell_Vostro_14_5471_14_FHD_IPS_i58250U_8GB_D/20%Monthly2019-04-29 20:00
http://www.hotnewdeal.com/2019/04/29/290936_Samsonite_luggage_10_off_extra_on_clearance_sale/20%Monthly2019-04-29 19:47
http://www.hotnewdeal.com/2019/04/29/290934_32_Degrees_UltraStretch_Apparel_Mens_Shorts_10/20%Monthly2019-04-29 19:39
http://www.hotnewdeal.com/2019/04/29/290933_Free_chips_and_guacamole_from_Chipotle_with_a_mini/20%Monthly2019-04-29 19:21
http://www.hotnewdeal.com/2019/04/29/290932_3Ct_OralB_Electric_Toothbrush_Replacement_Brush_/20%Monthly2019-04-29 19:21
http://www.hotnewdeal.com/2019/04/29/290931_Nespresso_machines_40_off_at_bed_bath_and_beyond/20%Monthly2019-04-29 19:21
http://www.hotnewdeal.com/2019/04/29/290930_Arlo__IndoorOutdoor_Smart_Home_Security_Lights_/20%Monthly2019-04-29 19:21
http://www.hotnewdeal.com/2019/04/29/290929_Studio_Crystal__7Piece_Crystal_Whiskey__Decante/20%Monthly2019-04-29 18:56
http://www.hotnewdeal.com/2019/04/29/290928_Radiant_Historia_Perfect_Chronology_3ds_1999__W/20%Monthly2019-04-29 18:46
http://www.hotnewdeal.com/2019/04/29/290927_Lenovo_C330_Chromebook__200__Tax__Best_Buy_Sa/20%Monthly2019-04-29 18:46
http://www.hotnewdeal.com/2019/04/29/290926_Uniden_R7_Radar_Detector_539_shipped_AC_from_Ra/20%Monthly2019-04-29 18:37
http://www.hotnewdeal.com/2019/04/29/290925_fryscom_up_to_75_off_Jamo_speakers_on_429_only/20%Monthly2019-04-29 18:37
http://www.hotnewdeal.com/2019/04/29/290924_Anker_10W__75W_PowerWave_Fast_Wireless_Charging_/20%Monthly2019-04-29 18:37
http://www.hotnewdeal.com/2019/04/29/290923_SkyTech_Shadow_Desktop_Ryzen_7_2700_8GB_DDR4_1T/20%Monthly2019-04-29 18:01
http://www.hotnewdeal.com/2019/04/29/290922_6_Pack_Colgate_Cavity_Protection_Toothpaste_with_F/20%Monthly2019-04-29 18:01
http://www.hotnewdeal.com/2019/04/29/290921_1TB_Xbox_One_X_4K_Gaming_Console_Fallout_76_Sunse/20%Monthly2019-04-29 18:00
http://www.hotnewdeal.com/2019/04/29/290920_3Pack_of_36oz_Go__Grow_by_Similac_Milk_Based_Tod/20%Monthly2019-04-29 17:51
http://www.hotnewdeal.com/2019/04/29/290919_Toshiba_43inch_4K_UHD_Smart_LED_TV__Fire_TV_Edit/20%Monthly2019-04-29 17:39
http://www.hotnewdeal.com/2019/04/29/290918_Funko_Pop_Marvel_Studios_10__Thor_Gold_Chrome_/20%Monthly2019-04-29 17:38
http://www.hotnewdeal.com/2019/04/29/290917_Oakley_Mens_Trillbe_X_Refresh_Sunglasses__Black_/20%Monthly2019-04-29 17:19
http://www.hotnewdeal.com/2019/04/29/290916_Price_Error_Instant_Pot_Duo_6qt_7in1_Pressur/20%Monthly2019-04-29 16:57
http://www.hotnewdeal.com/2019/04/29/290915_Nintendo_PlayStation_and_Xbox_Mortal_Kombat_11_at/20%Monthly2019-04-29 16:57
http://www.hotnewdeal.com/2019/04/29/290914_Boxedcom_20_off_100_Forever_Stamps_and_everyth/20%Monthly2019-04-29 16:57
http://www.hotnewdeal.com/2019/04/29/290913_monopricecom_discount_codes_125off_500_35/20%Monthly2019-04-29 16:47
http://www.hotnewdeal.com/2019/04/29/290912_Bose_QuietComfort_35_Series_II_Wireless_Noise_Canc/20%Monthly2019-04-29 16:30
http://www.hotnewdeal.com/2019/04/29/290911_Milwaukee_252220_M12_FUEL_3_Compact_Cut_Off_Tool/20%Monthly2019-04-29 16:30
http://www.hotnewdeal.com/2019/04/29/290909_AMC_Stubs_AList__Premiere_Members_Free_Movie_Sc/20%Monthly2019-04-29 16:07
http://www.hotnewdeal.com/2019/04/29/290908_Extra_15_Off_Buydig_Open_Box_Clearance_low_qty/20%Monthly2019-04-29 15:47
http://www.hotnewdeal.com/2019/04/29/290907_512GB_HP_EX920_M2_PCIe_30_x4_NVMe_3D_Solid_State/20%Monthly2019-04-29 15:24
http://www.hotnewdeal.com/2019/04/29/290906_ADATA_SX8200_Pro_512GB_SSD_6799_AC__FS/20%Monthly2019-04-29 15:15
http://www.hotnewdeal.com/2019/04/29/290905_Pampers_Splashers_Swim_Diapers_Disposable_Swim_Pan/20%Monthly2019-04-29 15:02
http://www.hotnewdeal.com/2019/04/29/290904_Google_Home_Hub_Smart_Display_Chalk_or_Charcoal_/20%Monthly2019-04-29 15:01
http://www.hotnewdeal.com/2019/04/29/290903_Apple__MacBook_Pro__13in_Display__i5__Flash_S/20%Monthly2019-04-29 14:46
http://www.hotnewdeal.com/2019/04/29/290902_BIC_Xtra_Mechanical_Pencils_Pack_of_24_for_80_vi/20%Monthly2019-04-29 14:32
http://www.hotnewdeal.com/2019/04/29/290901_Panasonic_Lumix_G85_kit__bundle_Cameras_640_star/20%Monthly2019-04-29 14:32
http://www.hotnewdeal.com/2019/04/29/290900_Monolith_by_Monoprice_Desktop_Balanced_Headphone_A/20%Monthly2019-04-29 14:22
http://www.hotnewdeal.com/2019/04/29/290899_Ryzen_7_1800X_17840_with_free_shipping/20%Monthly2019-04-29 14:16
http://www.hotnewdeal.com/2019/04/29/290898_Wind_Noise_Reduction_Kit_For_Tesla_Model_3_Quiet_/20%Monthly2019-04-29 14:16
http://www.hotnewdeal.com/2019/04/29/290897_Philips__Hue_White_and_Color_Ambiance_BR30_2nd_G/20%Monthly2019-04-29 14:16
http://www.hotnewdeal.com/2019/04/29/290896_2Pack_Tempered_Glass_Screen_Protector_for_Apple_i/20%Monthly2019-04-29 14:16
http://www.hotnewdeal.com/2019/04/29/290895_Eliminator_Wasp_amp_Hornet_Killer_Aerosol_2Pac/20%Monthly2019-04-29 14:02
http://www.hotnewdeal.com/2019/04/29/290894_Castrol_EDGE_0W20_Advanced_Full_Synthetic_Motor_O/20%Monthly2019-04-29 14:01
http://www.hotnewdeal.com/2019/04/29/290893_Power_Plug_Adapter__International_Travel__w4_US/20%Monthly2019-04-29 14:01
http://www.hotnewdeal.com/2019/04/29/290892_Kootek_32Piece_Cake_Decorating_Supplies_Tips_Kits/20%Monthly2019-04-29 14:01
http://www.hotnewdeal.com/2019/04/29/290891_Sony_Noise_Cancelling_Wireless_Bluetooth_Over_the_/20%Monthly2019-04-29 13:43
http://www.hotnewdeal.com/2019/04/29/290890_HiFiMan_HE5se_Planar_Magnetic_Headphones_349__fr/20%Monthly2019-04-29 13:43
http://www.hotnewdeal.com/2019/04/29/290889_Microsoft_Xbox_Gift_Card_Email_Delivery_100_GC/20%Monthly2019-04-29 13:43
http://www.hotnewdeal.com/2019/04/29/290888_Sandisk_Ultra_Fit_128GB_USB_31_Flash_Drive_20_o/20%Monthly2019-04-29 13:43
http://www.hotnewdeal.com/2019/04/29/290887_Xbox_One_Games_Hasbro_Family_Fun_Pack_Conquest_E/20%Monthly2019-04-29 13:28
http://www.hotnewdeal.com/2019/04/29/290886_998_Sweatpants__Hoodies__EXTRA_20_OFF_15_on/20%Monthly2019-04-29 13:28
http://www.hotnewdeal.com/2019/04/29/290885_90_Day_Fiance_Happily_Ever_After_Season_4_Digit/20%Monthly2019-04-29 13:28
http://www.hotnewdeal.com/2019/04/29/290884_Westone_W40_FourDriver_TrueFit_Earphones_with_MM/20%Monthly2019-04-29 13:28
http://www.hotnewdeal.com/2019/04/29/290883_Breville_Precision_Brewer_BDC450_Thermal_12Cup/20%Monthly2019-04-29 13:12
http://www.hotnewdeal.com/2019/04/29/290882_3Pack_TPLink_HS100_WiFi_Smart_Plug_2999__Fre/20%Monthly2019-04-29 13:12
http://www.hotnewdeal.com/2019/04/29/290880_Netgear_Orbi_AC2200_Whole_Home_Mesh_WiFi_System_R/20%Monthly2019-04-29 12:49
http://www.hotnewdeal.com/2019/04/29/290879_Amazon_Lightning_Deal__TCL_32S305_32Inch_720p_Ro/20%Monthly2019-04-29 12:38
http://www.hotnewdeal.com/2019/04/29/290878_Marvel_Black_Panther_Legends_Helmet/20%Monthly2019-04-29 12:29
http://www.hotnewdeal.com/2019/04/29/290877_1Year_Sony_PlayStation_Plus_Membership_Physical_/20%Monthly2019-04-29 12:19
http://www.hotnewdeal.com/2019/04/29/290876_Ryobi_P922_Tool_Lanyard_2Pack_799_or_997__Di/20%Monthly2019-04-29 11:58
http://www.hotnewdeal.com/2019/04/29/290875_Seasonic_S12III_650W_80_Bronze_Power_Supply_w_Ja/20%Monthly2019-04-29 11:58
http://www.hotnewdeal.com/2019/04/29/290874_New_Balance_Mens_FuelCore_Coast_v4_Hoodie_Running/20%Monthly2019-04-29 11:46
http://www.hotnewdeal.com/2019/04/29/290873_Thermapen_Mk4_Grey_7425__399_shipping/20%Monthly2019-04-29 11:31
http://www.hotnewdeal.com/2019/04/29/290872_Ryobi_18Volt_ONE_LithiumIon_Cordless_5Tool_Com/20%Monthly2019-04-29 11:25
http://www.hotnewdeal.com/2019/04/29/290871_Basmati_tilda_10lb_amazon_ss_clip_coupon_30_13/20%Monthly2019-04-29 11:16
http://www.hotnewdeal.com/2019/04/29/290870_Soylent_35_one_time_coupon__Amazoncom_235/20%Monthly2019-04-29 11:09
http://www.hotnewdeal.com/2019/04/29/290869_3Pack_Penn_Championship_Tennis_Balls_Reg_or_Extr/20%Monthly2019-04-29 11:09
http://www.hotnewdeal.com/2019/04/29/290868_ebay_has_3_Off_3_Purchase_YMMV/20%Monthly2019-04-29 10:53
http://www.hotnewdeal.com/2019/04/29/290866_Chrono_Trigger_Upgrade_Version_iOS_or_Android_Ap/20%Monthly2019-04-29 10:29
http://www.hotnewdeal.com/2019/04/29/290865_Persona_5_PS4_1699__Free_Shipping/20%Monthly2019-04-29 10:20
http://www.hotnewdeal.com/2019/04/29/290864_675_Bestbuy_11Inch_iPad_Pro_WiFi_64GB_all_color/20%Monthly2019-04-29 10:07
http://www.hotnewdeal.com/2019/04/29/290863_AMD_Ryzen_7_2700X_AMD50_Gold_Edition_37_GHz_43_/20%Monthly2019-04-29 09:58
http://www.hotnewdeal.com/2019/04/29/290862_64GB_LG_V30_US998_60_Unlocked_Smartphone_Silver/20%Monthly2019-04-29 09:58
http://www.hotnewdeal.com/2019/04/29/290861_Quest_Nutrition_Chocolate_Peanut_Butter_Protein_Ba/20%Monthly2019-04-29 09:26
http://www.hotnewdeal.com/2019/04/29/290860_Tuft__Needle_Mattresses_30_off_Queen_347_King/20%Monthly2019-04-29 09:25
http://www.hotnewdeal.com/2019/04/29/290859_99_Classic_Thriller_Short_Stories_Works_by_Philip/20%Monthly2019-04-29 09:16
http://www.hotnewdeal.com/2019/04/29/290858_GoPro_HERO7_Black_Waterproof_4K_Digital_Action_Cam/20%Monthly2019-04-29 09:09
http://www.hotnewdeal.com/2019/04/29/290857_SteinsGate_Elite_PS4_or_Nintendo_Switch_3999_/20%Monthly2019-04-29 08:58
http://www.hotnewdeal.com/2019/04/29/290856_5Piece_Nivea_Pamper_Time_Gift_Set_1439__Free_S/20%Monthly2019-04-29 08:43
http://www.hotnewdeal.com/2019/04/29/290855_GIGABYTE_Radeon_RX_570_4GB_Video_Card_Division_2/20%Monthly2019-04-29 08:23
http://www.hotnewdeal.com/2019/04/29/290854_Mortal_Kombat_Komplete_Edition_2011__Xbox_360_/20%Monthly2019-04-29 08:23
http://www.hotnewdeal.com/2019/04/29/290853_2TB_Intel_660p_M2_PCIe_NVMe_QLC_Solid_State_Drive/20%Monthly2019-04-29 08:15
http://www.hotnewdeal.com/2019/04/29/290852_Best_Buy_Flash_Sale_429_Up_to_400_Off_Macbook_P/20%Monthly2019-04-29 08:06
http://www.hotnewdeal.com/2019/04/29/290851_Hamilton_Beach_70730_Food_Processor__Vegetable_/20%Monthly2019-04-29 07:57
http://www.hotnewdeal.com/2019/04/29/290850_Galaxy_Watch_Active_40mm_17999__Offer_valid_4/20%Monthly2019-04-29 07:40
http://www.hotnewdeal.com/2019/04/29/290849_Target_Cartwheel_50_Off_Coupon_For_Honeysuckle_Wh/20%Monthly2019-04-29 07:31
http://www.hotnewdeal.com/2019/04/29/290848_32_LG_32GK650FB_2560x1440_WQHD_FreeSync_Gaming_L/20%Monthly2019-04-29 06:47
http://www.hotnewdeal.com/2019/04/29/290847_Xbox_One_Games_Battle_Chasers_Nightwar_or_Naruto/20%Monthly2019-04-29 06:47
http://www.hotnewdeal.com/2019/04/29/290846_Shop_Your_Way_Members_Spend_20_on_Select_Appare/20%Monthly2019-04-29 04:14
http://www.hotnewdeal.com/2019/04/29/290845_7999_Now_Was_19999_BB_Samsung__Gear_Fit2_P/20%Monthly2019-04-29 02:50
http://www.hotnewdeal.com/2019/04/29/290844_KitchenAid__KSM85PBER_TiltHead_Stand_Mixer_Red_o/20%Monthly2019-04-29 02:33
http://www.hotnewdeal.com/2019/04/29/290843_Hatchimals__CollEGGtible__Blind_Box_099_FREE_S/20%Monthly2019-04-29 02:05
http://www.hotnewdeal.com/2019/04/29/290842_ELEMENT_65_Class_4K_2160P_UHD_Roku_LED_TV_E4SW/20%Monthly2019-04-29 01:15
http://www.hotnewdeal.com/2019/04/29/290841_2Pack_Duck_Brand_HeavyDuty_Self_Adhesive_Weather/20%Monthly2019-04-29 01:15
http://www.hotnewdeal.com/2019/04/29/290840_Ring_Spotlight_Camera_with_Extra_Battery_149/20%Monthly2019-04-29 00:20
http://www.hotnewdeal.com/2019/04/29/290839_Street_Fighter_30th_Anniversary_Collection__PlayS/20%Monthly2019-04-29 00:14
http://www.hotnewdeal.com/2019/04/29/290838_VIZIO_32_51_Channel_Soundbar_System_with_Wireles/20%Monthly2019-04-29 00:03
http://www.hotnewdeal.com/2019/04/29/290837_Artificial_Potted_Plants_9_Succulent_14_Pink_C/20%Monthly2019-04-29 00:02
http://www.hotnewdeal.com/2019/04/28/290836_Dyson_23194201_V6_Trigger_Origin_Handheld_Vacuum_/20%Monthly2019-04-28 23:30
http://www.hotnewdeal.com/2019/04/28/290835_The_Big_One_15_Memory_Foam_Mattress_Topper_all_/20%Monthly2019-04-28 23:24
http://www.hotnewdeal.com/2019/04/28/290834_Frys_Samsung_UN75RU8000_1399_or_UN75RU7100_999/20%Monthly2019-04-28 23:24
http://www.hotnewdeal.com/2019/04/28/290833_Brother_PTouch_Portable_Label_Maker_PTM95_99/20%Monthly2019-04-28 23:24
http://www.hotnewdeal.com/2019/04/28/290832_MC11_Mount_ConverterLens_Adapter_Sigma_EFMount/20%Monthly2019-04-28 22:38
http://www.hotnewdeal.com/2019/04/28/290831_Tide_Purclean_PlantBased_Laundry_Detergent_Honey/20%Monthly2019-04-28 22:16
http://www.hotnewdeal.com/2019/04/28/290830_Shure_SRH145m_Portable_Collapsible_Headphones_wit/20%Monthly2019-04-28 22:16
http://www.hotnewdeal.com/2019/04/28/290829_MiracleGro_Tree_and_Shrub_Plant_Food_Spikes_Tree_/20%Monthly2019-04-28 22:04
http://www.hotnewdeal.com/2019/04/28/290828_Refurbished_Acer_156_Touch_Screen_Chromebook_M/20%Monthly2019-04-28 22:03
http://www.hotnewdeal.com/2019/04/28/290826_6Pack_of_75oz_Softsoap_Liquid_Hand_Soap_various/20%Monthly2019-04-28 21:45
http://www.hotnewdeal.com/2019/04/28/290824_Logitech_G430_Gaming_Headset_1999_InStore_Clear/20%Monthly2019-04-28 21:13
http://www.hotnewdeal.com/2019/04/28/290823_NERF_Sports_Dude_Perfect_Flying_Disc_325__Targe/20%Monthly2019-04-28 20:30
http://www.hotnewdeal.com/2019/04/28/290822_Fossil_GEN_4_and_Fossil_sport_smart_watches_199_/20%Monthly2019-04-28 20:23
http://www.hotnewdeal.com/2019/04/28/290821_Corsair_K68_Mechanical_Keyboard_Cherry_MX_Red_Back/20%Monthly2019-04-28 19:30
http://www.hotnewdeal.com/2019/04/28/290820_Levis_Warehouse_Sale_Mens_Jeans_various_20_/20%Monthly2019-04-28 19:30
http://www.hotnewdeal.com/2019/04/28/290819_Fiskars_Garden_3928611002_Powergear2_Hedge_Shears/20%Monthly2019-04-28 19:30
http://www.hotnewdeal.com/2019/04/28/290818_Free_Case_of_24ct_ShopRite_Brand_SPRING_WATER_16/20%Monthly2019-04-28 19:30
http://www.hotnewdeal.com/2019/04/28/290817_In_Store__Sony_WH1000XM3B_Headphones_29999/20%Monthly2019-04-28 19:16
http://www.hotnewdeal.com/2019/04/28/290816_Omron_blood_pressure_monitors_50_off_clearance_/20%Monthly2019-04-28 19:09
http://www.hotnewdeal.com/2019/04/28/290815_TCL_55ampquot_Class_4K_Ultra_HD_2160p_Dolby_V/20%Monthly2019-04-28 18:54
http://www.hotnewdeal.com/2019/04/28/290814_Garmin_Fenix_5x_sapphire_refurbished_36938/20%Monthly2019-04-28 18:54
http://www.hotnewdeal.com/2019/04/28/290813_Texas_Instruments_Ti84_Plus_Ce_Color_Graphing_Cal/20%Monthly2019-04-28 18:46
http://www.hotnewdeal.com/2019/04/28/290812_REDcard_Exclusive_in_Target_App_Only_10_off_one_/20%Monthly2019-04-28 18:39
http://www.hotnewdeal.com/2019/04/28/290811_Refurbished_HP_6300_Pro_SFF_PC_i53470_4GB_RAM/20%Monthly2019-04-28 18:39
http://www.hotnewdeal.com/2019/04/28/290810_Ainope_Cases_for_iPhone_Xs_Max_iPhone_XR_iPhone_/20%Monthly2019-04-28 18:13
http://www.hotnewdeal.com/2019/04/28/290809_Rocket_League_Xbox_One_Digital_Download_799/20%Monthly2019-04-28 17:32
http://www.hotnewdeal.com/2019/04/28/290808_5Pack_Handcraft_Little_Boys_Power_Rangers_Brief_/20%Monthly2019-04-28 17:01
http://www.hotnewdeal.com/2019/04/28/290807_Snickers_Twix_3_Musketeers__Milky_Way_Full_Size/20%Monthly2019-04-28 16:30
http://www.hotnewdeal.com/2019/04/28/290806_Canon_Sale_M50_w_1545mm_STM_Lens_599_M6_Body_/20%Monthly2019-04-28 16:04
http://www.hotnewdeal.com/2019/04/28/290805_The_Economist_Magazine__2699_for_25_issues__no/20%Monthly2019-04-28 16:04
http://www.hotnewdeal.com/2019/04/28/290804_N12_Stereo_Gaming_Headset_for_PS4_Xbox_One_1299/20%Monthly2019-04-28 16:04
http://www.hotnewdeal.com/2019/04/28/290803_Banana_Republic_Extra_10_OFF__50_OFF_Styles_W/20%Monthly2019-04-28 16:03
http://www.hotnewdeal.com/2019/04/28/290802_Nikon_D7500_Camera_Body_only__other_deals_799/20%Monthly2019-04-28 15:56
http://www.hotnewdeal.com/2019/04/28/290801_30Count_Box_Full_Size_Candy_Bars__Snickers_Thre/20%Monthly2019-04-28 15:45
http://www.hotnewdeal.com/2019/04/28/290800_Children_of_Dune_by_Frank_Herbert_Kindle_eBook_/20%Monthly2019-04-28 15:45
http://www.hotnewdeal.com/2019/04/28/290799_Kidde_Tamper_Resistant_PlugIn_Carbon_Monoxide_Det/20%Monthly2019-04-28 15:45
http://www.hotnewdeal.com/2019/04/28/290797_Lenovo_L27q_27_QHD_monitor_206/20%Monthly2019-04-28 14:24
http://www.hotnewdeal.com/2019/04/28/290796_Intex_24ft_X_12ft_X_52in_Ultra_XTR_Rectangular_Poo/20%Monthly2019-04-28 14:06
http://www.hotnewdeal.com/2019/04/28/290795_Microsoft_Surface_Laptop_i58GB256GBWin_10_Pro_/20%Monthly2019-04-28 13:51
http://www.hotnewdeal.com/2019/04/28/290794_Canon_Digital_SLR_Camera_Kit_EOS_Rebel_T6_with_E/20%Monthly2019-04-28 13:50
http://www.hotnewdeal.com/2019/04/28/290793_2Ct_Australian_Gold_Sunscreen_Spray_Gel_with_Ins/20%Monthly2019-04-28 13:42
http://www.hotnewdeal.com/2019/04/28/290792_The_Bourne_Ultimate_5Movie_Collection_Region_Fre/20%Monthly2019-04-28 13:32
http://www.hotnewdeal.com/2019/04/28/290791_5Pack_Carters_Girls_or_Boys_Bodysuits_780_/20%Monthly2019-04-28 13:32
http://www.hotnewdeal.com/2019/04/28/290790_Levoit_Smart_WiFi_Air_Purifier_with_True_HEPA_Filt/20%Monthly2019-04-28 13:24
http://www.hotnewdeal.com/2019/04/28/290789_Crocs_Baya_Slide_11_Baya_Flip_11_Crocband_II_/20%Monthly2019-04-28 13:13
http://www.hotnewdeal.com/2019/04/28/290788_100_Best_Buy_eGift_Card__10_Best_Buy_Savings_Co/20%Monthly2019-04-28 12:59
http://www.hotnewdeal.com/2019/04/28/290787_auth_dealer_Nikon_DSLRs_Z6_1797_Z7_2797__M/20%Monthly2019-04-28 12:58
http://www.hotnewdeal.com/2019/04/28/290786_GT_Mens_Aggressor_Pro_Mountain_Bike_29999/20%Monthly2019-04-28 12:46
http://www.hotnewdeal.com/2019/04/28/290785_TV_Season_Digital_HD_Portals_to_Hell_Season_1_/20%Monthly2019-04-28 12:36
http://www.hotnewdeal.com/2019/04/28/290784_5Quart_Castrol_Edge_High_Mileage_5W30_Advanced_F/20%Monthly2019-04-28 12:15
http://www.hotnewdeal.com/2019/04/28/290782_Insignia__8Quart_MultiFunction_Pressure_Cooker_/20%Monthly2019-04-28 12:02
http://www.hotnewdeal.com/2019/04/28/290781_RiME_PC_Digital_Download_249__Fanatical/20%Monthly2019-04-28 11:44
http://www.hotnewdeal.com/2019/04/28/290780_Aerie_Womens_Undies_10_for_25_250_each__Fre/20%Monthly2019-04-28 11:26
http://www.hotnewdeal.com/2019/04/28/290779_NewsDemon_Spring_Special_3_Year_of_Unlimited_for/20%Monthly2019-04-28 11:26
http://www.hotnewdeal.com/2019/04/28/290778_Intex_10ft_X_30in_Prism_Frame_Pool_Set_with_Filter/20%Monthly2019-04-28 11:26
http://www.hotnewdeal.com/2019/04/28/290777_SanDisk_64GB_Ultra_Dual_Drive_m30_microUSB__USB/20%Monthly2019-04-28 11:10
http://www.hotnewdeal.com/2019/04/28/290776_NETGEAR_5Port_Gigabit_Ethernet_Unmanaged_Switch_/20%Monthly2019-04-28 10:42
http://www.hotnewdeal.com/2019/04/28/290775_Walgreens_Photo_11x14_Wood_Hanger_Board_Print_/20%Monthly2019-04-28 10:42
http://www.hotnewdeal.com/2019/04/28/290774_canon_M50_2_lens_kit_refurbished_539/20%Monthly2019-04-28 10:42
http://www.hotnewdeal.com/2019/04/28/290773_Unlocked_LG_Q6_32GB_4G_LTE_GSM_Android_Phone_for_/20%Monthly2019-04-28 10:25
http://www.hotnewdeal.com/2019/04/28/290772_DEWALT_FLEXVOLT_25_Gal_60Volt_MAX_Brushless_Cor/20%Monthly2019-04-28 10:08
http://www.hotnewdeal.com/2019/04/28/290771_Garmin_Fenix_5S__Silver_with_Black_Band_for_349/20%Monthly2019-04-28 09:57
http://www.hotnewdeal.com/2019/04/28/290769_BBC_Earth_Africa_Eye_To_Eye_With_the_Unknown_Bl/20%Monthly2019-04-28 09:39
http://www.hotnewdeal.com/2019/04/28/290767_Nerf_Blasters__Accessories_Sale_Nerf_NStrike_Me/20%Monthly2019-04-28 09:24
http://www.hotnewdeal.com/2019/04/28/290766_Drip_Industrial_Clear_Glass_Pendant_Light_16_6L/20%Monthly2019-04-28 09:08
http://www.hotnewdeal.com/2019/04/28/290765_Hellboy_Sword_of_Storms__Blood__Iron_20th_Anniv/20%Monthly2019-04-28 08:55
http://www.hotnewdeal.com/2019/04/28/290764_Amazon_Echo__1st_Generation__Black_or_White__Us/20%Monthly2019-04-28 08:17
http://www.hotnewdeal.com/2019/04/28/290763_Apex_869550_Commercial_All_Rubber_Hot_and_Cold_/20%Monthly2019-04-28 06:57
http://www.hotnewdeal.com/2019/04/28/290762_LG_UBK90_4K_Bluray_Player__Logitech_Harmony_665_/20%Monthly2019-04-28 06:39
http://www.hotnewdeal.com/2019/04/28/290761_CyberPowerPC_Gamer_Master_Desktop_Ryzen_7_2700_1/20%Monthly2019-04-28 04:56
http://www.hotnewdeal.com/2019/04/28/290759_Martha_Stewart_Collection__Macys__4Pc_Canister/20%Monthly2019-04-28 02:57
http://www.hotnewdeal.com/2019/04/28/290758_Google_Clips_AI_Camera__80__Verizon_Wireless/20%Monthly2019-04-28 02:28
http://www.hotnewdeal.com/2019/04/28/290757_Akibas_Beat_PS4_999_Hellblade_Senuas_Sacri/20%Monthly2019-04-28 02:25
http://www.hotnewdeal.com/2019/04/28/290756_APC_BackUPS_BN450M_Battery_Backup_6_Outlet_450V/20%Monthly2019-04-28 01:39
http://www.hotnewdeal.com/2019/04/28/290755_Lenovo_Ideapad_S340_156_FHD_IPS_Touch_Ryzen_5/20%Monthly2019-04-28 01:08
http://www.hotnewdeal.com/2019/04/27/290754_PowerSpec_i79700KF_2080_RTX_16GB_DDR4_3200_and/20%Monthly2019-04-27 23:40
http://www.hotnewdeal.com/2019/04/27/290753_TCL_65S517_65Inch_4K_Ultra_HD_Roku_Smart_LED_TV_/20%Monthly2019-04-27 23:26
http://www.hotnewdeal.com/2019/04/27/290752_AUKEY_10W_Qi_Wireless_Charger_Stand_No_AC_Adapter/20%Monthly2019-04-27 23:26
http://www.hotnewdeal.com/2019/04/27/290751_Sedona_Cast_Iron_10_Skillet__10_Square_Grill_S/20%Monthly2019-04-27 23:26
http://www.hotnewdeal.com/2019/04/27/290750_Canon_ImageClass_MF733CDW_Color_Laser_Printer_264/20%Monthly2019-04-27 22:56
http://www.hotnewdeal.com/2019/04/27/290749_HP_15_Pavilion_Gaming_Laptop_156_FHD_i78750H_/20%Monthly2019-04-27 22:35
http://www.hotnewdeal.com/2019/04/27/290748_Omron_10_wireless_Bluetooth_blood_pressure_monitor/20%Monthly2019-04-27 21:58
http://www.hotnewdeal.com/2019/04/27/290747_CORSAIR_Vengeance_RGB_Pro_32GB_2_x_16GB_288Pin_/20%Monthly2019-04-27 21:58
http://www.hotnewdeal.com/2019/04/27/290746_128GB_Sandisk_Ultra_UHSI_microSD_Memory_Card_w_A/20%Monthly2019-04-27 21:40
http://www.hotnewdeal.com/2019/04/27/290745_Audible_Members_Black_Crow_White_Snow_by_Michael/20%Monthly2019-04-27 21:40
http://www.hotnewdeal.com/2019/04/27/290744_Amazon_Car_Stereo_receiver_XD107_1520/20%Monthly2019-04-27 21:24
http://www.hotnewdeal.com/2019/04/27/290743_2_Pack_Westcott_Titanium_Bonded_Pointed_Scissors_/20%Monthly2019-04-27 21:24
http://www.hotnewdeal.com/2019/04/27/290742_Scotch_Heavyduty_Shipping_Packing_In_Dispenser_1/20%Monthly2019-04-27 21:08
http://www.hotnewdeal.com/2019/04/27/290741_PC_Digital_Downloads_Dragon_Ball_FighterZ_1275/20%Monthly2019-04-27 20:46
http://www.hotnewdeal.com/2019/04/27/290740_Nintendo_Switch_Digital_Games_The_Way_Remastered_/20%Monthly2019-04-27 20:38
http://www.hotnewdeal.com/2019/04/27/290739_Anker_Soundcore_Liberty_Lite_50_Wireless_Earbuds/20%Monthly2019-04-27 20:38
http://www.hotnewdeal.com/2019/04/27/290738_Amcrest_UltraHD_4K_8MP_Outdoor_Bullet_POE_IP_Cam/20%Monthly2019-04-27 20:23
http://www.hotnewdeal.com/2019/04/27/290737_Epiphone_Les_Paul_Traditional_PROIII_Plus_Limited/20%Monthly2019-04-27 20:16
http://www.hotnewdeal.com/2019/04/27/290736_DELSEY_Paris_Luggage_Helium_Aero_International_Car/20%Monthly2019-04-27 20:12
http://www.hotnewdeal.com/2019/04/27/290735_Eurocopter_AS350BA_for_650/20%Monthly2019-04-27 19:56
http://www.hotnewdeal.com/2019/04/27/290734_The_Big_One_Supersoft_Plush_Throw_various_850_/20%Monthly2019-04-27 19:56
http://www.hotnewdeal.com/2019/04/27/290733_Trekking_The_National_Parks_The_Family_Board_Game/20%Monthly2019-04-27 19:25
http://www.hotnewdeal.com/2019/04/27/290732_Digital_HD_Movies_Elysium_I_Robot_The_Purge_A/20%Monthly2019-04-27 19:25
http://www.hotnewdeal.com/2019/04/27/290731_Enchanted_Kingdom_3D_Bluray__Bluray_999__A/20%Monthly2019-04-27 19:08
http://www.hotnewdeal.com/2019/04/27/290729_Apple_iPad_Latest_Model_32GB_WiFi__Space_Gray_/20%Monthly2019-04-27 18:55
http://www.hotnewdeal.com/2019/04/27/290727_DeWalt_ToughSystem_DS400_22in_XL__2497/20%Monthly2019-04-27 17:58
http://www.hotnewdeal.com/2019/04/27/290726_San_Francisco_to_London_390399_RT_Nonstop_Airfa/20%Monthly2019-04-27 17:58
http://www.hotnewdeal.com/2019/04/27/290725_NBA_2K19_Xbox_One_Digital_Code__35000_NBA_2K1/20%Monthly2019-04-27 17:53
http://www.hotnewdeal.com/2019/04/27/290724_SKYLET_42MM_44MM_38MM_40MM_Apple_Watch_Sport_Band_/20%Monthly2019-04-27 17:42
http://www.hotnewdeal.com/2019/04/27/290723_Inland_Professional_1TB_SSD_3D_NAND_M2_2280_PCIe_/20%Monthly2019-04-27 17:27
http://www.hotnewdeal.com/2019/04/27/290722_Mario_and_Luigi_Bowers_Inside_Story_3DS__2999/20%Monthly2019-04-27 17:27
http://www.hotnewdeal.com/2019/04/27/290721_The_Big_One_Gel_Memory_Foam_Side_Sleeper_Pillow_1/20%Monthly2019-04-27 17:27
http://www.hotnewdeal.com/2019/04/27/290720_4PC_Outdoor_Patio_Furniture_Set_14879_AC__FS/20%Monthly2019-04-27 17:09
http://www.hotnewdeal.com/2019/04/27/290719_COLUMBIA_Mens_Lakeview_Mid_Hiking_Boots_Sizes_8/20%Monthly2019-04-27 16:56
http://www.hotnewdeal.com/2019/04/27/290718_Womens_Shoes_Skechers_Sneakers_various_from_1/20%Monthly2019-04-27 16:19
http://www.hotnewdeal.com/2019/04/27/290717_AMD_RYZEN_7_2700X_8Core_CPU__26999_free_shipp/20%Monthly2019-04-27 16:09
http://www.hotnewdeal.com/2019/04/27/290716_Neato_Botvac_D_Series_UltraPerformance_Filter_2/20%Monthly2019-04-27 15:58
http://www.hotnewdeal.com/2019/04/27/290715_Fender_American_Professional_Jazzmaster_6String_E/20%Monthly2019-04-27 15:58
http://www.hotnewdeal.com/2019/04/27/290714_Tractor_Supply_025_baby_birdschick_clearance/20%Monthly2019-04-27 15:58
http://www.hotnewdeal.com/2019/04/27/290713_auth_dealer_Yamaha_Receivers_RXA2080_92Ch_1/20%Monthly2019-04-27 15:26
http://www.hotnewdeal.com/2019/04/27/290712_Samsung_10000_mAh_Portable_Battery_with_USBC_Cab/20%Monthly2019-04-27 14:34
http://www.hotnewdeal.com/2019/04/27/290711_Conair_2_Sided_3x_Round_Stand_Mirror_290/20%Monthly2019-04-27 14:34
http://www.hotnewdeal.com/2019/04/27/290710_Magazine_Sale_480_per_Title_Free_Shipping_and_N/20%Monthly2019-04-27 14:09
http://www.hotnewdeal.com/2019/04/27/290709_AllClad_Copper_Core_10Pc_Cookware_Set__699/20%Monthly2019-04-27 14:00
http://www.hotnewdeal.com/2019/04/27/290708_Verdana_PVC_Trim_Boards_8_L_x_075_D__325_W_/20%Monthly2019-04-27 14:00
http://www.hotnewdeal.com/2019/04/27/290707_Mens_Shoes_Skechers_Performance_GO_Vulc_2_Sneake/20%Monthly2019-04-27 13:45
http://www.hotnewdeal.com/2019/04/27/290706_Dyson_Ball_Multifloor_2_Vacuum_Refurbished_180_/20%Monthly2019-04-27 13:22
http://www.hotnewdeal.com/2019/04/27/290705_Mobil_1_5qts_Full_Synthetic_oil__filter_599_AR_/20%Monthly2019-04-27 13:12
http://www.hotnewdeal.com/2019/04/27/290704_Sushi_Striker_The_Way_Of_The_Sushido__Nintendo_S/20%Monthly2019-04-27 12:30
http://www.hotnewdeal.com/2019/04/27/290703_TCL_55S405_Roku_SmarTV__29699__Free_Shipping/20%Monthly2019-04-27 11:56
http://www.hotnewdeal.com/2019/04/27/290702_TCL__43_Class__LED__5_Series__2160p__Smart_/20%Monthly2019-04-27 11:56
http://www.hotnewdeal.com/2019/04/27/290701_20_for_AllDay_Gaming_Package_for_TWO_at_Dave_am/20%Monthly2019-04-27 11:44
http://www.hotnewdeal.com/2019/04/27/290700_Save_5_to_15_on_Costco_Vitamins_13/20%Monthly2019-04-27 11:44
http://www.hotnewdeal.com/2019/04/27/290699_Logitech_Extreme_3D_Pro_Joystick_20_AC_Newegg/20%Monthly2019-04-27 11:12
http://www.hotnewdeal.com/2019/04/27/290698_Samsung_65_Class_HDR_4K_UHD_Smart_QLED_TV_2019_QN/20%Monthly2019-04-27 10:35
http://www.hotnewdeal.com/2019/04/27/290697_55_Vizio_P55F1_PSeries_4K_UHD_HDR_Smart_LED_HDT/20%Monthly2019-04-27 10:09
http://www.hotnewdeal.com/2019/04/27/290696_Right_Guard_Total_Defense_Fresh_Blast_Clear_Gel_/20%Monthly2019-04-27 09:09
http://www.hotnewdeal.com/2019/04/27/290695_Checkered_Chef_Pizza_Cutter_Sharp_Rocker_Blade_Wit/20%Monthly2019-04-27 08:48
http://www.hotnewdeal.com/2019/04/27/290694_iTunes_Instant_Family_Digital_4K_UHD_190_at_D/20%Monthly2019-04-27 08:22
http://www.hotnewdeal.com/2019/04/27/290693_12Pack_Sprout_Organic_Toddler_Smoothie_Pouches_B/20%Monthly2019-04-27 08:12
http://www.hotnewdeal.com/2019/04/27/290692_Nintendo_Labo_Robot_Kit_Variety_Kit_and_Vehicle_K/20%Monthly2019-04-27 08:11
http://www.hotnewdeal.com/2019/04/27/290691_Dyson_AM09_Hot__Cool_Fan_Heater_Refurbished_15/20%Monthly2019-04-27 07:26
http://www.hotnewdeal.com/2019/04/27/290689_Uniden_R3Long_Range_Radar_27625__Free_Shipping/20%Monthly2019-04-27 06:42
http://www.hotnewdeal.com/2019/04/27/290688_ONKYO_TXNR686_72Channel_Network_AV_Receiver_2/20%Monthly2019-04-27 05:11
http://www.hotnewdeal.com/2019/04/27/290687_Audible_Members_Alien_III_by_William_Gibson_PreO/20%Monthly2019-04-27 04:27
http://www.hotnewdeal.com/2019/04/27/290686_Lenovo_Legion_Y740_2070_MaxQ_138599/20%Monthly2019-04-27 03:28
http://www.hotnewdeal.com/2019/04/27/290685_Kingdom_Rush_Frontiers_HD_for_iPad_Free_Reg_4/20%Monthly2019-04-27 03:12
http://www.hotnewdeal.com/2019/04/27/290684_ADATA_Ultimate_SU800_1TB_SSD_9009_512GB_4929/20%Monthly2019-04-27 03:00
http://www.hotnewdeal.com/2019/04/27/290683_Bella__Pizza_Oven__Stainless_Steel_30_BestBuy/20%Monthly2019-04-27 02:11
http://www.hotnewdeal.com/2019/04/27/290681_Dell_Inspiron_15_5000_Laptop_Ryzen_5_2500U_156/20%Monthly2019-04-27 01:28
http://www.hotnewdeal.com/2019/04/27/290680_Costco__150_off_select_2018_Macbook_Air_Models_/20%Monthly2019-04-27 01:28
http://www.hotnewdeal.com/2019/04/27/290679_Apple_Watch_Series_4__Refurbished_from_Apple/20%Monthly2019-04-27 01:11
http://www.hotnewdeal.com/2019/04/27/290678_Costco_Members_2nd_Generation_AirPods_for_13999/20%Monthly2019-04-27 01:11
http://www.hotnewdeal.com/2019/04/27/290677_15_Off_Dell_Store_on_Rakuten__15_Back_in_Rakute/20%Monthly2019-04-27 01:11
http://www.hotnewdeal.com/2019/04/26/290676_GoPro_HERO5_Black_9997_no_tax_AAFES_Military_Onl/20%Monthly2019-04-26 23:58
http://www.hotnewdeal.com/2019/04/26/290675_5x_Kirkland_Signature_Calcium_600_mg_with_Vitamin/20%Monthly2019-04-26 23:58
http://www.hotnewdeal.com/2019/04/26/290674_16GB_2x8GB_Corsair_Vengeance_RGB_Pro_DDR4_3000_/20%Monthly2019-04-26 23:41
http://www.hotnewdeal.com/2019/04/26/290673_Della_Portable_Electric_Air_Clothes_Dryer_Stand_Ra/20%Monthly2019-04-26 23:28
http://www.hotnewdeal.com/2019/04/26/290672_Samsung_QN75Q80RAF_SmartTV_2999_AC__FS/20%Monthly2019-04-26 23:28
http://www.hotnewdeal.com/2019/04/26/290671_Sears_Craftsman_10_Single_Bevel_Sliding_Compound_/20%Monthly2019-04-26 23:12
http://www.hotnewdeal.com/2019/04/26/290670_LIGHTNING_DEAL_Bausch__Lomb_Soothe_XP_Dry_Eye_Dr/20%Monthly2019-04-26 22:59
http://www.hotnewdeal.com/2019/04/26/290669_LG_55_OLED55E8PUA_SmarTV_1299_AC__FS/20%Monthly2019-04-26 22:44
http://www.hotnewdeal.com/2019/04/26/290668_Hyundai_50_Test_Drive_offer/20%Monthly2019-04-26 22:36
http://www.hotnewdeal.com/2019/04/26/290667_Google_Home_Hub_Chalk_with_Google_Home_Mini_79__/20%Monthly2019-04-26 22:35
http://www.hotnewdeal.com/2019/04/26/290666_ONKYO_TXNR787_NetworkBT_THX_Certified_Select_92_/20%Monthly2019-04-26 22:35
http://www.hotnewdeal.com/2019/04/26/290665_GSKILL_TridentZ_RGB_Series_32GB_2_x_16GB_288Pi/20%Monthly2019-04-26 22:27
http://www.hotnewdeal.com/2019/04/26/290664_Black_Magic_Wheel_Cleaner_or_Protectant__Free_Aft/20%Monthly2019-04-26 21:41
http://www.hotnewdeal.com/2019/04/26/290663_HP_EX920_M2_1TB_PCIe_30_x4_NVMe_3D_TLC_NAND_Inte/20%Monthly2019-04-26 21:25
http://www.hotnewdeal.com/2019/04/26/290662_Night_Owl_Video_Door_bell__45__Walmart_YMMV/20%Monthly2019-04-26 21:09
http://www.hotnewdeal.com/2019/04/26/290660_20_Off_DC_Universe_Annual_Subscription_With_Code_/20%Monthly2019-04-26 20:32
http://www.hotnewdeal.com/2019/04/26/290658_M12_LithiumIon_Cordless_1400_Lumen_ROCKET_LED_Sta/20%Monthly2019-04-26 20:24
http://www.hotnewdeal.com/2019/04/26/290657_Lenovo_L24q_238inch_QHD_Monitor_14399/20%Monthly2019-04-26 20:24
http://www.hotnewdeal.com/2019/04/26/290656_Star_Wars_12_Figures_6pack_1997_clearance__/20%Monthly2019-04-26 20:08
http://www.hotnewdeal.com/2019/04/26/290655_Sony_WH1000XM3_Wireless_Noise_Canceling_Headphone/20%Monthly2019-04-26 20:07
http://www.hotnewdeal.com/2019/04/26/290654_Milwaukee_M12_Fuel_Brushless_Hammer_Drill__Impact/20%Monthly2019-04-26 19:56
http://www.hotnewdeal.com/2019/04/26/290653_RAIJINTEK_Morpheus_Vega_Cooler_7499/20%Monthly2019-04-26 19:39
http://www.hotnewdeal.com/2019/04/26/290652_York_Peppermint_Patties_Dark_Chocolate_Covered_Min/20%Monthly2019-04-26 19:24
http://www.hotnewdeal.com/2019/04/26/290650_Little_Giant_MegaMax_17_Ladder_w_Air_Deck__Costc/20%Monthly2019-04-26 19:24
http://www.hotnewdeal.com/2019/04/26/290649_Two_pounds_of_ground_beef_5__free_ship_from_Crow/20%Monthly2019-04-26 18:56
http://www.hotnewdeal.com/2019/04/26/290648_4Pack_66_Beam_Electronics_Nylon_Braided_USB_Typ/20%Monthly2019-04-26 18:56
http://www.hotnewdeal.com/2019/04/26/290647_Adata_XPG_Gammix_D10_16GB_BlackSilver_6969_X/20%Monthly2019-04-26 18:46
http://www.hotnewdeal.com/2019/04/26/290646_Breville_Smart_Oven_Air_Convection_Toaster_Oven_/20%Monthly2019-04-26 18:32
http://www.hotnewdeal.com/2019/04/26/290645_New_York_to_Phuket_Thailand_Starting_From_441_And/20%Monthly2019-04-26 18:07
http://www.hotnewdeal.com/2019/04/26/290644_Lowes_Spring_Savings_Event__42719__Save_55/20%Monthly2019-04-26 17:56
http://www.hotnewdeal.com/2019/04/26/290643_The_Incredible_Hulk_1978_Season_14_Digital_SD/20%Monthly2019-04-26 17:09
http://www.hotnewdeal.com/2019/04/26/290642_Samsung_MicroSDXC_EVO_Plus_256GB_EDUemployee_acc/20%Monthly2019-04-26 17:00
http://www.hotnewdeal.com/2019/04/26/290641_AMEX_Offer__Microsoft_Stores_250_Statement_credi/20%Monthly2019-04-26 16:55
http://www.hotnewdeal.com/2019/04/26/290640_SkyTech_Legacy_Mini_Ryzen_7_1700_16GB_DDR4_500G/20%Monthly2019-04-26 16:46
http://www.hotnewdeal.com/2019/04/26/290639_Kwikset_Juno_Entry_Knob_with_SmartKey_in_Satin_Nic/20%Monthly2019-04-26 16:31
http://www.hotnewdeal.com/2019/04/26/290638_QuikTrip__1_QT_Kitchens_Pretzel_for_National_Pre/20%Monthly2019-04-26 16:23
http://www.hotnewdeal.com/2019/04/26/290636_JCO_Mini_Cube_Intelligent_180_Degree_Panoramic_Cam/20%Monthly2019-04-26 16:17
http://www.hotnewdeal.com/2019/04/26/290634_Philips_Hue_light_bulbs_starter_kit_with_hub_20_o/20%Monthly2019-04-26 15:40
http://www.hotnewdeal.com/2019/04/26/290633_8Bitdo_SF30_Pro_Wireless_Bluetooth_Controller_with/20%Monthly2019-04-26 15:09
http://www.hotnewdeal.com/2019/04/26/290632_AUKEY_7in1_USB_C_Hub_w_100W_Power_Delivery_25_/20%Monthly2019-04-26 14:41
http://www.hotnewdeal.com/2019/04/26/290631_Puma_Ace_Backpack_12_RSQ_Mens_London_Rip__Repa/20%Monthly2019-04-26 14:35
http://www.hotnewdeal.com/2019/04/26/290630_Nestle_Coffeemate_Coffee_Creamer_Original_11oz_/20%Monthly2019-04-26 14:27
http://www.hotnewdeal.com/2019/04/26/290629_BenQ_GW2765HT_27_1440p_WQHD_IPS_LED_Monitor__Ref/20%Monthly2019-04-26 14:18
http://www.hotnewdeal.com/2019/04/26/290627_Chicago_to_Tampa_or_Vice_Versa_97_RT_Nonstop_on_U/20%Monthly2019-04-26 13:44
http://www.hotnewdeal.com/2019/04/26/290626_Mortal_Kombat_11_PlayStation_4_Xbox_One_or_Switch/20%Monthly2019-04-26 13:36
http://www.hotnewdeal.com/2019/04/26/290625_Monk_The_Complete_Series_Digital_HD_2499__App/20%Monthly2019-04-26 13:28
http://www.hotnewdeal.com/2019/04/26/290624_FisherPrice_Thomas__Friends_Wood_Rosies_Prize_/20%Monthly2019-04-26 13:10
http://www.hotnewdeal.com/2019/04/26/290623_Hyperion_Hyperion_Cantos_Book_1__Kindle_ebook_/20%Monthly2019-04-26 13:10
http://www.hotnewdeal.com/2019/04/26/290622_Lag_Tramontane_70_Dreadnought_Cutaway_or_Solid_Ele/20%Monthly2019-04-26 13:10
http://www.hotnewdeal.com/2019/04/26/290621_Microsoft_xbox_one_wireless_controller_sport_red_s/20%Monthly2019-04-26 12:51
http://www.hotnewdeal.com/2019/04/26/290620_Nespresso_VertuoPlus_Coffee_and_Espresso_Machine_w/20%Monthly2019-04-26 12:42
http://www.hotnewdeal.com/2019/04/26/290619_When_Rivers_Were_Trails__Native_Americanthemed_O/20%Monthly2019-04-26 12:41
http://www.hotnewdeal.com/2019/04/26/290618_Apple_iPad_Pro_129_inch_1st_Generation_2015_T/20%Monthly2019-04-26 12:35
http://www.hotnewdeal.com/2019/04/26/290617_XPG_SX8200_Pro_M2_2280_1TB_PCIe_NVMe_Gen3x4_Inter/20%Monthly2019-04-26 12:12
http://www.hotnewdeal.com/2019/04/26/290616_LG_34_2560x1080_UltraWide_Monitor_220/20%Monthly2019-04-26 12:01
http://www.hotnewdeal.com/2019/04/26/290615_WD_Elements_6TB_Desktop_Hard_Drive_9999_after_PC/20%Monthly2019-04-26 12:00
http://www.hotnewdeal.com/2019/04/26/290614_Cici_Pizza_all_you_can_eat_for_399_with_purchase_/20%Monthly2019-04-26 12:00
http://www.hotnewdeal.com/2019/04/26/290613_Intex_Donut_Inflatable_Tube_42_X_39_901__MOR/20%Monthly2019-04-26 11:28
http://www.hotnewdeal.com/2019/04/26/290612_Microsoft_Rewards_April_Punch_Card_Challege_Opera/20%Monthly2019-04-26 11:28
http://www.hotnewdeal.com/2019/04/26/290611_Canon_EF_50mm_f18_STM_Lens_7368/20%Monthly2019-04-26 11:28
http://www.hotnewdeal.com/2019/04/26/290610_Patio_Wicker_Furniture_Sets_6pc_Rattan_Sofa_Conve/20%Monthly2019-04-26 11:13
http://www.hotnewdeal.com/2019/04/26/290609_SanDisk_SSD_Plus_1TB_SATA_III_60_GBs_25_Intern/20%Monthly2019-04-26 11:13
http://www.hotnewdeal.com/2019/04/26/290608_Sun_Joe_24V_Cordless_Lawn_Care_System_GTS4002C_Wit/20%Monthly2019-04-26 10:54
http://www.hotnewdeal.com/2019/04/26/290607_Macys_friends_and_family_30_off_almost_all_cloth/20%Monthly2019-04-26 10:54
http://www.hotnewdeal.com/2019/04/26/290606_Dark_Souls_Remastered__Nintendo_Switch_eShop__2/20%Monthly2019-04-26 10:54
http://www.hotnewdeal.com/2019/04/26/290605_16GB_Crucial_Ballistix_Sport_LT__AT_DDR4_3200_81/20%Monthly2019-04-26 10:54
http://www.hotnewdeal.com/2019/04/26/290604_NEXX_Garage_NXG100b_Smart_WiFi_Remotely_Control_E/20%Monthly2019-04-26 10:36
http://www.hotnewdeal.com/2019/04/26/290602_GSKILL_Ripjaws_Series_16GB_DDR4_SODIMM_DDR4_2400/20%Monthly2019-04-26 10:03
http://www.hotnewdeal.com/2019/04/26/290601_Monoprice_Strata_Home_Sous_Vide_Water_Oven_w_Rac/20%Monthly2019-04-26 09:45
http://www.hotnewdeal.com/2019/04/26/290600_Fitbit_Flyer_Headphones_reg_12995_now_4995_in_/20%Monthly2019-04-26 09:22
http://www.hotnewdeal.com/2019/04/26/290599_Auntie_Annes_Coupon_Free_Original_or_Cinnamon_Su/20%Monthly2019-04-26 09:00
http://www.hotnewdeal.com/2019/04/26/290598_Cheap_Monoprice_CablesCable_Ties_TypeCMicro_2/20%Monthly2019-04-26 08:16
http://www.hotnewdeal.com/2019/04/26/290597_Frys_Email_Exclusive_CyberPower_1325VA_810W_Simu/20%Monthly2019-04-26 08:16
http://www.hotnewdeal.com/2019/04/26/290596_55_TCL_55R617_4K_UHD_HDR_Roku_Smart_LED_HDTV_455/20%Monthly2019-04-26 08:04
http://www.hotnewdeal.com/2019/04/26/290595_Amazon_Digital_HD_Rental_Green_Book_Creed_II_Dr/20%Monthly2019-04-26 07:12
http://www.hotnewdeal.com/2019/04/26/290594_Bose_SoundSport_InEar_Headphones__Charcoal__45/20%Monthly2019-04-26 06:06
http://www.hotnewdeal.com/2019/04/26/290593_Razer_Ornata_Chroma_keyboard_49_Walmart_BM/20%Monthly2019-04-26 03:55
http://www.hotnewdeal.com/2019/04/26/290592_ORIA_Precision_Screwdriver_Set_86in1_Magnetic_R/20%Monthly2019-04-26 03:05
http://www.hotnewdeal.com/2019/04/26/290591_75_TCL_75R615_6_Series_4K_UHD_HDR_Roku_Smart_LED_/20%Monthly2019-04-26 02:18
http://www.hotnewdeal.com/2019/04/26/290590_ABS_Battlebox_Essential_Focus_Gaming_Desktop_PC_NV/20%Monthly2019-04-26 02:06
http://www.hotnewdeal.com/2019/04/26/290589_PSA__Sinemiacom_shutting_down/20%Monthly2019-04-26 01:32
http://www.hotnewdeal.com/2019/04/26/290588_Digital_HD4K_UHD_Movies_District_9_Elysium_Loo/20%Monthly2019-04-26 01:16
http://www.hotnewdeal.com/2019/04/26/290587_2_pack_dual_outlet_smart_plugs_1299__Amazon_pri/20%Monthly2019-04-26 01:16
http://www.hotnewdeal.com/2019/04/25/290586_30_off_Any_T_Series_ThinkPad_Laptop_Including_New/20%Monthly2019-04-25 23:48
http://www.hotnewdeal.com/2019/04/25/290585_CBS_All_Access_One_Month_Free_Trial_works_for_rea/20%Monthly2019-04-25 23:48
http://www.hotnewdeal.com/2019/04/25/290584_Kelloggs_Breakfast_Cereal_Assortment_Pack_Frost/20%Monthly2019-04-25 23:31
http://www.hotnewdeal.com/2019/04/25/290583_iTunes_Bumblebee_Digital_4K_UHD_290__Digital/20%Monthly2019-04-25 23:08
http://www.hotnewdeal.com/2019/04/25/290582_Dewalt_20V_Oscillating_MultiTool_with_2_Free_4_A/20%Monthly2019-04-25 23:08
http://www.hotnewdeal.com/2019/04/25/290581_New_York_to_Venice_Italy_345355_RT_Airfares_on_/20%Monthly2019-04-25 23:08
http://www.hotnewdeal.com/2019/04/25/290580_Dell_XPS_13_Laptop_9380_i58265U_256GB_SSD_8GB_/20%Monthly2019-04-25 22:57
http://www.hotnewdeal.com/2019/04/25/290579_Golden_Week_Sale_PS4_Digital_Games_Gravity_Rush_/20%Monthly2019-04-25 22:35
http://www.hotnewdeal.com/2019/04/25/290578_ASUS_Zenfone_5Z_100_Off_399/20%Monthly2019-04-25 22:34
http://www.hotnewdeal.com/2019/04/25/290577_Lenovo_156_Laptop_Backpack_B210_9__Lenovo_156_/20%Monthly2019-04-25 22:13
http://www.hotnewdeal.com/2019/04/25/290576_JBU_By_Jambu_Wildflower_Mary_Jane_Flats_5_Colors/20%Monthly2019-04-25 21:47
http://www.hotnewdeal.com/2019/04/25/290574_Target_RedCard_Holders_65_TCL_65S425_4K_UHD_HDR_/20%Monthly2019-04-25 21:40
http://www.hotnewdeal.com/2019/04/25/290573_55_Samsung_Curved_4K_UHD_HDR_Smart_LED_HDTV_UN55N/20%Monthly2019-04-25 21:32
http://www.hotnewdeal.com/2019/04/25/290572_Cigar_Page_90_Rated_Cigar__Lighter_Combo_10_FS/20%Monthly2019-04-25 21:32
http://www.hotnewdeal.com/2019/04/25/290571_Uniden_R1_DSP_Extreme_Long_Range_360Degree_Radar/20%Monthly2019-04-25 21:25
http://www.hotnewdeal.com/2019/04/25/290570_Kenwood_Excelon_DNX995S_68_HD_Screen_Navigation/20%Monthly2019-04-25 21:16
http://www.hotnewdeal.com/2019/04/25/290568_Keurig__K200_SingleServe_KCup_Pod_Coffee_Maker_/20%Monthly2019-04-25 21:15
http://www.hotnewdeal.com/2019/04/25/290567_YMMV_Ecobee_4_Special_sale_50_Off__instant_50_/20%Monthly2019-04-25 20:58
http://www.hotnewdeal.com/2019/04/25/290566_Pizza_Hut__50_off_menu_priced_pizzas_Ends_428_/20%Monthly2019-04-25 20:29
http://www.hotnewdeal.com/2019/04/25/290565_AMC_Theaters__5_popcorn__drink_cameo_size_combo/20%Monthly2019-04-25 20:11
http://www.hotnewdeal.com/2019/04/25/290564_Audible_Members_The_Mystery_of_Alice_by_Lee_Bacon/20%Monthly2019-04-25 20:05
http://www.hotnewdeal.com/2019/04/25/290563_Columbia_Coupon_EXS_Jackets_Mens_Garfield_Lane_/20%Monthly2019-04-25 20:05
http://www.hotnewdeal.com/2019/04/25/290561_LEGO_Classic_Green_Baseplate_569_Walmart__Amazo/20%Monthly2019-04-25 19:46
http://www.hotnewdeal.com/2019/04/25/290560_Power_Bank_10000mAh_Dual_output__Flashlight_Qui/20%Monthly2019-04-25 19:32
http://www.hotnewdeal.com/2019/04/25/290559_Apple_iPad_Pro_105_256GB_WiFi_Tablet_2017_Model/20%Monthly2019-04-25 19:32
http://www.hotnewdeal.com/2019/04/25/290558_Free_Del_Taco__beyond_Meatless_Taco_download_app_/20%Monthly2019-04-25 19:32
http://www.hotnewdeal.com/2019/04/25/290557_SkyTech_Blaze_II_Desktop_Ryzen_5_2600_8GB_DDR4_/20%Monthly2019-04-25 19:17
http://www.hotnewdeal.com/2019/04/25/290556_Costco_30_off_A_Good_Hair_Day_of_Seoul__Best_of_/20%Monthly2019-04-25 19:17
http://www.hotnewdeal.com/2019/04/25/290555_Beats_by_Dre_Powerbeats_3_Wireless_Bluetooth_Refu/20%Monthly2019-04-25 19:17
http://www.hotnewdeal.com/2019/04/25/290554_Plush_Soft_Warm_Sherpa_Throw_Blanket_1536/20%Monthly2019-04-25 18:54
http://www.hotnewdeal.com/2019/04/25/290553_Stranger_Things_Season_2_Target_Exclusive_BluRay/20%Monthly2019-04-25 18:45
http://www.hotnewdeal.com/2019/04/25/290552_Tramontina_Cookware_at_Home_Depot_Gourmet_4_Qt_Ca/20%Monthly2019-04-25 18:35
http://www.hotnewdeal.com/2019/04/25/290551_Nintendo_Switch_Digital_Download_Rocket_League_1/20%Monthly2019-04-25 18:18
http://www.hotnewdeal.com/2019/04/25/290550_Nestle_Chocolate_Assorted_Minis_Bag_40Ounce_63/20%Monthly2019-04-25 18:09
http://www.hotnewdeal.com/2019/04/25/290549_Amazon__Funko_Pop_Marvel_Marvel_Studios_10__Iro/20%Monthly2019-04-25 18:09
http://www.hotnewdeal.com/2019/04/25/290548_Play_Day_Bubble_Leaf_Blower_1088__Free_Store_Pi/20%Monthly2019-04-25 18:09
http://www.hotnewdeal.com/2019/04/25/290547_RAVPower_USB_C_20100_Portable_Charger_with_QC_30_/20%Monthly2019-04-25 18:04
http://www.hotnewdeal.com/2019/04/25/290546_manufacturer_defects_eLuxurySupply_Bamboo_Mattre/20%Monthly2019-04-25 17:46
http://www.hotnewdeal.com/2019/04/25/290541_Seagate_Backup_Plus_5TB_USB_30_Portable_External_/20%Monthly2019-04-25 16:38
http://www.hotnewdeal.com/2019/04/25/290540_Google_Home_Hub_7_Touchscreen_Smart_Display_Perso/20%Monthly2019-04-25 16:19
http://www.hotnewdeal.com/2019/04/25/290539_refurb_Dell_XPS_9370_Laptop_i78550U_16GB_RAM_/20%Monthly2019-04-25 16:18
http://www.hotnewdeal.com/2019/04/25/290538_2x_Sylvania_Lightify_Color_LED_Recessed_Can_Light_/20%Monthly2019-04-25 16:09
http://www.hotnewdeal.com/2019/04/25/290537_Xbox_Live_Gold_12_Month_Membership_Digital_Code/20%Monthly2019-04-25 15:33
http://www.hotnewdeal.com/2019/04/25/290536_Amazon_AllClad_sale_D3_Stainless_Steel_Frying_Pa/20%Monthly2019-04-25 15:09
http://www.hotnewdeal.com/2019/04/25/290535_Amazon_SNICKERS_MMS_3_MUSKETEERS__TWIX_Full_S/20%Monthly2019-04-25 14:57
http://www.hotnewdeal.com/2019/04/25/290534_10_off_any_Amazon_Treasure_Truck_Purchase_no_min/20%Monthly2019-04-25 14:57
http://www.hotnewdeal.com/2019/04/25/290533_Huawei_MateBook_X_Pro_129999__FS__246_Back_i/20%Monthly2019-04-25 14:57
http://www.hotnewdeal.com/2019/04/25/290532_ASUS_AREZ_Expedition_Radeon_RX_570_8GB_Video_Card_/20%Monthly2019-04-25 14:47
http://www.hotnewdeal.com/2019/04/25/290531_Samsung_21_Soundbar_with_320W_Wireless_Sub__Blac/20%Monthly2019-04-25 14:41
http://www.hotnewdeal.com/2019/04/25/290530_HomeComplete_12_in_PreSeasoned_Cast_Iron_Skille/20%Monthly2019-04-25 14:40
http://www.hotnewdeal.com/2019/04/25/290529_12_Brooks_Brothers_dress_or_sports_shirt_39700_a/20%Monthly2019-04-25 14:40
http://www.hotnewdeal.com/2019/04/25/290528_The_History_Book_Big_Ideas_Simply_Explained_Kind/20%Monthly2019-04-25 14:25
http://www.hotnewdeal.com/2019/04/25/290527_RCA_50_Class_4K_Ultra_HD_2160P_LED_TV_RLDED509/20%Monthly2019-04-25 14:25
http://www.hotnewdeal.com/2019/04/25/290526_The_Legend_of_Zelda_Breath_of_the_Wild_Wii_U_32/20%Monthly2019-04-25 14:16
http://www.hotnewdeal.com/2019/04/25/290525_Planet_Earth_SixDisc_Special_Edition_Gift_Set_B/20%Monthly2019-04-25 14:07
http://www.hotnewdeal.com/2019/04/25/290524_Frontier_Airlines__Penny_Plus_15_Tax_OneWay_Air/20%Monthly2019-04-25 14:07
http://www.hotnewdeal.com/2019/04/25/290522_2Pack_Hanes_Mens_ComfortSoft_Boxer_Briefs_298_/20%Monthly2019-04-25 13:49
http://www.hotnewdeal.com/2019/04/25/290521_Columbia_Mens_Elm_Grove_Moc_40_Womens_Maragal/20%Monthly2019-04-25 13:49
http://www.hotnewdeal.com/2019/04/25/290520_Mountain_Hardwear_Juggernaut_45_98__Free_Shippin/20%Monthly2019-04-25 13:48
http://www.hotnewdeal.com/2019/04/25/290519_128GB_Samsung_Pro_Endurance_U1_microSDXC_Memory_Ca/20%Monthly2019-04-25 13:25
http://www.hotnewdeal.com/2019/04/25/290518_MODERNIST_CottonBlend_Glen_Plaid_Sheet_Set_King_/20%Monthly2019-04-25 13:25
http://www.hotnewdeal.com/2019/04/25/290517_3X_90degree_Apple_MFi_Certified_Lightning_to_USB_/20%Monthly2019-04-25 13:09
http://www.hotnewdeal.com/2019/04/25/290516_AOC_G2260VWQ6_215_gaming_monitor_8999_Full_HD/20%Monthly2019-04-25 12:52
http://www.hotnewdeal.com/2019/04/25/290515_Swimline_Basketball_Hoop_Giant_Shootball_Inflatabl/20%Monthly2019-04-25 12:52
http://www.hotnewdeal.com/2019/04/25/290514_Tenda_Whole_Home_Mesh_WiFi_System__Dual_Band_Giga/20%Monthly2019-04-25 12:44
http://www.hotnewdeal.com/2019/04/25/290513_4x6_Custom_Photo_Magnet_199_Shipped/20%Monthly2019-04-25 12:37
http://www.hotnewdeal.com/2019/04/25/290512_Anolon_Advanced_HardAnodized_3qt_Covered_Strain/20%Monthly2019-04-25 12:37
http://www.hotnewdeal.com/2019/04/25/290511_Target_REDcard_Exclusive_Extra_5_off_On_Top_of_/20%Monthly2019-04-25 12:37
http://www.hotnewdeal.com/2019/04/25/290510_Red_Dead_Redemption_2_and_Microsoft_Xbox_One_Sport/20%Monthly2019-04-25 12:37
http://www.hotnewdeal.com/2019/04/25/290509_Embark_Dog_DNA_Test_Kit__Breed__Genetic_Ancestry/20%Monthly2019-04-25 12:07
http://www.hotnewdeal.com/2019/04/25/290508_Red_Dead_Redemption_2_XBO__PS4_3799__Walmart/20%Monthly2019-04-25 11:49
http://www.hotnewdeal.com/2019/04/25/290507_StickerMule_10Count_Custom_3x3_Die_Cut_Stickers/20%Monthly2019-04-25 11:41
http://www.hotnewdeal.com/2019/04/25/290506_MSI_GeForce_RTX_2070_DirectX_12_RTX_2070_ARMOR_8G_/20%Monthly2019-04-25 11:35
http://www.hotnewdeal.com/2019/04/25/290505_Save_130__LG__34WK500P_34_IPS_LED_UltraWide_F/20%Monthly2019-04-25 11:35
http://www.hotnewdeal.com/2019/04/25/290504_Krispy_Kreme_Donuts_Stores_Any_Two_Dozen_Krispy_K/20%Monthly2019-04-25 11:35
http://www.hotnewdeal.com/2019/04/25/290503_49_Dell_U4919DW_5120x1440_Curved_Monitor_109011/20%Monthly2019-04-25 11:26
http://www.hotnewdeal.com/2019/04/25/290502_Amazon_More_Chocolate_Lindt_LINDOR_Truffles_60_C/20%Monthly2019-04-25 11:18
http://www.hotnewdeal.com/2019/04/25/290501_BestBuy__FREE_Mint_Mobile_3month_Prepaid_Sim_Kit/20%Monthly2019-04-25 11:18
http://www.hotnewdeal.com/2019/04/25/290500_18Count_Full_Size_Bars_Snickers_Twix_3_Musketee/20%Monthly2019-04-25 10:59
http://www.hotnewdeal.com/2019/04/25/290499_30Count_Clorox_ToiletWand_Disposable_Toilet_Clean/20%Monthly2019-04-25 10:58
http://www.hotnewdeal.com/2019/04/25/290498_DVD_Ripper_Platinum_891_for_PC_and_Mac_for_free/20%Monthly2019-04-25 10:58
http://www.hotnewdeal.com/2019/04/25/290497_Kershaw_Leek_Pocket_Knife_Sale_31_and_Up__Amazon/20%Monthly2019-04-25 10:58
http://www.hotnewdeal.com/2019/04/25/290496_Roku_Premiere_4K_Ultra_HD_streaming_player_A4C_3/20%Monthly2019-04-25 10:34
http://www.hotnewdeal.com/2019/04/25/290495_Milwaukee_M18_Radius_LED_Compact_Site_Light_with_F/20%Monthly2019-04-25 10:34
http://www.hotnewdeal.com/2019/04/25/290494_6Pack_PUMA_Mens_Socks_grey_or_black_for_499_/20%Monthly2019-04-25 10:12
http://www.hotnewdeal.com/2019/04/25/290493_HP_EX920_1TB_NVMe_SSD_135_Newegg/20%Monthly2019-04-25 10:05
http://www.hotnewdeal.com/2019/04/25/290491_YMMV_Fiery_Snickers_Candy_Bar_Walmart_025/20%Monthly2019-04-25 09:56
http://www.hotnewdeal.com/2019/04/25/290490_Roku_Ultra_4K_Streaming_Media_Player_with_JBL_Head/20%Monthly2019-04-25 08:45
http://www.hotnewdeal.com/2019/04/25/290489_Bitdefender_Family_Pack_2019__Unlimited_Device__/20%Monthly2019-04-25 08:45
http://www.hotnewdeal.com/2019/04/25/290487_Forever21_5_off_5_with_free_store_pickup/20%Monthly2019-04-25 08:07
http://www.hotnewdeal.com/2019/04/25/290486_ESET_Internet_Security_2019__3_PCs_Product_Key_C/20%Monthly2019-04-25 08:07
http://www.hotnewdeal.com/2019/04/25/290485_Bissell_PowerLifter_PowerBrush_Upright_Carpet_Clea/20%Monthly2019-04-25 08:07
http://www.hotnewdeal.com/2019/04/25/290484_The_Jetsons_Complete_Series_SD_Digital_5__Goog/20%Monthly2019-04-25 07:42
http://www.hotnewdeal.com/2019/04/25/290483_VTech_Care_for_Me_Learning_Carrier_Features_100_/20%Monthly2019-04-25 07:42
http://www.hotnewdeal.com/2019/04/25/290482_YMMV_SAMSUNG_65ampquot_Class_4K_2160P_QN65Q6F/20%Monthly2019-04-25 04:29
http://www.hotnewdeal.com/2019/04/25/290481_Philips_Hue_White_and_Color_Ambiance_BR30_Single_B/20%Monthly2019-04-25 03:42
http://www.hotnewdeal.com/2019/04/25/290480_40_off_Adoric_Standard_Size_Pillows_Pillows_for_/20%Monthly2019-04-25 02:42
http://www.hotnewdeal.com/2019/04/25/290479_Infinity_SUB_R10_Reference_Series_10_200W_Powered/20%Monthly2019-04-25 02:00
http://www.hotnewdeal.com/2019/04/25/290477_May_5_59_3night_Princess_Cruise_from_LA_to_Vanc/20%Monthly2019-04-25 01:30
http://www.hotnewdeal.com/2019/04/25/290476_Apple_AirPods_with_Charging_Case_Latest_Model_1/20%Monthly2019-04-25 01:12
http://www.hotnewdeal.com/2019/04/25/290475_Dyson_Ball_Complete_Vacuum_with_Extra_Tools_269_/20%Monthly2019-04-25 01:12
http://www.hotnewdeal.com/2019/04/25/290474_Similac_ProSensitive_NonGMO_Infant_Formula_with_/20%Monthly2019-04-25 01:12
http://www.hotnewdeal.com/2019/04/25/290473_JBL__GX_Series_12_SingleVoiceCoil_4Ohm_Subwoo/20%Monthly2019-04-25 00:20
http://www.hotnewdeal.com/2019/04/24/290472_48Count_Kelloggs_Cereal_SingleServe_Boxes_Vari/20%Monthly2019-04-24 23:59
http://www.hotnewdeal.com/2019/04/24/290471_Walmart__GeorgiaPacific_Standard_Copy_Paper_85/20%Monthly2019-04-24 23:42
http://www.hotnewdeal.com/2019/04/24/290470_Seattle_to_Ho_Chi_Minh_City_Vietnam_593628_RT_A/20%Monthly2019-04-24 23:42
http://www.hotnewdeal.com/2019/04/24/290469_65_Damian_Lillard_Dame_50_Mens_Basketball_Shoe_/20%Monthly2019-04-24 23:27
http://www.hotnewdeal.com/2019/04/24/290468_BenQ_Refurb_Monitors__Projectors_24_GW2480_88/20%Monthly2019-04-24 23:27
http://www.hotnewdeal.com/2019/04/24/290467_Dell__Inspiron_2in1_156_4K_Ultra_HD_TouchScr/20%Monthly2019-04-24 23:27
http://www.hotnewdeal.com/2019/04/24/290466_Anker_PowerLine_II_USB_C_to_Lightning_Cable_3ft_A/20%Monthly2019-04-24 23:26
http://www.hotnewdeal.com/2019/04/24/290465_ZOTAC_GeForce_GTX_1080_Blower_Refurbished_3199/20%Monthly2019-04-24 23:11
http://www.hotnewdeal.com/2019/04/24/290464_Community_The_Complete_Series_BluRay_3994/20%Monthly2019-04-24 23:10
http://www.hotnewdeal.com/2019/04/24/290463_James_Bond_Complete_23Film_Collection_Region_Fre/20%Monthly2019-04-24 22:59
http://www.hotnewdeal.com/2019/04/24/290462_Monopoly_Gamer_and_Monopoly_Gamer_Mario_Kart_9_Ea/20%Monthly2019-04-24 22:52
http://www.hotnewdeal.com/2019/04/24/290460_Bitdefender_Total_Security_2019__2_Year5PCs__Do/20%Monthly2019-04-24 22:28
http://www.hotnewdeal.com/2019/04/24/290459_Uniden_DFR9_Super_Long_Range_RadarLaser_Detection/20%Monthly2019-04-24 22:28
http://www.hotnewdeal.com/2019/04/24/290458_CharBroil_Universal_4_Hose_Adapter_5__SH_Walm/20%Monthly2019-04-24 22:19
http://www.hotnewdeal.com/2019/04/24/290457_Audible_current_sub__Evil_Eye_by_Madhuri_Shekar/20%Monthly2019-04-24 22:19
http://www.hotnewdeal.com/2019/04/24/290456_VIZIO__55ampquot_Class__LED__MSeries__2160/20%Monthly2019-04-24 21:26
http://www.hotnewdeal.com/2019/04/24/290455_All_new_Asus_ROG_Zephyrus_G_Ultra_Thin_gaming_lapt/20%Monthly2019-04-24 21:10
http://www.hotnewdeal.com/2019/04/24/290454_Valid_0426_to_0428__Select_Little_Caesars_Locat/20%Monthly2019-04-24 21:10
http://www.hotnewdeal.com/2019/04/24/290453_Starbucks_you_can_earn_150_Bonus_Stars_when_you_re/20%Monthly2019-04-24 20:59
http://www.hotnewdeal.com/2019/04/24/290452_Vizio_D43F1_4K_HDR_TV_19900__Walmart_BM_YMMV/20%Monthly2019-04-24 20:44
http://www.hotnewdeal.com/2019/04/24/290451_EVGA_GeForce_RTX_2060_SC_GAMING_06GP42062KR_6/20%Monthly2019-04-24 20:36
http://www.hotnewdeal.com/2019/04/24/290450_24Pack_8oz_V8_VFusion_Juice_Strawberry_Banana_/20%Monthly2019-04-24 20:20
http://www.hotnewdeal.com/2019/04/24/290449_Corsair_K70_MK2_Cherry_MX_Brown_Gaming_Keyboard_/20%Monthly2019-04-24 20:19
http://www.hotnewdeal.com/2019/04/24/290448_Kindle_6_E_Ink_Display_WiFi__Includes_Special/20%Monthly2019-04-24 20:09
http://www.hotnewdeal.com/2019/04/24/290447_Gourmia_6Quart_Pressure_Cooker_with_Auto_Release_/20%Monthly2019-04-24 19:41
http://www.hotnewdeal.com/2019/04/24/290446_Choice_of_Hamilton_Beach_Small_Appliances_16_opti/20%Monthly2019-04-24 19:26
http://www.hotnewdeal.com/2019/04/24/290445_Apple_Pencil_1st_Gen__WM_BM_YMMV__69/20%Monthly2019-04-24 19:10
http://www.hotnewdeal.com/2019/04/24/290444_AMD_Ryzen_7_2700X_43GHz_CPU__250GB_HP_EX900_M2_/20%Monthly2019-04-24 19:10
http://www.hotnewdeal.com/2019/04/24/290443_Dewalt_DCW600B_Cordless_20V_Router__120__SH_1/20%Monthly2019-04-24 18:57
http://www.hotnewdeal.com/2019/04/24/290442_30Pack_AmazonBasics_Kids_Velvet_Hangers_Pink_Pol/20%Monthly2019-04-24 18:52
http://www.hotnewdeal.com/2019/04/24/290441_Nintendo_Switch_25999/20%Monthly2019-04-24 18:52
http://www.hotnewdeal.com/2019/04/24/290440_Apple__Macbook__12_Display__Intel_Core_M3__8/20%Monthly2019-04-24 18:37
http://www.hotnewdeal.com/2019/04/24/290439_Mr_Coffee_Electric_Coffee_Bean_Grinder_Black_1/20%Monthly2019-04-24 18:37
http://www.hotnewdeal.com/2019/04/24/290438_11x16_GallonSize_Food_Vacuum_Sealer_Bags_100ct__/20%Monthly2019-04-24 18:36
http://www.hotnewdeal.com/2019/04/24/290437_Schrade_Old_Timer_280OT_Barlow_Folding_Pocket_Knif/20%Monthly2019-04-24 18:28
http://www.hotnewdeal.com/2019/04/24/290436_Free_Nest_Thermostat_Through_ComEd_Shipping_Appli/20%Monthly2019-04-24 18:17
http://www.hotnewdeal.com/2019/04/24/290435_Lodge_10_Skillet_999_10_Square_Grill_pan_10/20%Monthly2019-04-24 18:01
http://www.hotnewdeal.com/2019/04/24/290434_Amazon_Echo_2nd_Generation_4996/20%Monthly2019-04-24 17:16
http://www.hotnewdeal.com/2019/04/24/290433_Samsung_128GB_EVO_Class_10_Micro_SDXC_Card_with_Ad/20%Monthly2019-04-24 16:55
http://www.hotnewdeal.com/2019/04/24/290432_16Ct_Charmin_Strong_1Ply_Tissue_2ply_also_avail/20%Monthly2019-04-24 16:47
http://www.hotnewdeal.com/2019/04/24/290431_Amazoncom_Rubbermaid_Commercial_Coarse_Polypropyl/20%Monthly2019-04-24 16:38
http://www.hotnewdeal.com/2019/04/24/290430_Deco_Gear_GameSir_T1d_DJI_Tello_Drone_Remote_Con/20%Monthly2019-04-24 16:38
http://www.hotnewdeal.com/2019/04/24/290429_5_Gallon_Bucket_of_Purple_Power_Industrial_Strengt/20%Monthly2019-04-24 16:38
http://www.hotnewdeal.com/2019/04/24/290428_Dewalt_DNP612_Plunge_Base_for_Compact_Router_565/20%Monthly2019-04-24 15:32
http://www.hotnewdeal.com/2019/04/24/290427_RavPower_BOGO_Free_Portable_Charger_20100mAh_PD_3/20%Monthly2019-04-24 15:32
http://www.hotnewdeal.com/2019/04/24/290425_AllClad_New_in_Damaged_Packaging_12_Hard_Anod/20%Monthly2019-04-24 15:16
http://www.hotnewdeal.com/2019/04/24/290424_86_LG_86UK6570AUA_4K_Ultra_HD_Smart_TV_w_300_De/20%Monthly2019-04-24 15:16
http://www.hotnewdeal.com/2019/04/24/290423_JBL_Everest_300_On_Ear_Bluetooth_Headphones_Pink_/20%Monthly2019-04-24 15:09
http://www.hotnewdeal.com/2019/04/24/290422_Its_Back_Eddie_Bauer_20L_Stowaway_Backpack_15_/20%Monthly2019-04-24 14:58
http://www.hotnewdeal.com/2019/04/24/290421_Sapphire_Pulse_Radeon_RX_Vega_56_8GB_HBM2_2999/20%Monthly2019-04-24 14:58
http://www.hotnewdeal.com/2019/04/24/290420_Assortment_of_Chocolates_Lindt_Ferrero_Rocher_S/20%Monthly2019-04-24 14:58
http://www.hotnewdeal.com/2019/04/24/290419_34_LG_34UC88B_3440x1440_WQHD_Curved_IPS_LED_Moni/20%Monthly2019-04-24 14:58
http://www.hotnewdeal.com/2019/04/24/290418_Lucky_Brand_Extra_20_OFF_Sitewide_Today_Only__/20%Monthly2019-04-24 14:58
http://www.hotnewdeal.com/2019/04/24/290417_Enter_6_Coke_Product_Code_Get_3_Walmart_Gift_Car/20%Monthly2019-04-24 14:28
http://www.hotnewdeal.com/2019/04/24/290416_Longchamp_Cristal_DArques_Glassware_LeadFree_Cr/20%Monthly2019-04-24 14:14
http://www.hotnewdeal.com/2019/04/24/290415_Ainope_Screen_Protector_Tempered_Glass_for_Google_/20%Monthly2019-04-24 14:02
http://www.hotnewdeal.com/2019/04/24/290414_ASUS_VivoBook_S_Intel_Core_i58250U_Processor_8GB/20%Monthly2019-04-24 14:02
http://www.hotnewdeal.com/2019/04/24/290413_Issey_Miyake__Men__Women__Mens_LEau_dIssey_P/20%Monthly2019-04-24 14:02
http://www.hotnewdeal.com/2019/04/24/290412_SanDisk_Ultra_32GB_microSDHC_UHSI_card_with_Adapt/20%Monthly2019-04-24 14:01
http://www.hotnewdeal.com/2019/04/24/290411_Natures_Best_Perfect_Isopure_Creamy_Vanilla_88_l/20%Monthly2019-04-24 13:43
http://www.hotnewdeal.com/2019/04/24/290410_Best_Buy_HP_Chromebook_X2__399TAX__Shipping_/20%Monthly2019-04-24 13:43
http://www.hotnewdeal.com/2019/04/24/290409_Vizio_75_Class_745_Diag_4K_Ultra_HD_LED_LCD_/20%Monthly2019-04-24 13:36
http://www.hotnewdeal.com/2019/04/24/290408_ASUS_315_Curved_Gaming_Monitor_WQHD_1440p_144Hz_/20%Monthly2019-04-24 13:28
http://www.hotnewdeal.com/2019/04/24/290407_Paint_by_Sticker_Kids_Zoo_Animals_Create_10_Pict/20%Monthly2019-04-24 13:28
http://www.hotnewdeal.com/2019/04/24/290406_Lindt_LINDOR_Milk_Chocolate_Truffles_Kosher_120_/20%Monthly2019-04-24 13:28
http://www.hotnewdeal.com/2019/04/24/290405_AOC_G2460VQ_24_gaming_monitor_10999_FHD_1ms_New/20%Monthly2019-04-24 13:12
http://www.hotnewdeal.com/2019/04/24/290404_Tommy_Hilfiger_Home_Corded_Classic_Down_Alternativ/20%Monthly2019-04-24 13:12
http://www.hotnewdeal.com/2019/04/24/290403_XFX_Radeon_RX_590_Fatboy_RX590P8DFD6_8GB_256Bit_/20%Monthly2019-04-24 13:12
http://www.hotnewdeal.com/2019/04/24/290402_My_BestBuy_Members_SonosOne_Wireless_Speaker_w_/20%Monthly2019-04-24 12:59
http://www.hotnewdeal.com/2019/04/24/290401_Soylent_20__12_Bottles_14_fl_oz_166_Per_Bottle/20%Monthly2019-04-24 12:58
http://www.hotnewdeal.com/2019/04/24/290400_auth_dealer_55_Samsung_QN55Q8FNB_QLED_Smart_4K_/20%Monthly2019-04-24 12:45
http://www.hotnewdeal.com/2019/04/24/290399_55_Samsung_UN55NU8000_Smart_4K_UHD_TV_600__free/20%Monthly2019-04-24 12:37
http://www.hotnewdeal.com/2019/04/24/290398_12_Anolon_Advanced_Ultimate_Pan__10_Macys_eGift/20%Monthly2019-04-24 12:28
http://www.hotnewdeal.com/2019/04/24/290397_JLA_Home_Premier_Comfort_Pinsonic_Knit_Mattress_Pa/20%Monthly2019-04-24 12:28
http://www.hotnewdeal.com/2019/04/24/290396_MOSSY_OAK_3Piece_MultiTool_Folding_Pocket_Knife/20%Monthly2019-04-24 12:15
http://www.hotnewdeal.com/2019/04/24/290395_The_Legend_of_Zelda_Breath_of_the_Wild_4994_at_/20%Monthly2019-04-24 12:13
http://www.hotnewdeal.com/2019/04/24/290394_Samsung_DV5300_Electric_Dryer_with_Steam_2018_fo/20%Monthly2019-04-24 11:43
http://www.hotnewdeal.com/2019/04/24/290393_15oz_Medline_MSC095010H_MedSpa_RollOn_Antiperspi/20%Monthly2019-04-24 11:43
http://www.hotnewdeal.com/2019/04/24/290392_Twilight_Imperium_board_game_90/20%Monthly2019-04-24 11:43
http://www.hotnewdeal.com/2019/04/24/290390_Pokmon_Lets_Go_PikachuEevee__Nintendo_Switch/20%Monthly2019-04-24 11:28
http://www.hotnewdeal.com/2019/04/24/290389_Rokinon_12mm_F20_NCS_CS_Ultra_Wide_Angle_Lens_for/20%Monthly2019-04-24 11:28
http://www.hotnewdeal.com/2019/04/24/290388_7Piece_Godinger_Dublin_Spirits_Set_1599_at_Macy/20%Monthly2019-04-24 11:28
http://www.hotnewdeal.com/2019/04/24/290387_ASUS_GA502DUPB73_156_IPS_AMD_Ryzen_7_3750H_23/20%Monthly2019-04-24 11:27
http://www.hotnewdeal.com/2019/04/24/290386_Samsung_75_cu_ft_Clothes_Dryer_with_Steam_for_/20%Monthly2019-04-24 11:11
http://www.hotnewdeal.com/2019/04/24/290384_ASUS_TUF_FX504GMWH51_Gaming_Laptop_156_IPS_FHD/20%Monthly2019-04-24 10:20
http://www.hotnewdeal.com/2019/04/24/290383_Costco_32_Degrees_Mens_Mixed_Media_Jacket_w_Dow/20%Monthly2019-04-24 10:09
http://www.hotnewdeal.com/2019/04/24/290382_Dash_Mini_Waffle_Maker_pink_for_719_at_Amazon/20%Monthly2019-04-24 10:09
http://www.hotnewdeal.com/2019/04/24/290381_iBUYPOWER__Gaming_Desktop__Intel_Core_i7__16GB_/20%Monthly2019-04-24 09:58
http://www.hotnewdeal.com/2019/04/24/290380_Sekiro_Shadows_Die_Twice_PS4_Xbox_One_or_PC_/20%Monthly2019-04-24 09:41
http://www.hotnewdeal.com/2019/04/24/290379_InStore_MacBook_Pro_w_Touch_Bar_Mid_2018__1/20%Monthly2019-04-24 09:28
http://www.hotnewdeal.com/2019/04/24/290378_Roku_Ultra_6499/20%Monthly2019-04-24 09:11
http://www.hotnewdeal.com/2019/04/24/290377_55_Insignia_NS55DF710NA19_4K_UHD_HDR_Fire_TV_Edi/20%Monthly2019-04-24 09:11
http://www.hotnewdeal.com/2019/04/24/290376_Cuisinart_Salad_Spinner_Green_and_White_1119_/20%Monthly2019-04-24 08:35
http://www.hotnewdeal.com/2019/04/24/290375_Bubba__24_oz_Envy_Tumbler_466_OGGI__17_oz_C/20%Monthly2019-04-24 08:10
http://www.hotnewdeal.com/2019/04/24/290374_Dewalt_714_brushless_saw_DCS570b__Free_4Ah_Ba/20%Monthly2019-04-24 07:58
http://www.hotnewdeal.com/2019/04/24/290373_AMD_RYZEN_5_2600_6core_CPU_157_AC_Newegg/20%Monthly2019-04-24 07:58
http://www.hotnewdeal.com/2019/04/24/290372_Hitachi_RB24EAP_239cc_2Cycle_GasPowered_Handhel/20%Monthly2019-04-24 07:27
http://www.hotnewdeal.com/2019/04/24/290371_6Quart_Instant_Pot_Duo_7in1_Pressure_Cooker__/20%Monthly2019-04-24 07:00
http://www.hotnewdeal.com/2019/04/24/290370_60Count_Lindt_Lindor_Chocolate_Truffles_Sea_Salt/20%Monthly2019-04-24 07:00
http://www.hotnewdeal.com/2019/04/24/290369_Select_Entertainment_Board_Games_Monopoly_Legend_/20%Monthly2019-04-24 06:44
http://www.hotnewdeal.com/2019/04/24/290368_WD_Elements_4TB__70_shipped__Western_Digital_6/20%Monthly2019-04-24 06:44
http://www.hotnewdeal.com/2019/04/24/290367_450W_Seasonic_S12III_450_80_Bronze_Power_Supply_/20%Monthly2019-04-24 04:45
http://www.hotnewdeal.com/2019/04/24/290366_Dell_G5_Gaming_Laptop_156_FHD_IPS_i58300H_1/20%Monthly2019-04-24 04:31
http://www.hotnewdeal.com/2019/04/24/290365_GeorgiaPacific_Standard_Printer_Paper_Ream_85_x_/20%Monthly2019-04-24 04:31
http://www.hotnewdeal.com/2019/04/24/290364_Aveeno_Daily_Moisturizing_Body_Lotion_w_Soothing_/20%Monthly2019-04-24 04:06
http://www.hotnewdeal.com/2019/04/24/290363_Japanese_Soul_Cooking_Kindle_Edition_199__Ama/20%Monthly2019-04-24 02:46
http://www.hotnewdeal.com/2019/04/24/290362_HP__Spectre_x360_2in1_133_UHD__i716GB512GB_/20%Monthly2019-04-24 02:14
http://www.hotnewdeal.com/2019/04/24/290361_4TB_WD_Easystore_External_USB_30_Portable_Hard_Dr/20%Monthly2019-04-24 02:14
http://www.hotnewdeal.com/2019/04/24/290360_Industrial__Modern_Styled_Light_Fixtures_Pendant/20%Monthly2019-04-24 02:07
http://www.hotnewdeal.com/2019/04/24/290359_Certified_Refurbished_Alienware_Aurora_R7_Desktop/20%Monthly2019-04-24 01:32
http://www.hotnewdeal.com/2019/04/24/290358_Shutterfly_20_FREE_Cards_FREE_Shipping_FREE_Enve/20%Monthly2019-04-24 01:13
http://www.hotnewdeal.com/2019/04/24/290357_Hamilton_Beach_2Liter_Professional_Deep_Fryer_Re/20%Monthly2019-04-24 01:13
http://www.hotnewdeal.com/2019/04/24/290356_Amazon_10_in_Amazon_Credit_After_First_InGarage/20%Monthly2019-04-24 01:13
http://www.hotnewdeal.com/2019/04/24/290355_Nokia_61_32GB_with_Android_One_Unlocked_w_40_/20%Monthly2019-04-24 00:21
http://www.hotnewdeal.com/2019/04/24/290354_Dell_Inspiron_15_7580_156_FHD_IPS_i58265U_8/20%Monthly2019-04-24 00:05
http://www.hotnewdeal.com/2019/04/24/290352_ANBES_Wireless_Earbuds_Upgraded_Bluetooth_50_2/20%Monthly2019-04-24 00:04
http://www.hotnewdeal.com/2019/04/23/290351_APC_BE670M1_675_VA_7outlet_UPS_50_AC_Newegg/20%Monthly2019-04-23 23:54
http://www.hotnewdeal.com/2019/04/23/290350_Bumblebee__Transformers_5Movie_Collection_Digit/20%Monthly2019-04-23 23:48
http://www.hotnewdeal.com/2019/04/23/290349_Netgear_24Port_Gigabit_Ethernet_Unmanaged_Switch_/20%Monthly2019-04-23 23:48
http://www.hotnewdeal.com/2019/04/23/290348_Yale_Push_Button_Door_Security_Bolt_Lock_w_ZWave/20%Monthly2019-04-23 23:48
http://www.hotnewdeal.com/2019/04/23/290347_Tesla_Model_SX_owners_free_LUDICROUS_upgrade_wp/20%Monthly2019-04-23 23:32
http://www.hotnewdeal.com/2019/04/23/290346_Amazon_Fire_TV_Stick_4K_with_Alexa_Voice_Remote_2/20%Monthly2019-04-23 23:16
http://www.hotnewdeal.com/2019/04/23/290345_Pokemon_Lets_Go_Pikachu_w_Poke_Ball_6075/20%Monthly2019-04-23 23:16
http://www.hotnewdeal.com/2019/04/23/290344_JBL_Studio_270_65_Floorstanding_Speaker__1299/20%Monthly2019-04-23 23:15
http://www.hotnewdeal.com/2019/04/23/290343_MSI_GT83_TITAN014_184_IPS_i78850H_GTX_1080_SLI/20%Monthly2019-04-23 22:45
http://www.hotnewdeal.com/2019/04/23/290342_PS4_Controller_Charger_Dual_Shock_4_Controller_Ch/20%Monthly2019-04-23 22:44
http://www.hotnewdeal.com/2019/04/23/290341_Ring_Doorbell_Pro_170_FS__MassGenie/20%Monthly2019-04-23 22:28
http://www.hotnewdeal.com/2019/04/23/290340_Symantec_Norton_Security_w_Antivirus_Premium_10_/20%Monthly2019-04-23 22:28
http://www.hotnewdeal.com/2019/04/23/290339_Alienware_17r5__8950HKGTX_1070_OC2560x1440_400n/20%Monthly2019-04-23 22:12
http://www.hotnewdeal.com/2019/04/23/290337_PowerColor_Radeon_RX_Vega_64_Liquid__Newegg_Refur/20%Monthly2019-04-23 21:31
http://www.hotnewdeal.com/2019/04/23/290336_1500A_Peak_Car_Jump_Starter_5399/20%Monthly2019-04-23 21:30
http://www.hotnewdeal.com/2019/04/23/290335_Roku_Ultra_7998/20%Monthly2019-04-23 21:24
http://www.hotnewdeal.com/2019/04/23/290334_Acer_Aspire_7_Laptop_Intel_Core_i78750H_173_1/20%Monthly2019-04-23 21:14
http://www.hotnewdeal.com/2019/04/23/290333_Greenies_Dog_Dental_Chews_Dog_Treats__Teenie_Size/20%Monthly2019-04-23 20:55
http://www.hotnewdeal.com/2019/04/23/290331_Equinox_Professional_Straight_Edge_Razor_with_100_/20%Monthly2019-04-23 20:55
http://www.hotnewdeal.com/2019/04/23/290330_WD_Elements_Desktop_10TB_15999/20%Monthly2019-04-23 20:42
http://www.hotnewdeal.com/2019/04/23/290329_Lasko_Ultra_Slim_Electric_Tower_Heater_Black_16/20%Monthly2019-04-23 20:31
http://www.hotnewdeal.com/2019/04/23/290328_Houzz_Clearance__Decorative_PillowsPillow_Covers/20%Monthly2019-04-23 20:31
http://www.hotnewdeal.com/2019/04/23/290327_Walmart_Stores_YMMV_LG_43_4K_HDR_Smart_LED_TV_/20%Monthly2019-04-23 19:54
http://www.hotnewdeal.com/2019/04/23/290326_Nintendo_Switch_Pikachu__Eevee_Edition_with_Pokem/20%Monthly2019-04-23 19:46
http://www.hotnewdeal.com/2019/04/23/290325_Razer_Firefly_Chroma_RGB_Hard_Gaming_Mousepad_32/20%Monthly2019-04-23 19:46
http://www.hotnewdeal.com/2019/04/23/290324_VisionTek_RX_580_8GB_via_Dell__Rakuten_12750__/20%Monthly2019-04-23 19:32
http://www.hotnewdeal.com/2019/04/23/290323_My_Hero_Academia_Uncut_Season_3_HD_Amazon_499/20%Monthly2019-04-23 19:32
http://www.hotnewdeal.com/2019/04/23/290322_Anker_6ft10ft_Powerline_II_Lightning_Cable_App/20%Monthly2019-04-23 19:32
http://www.hotnewdeal.com/2019/04/23/290321_Nest_WiFi_Video_Doorbell_with_Google_Home_Hub_Cha/20%Monthly2019-04-23 18:43
http://www.hotnewdeal.com/2019/04/23/290320_AMD_Ryzen_Threadripper_1950X_16core32thread_D/20%Monthly2019-04-23 18:43
http://www.hotnewdeal.com/2019/04/23/290319_Photo_Paper_100_Sheets_4x6_Photo_Paper_High_Glossy/20%Monthly2019-04-23 18:22
http://www.hotnewdeal.com/2019/04/23/290318_Nest_x_Yale_Smart_Door_Lock_w_Nest_Connect__Goog/20%Monthly2019-04-23 18:08
http://www.hotnewdeal.com/2019/04/23/290317_Google_Home_Hub_Chalk_with_Google_Home_Mini_80__/20%Monthly2019-04-23 18:07
http://www.hotnewdeal.com/2019/04/23/290316_LEGO_PC_Digital_Downloads_LEGO_Marvel_Avengers_/20%Monthly2019-04-23 18:07
http://www.hotnewdeal.com/2019/04/23/290315_Southwest_Airlines__Nationwide_Air_Travel_3Day_S/20%Monthly2019-04-23 18:07
http://www.hotnewdeal.com/2019/04/23/290314_Fender_CC60S_Guitar_Pack_9265_AC__FS/20%Monthly2019-04-23 17:50
http://www.hotnewdeal.com/2019/04/23/290313_Lowes__50_off_Johnson_Level_24in_Digital_Displ/20%Monthly2019-04-23 17:36
http://www.hotnewdeal.com/2019/04/23/290312_48_Rolls_of_Viva_MultiSurface_Cloth_ChooseAShee/20%Monthly2019-04-23 17:36
http://www.hotnewdeal.com/2019/04/23/290311_Today_Only_5_off_40_or_10_off_60__Sprouts/20%Monthly2019-04-23 17:36
http://www.hotnewdeal.com/2019/04/23/290310_Intro_Fare_Seattle_to_Oakland_or_Vice_Versa_99_O/20%Monthly2019-04-23 17:36
http://www.hotnewdeal.com/2019/04/23/290309_Marvel_Studios_Avengers_Endgame_Final_OneSheet_/20%Monthly2019-04-23 17:17
http://www.hotnewdeal.com/2019/04/23/290308_64GB_LG_V30_US998_Unlocked_Smartphone_279__free_/20%Monthly2019-04-23 17:03
http://www.hotnewdeal.com/2019/04/23/290307_2_Pack_Screen_Protector_for_iPhone_XR_61Inch_f/20%Monthly2019-04-23 17:03
http://www.hotnewdeal.com/2019/04/23/290306_Taco_Bell_Free_Small_Mountain_Dew_Baja_Blast_Zero/20%Monthly2019-04-23 16:56
http://www.hotnewdeal.com/2019/04/23/290305_Moto_X_4th_Generation__3GB32_GB__Unlocked__S/20%Monthly2019-04-23 16:45
http://www.hotnewdeal.com/2019/04/23/290304_5x7_Neutral_Tapestry_Woven_Area_Rug__2498__Tar/20%Monthly2019-04-23 16:31
http://www.hotnewdeal.com/2019/04/23/290303_Klutch_Specialty_Bit_Set__100Pc_10_shipped_9/20%Monthly2019-04-23 16:30
http://www.hotnewdeal.com/2019/04/23/290302_The_Humble_More_Board_Games_Bundle_by_Asmodee_Digi/20%Monthly2019-04-23 16:30
http://www.hotnewdeal.com/2019/04/23/290301_Hamilton_Beach_63232_Eclectrics_AllMetal_Stand_Mi/20%Monthly2019-04-23 16:30
http://www.hotnewdeal.com/2019/04/23/290300_PS_Plus_Specials_Sale_Fe_PS4_499_Burnout_Par/20%Monthly2019-04-23 16:07
http://www.hotnewdeal.com/2019/04/23/290299_3_Pack_Google_Home_Mini_Personal_Home_Assistant_Di/20%Monthly2019-04-23 16:07
http://www.hotnewdeal.com/2019/04/23/290298_star_wars_battlefront_2_for_5__5/20%Monthly2019-04-23 16:07
http://www.hotnewdeal.com/2019/04/23/290297_CORSAIR_RMX_White_Series_2018_RM850x_850W_80/20%Monthly2019-04-23 16:06
http://www.hotnewdeal.com/2019/04/23/290296_Nest_3rd_Gen_WiFi_Smart_Learning_Thermostat_Vari/20%Monthly2019-04-23 15:56
http://www.hotnewdeal.com/2019/04/23/290295_LG_OLED_E8_55_OLED55E8PUA_OLED_4K_HDR_Dolby_Atmo/20%Monthly2019-04-23 15:39
http://www.hotnewdeal.com/2019/04/23/290294_Wolfgang_Puck_72_Quart_Air_Fryer_4999_New__Op/20%Monthly2019-04-23 15:39
http://www.hotnewdeal.com/2019/04/23/290293_Costco_Essie_Serene_Slate_6piece_Nail_Polish_C/20%Monthly2019-04-23 15:31
http://www.hotnewdeal.com/2019/04/23/290292_VIZIO_55_Inch_LED_4K_UHD_Smart_TV__P55F1_699_p/20%Monthly2019-04-23 15:31
http://www.hotnewdeal.com/2019/04/23/290291_Cuisinart_BFM1000_Baby_Food_Maker_and_Bottle_Warm/20%Monthly2019-04-23 15:15
http://www.hotnewdeal.com/2019/04/23/290290_Earn_10_Macys_eGift_Card_on_Orders_25_after_S/20%Monthly2019-04-23 15:15
http://www.hotnewdeal.com/2019/04/23/290289_Eddie_Bauer__55_Off_Mens_and_Womens_Bestsellin/20%Monthly2019-04-23 14:59
http://www.hotnewdeal.com/2019/04/23/290288_1TB_Intel_660p_NVMe_SSD_100_AC_Newegg/20%Monthly2019-04-23 14:59
http://www.hotnewdeal.com/2019/04/23/290287_Get_50_off_your_first_order_at_Schwans__get_35/20%Monthly2019-04-23 14:24
http://www.hotnewdeal.com/2019/04/23/290286_NETGEAR_Orbi_Whole_Home_MeshReady_WiFi_Router__f/20%Monthly2019-04-23 14:24
http://www.hotnewdeal.com/2019/04/23/290285_EVGA_GeForce_RTX_2080_FTW3_ULTRA_GAMING_08GP422/20%Monthly2019-04-23 14:24
http://www.hotnewdeal.com/2019/04/23/290284_Free_10_gift_card_when_you_buy_Mortal_Kombat_11_/20%Monthly2019-04-23 14:24
http://www.hotnewdeal.com/2019/04/23/290283_Lowest_Price__Anker_3_ft_USB_C_to_Lightning_Cable/20%Monthly2019-04-23 14:16
http://www.hotnewdeal.com/2019/04/23/290282_Pro_Evolution_Soccer_2019_for_PS4_Only_2849_at_/20%Monthly2019-04-23 14:16
http://www.hotnewdeal.com/2019/04/23/290281_Pioneer_VSXLX303_92Channel_4K_UltraHD_Network_A/20%Monthly2019-04-23 14:16
http://www.hotnewdeal.com/2019/04/23/290280_15Lbs_Lindt_Lindor_Egg_Truffles_400pc_White_M/20%Monthly2019-04-23 14:16
http://www.hotnewdeal.com/2019/04/23/290279_Refurbished_Yamaha_ATS1080_Sound_Bar_w_Builti/20%Monthly2019-04-23 14:08
http://www.hotnewdeal.com/2019/04/23/290278_1598_Synthetic_Motor_Oil_Jugs_after_rebate__Pepb/20%Monthly2019-04-23 14:08
http://www.hotnewdeal.com/2019/04/23/290277_TPLink_AC1750_Smart_Dual_Band_Wireless_WiFi_Route/20%Monthly2019-04-23 13:57
http://www.hotnewdeal.com/2019/04/23/290276_LG_V35_Unlocked_322_AC_Buydig_or_Beach_Camera_vi/20%Monthly2019-04-23 13:52
http://www.hotnewdeal.com/2019/04/23/290275_11_lbs_Myprotein_Impact_Whey_Protein_48__Free_S/20%Monthly2019-04-23 13:34
http://www.hotnewdeal.com/2019/04/23/290274_Star_Wars_Knights_of_the_Old_Republic_PreOwned_/20%Monthly2019-04-23 13:26
http://www.hotnewdeal.com/2019/04/23/290273_Learn_JavaScript_VISUALLY_with_Interactive_Exercis/20%Monthly2019-04-23 13:15
http://www.hotnewdeal.com/2019/04/23/290272_Aukey_10W_Qi_Fast_Wireless_Charging_Pad_10/20%Monthly2019-04-23 13:15
http://www.hotnewdeal.com/2019/04/23/290271_Verizon_Fios_200200_Mbps_Internet__50_Visa_Pre/20%Monthly2019-04-23 13:09
http://www.hotnewdeal.com/2019/04/23/290270_Manfrotto_XPRO_Magnesium_Ball_Head_with_200PL_Plat/20%Monthly2019-04-23 12:59
http://www.hotnewdeal.com/2019/04/23/290269_Macys_6075_OFF_HANDBAG_FLASH_SALE_PROMO_CODE_/20%Monthly2019-04-23 12:53
http://www.hotnewdeal.com/2019/04/23/290268_6month_Xbox_LIVE_Month_Gold_Membership_Digital_C/20%Monthly2019-04-23 12:44
http://www.hotnewdeal.com/2019/04/23/290267_480GB_SanDisk_SSD_Plus_SATA_III_Internal_Solid_Sta/20%Monthly2019-04-23 12:44
http://www.hotnewdeal.com/2019/04/23/290266_SK9Y_LG_512_Channel_High_Resolution_Audio_Sound_/20%Monthly2019-04-23 12:44
http://www.hotnewdeal.com/2019/04/23/290265_Calphalon_Cookware__8_Omelette_Pan_from_20_Sta/20%Monthly2019-04-23 12:44
http://www.hotnewdeal.com/2019/04/23/290264_104_Fuel_Injector_Pro_16_oz_Bottle_Free_After_Reb/20%Monthly2019-04-23 12:35
http://www.hotnewdeal.com/2019/04/23/290263_Lenovo_ThinkStation_P330_Tiny_Workstation_i38100/20%Monthly2019-04-23 12:35
http://www.hotnewdeal.com/2019/04/23/290262_Apple_Watch_Series_3_GPS_42mm__Space_Gray_Alum/20%Monthly2019-04-23 12:34
http://www.hotnewdeal.com/2019/04/23/290261_AUKEY_Large_Gaming_Mouse_Pad_XXL_354_x_157_/20%Monthly2019-04-23 12:24
http://www.hotnewdeal.com/2019/04/23/290260_MEE_audio_M6B_Bluetooth_Wireless_Sweatproof_Sports/20%Monthly2019-04-23 12:24
http://www.hotnewdeal.com/2019/04/23/290259_Weiser_Davenport_SmartKey_Front_Door_Handleset__S/20%Monthly2019-04-23 12:15
http://www.hotnewdeal.com/2019/04/23/290258_WalMart_in_store_VIZIO_60_Class_DSeries_4K_216/20%Monthly2019-04-23 12:15
http://www.hotnewdeal.com/2019/04/23/290257_Potbellys_BOGO_on_Sandwich_or_Salad_Tuesday_423/20%Monthly2019-04-23 12:15
http://www.hotnewdeal.com/2019/04/23/290256_NETGEAR_WiFi_Range_Extender_N300__WiFi_coverage_u/20%Monthly2019-04-23 12:15
http://www.hotnewdeal.com/2019/04/23/290255_2Pack_AmazonBasics_Silicone_Baking_Mats_116_x_/20%Monthly2019-04-23 12:05
http://www.hotnewdeal.com/2019/04/23/290254_Refurbished_HP_Pavilion_590p0053w_Intel_i58400/20%Monthly2019-04-23 12:05
http://www.hotnewdeal.com/2019/04/23/290253_16GB_2x_8_GSKILL_Aegis_DDR4_2800_Desktop_RAM_Ki/20%Monthly2019-04-23 12:05
http://www.hotnewdeal.com/2019/04/23/290252_HP_Pavilion_590p0057c_Desktop_for_349/20%Monthly2019-04-23 12:05
http://www.hotnewdeal.com/2019/04/23/290251_2Pack__Tile_Sport_Key_Finder_Phone_Finder_Anyt/20%Monthly2019-04-23 11:44
http://www.hotnewdeal.com/2019/04/23/290250_Bosch_CORE_18Volt_63Ah_LithiumIon_AMP_63Hrs_I/20%Monthly2019-04-23 11:27
http://www.hotnewdeal.com/2019/04/23/290249_JBL_Link_300_Smart_Speaker_w_Google_Assistant_Re/20%Monthly2019-04-23 11:27
http://www.hotnewdeal.com/2019/04/23/290248_PSA_Starting_July_2019__All_Kohls_Stores_in_US_t/20%Monthly2019-04-23 11:27
http://www.hotnewdeal.com/2019/04/23/290247_Home_Depot__Comfort_Revolution_Gel_Bed_Pillow_22/20%Monthly2019-04-23 11:13
http://www.hotnewdeal.com/2019/04/23/290246_Brooks_Glycerin_16_Running_Shoe__FREE_Shipping__/20%Monthly2019-04-23 11:02
http://www.hotnewdeal.com/2019/04/23/290244_Chase_Ultimate_Rewards_Transfer_bonus/20%Monthly2019-04-23 10:42
http://www.hotnewdeal.com/2019/04/23/290243_2TB_SanDisk_Extreme_Portable_USB_31_TypeC_Extern/20%Monthly2019-04-23 10:28
http://www.hotnewdeal.com/2019/04/23/290242_Dummy_Door_Levers__Kwikset_from_228_Schlage_fr/20%Monthly2019-04-23 10:28
http://www.hotnewdeal.com/2019/04/23/290241_50_Off_Prime_Rib_Beef_Roast_With_Target_Cartwwhee/20%Monthly2019-04-23 10:14
http://www.hotnewdeal.com/2019/04/23/290240_Netgear_Orbi_RBK33_at_Amazon_160/20%Monthly2019-04-23 10:03
http://www.hotnewdeal.com/2019/04/23/290238_Klipsch_R120SW_12_Subwoofer/20%Monthly2019-04-23 10:03
http://www.hotnewdeal.com/2019/04/23/290237_Chamberlain_MyQ_Smart_Garage_Door_Opener_MYQG0301/20%Monthly2019-04-23 09:13
http://www.hotnewdeal.com/2019/04/23/290236_Alien_6Film_Digital_Collection_Alien_4K_UHD_A/20%Monthly2019-04-23 09:13
http://www.hotnewdeal.com/2019/04/23/290235_TCL_55_55S405_Roku_SmartTV_29749_AC__FS/20%Monthly2019-04-23 09:13
http://www.hotnewdeal.com/2019/04/23/290234_Samsung_1TB_SM961_Single_Sided_Polaris_VNAND_MLC_/20%Monthly2019-04-23 09:00
http://www.hotnewdeal.com/2019/04/23/290233_Lowes__Werner_28_Type_1A_ext_ladder__249_thru/20%Monthly2019-04-23 08:53
http://www.hotnewdeal.com/2019/04/23/290232_AMC_Stubs_Premiere_Gofobo_Free_Movie_Screening_of_/20%Monthly2019-04-23 08:45
http://www.hotnewdeal.com/2019/04/23/290231_AMD_Ryzen_Threadripper_2950X_16Core_Desktop_Proce/20%Monthly2019-04-23 08:45
http://www.hotnewdeal.com/2019/04/23/290230_2_pack_24_oz_Lysol_Power_and_Free_Toilet_Bowl_C/20%Monthly2019-04-23 08:45
http://www.hotnewdeal.com/2019/04/23/290228_1TB_Toshiba_Canvio_Advance_USB_30_Portable_Hard_D/20%Monthly2019-04-23 08:24
http://www.hotnewdeal.com/2019/04/23/290227_Netgear_Nighthawk_X4S_R7800_AC2600_4x4_DualBand_S/20%Monthly2019-04-23 08:24
http://www.hotnewdeal.com/2019/04/23/290225_10TB_WD_Elements_Desktop_USB_30_External_Hard_Dri/20%Monthly2019-04-23 07:29
http://www.hotnewdeal.com/2019/04/23/290224_Sprint_Savings_200_Prepaid_Card_when_you_add_a_n/20%Monthly2019-04-23 06:31
http://www.hotnewdeal.com/2019/04/23/290223_Baby_Care_Kids_Cushion_Doublesided_Play_Mat_49/20%Monthly2019-04-23 06:31
http://www.hotnewdeal.com/2019/04/23/290222_4pc_Ozark_trail_lighting_and_multi_tool_5/20%Monthly2019-04-23 06:22
http://www.hotnewdeal.com/2019/04/23/290221_Ice_Age_5Movie_Collection_BluRay__Digital_HD/20%Monthly2019-04-23 06:14
http://www.hotnewdeal.com/2019/04/23/290220_6_Pack_6W_Antique_Commercial_Island_Light_Bulbs_1/20%Monthly2019-04-23 06:00
http://www.hotnewdeal.com/2019/04/23/290219_Orlando_to_Los_Angeles_or_Vice_Versa_187_RT_Airfa/20%Monthly2019-04-23 04:42
http://www.hotnewdeal.com/2019/04/23/290218_90_off_Hosting_Plans__Hostinger__from_080mon/20%Monthly2019-04-23 04:00
http://www.hotnewdeal.com/2019/04/23/290217_Radians_Rainbow_Mirror_Safety_Glasses_for_160/20%Monthly2019-04-23 03:12
http://www.hotnewdeal.com/2019/04/23/290216_3M_Headlight_Restoration_Kit_1050_at_Amazon/20%Monthly2019-04-23 03:12
http://www.hotnewdeal.com/2019/04/23/290214_Coppertone_SPORT_Continuous_Sunscreen_Spray_Broad_/20%Monthly2019-04-23 01:31
http://www.hotnewdeal.com/2019/04/23/290213_ThermoPro_TP20_Wireless_Thermometer_2609/20%Monthly2019-04-23 01:12
http://www.hotnewdeal.com/2019/04/23/290212_DropMix_Playlist_Pack_Rock_Ouroboros_and_other_t/20%Monthly2019-04-23 01:12
http://www.hotnewdeal.com/2019/04/23/290211_Adidas_Mens_UltraBOOST_Running_Shoes_90/20%Monthly2019-04-23 01:12
http://www.hotnewdeal.com/2019/04/23/290210_Dell__27_2560_x_1440_LED_QHD_FreeSync_Monitor__/20%Monthly2019-04-23 01:12
http://www.hotnewdeal.com/2019/04/23/290209_Boost_High_Protein_Complete_Nutritional_Drink_8_Ou/20%Monthly2019-04-23 01:12
http://www.hotnewdeal.com/2019/04/22/290208_Beautiful_Buttock_Gel_and_Memory_Foam_Seat_Cushion/20%Monthly2019-04-22 23:44
http://www.hotnewdeal.com/2019/04/22/290207_Tacklife_37V_Lion_Cordless_Rotary_tool_for_160/20%Monthly2019-04-22 23:44
http://www.hotnewdeal.com/2019/04/22/290205_ZeroLemon_JuiceBox_20100mAh_45W_PD_Power_Bank_Port/20%Monthly2019-04-22 23:10
http://www.hotnewdeal.com/2019/04/22/290204_Little_Nightmares_Complete_Edition_Xbox_One_Digit/20%Monthly2019-04-22 22:59
http://www.hotnewdeal.com/2019/04/22/290203_Apple_12_MacBook_Mid_2017_i5_8GB_Ram_512GB_S/20%Monthly2019-04-22 22:36
http://www.hotnewdeal.com/2019/04/22/290202_Nintendo_Switch_Lets_Go_PikachuLets_go_Eevee_4/20%Monthly2019-04-22 22:28
http://www.hotnewdeal.com/2019/04/22/290201_Great_Clips_Coupon_3_Off/20%Monthly2019-04-22 22:09
http://www.hotnewdeal.com/2019/04/22/290200_Multiple_Ring_Products_on_Sale_after_Promo__Stick/20%Monthly2019-04-22 21:58
http://www.hotnewdeal.com/2019/04/22/290198_Woot__6Pack_Natures_Path_Organic_Love_Crunch_Pr/20%Monthly2019-04-22 21:27
http://www.hotnewdeal.com/2019/04/22/290197_Thermaltake_Toughpower_Grand_RGB_750w_Fully_Modula/20%Monthly2019-04-22 21:26
http://www.hotnewdeal.com/2019/04/22/290196_Joule_Sous_Vide_Circulator_Costco_14999/20%Monthly2019-04-22 20:51
http://www.hotnewdeal.com/2019/04/22/290195_Step2_All_Around_Playtime_Patio_with_Canopy_Playho/20%Monthly2019-04-22 20:37
http://www.hotnewdeal.com/2019/04/22/290194_Bankamericard_0_balance_transfer_fee_0_APR_15_mo/20%Monthly2019-04-22 20:37
http://www.hotnewdeal.com/2019/04/22/290193_Starts_Tomorrow_423_BIG_LOTS_Coupon_for_10_off/20%Monthly2019-04-22 20:19
http://www.hotnewdeal.com/2019/04/22/290192_JBL_Everest_710_Over_Ear_Wireless_Headphones_60_/20%Monthly2019-04-22 20:09
http://www.hotnewdeal.com/2019/04/22/290191_2Pack_of_55oz_Coppertone_Sport_Sunscreen_Spray_/20%Monthly2019-04-22 19:58
http://www.hotnewdeal.com/2019/04/22/290190_EyeBuyDirect_Get_25_Off_All_Frames__30_Off_All/20%Monthly2019-04-22 19:58
http://www.hotnewdeal.com/2019/04/22/290189_256GB_Samsung_EVO_Select_U3_microSD_Memory_Card_w/20%Monthly2019-04-22 19:58
http://www.hotnewdeal.com/2019/04/22/290188_Corsair_Carbide_SPEC04_BlackRed_MidTower_Case_/20%Monthly2019-04-22 19:58
http://www.hotnewdeal.com/2019/04/22/290187_Nebraska_Furniture_Mart__Acer_Predator_Helios_300/20%Monthly2019-04-22 19:02
http://www.hotnewdeal.com/2019/04/22/290186_Chuck_E_Cheeses_30_mins_of_Play/20%Monthly2019-04-22 19:02
http://www.hotnewdeal.com/2019/04/22/290185_RAVPower_Quick_Charge_30_10000mAh_Portable_Charge/20%Monthly2019-04-22 19:02
http://www.hotnewdeal.com/2019/04/22/290183_3Pack_30_oz_Tubes_Aveeno_Baby_Sensitive_Skin_Su/20%Monthly2019-04-22 18:30
http://www.hotnewdeal.com/2019/04/22/290182_Equinox_Professional_Shears_Razor_Edge_Series__Ba/20%Monthly2019-04-22 18:30
http://www.hotnewdeal.com/2019/04/22/290180_6_Pack_Sky_Organics_Lip_Balm__USDA_Organic__Asso/20%Monthly2019-04-22 18:23
http://www.hotnewdeal.com/2019/04/22/290179_TCL_49_49S405_4K_Roku_SmarTV_24990_AC__FS/20%Monthly2019-04-22 18:04
http://www.hotnewdeal.com/2019/04/22/290178_Vera_Bradley_30_off_Outlet_Retractable_Lanyard_I/20%Monthly2019-04-22 18:04
http://www.hotnewdeal.com/2019/04/22/290177_3M_1_Pack_Quick_Headlight_Clear_Coat_39173_397/20%Monthly2019-04-22 17:56
http://www.hotnewdeal.com/2019/04/22/290176_Neewer_2pack_Mini_Light_Stands_Max_height_32/20%Monthly2019-04-22 17:29
http://www.hotnewdeal.com/2019/04/22/290175_RYOBI_ONE_Tool_Lanyard_2_Pack_799/20%Monthly2019-04-22 17:14
http://www.hotnewdeal.com/2019/04/22/290174_Grip6_Belts_25_off_25_or_more_AC_ymmv/20%Monthly2019-04-22 17:14
http://www.hotnewdeal.com/2019/04/22/290173_Logitech_G920G29_Driving_Force_Racing_Wheel__Ped/20%Monthly2019-04-22 17:13
http://www.hotnewdeal.com/2019/04/22/290172_Anbes_U13_Bluetooth_headphones_Red_only_997__/20%Monthly2019-04-22 17:13
http://www.hotnewdeal.com/2019/04/22/290171_Microsoft_Xbox_LIVE_12_Month_Gold_Membership_Phys/20%Monthly2019-04-22 16:47
http://www.hotnewdeal.com/2019/04/22/290170_40_Sharp_LC40LB601U_1080p_Roku_Smart_HDTV_for_1/20%Monthly2019-04-22 16:42
http://www.hotnewdeal.com/2019/04/22/290169_open_box_LG_HU80KA_4K_UHD_Smart_Home_Theater_Las/20%Monthly2019-04-22 16:14
http://www.hotnewdeal.com/2019/04/22/290168_Little_Nightmares_Complete_Edition_PC_Digital_Dow/20%Monthly2019-04-22 16:13
http://www.hotnewdeal.com/2019/04/22/290167_Starting_426__TMobile__750_Rebate_Costco__/20%Monthly2019-04-22 16:01
http://www.hotnewdeal.com/2019/04/22/290166_Yi_Dome_1080p_Wireless_IP_Security_Surveillance_Ca/20%Monthly2019-04-22 16:01
http://www.hotnewdeal.com/2019/04/22/290165_Home_Decorators_Collection__Area_Rugs_2_x_3_fr/20%Monthly2019-04-22 16:00
http://www.hotnewdeal.com/2019/04/22/290164_Ryobi_18Volt_ONE_Cordless_LithiumIon_3Tool_San/20%Monthly2019-04-22 15:44
http://www.hotnewdeal.com/2019/04/22/290163_Walmart_Keurig_KLatte_Single_Serve_Black_KCup_C/20%Monthly2019-04-22 15:29
http://www.hotnewdeal.com/2019/04/22/290162_Costco_Philips_Micro_Masticating_Juicer_w_Free_S/20%Monthly2019-04-22 15:29
http://www.hotnewdeal.com/2019/04/22/290161_Onnit_SemiAnnual_Sale_Up_to_60_Off/20%Monthly2019-04-22 15:29
http://www.hotnewdeal.com/2019/04/22/290160_SharkBite_10ft_PEX_Ice_Maker_Installation_Kit__L/20%Monthly2019-04-22 15:13
http://www.hotnewdeal.com/2019/04/22/290159_Kirkland_Signature_Ultra_Soft_Bath_Tissue_36_Roll/20%Monthly2019-04-22 14:52
http://www.hotnewdeal.com/2019/04/22/290158_Vizio_55_Inch_LED_4K_UHD_HDR_Smart_TV__P55REDF1/20%Monthly2019-04-22 14:38
http://www.hotnewdeal.com/2019/04/22/290157_Headphone_Hanger_Aluminum_Headset_Holder_for_36/20%Monthly2019-04-22 14:21
http://www.hotnewdeal.com/2019/04/22/290156_7Bars_Gatorade_Whey_Protein_Bars_Sampler_Variety_/20%Monthly2019-04-22 14:10
http://www.hotnewdeal.com/2019/04/22/290155_169Oz_Colgate_Peroxyl_Mouth_Sore_Rinse_Mild_Min/20%Monthly2019-04-22 14:10
http://www.hotnewdeal.com/2019/04/22/290154_Amazon_Lightning_Deal_ADATA_XPG_Z1_DDR4_3000MHz_/20%Monthly2019-04-22 13:58
http://www.hotnewdeal.com/2019/04/22/290153_Blue_Microphones_Midnight_Blue_Yeti_w_Assassins_/20%Monthly2019-04-22 13:58
http://www.hotnewdeal.com/2019/04/22/290152_Razer_Blade_Stealth_133_QHD_Touch_Laptop_Intel/20%Monthly2019-04-22 13:27
http://www.hotnewdeal.com/2019/04/22/290151_39_Insignia_1080p_Fire_TV_Edition_Smart_LED_HDTV_/20%Monthly2019-04-22 13:21
http://www.hotnewdeal.com/2019/04/22/290149_First_Alert_Smoke_and_Carbon_Monoxide_Alarm_3pac/20%Monthly2019-04-22 13:04
http://www.hotnewdeal.com/2019/04/22/290148_6Pack_Smart_Sheep_XL_Wool_Dryer_Balls_Reusable_N/20%Monthly2019-04-22 12:57
http://www.hotnewdeal.com/2019/04/22/290147_My_Hero_Academia_Uncut_Season_2_Pt_2_Digital_H/20%Monthly2019-04-22 12:57
http://www.hotnewdeal.com/2019/04/22/290146_Corsair_Gaming_K65_LUX_RGB_Compact_Mechanical_Keyb/20%Monthly2019-04-22 12:51
http://www.hotnewdeal.com/2019/04/22/290142_Klymit_Static_Sleeping_Pad_with_X_Pillow_for_399/20%Monthly2019-04-22 12:32
http://www.hotnewdeal.com/2019/04/22/290141_100_itunes_cards_for_85_15_off/20%Monthly2019-04-22 12:31
http://www.hotnewdeal.com/2019/04/22/290140_Back_to_the_Future_Trilogy_HD__1349/20%Monthly2019-04-22 12:31
http://www.hotnewdeal.com/2019/04/22/290139_50_Medela_Breast_Milk_Storage_Bags_599__Amazon/20%Monthly2019-04-22 12:24
http://www.hotnewdeal.com/2019/04/22/290138_100_App_Store__iTunes_Gift_Card_for_85__Email_/20%Monthly2019-04-22 12:08
http://www.hotnewdeal.com/2019/04/22/290137_Lindt_Excellence_Bar_85_Cocoa_Extra_Dark_Chocola/20%Monthly2019-04-22 12:08
http://www.hotnewdeal.com/2019/04/22/290136_Samsung_QN75Q8FNB_75_Q8FN_QLED_Smart_4K_UHD_TV_2/20%Monthly2019-04-22 12:08
http://www.hotnewdeal.com/2019/04/22/290135_TCL_55_55S517_Roku_SmartTV_35999_AC__FS_43_/20%Monthly2019-04-22 12:08
http://www.hotnewdeal.com/2019/04/22/290134_Haggar_Mens_Expandable_Waist_Pants_Expandomatic_/20%Monthly2019-04-22 11:57
http://www.hotnewdeal.com/2019/04/22/290133_Samsung_Clearance_sound_bars_Walmart_YMMV/20%Monthly2019-04-22 11:57
http://www.hotnewdeal.com/2019/04/22/290132_Quilters_Showcase_Cotton_Fabric_Coupon_for_80_Of/20%Monthly2019-04-22 11:57
http://www.hotnewdeal.com/2019/04/22/290131_Bose_QuietComfort_35_Series_II_Wireless_Headphones/20%Monthly2019-04-22 11:57
http://www.hotnewdeal.com/2019/04/22/290130_Marvel_3D_Region_Free_Bluray_Movies_Avengers_Inf/20%Monthly2019-04-22 11:57
http://www.hotnewdeal.com/2019/04/22/290129_32GB_Moto_G5S_Plus_Unlocked_Phone_Blush_Gold__3/20%Monthly2019-04-22 11:40
http://www.hotnewdeal.com/2019/04/22/290128_Reebokcom_Mens_or_Womens_Reago_Pulse_Training_S/20%Monthly2019-04-22 11:40
http://www.hotnewdeal.com/2019/04/22/290127_64999_Apple_iPad_Pro_11inch_WiFi_64GB__Sp/20%Monthly2019-04-22 11:25
http://www.hotnewdeal.com/2019/04/22/290126_HP_Sprocket_2nd_Edition_Instant_Photo_Printer_89/20%Monthly2019-04-22 11:09
http://www.hotnewdeal.com/2019/04/22/290125_Lowes_Easter_Lilies_100/20%Monthly2019-04-22 11:09
http://www.hotnewdeal.com/2019/04/22/290123_Pennington_Classic_Cedar_Dinette_Wild_Bird_Feeder_/20%Monthly2019-04-22 11:09
http://www.hotnewdeal.com/2019/04/22/290122_Neil_Gaiman_Anansi_Boys_Kindle_Edition_199__/20%Monthly2019-04-22 10:22
http://www.hotnewdeal.com/2019/04/22/290121_Logitech__MK540_Advanced_Wireless_Keyboard_and_Mo/20%Monthly2019-04-22 10:22
http://www.hotnewdeal.com/2019/04/22/290120_Capital_One_Savor_Rewards_Spend_3K_on_Purchases/20%Monthly2019-04-22 10:22
http://www.hotnewdeal.com/2019/04/22/290119_Electric_Hot_Air_COSORI_Fryers_XL_58Qt_Oven_Oille/20%Monthly2019-04-22 10:16
http://www.hotnewdeal.com/2019/04/22/290118_Uniden_R3_Extreme_Long_Range_Radar_Laser_Detector_/20%Monthly2019-04-22 09:44
http://www.hotnewdeal.com/2019/04/22/290117_ASRock_Z390_Pro4_LGA_1151_300_Series_ATX_Intel_M/20%Monthly2019-04-22 09:44
http://www.hotnewdeal.com/2019/04/22/290116_WD_Blue_4TB_Desktop_Hard_Disk_Drive__5400_RPM_SAT/20%Monthly2019-04-22 09:44
http://www.hotnewdeal.com/2019/04/22/290115_Lenovo_Legion_Y530_156_FHD_NVIDIA_GeForce_GTX_/20%Monthly2019-04-22 09:39
http://www.hotnewdeal.com/2019/04/22/290114_Gap_Extra_10_OFF__40_OFF_Select_Styles_Women/20%Monthly2019-04-22 09:39
http://www.hotnewdeal.com/2019/04/22/290113_WD_Blue_3D_NAND_1TB_Internal_SSD__SATA_III_6Gbs_/20%Monthly2019-04-22 09:23
http://www.hotnewdeal.com/2019/04/22/290112_8_Ebay_Bucks_on_25_minimum_spend_YMMV/20%Monthly2019-04-22 09:23
http://www.hotnewdeal.com/2019/04/22/290111_Vaseline_Petroleum_Jelly_Original_175_oz_099/20%Monthly2019-04-22 08:22
http://www.hotnewdeal.com/2019/04/22/290110_Sun_Joe_SPX3001_2030_PSI_176_GPM_145_AMP_Electri/20%Monthly2019-04-22 07:43
http://www.hotnewdeal.com/2019/04/22/290109_Asus_ROG_Strix_Scar_II_GL504_Laptop_Intel_Core_i7/20%Monthly2019-04-22 07:27
http://www.hotnewdeal.com/2019/04/22/290108_Saucony_Womens_Cohesion_11_Running_Sneakers_25_/20%Monthly2019-04-22 06:07
http://www.hotnewdeal.com/2019/04/22/290107_Pixel_3_and_Pixel_3XL_off_50_on_Google_Fi_399/20%Monthly2019-04-22 04:38
http://www.hotnewdeal.com/2019/04/22/290106_EVGA_GeForce_GT_1030_SC_2GB_GDDR5_Passive_Low_Pro/20%Monthly2019-04-22 04:33
http://www.hotnewdeal.com/2019/04/22/290105_Sprint_Customers_Free_Pizza_Hut_Pepperoni_PZONE/20%Monthly2019-04-22 04:00
http://www.hotnewdeal.com/2019/04/22/290104_Klipsch_15_Subwoofer_44990_InStore_Only__R11/20%Monthly2019-04-22 02:59
http://www.hotnewdeal.com/2019/04/22/290103_8_Pair_Puma_No_Show_Socks_w_Free_Shipping_8/20%Monthly2019-04-22 02:23
http://www.hotnewdeal.com/2019/04/22/290102_Amazon_Amex_Membership_Rewards_Cardholders_Get_u/20%Monthly2019-04-22 02:10
http://www.hotnewdeal.com/2019/04/22/290101_Intova_DUB_Action_Camera_Graphite_or_Forest_19/20%Monthly2019-04-22 01:42
http://www.hotnewdeal.com/2019/04/22/290100_JBL_GX_12_inch_Subwoofer_2999/20%Monthly2019-04-22 01:13
http://www.hotnewdeal.com/2019/04/22/290099_Addon_Item_12Pack_AmazonBasics_Hardboard_Clipbo/20%Monthly2019-04-22 01:13
http://www.hotnewdeal.com/2019/04/22/290098_Star_Wars_Jedi_Challenges_Lenovo_Mirage_AR_headse/20%Monthly2019-04-22 01:12
http://www.hotnewdeal.com/2019/04/22/290097_Sanuk_Bear_Cozy_Yoga_Mat_Flip_Flops_1099/20%Monthly2019-04-22 01:12
http://www.hotnewdeal.com/2019/04/22/290096_Kohls_Online_Exclusive__25_off_on_Sunday_421/20%Monthly2019-04-22 01:07
http://www.hotnewdeal.com/2019/04/22/290095_Braun_MultiQuick_5_Immersion_Hand_Blender_MQ505_/20%Monthly2019-04-22 00:19
http://www.hotnewdeal.com/2019/04/21/290094_Great_Northern_15_Vintage_Candy_Gumball_Machine_B/20%Monthly2019-04-21 23:59
http://www.hotnewdeal.com/2019/04/21/290093_SiliconDust_HDHomeRun__CONNECT_Duo_FS_6999/20%Monthly2019-04-21 23:12
http://www.hotnewdeal.com/2019/04/21/290092_Grill_Brush_Bristle_Free__Scraper__Safe_BBQ_Brus/20%Monthly2019-04-21 22:52
http://www.hotnewdeal.com/2019/04/21/290091_65_Hisense_65H8E_4K_UHD_HDR_Smart_LED_HDTV_w_Ale/20%Monthly2019-04-21 22:29
http://www.hotnewdeal.com/2019/04/21/290090_Braun_Electric_Shaver_Series_7_7865cc_Mens_Elect/20%Monthly2019-04-21 22:12
http://www.hotnewdeal.com/2019/04/21/290089_Frys_Samsung_UN82NU8000FXZA_1399_or_UN72NU8000FX/20%Monthly2019-04-21 22:12
http://www.hotnewdeal.com/2019/04/21/290088_Tamron_2875mm_F28_for_Sony_Mirrorless_Full_Fram/20%Monthly2019-04-21 21:43
http://www.hotnewdeal.com/2019/04/21/290086_Target_50_off_Select_Cloud_Island_Baby_Clothing/20%Monthly2019-04-21 21:38
http://www.hotnewdeal.com/2019/04/21/290085_DC_Shoes_Stackable_Sales_Mens_Shoes_12/20%Monthly2019-04-21 21:28
http://www.hotnewdeal.com/2019/04/21/290084_5Piece_Nivea_Pamper_Time_Gift_Set_1439__Free_S/20%Monthly2019-04-21 21:28
http://www.hotnewdeal.com/2019/04/21/290083_RainMachine_Touch_HD12_WiFi_Irrigation_Controll/20%Monthly2019-04-21 21:27
http://www.hotnewdeal.com/2019/04/21/290082_2_Roku_Express_Streaming_Players_for_4998_Bestb/20%Monthly2019-04-21 21:22
http://www.hotnewdeal.com/2019/04/21/290081_12oz_Rachael_Ray_Nutrish_Deli_Cuts_Dog_Treats_P/20%Monthly2019-04-21 21:12
http://www.hotnewdeal.com/2019/04/21/290080_Gotrax_GXL_COMMUTER_SCOOTER__VERSION_2_270/20%Monthly2019-04-21 20:51
http://www.hotnewdeal.com/2019/04/21/290079_GeorgiaPacific_Standard_Paper_85_x_11_20lb92_B/20%Monthly2019-04-21 20:10
http://www.hotnewdeal.com/2019/04/21/290078_Perrier_Pink_Grapefruit_Flavored_Carbonated_Minera/20%Monthly2019-04-21 20:10
http://www.hotnewdeal.com/2019/04/21/290077_SanDisk_SSD_PLUS_1TB_Internal_SSD__SATA_III_6_Gb/20%Monthly2019-04-21 19:11
http://www.hotnewdeal.com/2019/04/21/290076_Neewer_Adjustable_Webcam_Stand_with_base_for_Logit/20%Monthly2019-04-21 18:58
http://www.hotnewdeal.com/2019/04/21/290075_Cuisinart_CCB5014_Grill_Cleaning_Brush__Stainles/20%Monthly2019-04-21 18:29
http://www.hotnewdeal.com/2019/04/21/290074_5Quart_Castrol_Edge_High_Mileage_5W30_Advanced_F/20%Monthly2019-04-21 18:19
http://www.hotnewdeal.com/2019/04/21/290073_La_Crosse_Technology_Color_Alarm_Clock_with_Temper/20%Monthly2019-04-21 17:58
http://www.hotnewdeal.com/2019/04/21/290072_Car_Memory_Foam_Head_Pillow_6__FSSS/20%Monthly2019-04-21 17:58
http://www.hotnewdeal.com/2019/04/21/290070_24Pack_of_8oz_V8_Energy_Drinks_Pomegranate_Blue/20%Monthly2019-04-21 17:26
http://www.hotnewdeal.com/2019/04/21/290069_iBUYPOWER__RGB_Gaming_Desktop__Intel_Core_i7870/20%Monthly2019-04-21 17:26
http://www.hotnewdeal.com/2019/04/21/290068_KitchenAid__Pour_Over_Coffee_Brewer_8_Cup_KCM0802/20%Monthly2019-04-21 17:05
http://www.hotnewdeal.com/2019/04/21/290067_Amazon_has_FoodSaver_FSFRSH0057_FreshSaver_Handhel/20%Monthly2019-04-21 16:41
http://www.hotnewdeal.com/2019/04/21/290066_40_Samsung_UN40NU6070_4K_UHD_HDR_Smart_LED_HDTV_/20%Monthly2019-04-21 16:34
http://www.hotnewdeal.com/2019/04/21/290065_Little_Friends_Home_Sweet_Home_A_LifttheFlap_B/20%Monthly2019-04-21 16:34
http://www.hotnewdeal.com/2019/04/21/290064_Gamestop_Weekly_Ad_April_2127/20%Monthly2019-04-21 16:33
http://www.hotnewdeal.com/2019/04/21/290063_HP_Envy_x360_2in1_Laptop_Ryzen_5_2500U_133_1/20%Monthly2019-04-21 16:04
http://www.hotnewdeal.com/2019/04/21/290062_CLARKS_Womens_Step_Move_Jump_Sneaker_for_2495/20%Monthly2019-04-21 15:58
http://www.hotnewdeal.com/2019/04/21/290061_ITunes_Gift_Cards_Buy_1_get_25_off_the_2nd_43/20%Monthly2019-04-21 15:57
http://www.hotnewdeal.com/2019/04/21/290060_Costco_Easter_Day_Promotions/20%Monthly2019-04-21 15:25
http://www.hotnewdeal.com/2019/04/21/290059_PS4X1_Dead_or_Alive_6_2999_X1_Red_Dead_Red/20%Monthly2019-04-21 15:05
http://www.hotnewdeal.com/2019/04/21/290058_Large_Wood_Wick_Candles_12/20%Monthly2019-04-21 14:17
http://www.hotnewdeal.com/2019/04/21/290057_Ezy_Dose_Disposable_Pill_Pouches_100_Count__Pil/20%Monthly2019-04-21 14:17
http://www.hotnewdeal.com/2019/04/21/290056_iPad_Pro_129_2nd_Gen_WiFi_512GB__Open_Box_Exce/20%Monthly2019-04-21 14:08
http://www.hotnewdeal.com/2019/04/21/290055_The_Ultimate_Bourne_Collection_5_movie_collection/20%Monthly2019-04-21 13:57
http://www.hotnewdeal.com/2019/04/21/290054_Deal_is_Back_Dell_S2419HM_238_inch_LED_Monitor_/20%Monthly2019-04-21 13:57
http://www.hotnewdeal.com/2019/04/21/290053_Elder_Scrolls_Online_Collection/20%Monthly2019-04-21 13:40
http://www.hotnewdeal.com/2019/04/21/290052_Shudder_subscription_for_90_days_for_1/20%Monthly2019-04-21 13:24
http://www.hotnewdeal.com/2019/04/21/290051_Fanatical_Tropico_5_PC_Digital_Download_for_2/20%Monthly2019-04-21 13:24
http://www.hotnewdeal.com/2019/04/21/290050_OpenBox_Excellent_Alienware_15R4_Gaming_Laptop_/20%Monthly2019-04-21 12:55
http://www.hotnewdeal.com/2019/04/21/290049_Sennheiser_HD_660_S__HiRes_Audiophile_Open_Back_H/20%Monthly2019-04-21 12:55
http://www.hotnewdeal.com/2019/04/21/290048_Dell_Outlet_Certified_Refurbished__Alienware_17r5/20%Monthly2019-04-21 12:38
http://www.hotnewdeal.com/2019/04/21/290047_FisherPrice_Little_People_A_Christmas_Story_205/20%Monthly2019-04-21 11:56
http://www.hotnewdeal.com/2019/04/21/290046_J_Crew_Factory_Extra_70_Off_Clearance__15_Off_/20%Monthly2019-04-21 11:56
http://www.hotnewdeal.com/2019/04/21/290045_Kenmore_Humidifiers_11Gallon_WarmMist_2420_/20%Monthly2019-04-21 11:56
http://www.hotnewdeal.com/2019/04/21/290044_128GB_SanDisk_Extreme_U3_microSD_Memory_Card_with_/20%Monthly2019-04-21 11:38
http://www.hotnewdeal.com/2019/04/21/290042_Osaki_EC555_Massage_Chair_880_newegg/20%Monthly2019-04-21 11:07
http://www.hotnewdeal.com/2019/04/21/290041_Dell_S_Series_S2419HM_24_Ultrathin_Monitor_for_1/20%Monthly2019-04-21 10:54
http://www.hotnewdeal.com/2019/04/21/290040_Best_Buy_Email_Offer_Surprise_Reward_Certificate_/20%Monthly2019-04-21 10:53
http://www.hotnewdeal.com/2019/04/21/290039_Dewalt_20V_XR_Cordless_12_Impact_Wrench_DCF894_w/20%Monthly2019-04-21 10:44
http://www.hotnewdeal.com/2019/04/21/290038_Thermaltake_Core_V1_Mini_ITX_Cube_Case_25_AR_Fry/20%Monthly2019-04-21 10:34
http://www.hotnewdeal.com/2019/04/21/290037_Amazon_Natures_Bounty_Super_Strength_Melatonin_/20%Monthly2019-04-21 09:54
http://www.hotnewdeal.com/2019/04/21/290036_5_Tier_Storage_Shelf_HDX_42119_only__Home_Depot/20%Monthly2019-04-21 09:37
http://www.hotnewdeal.com/2019/04/21/290035_SOULCALIBUR_VI__PlayStation_4_or_Xbox_One_for_19/20%Monthly2019-04-21 09:22
http://www.hotnewdeal.com/2019/04/21/290034_PS4X1_Soulcalibur_VI_with_Free_Talim_Figure_19/20%Monthly2019-04-21 08:49
http://www.hotnewdeal.com/2019/04/21/290033_SKIL_24_Picture_Hanging_Accu_Level_499_Free_s/20%Monthly2019-04-21 08:34
http://www.hotnewdeal.com/2019/04/21/290032_Lauras_Lean__Steaks_Ground_Beef_and_Chicken__/20%Monthly2019-04-21 08:26
http://www.hotnewdeal.com/2019/04/21/290031_Bissell_ProHeat_2X_Revolution_Pet_Pro_Carpet_Clean/20%Monthly2019-04-21 07:57
http://www.hotnewdeal.com/2019/04/21/290030_Ubiquiti_UniFi_AP_AC_LITE_6225_FS_After_sitewide_/20%Monthly2019-04-21 07:54
http://www.hotnewdeal.com/2019/04/21/290029_Lowes_11_Mail_In_Rebate_421_to_427/20%Monthly2019-04-21 07:06
http://www.hotnewdeal.com/2019/04/21/290028_Lodge_L8SQ3_1012_X_134_Cast_Iron_Square_Skil/20%Monthly2019-04-21 05:54
http://www.hotnewdeal.com/2019/04/21/290027_Google__Two_Chromecast_Latest_Model_Streaming_M/20%Monthly2019-04-21 04:37
http://www.hotnewdeal.com/2019/04/21/290026_Walgreens_5_x_7_20Page_Soft_Cover_Photo_Book_Fr/20%Monthly2019-04-21 04:10
http://www.hotnewdeal.com/2019/04/21/290025_The_Japanese_Art_of_Decluttering_and_Organizing__/20%Monthly2019-04-21 03:55
http://www.hotnewdeal.com/2019/04/21/290024_Bestbuy_Ipad_Pro_11_64gb_wifi_650/20%Monthly2019-04-21 03:27
http://www.hotnewdeal.com/2019/04/21/290023_Nintendo_Switch_Digital_Games_Dynamite_Fishing_Wo/20%Monthly2019-04-21 02:59
http://www.hotnewdeal.com/2019/04/21/290021_Samsung_Galaxy_Tab_S4_105_Tablet_w_S_Pen_256GB/20%Monthly2019-04-21 02:54
http://www.hotnewdeal.com/2019/04/21/290020_Bath__Body_Works_40_off_Everything_plus_Free_Shi/20%Monthly2019-04-21 02:28
http://www.hotnewdeal.com/2019/04/21/290019_Moto_X_4th_Generation__with_Amazon_Alexa_hands/20%Monthly2019-04-21 02:23
http://www.hotnewdeal.com/2019/04/21/290018_Bare_Home_1800_Series_Goose_Down_Alternative_Rever/20%Monthly2019-04-21 02:23
http://www.hotnewdeal.com/2019/04/21/290017_Amazon_offer_big_discount_on_a_lot_of_Grocery_afte/20%Monthly2019-04-21 01:58
http://www.hotnewdeal.com/2019/04/21/290016_The_Possession_Of_Hannah_Grace_Digital_4K_UHD_Ren/20%Monthly2019-04-21 01:37
http://www.hotnewdeal.com/2019/04/21/290015_Intel_Core_i78700_Coffee_Lake_6Core_32_GHz_46/20%Monthly2019-04-21 01:37
http://www.hotnewdeal.com/2019/04/21/290014_8TB_WD_Easystore_External_USB_30_Hard_Drive_130_/20%Monthly2019-04-21 01:28
http://www.hotnewdeal.com/2019/04/21/290013_Home_Decorators_Collection__Elephant_Laundry_Hamp/20%Monthly2019-04-21 01:28
http://www.hotnewdeal.com/2019/04/21/290012_12996_off_Bfgoodrich_at_Costco_1_day_only_Easte/20%Monthly2019-04-21 01:07
http://www.hotnewdeal.com/2019/04/21/290011_Lexar_32_GB_UHS1_microSDHC_memory_card_599/20%Monthly2019-04-21 01:07
http://www.hotnewdeal.com/2019/04/21/290010_FIFA_19_Standard_Xbox_One_digital_and_physical_cop/20%Monthly2019-04-21 00:14
http://www.hotnewdeal.com/2019/04/20/290009_First_Alert_2In1_ZWave_Smoke_Detector__Carbon_/20%Monthly2019-04-20 23:22
http://www.hotnewdeal.com/2019/04/20/290008_Gibraltar_Elite_800_Cu_In_Medium_Galvanized_Stee/20%Monthly2019-04-20 23:22
http://www.hotnewdeal.com/2019/04/20/290006_The_Simpsons_Movie__Amazon_5/20%Monthly2019-04-20 22:56
http://www.hotnewdeal.com/2019/04/20/290005_Calico_Critters_Red_Roof_Country_Home_Gift_Set_for/20%Monthly2019-04-20 22:52
http://www.hotnewdeal.com/2019/04/20/290004_Home_Depot_Refurbished_Rachio_3_Smart_Sprinkler_/20%Monthly2019-04-20 22:52
http://www.hotnewdeal.com/2019/04/20/290003_Dewalt_20v_MAX_Brushless_String_Trimmer__Blower_/20%Monthly2019-04-20 22:24
http://www.hotnewdeal.com/2019/04/20/290002_China_Airlines_60th_Anniversary_Sale__Promotional/20%Monthly2019-04-20 22:14
http://www.hotnewdeal.com/2019/04/20/290001_Lexar_128GB_Professional_1000x_UHSII_U3_SDXC_Memo/20%Monthly2019-04-20 22:00
http://www.hotnewdeal.com/2019/04/20/289999_NewsDemon_Usenet_Get_On_The_Iron_Throne_Special__/20%Monthly2019-04-20 21:07
http://www.hotnewdeal.com/2019/04/20/289998_8_Pack_of_10ml_Cobalt_Blue_Glass_Roll_on_Bottles_w/20%Monthly2019-04-20 21:07
http://www.hotnewdeal.com/2019/04/20/289997_LaView__hikvision_OEM_4K__8MP_IP_PoE_bullet_or_d/20%Monthly2019-04-20 19:56
http://www.hotnewdeal.com/2019/04/20/289996_Homall_Racing_Style_Ergonomic_Computer_Gaming_Chai/20%Monthly2019-04-20 19:51
http://www.hotnewdeal.com/2019/04/20/289994_Wusthof_Classic_8Inch_Chefs_Knife_458220_99/20%Monthly2019-04-20 19:24
http://www.hotnewdeal.com/2019/04/20/289993_Insignia__165Can_BuiltIn_Beverage_Cooler_3999/20%Monthly2019-04-20 18:46
http://www.hotnewdeal.com/2019/04/20/289992_Dell_Inspiron_7586_2in1_156_4K_IPS_Touch_i7/20%Monthly2019-04-20 18:39
http://www.hotnewdeal.com/2019/04/20/289991_Klipsch_15_Subwoofer__R115SW_for_549_after_Pro/20%Monthly2019-04-20 18:32
http://www.hotnewdeal.com/2019/04/20/289990_KitchenAid_KSMMGA_Metal_Grinder_Attachment_5248/20%Monthly2019-04-20 17:57
http://www.hotnewdeal.com/2019/04/20/289989_3Piece_Farberware_Classic_Bamboo_Cutting_Board_Se/20%Monthly2019-04-20 17:57
http://www.hotnewdeal.com/2019/04/20/289987_Insignia__39_Class__LED__1080p__Smart__HDTV/20%Monthly2019-04-20 17:40
http://www.hotnewdeal.com/2019/04/20/289986_50_Xbox_Gift_Card__3Month_Xbox_LIVE_Gold_Member/20%Monthly2019-04-20 16:57
http://www.hotnewdeal.com/2019/04/20/289985_George_RR_Martin_Tuf_Voyaging_A_Novel_Kindle_/20%Monthly2019-04-20 16:48
http://www.hotnewdeal.com/2019/04/20/289984_Ziploc_9_Hollywood_Movie_Money/20%Monthly2019-04-20 16:27
http://www.hotnewdeal.com/2019/04/20/289983_Long_John_Silvers_has_All_You_Can_Eat_Sundays_s/20%Monthly2019-04-20 16:27
http://www.hotnewdeal.com/2019/04/20/289982_Vizio_VSeries_40_Class_4K_HDR_SMART_TV_V405G_2/20%Monthly2019-04-20 15:27
http://www.hotnewdeal.com/2019/04/20/289981_LaView_8_CH_PoE_NVR_247_Security_System_with_4x_4/20%Monthly2019-04-20 14:58
http://www.hotnewdeal.com/2019/04/20/289980_Non_carderholder_KOHLS_microfiber_pillows__add_2_/20%Monthly2019-04-20 14:36
http://www.hotnewdeal.com/2019/04/20/289979_bose_QuietComfort_35_Series_II_Wireless_Noise_Canc/20%Monthly2019-04-20 14:36
http://www.hotnewdeal.com/2019/04/20/289978_Apple_Lightning_Dock_Black_Best_Buy_1899_Reg/20%Monthly2019-04-20 14:05
http://www.hotnewdeal.com/2019/04/20/289977_Duracell__Rechargeable_AA_Nimh_Batteries_4_pack_/20%Monthly2019-04-20 14:05
http://www.hotnewdeal.com/2019/04/20/289976_Network_Analyzer_Pro_Android_1/20%Monthly2019-04-20 14:05
http://www.hotnewdeal.com/2019/04/20/289975_Ozark_Trail_8_Cast_Iron_Skillet_482__Free_Stor/20%Monthly2019-04-20 13:56
http://www.hotnewdeal.com/2019/04/20/289974_100Count_Solimo_KCup_Coffee_Pods_Morning_Lite_/20%Monthly2019-04-20 13:44
http://www.hotnewdeal.com/2019/04/20/289973_TCL_49S325_49_Inch_1080p_Smart_Roku_LED_TV_2019_/20%Monthly2019-04-20 13:44
http://www.hotnewdeal.com/2019/04/20/289972_Gaming_Headset_for_PS4_Xbox_One_1249__FS/20%Monthly2019-04-20 13:30
http://www.hotnewdeal.com/2019/04/20/289971_Air_China_Weekend_Flash_Sale__Economy_From_499_o/20%Monthly2019-04-20 13:14
http://www.hotnewdeal.com/2019/04/20/289970_Ernie_Ball_Music_Man_Cutlass_Trem_Maple_Fingerboar/20%Monthly2019-04-20 12:55
http://www.hotnewdeal.com/2019/04/20/289969_Nintendo_Switch_32GB_Console_with_Neon_BlueRed_Jo/20%Monthly2019-04-20 12:33
http://www.hotnewdeal.com/2019/04/20/289968_16GB_2x_8_EVO_SPEAR_DDR4_3000_Desktop_Memory_Kit/20%Monthly2019-04-20 12:19
http://www.hotnewdeal.com/2019/04/20/289967_Zapposcom_Birkenstock_Womens_Sandals_Arizona_St/20%Monthly2019-04-20 12:19
http://www.hotnewdeal.com/2019/04/20/289966_Sony_STRDH790_72_Channel_Home_Theater_AV_Receive/20%Monthly2019-04-20 12:19
http://www.hotnewdeal.com/2019/04/20/289965_Orbit_Bhyve_12Zone_IndoorOutdoor_Smart_Sprinkle/20%Monthly2019-04-20 11:40
http://www.hotnewdeal.com/2019/04/20/289964_Victor_Allen_K_cup_coffee_flash_sale__200_ct_K_Cu/20%Monthly2019-04-20 11:25
http://www.hotnewdeal.com/2019/04/20/289963_Powercolor_Red_Dragon_Radeon_RX_570_4GB_video_card/20%Monthly2019-04-20 10:45
http://www.hotnewdeal.com/2019/04/20/289962_WELCHs_Fruit_Snacks_Mixed_80_Counts_45_Pounds/20%Monthly2019-04-20 10:36
http://www.hotnewdeal.com/2019/04/20/289960_Anker_PowerCore_10000_20000_26800_Power_Delivery/20%Monthly2019-04-20 10:12
http://www.hotnewdeal.com/2019/04/20/289959_Samsung_QN65Q9FN_Flat_65_QLED_4K_UHD_9_SERIES_SMA/20%Monthly2019-04-20 10:11
http://www.hotnewdeal.com/2019/04/20/289958_Dorcy_Pro_Series_200_Lumen_LED_Headlamp_flashlight/20%Monthly2019-04-20 09:59
http://www.hotnewdeal.com/2019/04/20/289957_Acer_156_Full_HD_IPS_Touchscreen_Chromebook__Al/20%Monthly2019-04-20 09:59
http://www.hotnewdeal.com/2019/04/20/289956_WD_Red_4TB_NAS_Hard_Drive_200_2_Newegg/20%Monthly2019-04-20 09:41
http://www.hotnewdeal.com/2019/04/20/289955_HP_156_Touchscreen_Laptop_Ryzen_5_3500U_8GB_DD/20%Monthly2019-04-20 09:27
http://www.hotnewdeal.com/2019/04/20/289954_AMD_Ryzen_7_1700X_Processor_166_AC_Superbiiz/20%Monthly2019-04-20 08:43
http://www.hotnewdeal.com/2019/04/20/289953_Banana_Republic_Extra_10_OFF__40_OFF_Styles_W/20%Monthly2019-04-20 08:09
http://www.hotnewdeal.com/2019/04/20/289952_3_Month_Xbox_Game_Pass_Xbox_One__13/20%Monthly2019-04-20 07:58
http://www.hotnewdeal.com/2019/04/20/289951_AMD_Ryzen_7_2700_8Core_CPU_with_Wraith_Spire_LED_/20%Monthly2019-04-20 07:58
http://www.hotnewdeal.com/2019/04/20/289950_Levis_Mens_505_Regular_Fit_Jeans_Cash_Medium_W/20%Monthly2019-04-20 06:36
http://www.hotnewdeal.com/2019/04/20/289949_LST_Portable_Trickle_Battery_Charger_6V_12V_for_Au/20%Monthly2019-04-20 05:11
http://www.hotnewdeal.com/2019/04/20/289948_The_Legend_of_Zelda_Breath_of_the_Wild_Series_Cha/20%Monthly2019-04-20 04:59
http://www.hotnewdeal.com/2019/04/20/289947_Far_Cry_New_Dawn__PlayStation_4_1750_AC_Newegg/20%Monthly2019-04-20 04:29
http://www.hotnewdeal.com/2019/04/20/289945_Costco_Members_Cascade_40_Tower_Fan_with_Remote_/20%Monthly2019-04-20 03:13
http://www.hotnewdeal.com/2019/04/20/289944_Aerial_Africa_Aerial_Yellowstone_Aerial_New_Zeal/20%Monthly2019-04-20 02:42
http://www.hotnewdeal.com/2019/04/20/289943_Husky_Industrial_52in_Width_9Drawer_Rolling_Cab/20%Monthly2019-04-20 02:29
http://www.hotnewdeal.com/2019/04/20/289942_Xbox_Wireless_Controller_WhiteBlack_3499__Mo/20%Monthly2019-04-20 01:58
http://www.hotnewdeal.com/2019/04/20/289941_Samsung_QN82Q6FN_82_Class_HDR_UHD_Smart_QLED_TV_/20%Monthly2019-04-20 01:42
http://www.hotnewdeal.com/2019/04/20/289940_Volcom_Mens_Stone_Graphic_Hoodie_1925_Hooded_/20%Monthly2019-04-20 01:11
http://www.hotnewdeal.com/2019/04/20/289939_PlayStation_Plus_12Month_Membership_Digital_Cod/20%Monthly2019-04-20 00:19
http://www.hotnewdeal.com/2019/04/19/289938_Glade_Carpet__Room_Fragrance_Hawaiian_Breeze_x_2_/20%Monthly2019-04-19 23:28
http://www.hotnewdeal.com/2019/04/19/289937_6Ct_Colgate_My_First_Baby_and_Toddler_Toothbrush_/20%Monthly2019-04-19 23:00
http://www.hotnewdeal.com/2019/04/19/289936_Outdoor_Multi_Socket_Timer_Yard_Stake_with_6_Groun/20%Monthly2019-04-19 22:59
http://www.hotnewdeal.com/2019/04/19/289935_Oculus_Flash_Sale_through_759_PST_419/20%Monthly2019-04-19 22:52
http://www.hotnewdeal.com/2019/04/19/289933_Costco_Members_LG_43_Class_425_Diag_4K_Ultr/20%Monthly2019-04-19 22:45
http://www.hotnewdeal.com/2019/04/19/289932_TECKIN_Touch_Control_Dimmable_LED_Floor_Lamp_for_/20%Monthly2019-04-19 22:45
http://www.hotnewdeal.com/2019/04/19/289931_Audeze_iSine_10_199_new_directly_from_Audeze/20%Monthly2019-04-19 22:37
http://www.hotnewdeal.com/2019/04/19/289930_Stanley_Tools_3pc_Pliers_Set_58/20%Monthly2019-04-19 22:14
http://www.hotnewdeal.com/2019/04/19/289929_ViewSonic_PX7474K_DLP_3500_ANSI_Lumens_4K_3840_x/20%Monthly2019-04-19 22:14
http://www.hotnewdeal.com/2019/04/19/289928_TroyBilt_25cc_2cycle_17in_Curved_Shaft_Gas_Str/20%Monthly2019-04-19 22:02
http://www.hotnewdeal.com/2019/04/19/289927_2oz_trays_Fancy_Feast_Natural_Entrees_in_Delicat/20%Monthly2019-04-19 22:01
http://www.hotnewdeal.com/2019/04/19/289926_Sony_XBR85X850F_85Inch_4K_Ultra_HD_Smart_LED_TV_/20%Monthly2019-04-19 22:01
http://www.hotnewdeal.com/2019/04/19/289925_Sigma_AF_1835mm_f18_DC_HSM_ART_Lens_for_Nikon_/20%Monthly2019-04-19 22:01
http://www.hotnewdeal.com/2019/04/19/289924_BLACKDECKER_9Amp_450CFM_140MPH_Corded_Electric/20%Monthly2019-04-19 21:43
http://www.hotnewdeal.com/2019/04/19/289923_FASTSNAIL_Joy_Con_Handle_Grips_for_Switch__990_o/20%Monthly2019-04-19 21:42
http://www.hotnewdeal.com/2019/04/19/289922_Outdoor_Photographer_Magazine_4_Extreme_HowTo/20%Monthly2019-04-19 21:11
http://www.hotnewdeal.com/2019/04/19/289921_Star_Wars_The_Last_Jedi_or_Solo_A_Star_Wars_Stor/20%Monthly2019-04-19 21:11
http://www.hotnewdeal.com/2019/04/19/289920_Apple_iTunes_Digital_4K_Ultra_HD_Downsizing_The_/20%Monthly2019-04-19 20:59
http://www.hotnewdeal.com/2019/04/19/289919_Kohls_Card_Holders_Cuisinart_Nonstick_Roaster_wit/20%Monthly2019-04-19 20:59
http://www.hotnewdeal.com/2019/04/19/289918_Anker_Phone_Cases_for_iPhone_X_iPhone_7__7_Plus/20%Monthly2019-04-19 20:59
http://www.hotnewdeal.com/2019/04/19/289917_55_Samsung_UN55NU7300_Curved_4K_UHD_HDR_Smart_LED/20%Monthly2019-04-19 20:30
http://www.hotnewdeal.com/2019/04/19/289916_ADATA_Ultimate_SU800_3D_NAND_25_SATA_III_SSD_51/20%Monthly2019-04-19 20:30
http://www.hotnewdeal.com/2019/04/19/289915_TCL_55_55R617__490_AC__FS__65_65R617_720_A/20%Monthly2019-04-19 20:29
http://www.hotnewdeal.com/2019/04/19/289914_Garden_Safe__Spectracide_Deal_of_Day_Amazon_Root/20%Monthly2019-04-19 20:29
http://www.hotnewdeal.com/2019/04/19/289913_Victorinox_Swiss_Army_Classic_SD_Pocket_Knife_11/20%Monthly2019-04-19 20:09
http://www.hotnewdeal.com/2019/04/19/289912_Ballistix_Sport_LT_16GB_2_x_8GB_288Pin_DDR4_SDR/20%Monthly2019-04-19 20:09
http://www.hotnewdeal.com/2019/04/19/289911_25lb_Crayola_AirDry_Clay_White_w_Resealable_B/20%Monthly2019-04-19 19:58
http://www.hotnewdeal.com/2019/04/19/289910_2Pairs_Bioworld_Harry_Potter_Crew_Socks_399__F/20%Monthly2019-04-19 19:42
http://www.hotnewdeal.com/2019/04/19/289909_Crocs_Mens_Yukon_Mesa_Leather_Clog_Womens_or_M/20%Monthly2019-04-19 19:41
http://www.hotnewdeal.com/2019/04/19/289908_Sapphire_112760240G_Radeon_Pulse_RX_Vega_56_8GB_/20%Monthly2019-04-19 19:26
http://www.hotnewdeal.com/2019/04/19/289907_Thermaltake_V200_Tempered_Glass_RGB_Mid_Tower_Comp/20%Monthly2019-04-19 19:26
http://www.hotnewdeal.com/2019/04/19/289906_Planet_Earth_II_4K_Ultra_HD__Bluray_1940_Shi/20%Monthly2019-04-19 19:26
http://www.hotnewdeal.com/2019/04/19/289905_SkyTech_Shadow_Desktop_Ryzen_3_1300X_8GB_DDR4_1/20%Monthly2019-04-19 18:58
http://www.hotnewdeal.com/2019/04/19/289904_Digital_HD_Films_Anastasia_1997__Thumbelina_1/20%Monthly2019-04-19 18:41
http://www.hotnewdeal.com/2019/04/19/289903_Watch_Dogs_2_Gold_Edition_PC_Digital_Download_/20%Monthly2019-04-19 18:20
http://www.hotnewdeal.com/2019/04/19/289902_SSD_on_Sales_at_Best_Buy_480G_4999/20%Monthly2019-04-19 18:10
http://www.hotnewdeal.com/2019/04/19/289901_Far_Cry_New_Dawn_PC_Digital_Download_1707_via/20%Monthly2019-04-19 18:09
http://www.hotnewdeal.com/2019/04/19/289900_Kohls_Cardholders_15_The_Big_One_Gel_Memory_Foa/20%Monthly2019-04-19 17:58
http://www.hotnewdeal.com/2019/04/19/289899_Casual_Home__Breakfast_Cart_w_DropLeaf_Hardwood/20%Monthly2019-04-19 17:26
http://www.hotnewdeal.com/2019/04/19/289898_Fender_Limited_Edition_Mustang_Bass_PJ_Electric_Gu/20%Monthly2019-04-19 16:49
http://www.hotnewdeal.com/2019/04/19/289897_HyperX_Savage_EXO_USB_31_Gen_2_TypeC_External_SS/20%Monthly2019-04-19 16:20
http://www.hotnewdeal.com/2019/04/19/289896_4Pack_Philips_Hue_White_A19_60W_Equivalent_Dimmab/20%Monthly2019-04-19 16:13
http://www.hotnewdeal.com/2019/04/19/289895_Academy_Sports__Outdoors_ORageous_Wedges_and_Sa/20%Monthly2019-04-19 15:44
http://www.hotnewdeal.com/2019/04/19/289894_Penlaser_Mini_Digital_Tape_Measure_50_Ft_with_Bonu/20%Monthly2019-04-19 15:43
http://www.hotnewdeal.com/2019/04/19/289893_Google_Home_Hub_7_Touchscreen_Smart_Display_Perso/20%Monthly2019-04-19 15:43
http://www.hotnewdeal.com/2019/04/19/289892_75_Samsung_4K_Ultra_QLED_model_Q6FN_Frys_1599_w/20%Monthly2019-04-19 15:43
http://www.hotnewdeal.com/2019/04/19/289891_Assassins_Creed_Odyssey_Ultimate_Edition_PS4_Dig/20%Monthly2019-04-19 15:28
http://www.hotnewdeal.com/2019/04/19/289890_YT_Industries_Jeffsy_Mountain_Bike_2k28k__XL_/20%Monthly2019-04-19 15:28
http://www.hotnewdeal.com/2019/04/19/289889_Washington_DC_to_San_Diego_or_Vice_Versa_123_RT_A/20%Monthly2019-04-19 15:13
http://www.hotnewdeal.com/2019/04/19/289888_Ubiquiti_Networks_UAPACLITE_UniFi_Wireless_Acces/20%Monthly2019-04-19 14:53
http://www.hotnewdeal.com/2019/04/19/289887_TroyBilt_Gas_Trimmer_50_Off_at_Lowes_Online_End/20%Monthly2019-04-19 14:36
http://www.hotnewdeal.com/2019/04/19/289886_Swych_App__New_Customers_100_eBay_eGift_Card_9/20%Monthly2019-04-19 14:36
http://www.hotnewdeal.com/2019/04/19/289885_Go_Pro_Hero_7_Black__29321_Rakutencom/20%Monthly2019-04-19 14:23
http://www.hotnewdeal.com/2019/04/19/289884_LG_49UK6300_49_UK6300_4K_HDR_Smart_LED_AI_UHD_TV_/20%Monthly2019-04-19 14:22
http://www.hotnewdeal.com/2019/04/19/289883_Apple_iTunes_Easter_Christian_Movie_Sale_5/20%Monthly2019-04-19 14:22
http://www.hotnewdeal.com/2019/04/19/289882_32GB_Crucial_Ballistix_LT_2x_16_DDR4_3000_RAM_ki/20%Monthly2019-04-19 14:22
http://www.hotnewdeal.com/2019/04/19/289881_Ong_Bak_Trilogy_Bluray_899__Amazon/20%Monthly2019-04-19 14:00
http://www.hotnewdeal.com/2019/04/19/289880_Garmin_Zumo_396_LMTS_Motorcycle_GPS_with_43inc/20%Monthly2019-04-19 14:00
http://www.hotnewdeal.com/2019/04/19/289879_Olight_M1T_Raider_LED_Flashlight_1995/20%Monthly2019-04-19 13:44
http://www.hotnewdeal.com/2019/04/19/289878_Nerf_NStrike_Elite_Mega_CycloneShock_Blaster_99/20%Monthly2019-04-19 13:12
http://www.hotnewdeal.com/2019/04/19/289876_Tamron_SP_2875mm_F28_XR_Di_for_Canon_EF_or_Niko/20%Monthly2019-04-19 12:35
http://www.hotnewdeal.com/2019/04/19/289875_UNIQLO_Free_Shipping_on_All_Orders_now_thru_423/20%Monthly2019-04-19 12:29
http://www.hotnewdeal.com/2019/04/19/289874_Lenovo_IdeaCentre_510A_Desktop_Ryzen_3_2200G_8GB/20%Monthly2019-04-19 12:29
http://www.hotnewdeal.com/2019/04/19/289873_Various_Hampton_Bay_Outdoor_Solar_Landscape_lights/20%Monthly2019-04-19 12:29
http://www.hotnewdeal.com/2019/04/19/289872_50_Westinghouse_WE50UJ4018_4K_UHD_HDR_Smart_LED_H/20%Monthly2019-04-19 12:20
http://www.hotnewdeal.com/2019/04/19/289871_PSN_Flash_sale_The_Division_2_for_4979_Assassi/20%Monthly2019-04-19 12:15
http://www.hotnewdeal.com/2019/04/19/289870_Nintendo_Store_Refurbished_3DS_Products_Price_Cut_/20%Monthly2019-04-19 12:15
http://www.hotnewdeal.com/2019/04/19/289869_Marvel_Cinematic_Universe_Weekend_Flash_Sale_Ave/20%Monthly2019-04-19 12:03
http://www.hotnewdeal.com/2019/04/19/289868_Stainless_Steel_Straws_Set_of_8_4_Straight__4_Be/20%Monthly2019-04-19 11:46
http://www.hotnewdeal.com/2019/04/19/289867_CyberpowerPC_Gaming_Desktop_Gamer_Master_2787D_Ryz/20%Monthly2019-04-19 11:46
http://www.hotnewdeal.com/2019/04/19/289866_Merrell_Mens_Cedrus_Convertible_Sandal_2250__f/20%Monthly2019-04-19 11:29
http://www.hotnewdeal.com/2019/04/19/289865_Slime_2080A_Rubber_Tire_Valve_Stems_1_Amazon_A/20%Monthly2019-04-19 11:29
http://www.hotnewdeal.com/2019/04/19/289864_Converse_Mens_Chuck_Taylor_All_Star_Leather_High_/20%Monthly2019-04-19 11:22
http://www.hotnewdeal.com/2019/04/19/289863_Los_Angeles_to_Paris_France_332_RT_Nonstop_Airfar/20%Monthly2019-04-19 11:13
http://www.hotnewdeal.com/2019/04/19/289862_Samsung_Galaxy_S9_64GB_With_number_transfer_exclu/20%Monthly2019-04-19 11:13
http://www.hotnewdeal.com/2019/04/19/289861_Radiant_Historia_Perfect_Chronology_3DS_2478/20%Monthly2019-04-19 11:13
http://www.hotnewdeal.com/2019/04/19/289860_Harry_Potter_8_Film_Collection_4K_UHD_on_VUDU_3/20%Monthly2019-04-19 10:59
http://www.hotnewdeal.com/2019/04/19/289859_8Count_Seventh_Generation_Hand_Wash_Soap_Mandari/20%Monthly2019-04-19 10:59
http://www.hotnewdeal.com/2019/04/19/289858_Samsung_128GB_EVO_Class_10_Micro_SDXC_Card_with_Ad/20%Monthly2019-04-19 10:54
http://www.hotnewdeal.com/2019/04/19/289857_TPLink_TLWN881ND_N300_PCIE_Wireless_WiFi_networ/20%Monthly2019-04-19 10:54
http://www.hotnewdeal.com/2019/04/19/289856_PlayStation_Plus_1_Year_Membership__Email_Delive/20%Monthly2019-04-19 10:37
http://www.hotnewdeal.com/2019/04/19/289855_500GB_HP_EX900_M2_NVMe_SSD_60_Newegg/20%Monthly2019-04-19 10:13
http://www.hotnewdeal.com/2019/04/19/289854_GoPro_Hero5_9995_with_Free_shipping_Military_AAF/20%Monthly2019-04-19 10:01
http://www.hotnewdeal.com/2019/04/19/289853_Lutron_Caseta_Wireless_Smart_Lighting_Dimmer_Switc/20%Monthly2019-04-19 10:01
http://www.hotnewdeal.com/2019/04/19/289852_Lenovo_156_Simple_Toploader_Laptop_Bag__Briefca/20%Monthly2019-04-19 10:01
http://www.hotnewdeal.com/2019/04/19/289850_Monster_Boy_and_the_Cursed_Kingdom_Nintendo_Switch/20%Monthly2019-04-19 09:54
http://www.hotnewdeal.com/2019/04/19/289849_Lowes__419__420_10_off_for_Lowes_credit_ca/20%Monthly2019-04-19 09:28
http://www.hotnewdeal.com/2019/04/19/289848_Microsoft_Surface_Ergonomic_Keyboard_AAFES_Milit/20%Monthly2019-04-19 09:28
http://www.hotnewdeal.com/2019/04/19/289847_PUMA_Select_Mens_Suede_Classic_Plus_Sneakers_15_/20%Monthly2019-04-19 08:52
http://www.hotnewdeal.com/2019/04/19/289846_Black__Decker_Cordless_Drill_20V_Max_w2_Batterie/20%Monthly2019-04-19 08:51
http://www.hotnewdeal.com/2019/04/19/289845_VIZIO_24_Class_HD_720P_LED_TV_D24hnG9__BM_/20%Monthly2019-04-19 08:44
http://www.hotnewdeal.com/2019/04/19/289844_Crucial_MX500_2TB_25_Internal_SSD_216_AC_Newgg/20%Monthly2019-04-19 08:21
http://www.hotnewdeal.com/2019/04/19/289843_Insignia__39_Class__LED__1080p__Smart__HDTV/20%Monthly2019-04-19 08:21
http://www.hotnewdeal.com/2019/04/19/289842_16GB_1x16GB_GSkill_Aegis_DDR4_2666_PC4_21300_/20%Monthly2019-04-19 07:00
http://www.hotnewdeal.com/2019/04/19/289841_Field_of_Dreams_4K_UHD_Digital_Film_499_via_Ap/20%Monthly2019-04-19 06:43
http://www.hotnewdeal.com/2019/04/19/289840_4Digit_Key_Storage_Combination_Lock_Box_1679/20%Monthly2019-04-19 04:01
http://www.hotnewdeal.com/2019/04/19/289839_AMD_Ryzen_3_2200G_Processor__SRock_B450MHDV_R40/20%Monthly2019-04-19 03:54
http://www.hotnewdeal.com/2019/04/19/289838_Dell_XPS_Desktop_8930_Intel_Core_i78700_8th_G/20%Monthly2019-04-19 03:29
http://www.hotnewdeal.com/2019/04/19/289837_Apple_MacBook_Pro_13_Laptop_Mid_2018_i5_8GB_R/20%Monthly2019-04-19 03:00
http://www.hotnewdeal.com/2019/04/19/289836_3M_Particulate_Respirator_Amazon_10Pk_for_1099/20%Monthly2019-04-19 02:43
http://www.hotnewdeal.com/2019/04/19/289835_Amazon__8Pack_ChildSafety_Cabinet_Locks__7_AC/20%Monthly2019-04-19 02:43
http://www.hotnewdeal.com/2019/04/19/289834_RCA_60_4K_tv_35999_Walmart/20%Monthly2019-04-19 02:43
http://www.hotnewdeal.com/2019/04/19/289833_Arozzi_Verona__Verona_Pro_V2_Gaming_Chairs__149/20%Monthly2019-04-19 02:13
http://www.hotnewdeal.com/2019/04/19/289832_PowerColor_Red_Dragon_RX_570_4GB_GDDR5_Graphics_Ca/20%Monthly2019-04-19 02:04
http://www.hotnewdeal.com/2019/04/19/289831_Brookside_Dark_Chocolate_Crunchy_Clusters_Berry_Me/20%Monthly2019-04-19 02:04
http://www.hotnewdeal.com/2019/04/19/289830_Gator_Lift_GL10_Plywood_and_Drywall_Panel_Carrier/20%Monthly2019-04-19 01:47
http://www.hotnewdeal.com/2019/04/19/289829_48Count_Ferrero_Rocher_Fine_Hazelnut_Milk_Chocola/20%Monthly2019-04-19 01:36
http://www.hotnewdeal.com/2019/04/19/289828_10TB_WD_Easystore_External_USB_30_Hard_Drive_160/20%Monthly2019-04-19 01:36
http://www.hotnewdeal.com/2019/04/19/289827_Marvel_Movies_Digital_HD_AntMan_and_the_Wasp_/20%Monthly2019-04-19 01:12
http://www.hotnewdeal.com/2019/04/19/289826_46_off_Farberware_32Quart_Digital_OilLess_Frye/20%Monthly2019-04-19 01:12
http://www.hotnewdeal.com/2019/04/19/289825_Salvatore_Ferragamo_Polarized_Classic_Square_Sungl/20%Monthly2019-04-19 01:12
http://www.hotnewdeal.com/2019/04/19/289824_EZVIZ_Outdoor_3MP_Video_Security_Surveillance_Syst/20%Monthly2019-04-19 01:12
http://www.hotnewdeal.com/2019/04/19/289823_Anker_Tempered_Glass_Screen_Protector_for_iPhone_X/20%Monthly2019-04-19 01:12
http://www.hotnewdeal.com/2019/04/19/289822_TCL__65_Class__LED__4_Series__2160p__Smart_/20%Monthly2019-04-19 00:21
http://www.hotnewdeal.com/2019/04/18/289821_Dell_24_IPS_Monitor_SE2419H_110_with_50_egift_c/20%Monthly2019-04-18 23:27
http://www.hotnewdeal.com/2019/04/18/289819_Open_Box__Apple__105Inch_iPad_Pro_with_WiFi_/20%Monthly2019-04-18 22:36
http://www.hotnewdeal.com/2019/04/18/289818_Costco_Members_Apple_AirPods_Wireless_Headphones_/20%Monthly2019-04-18 22:20
http://www.hotnewdeal.com/2019/04/18/289817_MMS_Caramel_Chocolate_Candy_Sharing_Size_96Oun/20%Monthly2019-04-18 21:59
http://www.hotnewdeal.com/2019/04/18/289815_Braun_70S_Series_7_Shaver_Replacement_Head_2544_/20%Monthly2019-04-18 21:27
http://www.hotnewdeal.com/2019/04/18/289814_Makita_18Volt_X2_LXT_Brushless_Cordless_Blower_T/20%Monthly2019-04-18 21:10
http://www.hotnewdeal.com/2019/04/18/289813_Shower_Heads__Clearance_at_Home_Depot_Glacier_Ba/20%Monthly2019-04-18 21:10
http://www.hotnewdeal.com/2019/04/18/289812_4_Pack_SYLVANIA_74768_Smart_Formerly_LIGHTIFY_Di/20%Monthly2019-04-18 20:43
http://www.hotnewdeal.com/2019/04/18/289811_Dyson_DC33_Multifloor_Bagless_Upright_Vacuum_99_/20%Monthly2019-04-18 20:35
http://www.hotnewdeal.com/2019/04/18/289810_Bestway_313x16x52quot_Rectangular_Frame_Above/20%Monthly2019-04-18 20:35
http://www.hotnewdeal.com/2019/04/18/289809_WORX_WG305_8Amp_14_Electric_Chainsaw_w_AutoTen/20%Monthly2019-04-18 20:09
http://www.hotnewdeal.com/2019/04/18/289808_Carters_bodysuit_5_pack_sets_from_585780/20%Monthly2019-04-18 20:09
http://www.hotnewdeal.com/2019/04/18/289807_Kitchen_Faucets_Glacier_Bay_Carla_PullOut_3450/20%Monthly2019-04-18 19:58
http://www.hotnewdeal.com/2019/04/18/289806_Lifetime_Triton_Angler_Kayak_160/20%Monthly2019-04-18 19:26
http://www.hotnewdeal.com/2019/04/18/289805_BHPhoto_Moto_X4_XT19001_64GB_Unlocked_Android_On/20%Monthly2019-04-18 19:21
http://www.hotnewdeal.com/2019/04/18/289804_Dyson_V6_Origin_Vacuum__WM_BampM_EXTREME_YMMV_D/20%Monthly2019-04-18 18:49
http://www.hotnewdeal.com/2019/04/18/289803_Linksys_Velop_Triband_AC4800_Intelligent_Mesh_WiFi/20%Monthly2019-04-18 18:34
http://www.hotnewdeal.com/2019/04/18/289802_Plants_and_Vegetable_plants_for_sale_on_178__In_/20%Monthly2019-04-18 18:25
http://www.hotnewdeal.com/2019/04/18/289801_KATE_SPADE_Up_to_75_Off_Surprise_Sale__Free_Shi/20%Monthly2019-04-18 18:08
http://www.hotnewdeal.com/2019/04/18/289800_Tekton_Bungee_Cords__Straps__2_each_with_25_o/20%Monthly2019-04-18 17:57
http://www.hotnewdeal.com/2019/04/18/289799_5Piece_Burts_Bees_Essential_Travel_Size_Kit_61/20%Monthly2019-04-18 17:57
http://www.hotnewdeal.com/2019/04/18/289798_LEGO_Friends_Heros_Disney_Sets_Clearance_at_Walmar/20%Monthly2019-04-18 17:52
http://www.hotnewdeal.com/2019/04/18/289797_Reebok_Mens_Zip_Pulse_3_Training_Shoes_Various_C/20%Monthly2019-04-18 17:41
http://www.hotnewdeal.com/2019/04/18/289796_Philips_Hue_White_Ambiance_A19_and_Dimmer_Switch_I/20%Monthly2019-04-18 17:25
http://www.hotnewdeal.com/2019/04/18/289795_Stanley_FATMAX_25_tape_measure_FREE_SH_25/20%Monthly2019-04-18 17:09
http://www.hotnewdeal.com/2019/04/18/289794_GFloor_Grill_Mat_47_x_32_Diamond_Tread_Metal/20%Monthly2019-04-18 17:09
http://www.hotnewdeal.com/2019/04/18/289793_5Pound_Bag_300Count_YumEarth_Organic_Vitamin_C/20%Monthly2019-04-18 16:47
http://www.hotnewdeal.com/2019/04/18/289792_Favoto_Motorcycle_Cover_with_3_Night_Reflective__/20%Monthly2019-04-18 16:39
http://www.hotnewdeal.com/2019/04/18/289791_Tmobile_Money_bank_account_4_APY_for_up_to_300/20%Monthly2019-04-18 16:39
http://www.hotnewdeal.com/2019/04/18/289789_TPLink_RE360_AC1200_DualBand_Wireless_Range_Exte/20%Monthly2019-04-18 16:24
http://www.hotnewdeal.com/2019/04/18/289788_Overcooked_2_Nintendo_Switch_Digital_Download_/20%Monthly2019-04-18 16:16
http://www.hotnewdeal.com/2019/04/18/289787_ZWave_2GIG_ZBRDG_PLUGIN_LAMP_DIMMER_799/20%Monthly2019-04-18 15:57
http://www.hotnewdeal.com/2019/04/18/289786_Vudu_Today_Only_1_Credit_when_you_watch_a_free_a/20%Monthly2019-04-18 15:57
http://www.hotnewdeal.com/2019/04/18/289785_Lodge_5Piece_Seasoned__Enameled_Cast_Iron_Cookwa/20%Monthly2019-04-18 15:56
http://www.hotnewdeal.com/2019/04/18/289784_Sony_WH1000XM3_Bluetooth_Noise_Canceling_Headphone/20%Monthly2019-04-18 15:56
http://www.hotnewdeal.com/2019/04/18/289783_CyberPowerPC_AURON_Desktop_i78700K_16GB_RAM_51/20%Monthly2019-04-18 15:56
http://www.hotnewdeal.com/2019/04/18/289782_3Pack_Google_Home_Mini_Smart_Speaker_ChalkCharco/20%Monthly2019-04-18 15:40
http://www.hotnewdeal.com/2019/04/18/289781_Autogeek_12_hour_Flash_Sale_25_off_with_coupon_/20%Monthly2019-04-18 15:39
http://www.hotnewdeal.com/2019/04/18/289780_6999_42_off_Hamilton_Beach_10Cup_FlexBrew_Th/20%Monthly2019-04-18 15:24
http://www.hotnewdeal.com/2019/04/18/289779_CVS_Photo_70_off_11x14_16x20_24x36_canvas_prin/20%Monthly2019-04-18 14:56
http://www.hotnewdeal.com/2019/04/18/289778_Magic_The_Gathering_Guilds_of_Ravnica_Bundle_Pack/20%Monthly2019-04-18 14:56
http://www.hotnewdeal.com/2019/04/18/289777_4_pack_SYLVANIA_74768_Smart_Formerly_LIGHTIFY_On/20%Monthly2019-04-18 14:33
http://www.hotnewdeal.com/2019/04/18/289776_The_Book_of_Life_2_Discs_Bluray_DVD_Digital_HD_/20%Monthly2019-04-18 14:33
http://www.hotnewdeal.com/2019/04/18/289775_AUKEY_Dash_Cams_DR02_Sony_Sensor__Night_Vision_/20%Monthly2019-04-18 14:33
http://www.hotnewdeal.com/2019/04/18/289774_CrockPot_BOGO_Free_on_24Ounce_Lunch_Crock_Food_/20%Monthly2019-04-18 14:33
http://www.hotnewdeal.com/2019/04/18/289773_DEWALT_ToughSystem_DS150__1750/20%Monthly2019-04-18 14:16
http://www.hotnewdeal.com/2019/04/18/289772_Sentai_Filmworks_Anime_Sale_KON_Premium_Box_Set/20%Monthly2019-04-18 14:16
http://www.hotnewdeal.com/2019/04/18/289770_Anime_YuGiOh_ARCV_Season_1_Volume_1_Blura/20%Monthly2019-04-18 14:08
http://www.hotnewdeal.com/2019/04/18/289769_Netgear_Orbi_RBK23_Mesh_WiFi_System__WiFi_router_/20%Monthly2019-04-18 14:07
http://www.hotnewdeal.com/2019/04/18/289768_Endangered_Species_Chocolate_BOGO_12Pack_of_3Ou/20%Monthly2019-04-18 13:57
http://www.hotnewdeal.com/2019/04/18/289766_30_eGift_Card_To_Hooters_15_YMMV/20%Monthly2019-04-18 13:57
http://www.hotnewdeal.com/2019/04/18/289765_Endangered_Species_Chocolate_12Pack_of_3Ounce_B/20%Monthly2019-04-18 13:56
http://www.hotnewdeal.com/2019/04/18/289764_6Pack_317_to_353oz_HiChew_Chewy_Japanese_Fruit/20%Monthly2019-04-18 13:39
http://www.hotnewdeal.com/2019/04/18/289763_Tufted_Headboards_Silverwood_Reimagined__Queen_f/20%Monthly2019-04-18 13:35
http://www.hotnewdeal.com/2019/04/18/289762_SmartStraps_2_in_x_27_ft_Yellow_Ratchet_with_Dou/20%Monthly2019-04-18 13:25
http://www.hotnewdeal.com/2019/04/18/289761_Hypoallergenic_Shredded_Gel_Memory_Foam_Pillow__/20%Monthly2019-04-18 13:25
http://www.hotnewdeal.com/2019/04/18/289759_CyberpowerPC_Gaming_Desktop_Gamer_Xtreme_C790T_Int/20%Monthly2019-04-18 13:09
http://www.hotnewdeal.com/2019/04/18/289758_Ernie_Ball_Music_Man_Cutlass_Trem_Maple_Fingerboar/20%Monthly2019-04-18 13:09
http://www.hotnewdeal.com/2019/04/18/289757_Dove_Nutritive_Solutions_Daily_Moisture_Conditione/20%Monthly2019-04-18 12:56
http://www.hotnewdeal.com/2019/04/18/289756_Nest_x_yale_lock_with_nest_connect_21165/20%Monthly2019-04-18 12:48
http://www.hotnewdeal.com/2019/04/18/289755_Toro_Timemaster_30_inch_lawn_mower_21199__Home_/20%Monthly2019-04-18 12:27
http://www.hotnewdeal.com/2019/04/18/289754_Lenovo_C930_for_950_BestBuy/20%Monthly2019-04-18 12:27
http://www.hotnewdeal.com/2019/04/18/289753_Samsonite_Kombi_4_Square_Laptop_Backpack_for_5250/20%Monthly2019-04-18 12:13
http://www.hotnewdeal.com/2019/04/18/289752_DELL_GSERIES_15_5590_GAMING_LAPTOP_156_INTEL_I7/20%Monthly2019-04-18 11:42
http://www.hotnewdeal.com/2019/04/18/289751_Power_Vision_PowerEgg_Drone_369__BH_Photo_w_Fr/20%Monthly2019-04-18 11:42
http://www.hotnewdeal.com/2019/04/18/289750_Smashbox_4Pc_Full_Size_Lip__Eye_Set_1950_48/20%Monthly2019-04-18 11:27
http://www.hotnewdeal.com/2019/04/18/289749_Yale_Assure_Lock_Touchscreen_Keypad_with_ZWave_S/20%Monthly2019-04-18 11:21
http://www.hotnewdeal.com/2019/04/18/289748_Samsung_Electronics_32GB_A6_Factory_Unlocked_Phone/20%Monthly2019-04-18 10:59
http://www.hotnewdeal.com/2019/04/18/289747_iRobot_Roomba_i7_7550_SelfCharging_Robot_Vacuum_/20%Monthly2019-04-18 10:50
http://www.hotnewdeal.com/2019/04/18/289746_Disney_Movie_Rewards_50_Off_Select_Disneynature_/20%Monthly2019-04-18 10:50
http://www.hotnewdeal.com/2019/04/18/289745_30_Moto_E4_XT1768_Unlocked_Universal_Android_Phon/20%Monthly2019-04-18 10:40
http://www.hotnewdeal.com/2019/04/18/289744_Lag_T270D_Dreadnought_Satin_CE_Acoustic_Guitar_T27/20%Monthly2019-04-18 10:00
http://www.hotnewdeal.com/2019/04/18/289743_200GB_SanDisk_Ultra_U1_A1_microSDXC_UHS1_Class_10/20%Monthly2019-04-18 09:28
http://www.hotnewdeal.com/2019/04/18/289741_64_32_Sharp_semismart_tv__limited_apps_Walma/20%Monthly2019-04-18 09:28
http://www.hotnewdeal.com/2019/04/18/289740_Large_multifunctional_diaper_bag_backpack_2350_/20%Monthly2019-04-18 09:11
http://www.hotnewdeal.com/2019/04/18/289739_1lb_ComStar_Pure_Lye_Bead_Drain_Opener__Amazon_/20%Monthly2019-04-18 08:59
http://www.hotnewdeal.com/2019/04/18/289738_16GB_2x8GB_Corsair_Vengeance_LPX_DDR4_3000_PC4_/20%Monthly2019-04-18 08:51
http://www.hotnewdeal.com/2019/04/18/289737_60_Count_Lindor_Truffles_999/20%Monthly2019-04-18 08:45
http://www.hotnewdeal.com/2019/04/18/289736_SoulCalibur_VI_PC_Digital_Download_1899_via_Fa/20%Monthly2019-04-18 07:54
http://www.hotnewdeal.com/2019/04/18/289735_CITY_PICKERS_245_in_x_205_in_Patio_Raised_Gard/20%Monthly2019-04-18 07:28
http://www.hotnewdeal.com/2019/04/18/289734_Acer_Nitro_5_Laptop_Ryzen_5_2500U_156_1080p_IP/20%Monthly2019-04-18 05:29
http://www.hotnewdeal.com/2019/04/18/289733_Benefit_Cosmetics_6Pc_Full_Size_Limited_Edition_M/20%Monthly2019-04-18 05:29
http://www.hotnewdeal.com/2019/04/18/289732_Conair_2_Sided_3x_Round_Stand_Mirror_with_Free_shi/20%Monthly2019-04-18 05:13
http://www.hotnewdeal.com/2019/04/18/289730_Parrot_ANAFI_PF728000_4K_HDR_Quadcopter_Drone_w_P/20%Monthly2019-04-18 04:25
http://www.hotnewdeal.com/2019/04/18/289729_Ecco_Coupon_Additional_savings_on_Sale_items_40/20%Monthly2019-04-18 03:32
http://www.hotnewdeal.com/2019/04/18/289728_Amazon_Warehouse__USA_USED__Acceptable__Star_/20%Monthly2019-04-18 02:38
http://www.hotnewdeal.com/2019/04/18/289727_Outlet_Wall_Mount_Holder_Stand_for_Echo_Dot_3rd_Ge/20%Monthly2019-04-18 02:25
http://www.hotnewdeal.com/2019/04/18/289726_3Pack_of_187oz_Kelloggs_Raisin_Bran_Cereal_60/20%Monthly2019-04-18 02:08
http://www.hotnewdeal.com/2019/04/18/289725_8TB_Seagate_Backup_Plus_USB_30_External_Hard_Driv/20%Monthly2019-04-18 01:46
http://www.hotnewdeal.com/2019/04/18/289724_Microsoft_Surface_Laptop_i7_7th_Gen_7660U_250_GH/20%Monthly2019-04-18 01:14
http://www.hotnewdeal.com/2019/04/18/289723_BM_YMMV_Durasharp_EXTRA_688_Cushion_Grip_Sci/20%Monthly2019-04-18 00:23
http://www.hotnewdeal.com/2019/04/18/289722_Singapore_Airlines_Special_Spring_Fares_From_550_/20%Monthly2019-04-18 00:05
http://www.hotnewdeal.com/2019/04/17/289721_120Ct_Downy_April_Fresh_Fabric_Softener_Dryer_She/20%Monthly2019-04-17 23:49
http://www.hotnewdeal.com/2019/04/17/289720_Timberland_Mens_Groveton_Chukka_Sneakers_grey_/20%Monthly2019-04-17 23:33
http://www.hotnewdeal.com/2019/04/17/289719_AMD_Ryzen_3_1200_4Core_31GHz_Desktop_Processor_/20%Monthly2019-04-17 23:25
http://www.hotnewdeal.com/2019/04/17/289718_2018_Alfa_Romeo_Giulia_9500_off_MSRP_down_to_ab/20%Monthly2019-04-17 23:16
http://www.hotnewdeal.com/2019/04/17/289717_58Count_Quaker_Chewy_Granola_Bars_Variety_Pack_S/20%Monthly2019-04-17 23:16
http://www.hotnewdeal.com/2019/04/17/289716_Smithsonian_Plus_4K_Streaming_Service_399_per_mo/20%Monthly2019-04-17 23:16
http://www.hotnewdeal.com/2019/04/17/289715_Digital_HD_Movies_Into_the_Wild_Cheech_and_Chong/20%Monthly2019-04-17 22:42
http://www.hotnewdeal.com/2019/04/17/289714_Razor_A5_Lux_Scooter_Free_Shipping_54/20%Monthly2019-04-17 22:42
http://www.hotnewdeal.com/2019/04/17/289713_Schlage_Plymouth_Door_Handlesets_Georgian_Knob_B/20%Monthly2019-04-17 21:57
http://www.hotnewdeal.com/2019/04/17/289712_BAYER_ADVANCED_32fl_oz_Concentrate_Lawn_Weed_Kill/20%Monthly2019-04-17 21:56
http://www.hotnewdeal.com/2019/04/17/289711_Vermont_Teddy_Bear_Stuffed_Animals_up_to_60_off_/20%Monthly2019-04-17 21:46
http://www.hotnewdeal.com/2019/04/17/289710_Mini_Keychain_Flashlight_Torch_10_Pack_45_Lumen_/20%Monthly2019-04-17 21:31
http://www.hotnewdeal.com/2019/04/17/289709_Converse_CouponAdditional_30_Off_Sale_Sports_Du/20%Monthly2019-04-17 21:24
http://www.hotnewdeal.com/2019/04/17/289708_Amazon_3_Credit_for_listening_to_a_full_track_on_/20%Monthly2019-04-17 21:16
http://www.hotnewdeal.com/2019/04/17/289707_Phoenix_to_Tokyo_Japan_671_RT_Airfares_on_Delta_A/20%Monthly2019-04-17 21:16
http://www.hotnewdeal.com/2019/04/17/289705_Turtle_Beach_Recon_50X_Gaming_Headset_for_Xbox_One/20%Monthly2019-04-17 21:03
http://www.hotnewdeal.com/2019/04/17/289704_Intel_660p_Series_M2_2280_2TB_PCIExpress_30_x4_/20%Monthly2019-04-17 20:16
http://www.hotnewdeal.com/2019/04/17/289703_Whitestone_Dome_Glass_iPhone_8__8_Plus_60_OFF_/20%Monthly2019-04-17 19:45
http://www.hotnewdeal.com/2019/04/17/289702_Barbasol_Shave_Club_Starter_Kit_or_Pure_Silk_Start/20%Monthly2019-04-17 19:45
http://www.hotnewdeal.com/2019/04/17/289701_PC_Digital_Download_Mad_Max_374_Batman_Arkham_/20%Monthly2019-04-17 19:45
http://www.hotnewdeal.com/2019/04/17/289700_AudioTechnica_ATLP60_Fully_Automatic_Turntable_/20%Monthly2019-04-17 18:23
http://www.hotnewdeal.com/2019/04/17/289699_RYOBI_13_in_ONE_18Volt_LithiumIon_Cordless_Bat/20%Monthly2019-04-17 17:46
http://www.hotnewdeal.com/2019/04/17/289698_Kirkland_Signature_Baby_Wipes_900count_4_off_17/20%Monthly2019-04-17 17:39
http://www.hotnewdeal.com/2019/04/17/289697_Mildew_Resistant_Fabric_Shower_Curtain_799/20%Monthly2019-04-17 17:31
http://www.hotnewdeal.com/2019/04/17/289696_Samsonite_StackIt_Plus_2_Piece_Stackable_1680D_Lug/20%Monthly2019-04-17 17:24
http://www.hotnewdeal.com/2019/04/17/289695_Call_of_Duty_WWII_Gold_Edition_Xbox_One_or_PS4_fo/20%Monthly2019-04-17 17:24
http://www.hotnewdeal.com/2019/04/17/289694_LEGO_Star_Wars_Darth_Vader_Bust_75227_3799_back_/20%Monthly2019-04-17 16:57
http://www.hotnewdeal.com/2019/04/17/289693_Philips_X2HR_HiRes_Audio_Headphones_18799__New/20%Monthly2019-04-17 16:35
http://www.hotnewdeal.com/2019/04/17/289692_Nest_Hello_Smart_WiFi_Video_Doorbell__16995__/20%Monthly2019-04-17 16:35
http://www.hotnewdeal.com/2019/04/17/289691_Westek_15Amp_3Outlet_Digital_Residential_Plugin/20%Monthly2019-04-17 16:35
http://www.hotnewdeal.com/2019/04/17/289690_Pioneer_VSX933_72Channel_AV_Receiver_250__Fr/20%Monthly2019-04-17 16:13
http://www.hotnewdeal.com/2019/04/17/289689_Incase_Designs_Corp_Compass_Messenger_Bag_Black_C/20%Monthly2019-04-17 16:13
http://www.hotnewdeal.com/2019/04/17/289688_New_Google_Express_users_Crucial_SATA_SSD_MX500_1/20%Monthly2019-04-17 16:04
http://www.hotnewdeal.com/2019/04/17/289687_Costway_45_Large_Folding_Ottoman_Storage_Seat__/20%Monthly2019-04-17 16:04
http://www.hotnewdeal.com/2019/04/17/289686_Nintendo_Switch_Console_Amazon_Warehouse_Deals_20/20%Monthly2019-04-17 15:45
http://www.hotnewdeal.com/2019/04/17/289685_Seventh_Generation_concentrated_Laundry_Detergent/20%Monthly2019-04-17 15:30
http://www.hotnewdeal.com/2019/04/17/289684_Fosmon_Gaming_Accessories_for_Xbox_One_One_X_One/20%Monthly2019-04-17 15:30
http://www.hotnewdeal.com/2019/04/17/289683_Pace_6_Plus_Combo_Set_1_handle_10_cartridges__/20%Monthly2019-04-17 15:30
http://www.hotnewdeal.com/2019/04/17/289682_JBM_international_Air_Mattresses_with_Electric_Pum/20%Monthly2019-04-17 15:30
http://www.hotnewdeal.com/2019/04/17/289681_SkyTech_Archangel_VR_Ready_Gaming_Computer_Desktop/20%Monthly2019-04-17 15:14
http://www.hotnewdeal.com/2019/04/17/289680_DEWALT_DCL043_20V_MAX_Jobsite_LED_Spotlight_6669/20%Monthly2019-04-17 15:14
http://www.hotnewdeal.com/2019/04/17/289679_DeLonghi_ECP3120_15_Bar_Espresso_Machine_with_Adv/20%Monthly2019-04-17 15:14
http://www.hotnewdeal.com/2019/04/17/289678_Lodge_12_cast_iron_skillet_possibly_others_74/20%Monthly2019-04-17 15:14
http://www.hotnewdeal.com/2019/04/17/289677_20_off_Used_Asus_Routers_during_Amazon_Warehouse_/20%Monthly2019-04-17 15:01
http://www.hotnewdeal.com/2019/04/17/289676_Panasonic_Lumix_G9_Body_only_866__Link_New_after/20%Monthly2019-04-17 15:01
http://www.hotnewdeal.com/2019/04/17/289675_Powerstroke_3100PSI_Yamaha_Gas_Pressure_Washer_wit/20%Monthly2019-04-17 15:00
http://www.hotnewdeal.com/2019/04/17/289674_ASUS_VivoBook_Laptop_Ryzen_5_2500U_8GB_256_GB_S/20%Monthly2019-04-17 15:00
http://www.hotnewdeal.com/2019/04/17/289673_Swagbucks_get_40_for_5_spent_on_vuse_vapor_alt/20%Monthly2019-04-17 14:45
http://www.hotnewdeal.com/2019/04/17/289672_Apple_iPad_Latest_Model_128GB_WiFi_all_color_/20%Monthly2019-04-17 14:30
http://www.hotnewdeal.com/2019/04/17/289671_Ainope_Cases_for_iPhone_XR_Multiple_Colors_iPho/20%Monthly2019-04-17 14:18
http://www.hotnewdeal.com/2019/04/17/289669_Razor_A2_Kick_Scooter_Standard_Packaging_Scooter/20%Monthly2019-04-17 14:04
http://www.hotnewdeal.com/2019/04/17/289668_24_LG_24GL600FB_144hz_1ms_FreeSync_1080p_Gaming_/20%Monthly2019-04-17 14:04
http://www.hotnewdeal.com/2019/04/17/289667_Roborock_S5_41599/20%Monthly2019-04-17 13:46
http://www.hotnewdeal.com/2019/04/17/289666_Fanatical_Mystery_Egg_Bundle__Drawing_from_1/20%Monthly2019-04-17 13:46
http://www.hotnewdeal.com/2019/04/17/289665_Amazon__The_Plastic_Magician_A_Paper_Magician_N/20%Monthly2019-04-17 13:46
http://www.hotnewdeal.com/2019/04/17/289664_SteelSeries_Arctis_7_Wireless_Headset_2019_Editio/20%Monthly2019-04-17 13:39
http://www.hotnewdeal.com/2019/04/17/289663_Overwatch_Legendary_Edition_20/20%Monthly2019-04-17 13:39
http://www.hotnewdeal.com/2019/04/17/289662_BofA_Use_Zelle_to_transfer_and_get_10_FREE/20%Monthly2019-04-17 13:31
http://www.hotnewdeal.com/2019/04/17/289661_1TB_Intel_660p_NVMe_SSD_102__free_sh/20%Monthly2019-04-17 13:31
http://www.hotnewdeal.com/2019/04/17/289660_Costco_Members_Keurig_KElite_C_Single_Serve_Coff/20%Monthly2019-04-17 13:31
http://www.hotnewdeal.com/2019/04/17/289659_Dr_Scholls_Comfort_and_Energy_Work_Insoles_for_M/20%Monthly2019-04-17 13:30
http://www.hotnewdeal.com/2019/04/17/289658_JBL_Soundboost_2_Moto_Mod_speaker_35_FS/20%Monthly2019-04-17 13:14
http://www.hotnewdeal.com/2019/04/17/289657_Denver_to_Beijing_China_403_RT_Airfares_on_United/20%Monthly2019-04-17 13:08
http://www.hotnewdeal.com/2019/04/17/289656_Purex_Laundry_Class_Action_Settlement_40_cash_ba/20%Monthly2019-04-17 13:01
http://www.hotnewdeal.com/2019/04/17/289655_6pack_of_20oz_Enfamil_NeuroPro_Gentlease_Infant_F/20%Monthly2019-04-17 12:35
http://www.hotnewdeal.com/2019/04/17/289654_Halter_ED258_Preassembled_Height_Adjustable_Desk_/20%Monthly2019-04-17 12:13
http://www.hotnewdeal.com/2019/04/17/289653_DeWalt_Leather_Work_Boots_Helix_Steel_Toe_Haloge/20%Monthly2019-04-17 11:47
http://www.hotnewdeal.com/2019/04/17/289652_PNY_Elite_Turbo_Attache_3__USB_flash_drive__256_/20%Monthly2019-04-17 11:40
http://www.hotnewdeal.com/2019/04/17/289651_New_Balance_BlackLaser_BlueTeam_Royal_Performanc/20%Monthly2019-04-17 11:32
http://www.hotnewdeal.com/2019/04/17/289650_60_LG_UK6090PUA_4K_Smart_LED_TV_477__free_shipp/20%Monthly2019-04-17 11:32
http://www.hotnewdeal.com/2019/04/17/289649_Rachio_Smart_Sprinkler_Controllers__Save_30_on_E/20%Monthly2019-04-17 11:32
http://www.hotnewdeal.com/2019/04/17/289648_65_Samsung_QN65Q6FN_QLED_Smart_4K_UHD_TV_2018_Mod/20%Monthly2019-04-17 11:31
http://www.hotnewdeal.com/2019/04/17/289647_SunFounder_Mega_2560_R3_Project_Super_Starter_Kit_/20%Monthly2019-04-17 11:31
http://www.hotnewdeal.com/2019/04/17/289646_Thrustmaster_T300_RS_GT_Edition_Racing_Wheel__28/20%Monthly2019-04-17 11:25
http://www.hotnewdeal.com/2019/04/17/289645_Crabgrass_Control_1Gal_ORTHO_Weed_B_Gon_324_1/20%Monthly2019-04-17 11:15
http://www.hotnewdeal.com/2019/04/17/289644_34_ED347CKR_bmidphzx_Curved_FreeSync_WQHD_Ultrawi/20%Monthly2019-04-17 11:15
http://www.hotnewdeal.com/2019/04/17/289642_Chefman__Electric_Egg_Cooker_Black_999__Best_B/20%Monthly2019-04-17 10:57
http://www.hotnewdeal.com/2019/04/17/289641_Crash_Bandicoot_N_Sane_Trilogy_2399_Digital_Ver/20%Monthly2019-04-17 10:57
http://www.hotnewdeal.com/2019/04/17/289640_TV_Seasons_Digital_HD_True_Conviction_Season_2/20%Monthly2019-04-17 10:57
http://www.hotnewdeal.com/2019/04/17/289639_2Pack_TPLINK_SMART_WiFi_Light_Switch_HS200_3/20%Monthly2019-04-17 10:13
http://www.hotnewdeal.com/2019/04/17/289638_EVGA_B_stock_sale_97099_1060129_980Ti199_/20%Monthly2019-04-17 10:05
http://www.hotnewdeal.com/2019/04/17/289637_Walmart_Has_PlayStation_4_Slim_Call_of_Duty_4_for_/20%Monthly2019-04-17 10:05
http://www.hotnewdeal.com/2019/04/17/289636_Acer_ED347CKR_34_Curved_FreeSync_Ultrawide_39999/20%Monthly2019-04-17 09:47
http://www.hotnewdeal.com/2019/04/17/289635_Westinghouse_WA55UFA1001_55_4K_UHD_Smart_LED_TV_/20%Monthly2019-04-17 09:41
http://www.hotnewdeal.com/2019/04/17/289634_CargoLoc_2in1_Hitch_Mount_and_Rooftop_Cargo_Carr/20%Monthly2019-04-17 09:40
http://www.hotnewdeal.com/2019/04/17/289633_Worx_Jawhorse_6560_Pegasus_8399_Aerocart_99/20%Monthly2019-04-17 09:32
http://www.hotnewdeal.com/2019/04/17/289632_512GB_Plextor_S2G_M2_2280_Hynix_16nm_TLC_SATA_III/20%Monthly2019-04-17 09:32
http://www.hotnewdeal.com/2019/04/17/289631_Dr_Seuss_The_Grinch_4K_Ultra_HD__BluRay__Dig/20%Monthly2019-04-17 09:32
http://www.hotnewdeal.com/2019/04/17/289630_Sun_Joe_SPX200ERM_Electric_Pressure_Washer_1350_/20%Monthly2019-04-17 09:25
http://www.hotnewdeal.com/2019/04/17/289629_Nerdi_2_in_1_Phone_Wireless_Charger_and_Apple_Watc/20%Monthly2019-04-17 08:57
http://www.hotnewdeal.com/2019/04/17/289628_Intel_660p_Series_M2_2280_2TB_NVMe_SSD_190_AC_N/20%Monthly2019-04-17 08:37
http://www.hotnewdeal.com/2019/04/17/289625_Frigidaire_FFAD5033R1_50pint_Energy_Star_Dehumidi/20%Monthly2019-04-17 08:06
http://www.hotnewdeal.com/2019/04/17/289624_Bestek_150W_Power_Inverter_w_42A_Dual_USB_Car_Ad/20%Monthly2019-04-17 07:40
http://www.hotnewdeal.com/2019/04/17/289623_2Pack_of_18oz_Aveeno_Baby_Daily_Moisture_Lotion_w/20%Monthly2019-04-17 07:31
http://www.hotnewdeal.com/2019/04/17/289622_Frontline_Plus_for_Dogs_4588_lbs_Purple_6_Month_f/20%Monthly2019-04-17 07:11
http://www.hotnewdeal.com/2019/04/17/289621_Google_Home_Hub_Smart_Display_Chalk_or_Charcoal_/20%Monthly2019-04-17 07:10
http://www.hotnewdeal.com/2019/04/17/289620_TMobile_Customers_0423_Free_Redbox_5_off_ebay/20%Monthly2019-04-17 06:35
http://www.hotnewdeal.com/2019/04/17/289619_10Tool_DeWALT_20V_Max_Liion_Cordless_Combo_w_B/20%Monthly2019-04-17 06:35
http://www.hotnewdeal.com/2019/04/17/289618_Various_Chocolate_Bars_from_Woot_Snickers_Twix_/20%Monthly2019-04-17 04:31
http://www.hotnewdeal.com/2019/04/17/289617_Just_Dance_2019__Nintendo_Switch_for_18__Free_S/20%Monthly2019-04-17 03:47
http://www.hotnewdeal.com/2019/04/17/289616_MSI_GS65_Stealth_Laptop_Intel_Core_i78750H_156/20%Monthly2019-04-17 03:08
http://www.hotnewdeal.com/2019/04/17/289615_Dell_Inspiron_7000_2in1_Laptop_Intel_Core_i785/20%Monthly2019-04-17 02:32
http://www.hotnewdeal.com/2019/04/17/289614_Costco_Members_Set_of_4_Michelin_Tires_w_001_I/20%Monthly2019-04-17 02:10
http://www.hotnewdeal.com/2019/04/17/289613_21_Jump_Street_Season_2_on_Amazon_099/20%Monthly2019-04-17 01:49
http://www.hotnewdeal.com/2019/04/17/289612_ASRock_B450M_PRO4_Promontory_AMD_AM4_Micro_ATX_Mot/20%Monthly2019-04-17 01:40
http://www.hotnewdeal.com/2019/04/17/289611_Cowboy_Bebop_Complete_Series_Digital_HD_999/20%Monthly2019-04-17 01:17
http://www.hotnewdeal.com/2019/04/17/289609_Digital_Games_Unravel_Two_PS4_5_or_Xbox_One_/20%Monthly2019-04-17 01:17
http://www.hotnewdeal.com/2019/04/17/289608_Star_vs_the_Forces_of_Evil_Season_7_Digital_HD_/20%Monthly2019-04-17 00:24
http://www.hotnewdeal.com/2019/04/17/289607_AmazonBasics_Portable_USB_Condenser_Microphone_11/20%Monthly2019-04-17 00:08
http://www.hotnewdeal.com/2019/04/17/289606_Amazon_Warehouse_Nintendo_Switch_with_RedBlue_Jo/20%Monthly2019-04-17 00:08
http://www.hotnewdeal.com/2019/04/16/289605_Microsoft_Xbox_One_Wireless_Controller_White_TF5/20%Monthly2019-04-16 23:51
http://www.hotnewdeal.com/2019/04/16/289603_Southwest_Airlines__Nationwide_Spring_Travel_3Da/20%Monthly2019-04-16 23:36
http://www.hotnewdeal.com/2019/04/16/289602_6_Pack_Screen_Protector_for_Apple_Watch_40mm__3/20%Monthly2019-04-16 23:35
http://www.hotnewdeal.com/2019/04/16/289601_Xbox_One_X_1_TB__349__Walmart__IN_STORE__YMMV/20%Monthly2019-04-16 22:37
http://www.hotnewdeal.com/2019/04/16/289599_CyberPowerPC_Gamer_Supreme_Desktop_Ryzen_7_2700X/20%Monthly2019-04-16 22:06
http://www.hotnewdeal.com/2019/04/16/289598_Uniden_DFR8_Radar_Detector_13499/20%Monthly2019-04-16 21:47
http://www.hotnewdeal.com/2019/04/16/289597_6Count_Everyone_Hand_Sanitizer_Spray_Peppermint_/20%Monthly2019-04-16 21:27
http://www.hotnewdeal.com/2019/04/16/289596_Adjustable_Lap_Desk_with_8_Adjustable_Angles__Dua/20%Monthly2019-04-16 21:26
http://www.hotnewdeal.com/2019/04/16/289595_Batman_The_Complete_Animated_Series_RegionFree_/20%Monthly2019-04-16 20:58
http://www.hotnewdeal.com/2019/04/16/289594_Sony_A6500_Used__Like_New__Amazon_Warehouse_deal/20%Monthly2019-04-16 20:58
http://www.hotnewdeal.com/2019/04/16/289593_Amazon__Cutting_Board_Mats_With_Food_Icons_with_E/20%Monthly2019-04-16 20:58
http://www.hotnewdeal.com/2019/04/16/289592_AmazonBasics_Ergonomic_Wireless_Mouse_w_Adjustabl/20%Monthly2019-04-16 20:37
http://www.hotnewdeal.com/2019/04/16/289591_Banana_Republic_Factory_Tees_from_5_Jeans_10_/20%Monthly2019-04-16 20:37
http://www.hotnewdeal.com/2019/04/16/289590_Shinola_Canfield_Headphones_at_Nordstrom_Rack_On/20%Monthly2019-04-16 20:29
http://www.hotnewdeal.com/2019/04/16/289589_14_Day_Pill__Vitamin_Organizer_AMPM_Travel_Case_/20%Monthly2019-04-16 20:29
http://www.hotnewdeal.com/2019/04/16/289588_Wall_Mount_Stand_for_Amazon_Alexa_Echo_Dot_3rd_Ge/20%Monthly2019-04-16 20:20
http://www.hotnewdeal.com/2019/04/16/289587_70in_Silver_Foot_Switch_Floor_Lamp_with_Paper_Sha/20%Monthly2019-04-16 19:59
http://www.hotnewdeal.com/2019/04/16/289586_ConditionNew_HP_PRIME_G2_GRAPHING_CALCULATOR_2AP1/20%Monthly2019-04-16 19:59
http://www.hotnewdeal.com/2019/04/16/289585_Straight_Talk_Prepaid_Apple_iPhone_SE_32GB__WM_B/20%Monthly2019-04-16 19:42
http://www.hotnewdeal.com/2019/04/16/289584_tink_Home_Connected_Deals_August_Smart_Lock_Pro_/20%Monthly2019-04-16 19:27
http://www.hotnewdeal.com/2019/04/16/289583_43_Insignia_NS43DF710NA19_4K_UHD_HDR_Fire_TV_Sma/20%Monthly2019-04-16 18:54
http://www.hotnewdeal.com/2019/04/16/289582_CANSHN_iPhone_Clear_Cases_for_iPhone_78_78_Plus/20%Monthly2019-04-16 18:54
http://www.hotnewdeal.com/2019/04/16/289580_Boston_to_Dublin_Ireland_271291_RT_Airfares_on_/20%Monthly2019-04-16 18:42
http://www.hotnewdeal.com/2019/04/16/289579_Apple_12_MacBook_Mid_2017_Rose_Gold_for_7990/20%Monthly2019-04-16 18:42
http://www.hotnewdeal.com/2019/04/16/289578_Xbox_one_s_1tb_console__battlefield_v_bundle__1/20%Monthly2019-04-16 18:42
http://www.hotnewdeal.com/2019/04/16/289577_Bosch_ProGrade_ZigBee_Wireless_Motion_Detector_IS/20%Monthly2019-04-16 18:42
http://www.hotnewdeal.com/2019/04/16/289576_TCL_65_65R617_4K_Roku_SmartTV_720_AC__55_55R6/20%Monthly2019-04-16 18:29
http://www.hotnewdeal.com/2019/04/16/289575_SANSI_MotionActivated_LED_Security_Lights_27W_2/20%Monthly2019-04-16 18:12
http://www.hotnewdeal.com/2019/04/16/289574_Glass_Digital_Bathroom_Scales_15/20%Monthly2019-04-16 18:12
http://www.hotnewdeal.com/2019/04/16/289573_Amazon_Warehouse_Deals__Additional_20_off_Tens_o/20%Monthly2019-04-16 18:00
http://www.hotnewdeal.com/2019/04/16/289571_Lag_Tramontane_70_Auditorium_Cutaway_Solid_Sitka_S/20%Monthly2019-04-16 17:53
http://www.hotnewdeal.com/2019/04/16/289570_Netgear_Certified_Refurbished_Cm500100Nar_Docsis_/20%Monthly2019-04-16 17:28
http://www.hotnewdeal.com/2019/04/16/289569_FaceTory_Korean_Sheet_Masks_13_for_10__Free_Ship/20%Monthly2019-04-16 17:27
http://www.hotnewdeal.com/2019/04/16/289568_64GB_Samsung_Pro_Endurance_U1_microSDXC_Memory_Car/20%Monthly2019-04-16 17:11
http://www.hotnewdeal.com/2019/04/16/289567_YMMV_Marvel_lego_clearance_30/20%Monthly2019-04-16 16:32
http://www.hotnewdeal.com/2019/04/16/289566_Symantec_Norton_Security_with_Antivirus_Deluxe_5_/20%Monthly2019-04-16 16:14
http://www.hotnewdeal.com/2019/04/16/289565_50_Adidas_Gift_Card__10_Adidas_Promo_Code_Emai/20%Monthly2019-04-16 16:14
http://www.hotnewdeal.com/2019/04/16/289564_Seasonic_FOCUS_Plus_Series_SSR750FX_750W_80_Gold/20%Monthly2019-04-16 16:01
http://www.hotnewdeal.com/2019/04/16/289563_Coredy_Robot_Vacuum_Cleaner_Boundary_Strip_Suppor/20%Monthly2019-04-16 16:01
http://www.hotnewdeal.com/2019/04/16/289562_PopSockets_Phone_Grip_and_Stand_740_AC__FS/20%Monthly2019-04-16 16:01
http://www.hotnewdeal.com/2019/04/16/289561_Humble_Square_Enix_Collective_Bundle_Tokyo_Dark_/20%Monthly2019-04-16 15:44
http://www.hotnewdeal.com/2019/04/16/289560_Troy_built_self_propelled_2_stage_snow_blower_149/20%Monthly2019-04-16 15:29
http://www.hotnewdeal.com/2019/04/16/289559_Fender_72_Telecaster_Thinline_Electric_Guitar_Ma/20%Monthly2019-04-16 15:29
http://www.hotnewdeal.com/2019/04/16/289558_ASUS_DualBand_Gigabit_WiFi_Gaming_Router_AC3100_/20%Monthly2019-04-16 15:28
http://www.hotnewdeal.com/2019/04/16/289557_Ryzen_5_2600X_and_MSI_Arsenal_Gaming_B450_Tomahawk/20%Monthly2019-04-16 15:28
http://www.hotnewdeal.com/2019/04/16/289556_God_of_War__Standard_PS4_Digital_2399__Playsta/20%Monthly2019-04-16 15:12
http://www.hotnewdeal.com/2019/04/16/289555_Nintendo_Switch_Labo_Robot_Kit__Variety_Kit__Veh/20%Monthly2019-04-16 15:00
http://www.hotnewdeal.com/2019/04/16/289554_Hamilton_Beach_Dual_Breakfast_Sandwich_Maker_274/20%Monthly2019-04-16 15:00
http://www.hotnewdeal.com/2019/04/16/289553_Nike_Roshe_One_Wolf_GreyWhite_1875/20%Monthly2019-04-16 14:51
http://www.hotnewdeal.com/2019/04/16/289552_Kids_over_the_ear_Headphones_849/20%Monthly2019-04-16 14:45
http://www.hotnewdeal.com/2019/04/16/289551_NETGEAR_Orbi_Whole_Home_Mesh_WiFi_System_with_Tri/20%Monthly2019-04-16 14:45
http://www.hotnewdeal.com/2019/04/16/289550_TCL_Alto_7_21_Channel_Sound_Bar_with_Wireless_Su/20%Monthly2019-04-16 14:38
http://www.hotnewdeal.com/2019/04/16/289549_Open_Box_Excellent_Certified_HP__2in1_14_Tou/20%Monthly2019-04-16 14:38
http://www.hotnewdeal.com/2019/04/16/289548_Nespresso_by_Breville_Essenza_Mini_Espresso_Machin/20%Monthly2019-04-16 14:30
http://www.hotnewdeal.com/2019/04/16/289547_LeapFrog_Number_Lovin_Oven_1372__Amazon/20%Monthly2019-04-16 14:22
http://www.hotnewdeal.com/2019/04/16/289546_2Pack_TPLink_HS110_WiFi_Smart_Plug_wEnergy_Mon/20%Monthly2019-04-16 14:22
http://www.hotnewdeal.com/2019/04/16/289545_Closeouts15_Off_of_on_Top_of_Reduced_Prices_at_P/20%Monthly2019-04-16 14:10
http://www.hotnewdeal.com/2019/04/16/289544_Gourmia_Jr_Single_Baby_Bottle_Sterilizer_and_Warm/20%Monthly2019-04-16 14:03
http://www.hotnewdeal.com/2019/04/16/289543_Jabra_Elite_Active_65t_Alexa_Enabled_True_Wireless/20%Monthly2019-04-16 13:59
http://www.hotnewdeal.com/2019/04/16/289542_Lucky_Brand_Womens_Ava_Mid_Rise_Jeans_Lil_Maggi/20%Monthly2019-04-16 13:53
http://www.hotnewdeal.com/2019/04/16/289541_PNY_Elite_Turbo_Attache_3__USB_flash_drive__128_/20%Monthly2019-04-16 13:42
http://www.hotnewdeal.com/2019/04/16/289540_Mix__Match_Jaw_Dropping_Twists_Digital_HDX_Film/20%Monthly2019-04-16 13:42
http://www.hotnewdeal.com/2019/04/16/289539_iFJF_Honda__Acura_Replacement_Cabin_Air_Filter_w/20%Monthly2019-04-16 13:27
http://www.hotnewdeal.com/2019/04/16/289538_High_School_DxD_Born_Season_3_Digital_HD_Anime_S/20%Monthly2019-04-16 13:10
http://www.hotnewdeal.com/2019/04/16/289537_TPLink_Deco_Whole_Home_Mesh_WiFi_System__3pack_/20%Monthly2019-04-16 12:59
http://www.hotnewdeal.com/2019/04/16/289536_Overwatch_Legendary_Edition_Holiday_Bundle__PlayS/20%Monthly2019-04-16 12:50
http://www.hotnewdeal.com/2019/04/16/289535_Call_of_Duty_Infinite_Warfare_Legacy_Edition__PS/20%Monthly2019-04-16 12:50
http://www.hotnewdeal.com/2019/04/16/289534_Crucial_OEM_CT1000MX500SSD1T_1TB_MX500_3D_NAND_SAT/20%Monthly2019-04-16 12:44
http://www.hotnewdeal.com/2019/04/16/289533_Tory_Burch_Rory_Shearling_CrossBody_Bag_149_Ro/20%Monthly2019-04-16 12:44
http://www.hotnewdeal.com/2019/04/16/289532_500GB_Crucial_MX500_25_SSD_58_AC_Newegg/20%Monthly2019-04-16 12:36
http://www.hotnewdeal.com/2019/04/16/289531_Sony_XBR75X850F_75_TV_1199/20%Monthly2019-04-16 12:29
http://www.hotnewdeal.com/2019/04/16/289530_Sony_WH1000XM3_in_black_or_silver_new_for_276/20%Monthly2019-04-16 12:29
http://www.hotnewdeal.com/2019/04/16/289529_ATT_Prepaid_Double_data_8GB_bonus_data_on_8GB_/20%Monthly2019-04-16 12:29
http://www.hotnewdeal.com/2019/04/16/289528_YMMV_HP_Pavilion_15cr0037wm_X360_156_FHD_Tous/20%Monthly2019-04-16 12:12
http://www.hotnewdeal.com/2019/04/16/289527_Amazon_Lightning_Deal_9_Melissa__Doug_Burrow_Bu/20%Monthly2019-04-16 11:27
http://www.hotnewdeal.com/2019/04/16/289526_Home_Depot_clearance__Gorilla_MPX22_with_wheels_/20%Monthly2019-04-16 11:11
http://www.hotnewdeal.com/2019/04/16/289525_Field_of_Dreams__4k_on_FandangoNow_for_5/20%Monthly2019-04-16 10:59
http://www.hotnewdeal.com/2019/04/16/289524_Malwarebytes_AntiMalware_30_5_Device1Year_Ke/20%Monthly2019-04-16 10:59
http://www.hotnewdeal.com/2019/04/16/289523_ASUS_VN248HP_Slim_Bezel_Black_238_FHD_IPS_Monit/20%Monthly2019-04-16 10:59
http://www.hotnewdeal.com/2019/04/16/289522_BACK_RustOleum_Painters_Touch_2X_12_oz_White_F/20%Monthly2019-04-16 10:43
http://www.hotnewdeal.com/2019/04/16/289521_Smoothie_King_b1g1_smoothie__more_limited_days/20%Monthly2019-04-16 10:43
http://www.hotnewdeal.com/2019/04/16/289520_Nike_Hyperion_E_Mens_SemiRimless_Sport_Sunglasse/20%Monthly2019-04-16 10:43
http://www.hotnewdeal.com/2019/04/16/289519_3Pack_Similac_Advance_Infant_Formula_Powder_525/20%Monthly2019-04-16 10:29
http://www.hotnewdeal.com/2019/04/16/289518_3Month_Xbox_Live_Gold_Membership_Digital_Code_/20%Monthly2019-04-16 10:13
http://www.hotnewdeal.com/2019/04/16/289517_Aluminum_Tablet_Desk_Stand_for_iPad_iPhone_Samsu/20%Monthly2019-04-16 10:05
http://www.hotnewdeal.com/2019/04/16/289516_Chapin_LawnMultipurpose_Sprayers_Chapin_20002_2/20%Monthly2019-04-16 10:02
http://www.hotnewdeal.com/2019/04/16/289514_Pennington_Smart_Seed_20_lbs_Sun_and_Shade_Mix_Gr/20%Monthly2019-04-16 09:25
http://www.hotnewdeal.com/2019/04/16/289513_Sushi_Striker_The_Way_Of_The_Sushido__Switch_15/20%Monthly2019-04-16 09:14
http://www.hotnewdeal.com/2019/04/16/289512_Davis__Sanford_Provista_7518B_Tripod_with_V18_Flu/20%Monthly2019-04-16 09:07
http://www.hotnewdeal.com/2019/04/16/289511_Anthem__Standard__Physical__PC__Xbox__PS4_/20%Monthly2019-04-16 08:52
http://www.hotnewdeal.com/2019/04/16/289510_RYOBI_40Volt_LithiumIon_Cordless_String_Trimmer/20%Monthly2019-04-16 08:52
http://www.hotnewdeal.com/2019/04/16/289509_Back_Again__16_count_Intelligent_Blends_K_Cup_Var/20%Monthly2019-04-16 08:22
http://www.hotnewdeal.com/2019/04/16/289508_4K_UHD_Digital_Films_Dr_Seuss_The_Grinch_2018/20%Monthly2019-04-16 07:13
http://www.hotnewdeal.com/2019/04/16/289507_BESTBUY_Amazon_Fire_HD_10_32gb_tablet_7th_2017_99/20%Monthly2019-04-16 07:01
http://www.hotnewdeal.com/2019/04/16/289506_Zaxbys_Sams_Club_Members/20%Monthly2019-04-16 06:44
http://www.hotnewdeal.com/2019/04/16/289505_11lbs_Myprotein_Impact_Whey_Protein_Various_Flav/20%Monthly2019-04-16 06:44
http://www.hotnewdeal.com/2019/04/16/289503_16GB_2x_8_GeIL_SUPER_LUCE_RGB_SYNC_DDR4_3000_Des/20%Monthly2019-04-16 06:30
http://www.hotnewdeal.com/2019/04/16/289502_LG_32Inch_QHD_2560_X_1440_IPS_Monitor_with_Rade/20%Monthly2019-04-16 06:30
http://www.hotnewdeal.com/2019/04/16/289501_Call_of_Duty_Black_Ops_III_Zombie_Chronicles_Edit/20%Monthly2019-04-16 06:00
http://www.hotnewdeal.com/2019/04/16/289500_Carnival_Cruise__200_Gift_Card_Email_Delivery_/20%Monthly2019-04-16 05:44
http://www.hotnewdeal.com/2019/04/16/289499_Gulikit_Route_Bluetooth_Audio_Transmitter_Adapter/20%Monthly2019-04-16 05:30
http://www.hotnewdeal.com/2019/04/16/289498_Dell_G5_15_5590_Laptop_Intel_Core_i78750H_156/20%Monthly2019-04-16 04:31
http://www.hotnewdeal.com/2019/04/16/289497_Google_AIY_Voice_Kit_15_Raspberry_Pi_Included_/20%Monthly2019-04-16 04:01
http://www.hotnewdeal.com/2019/04/16/289496_HP_Spectre_x360_2in1_Laptop_Intel_Core_i78565U/20%Monthly2019-04-16 03:44
http://www.hotnewdeal.com/2019/04/16/289494_4Port_72W_Wall_Charger_w_60W_USBC_Power_Deliver/20%Monthly2019-04-16 03:12
http://www.hotnewdeal.com/2019/04/16/289493_Apple__Macbook_12_Display__Intel_Core_M3_Lates/20%Monthly2019-04-16 02:44
http://www.hotnewdeal.com/2019/04/16/289492_128GB_Samsung_EVO_Select_U3_microSD_Memory_Card_w/20%Monthly2019-04-16 02:30
http://www.hotnewdeal.com/2019/04/16/289491_Samsonite_Carbon_2_Spinner_20_31__24_43__28/20%Monthly2019-04-16 02:00
http://www.hotnewdeal.com/2019/04/16/289490_Half_off_MMs_at_woot_free_shipping_with_Prime/20%Monthly2019-04-16 01:38
http://www.hotnewdeal.com/2019/04/16/289489_ZOTAC_GAMING_GeForce_RTX_2080_AMP_Graphics_Card_6/20%Monthly2019-04-16 01:19
http://www.hotnewdeal.com/2019/04/16/289488_Dell_Inspiron_15_5575_Laptop_156_FHD_Ryzen_25/20%Monthly2019-04-16 01:19
http://www.hotnewdeal.com/2019/04/16/289487_New_Balance_Womens_711v3_Heathered_Cross_Training/20%Monthly2019-04-16 01:10
http://www.hotnewdeal.com/2019/04/16/289486_Regal_Cinemas_Use_the_Mobile_App_to_Scan_Posters_/20%Monthly2019-04-16 01:10
http://www.hotnewdeal.com/2019/04/16/289485_Brooks_ADRENALINE_GTS_18_for_46_or_less_limited_/20%Monthly2019-04-16 00:24
http://www.hotnewdeal.com/2019/04/16/289484_Apple__11Inch_iPad_Pro_Latest_Model_with_WiFi/20%Monthly2019-04-16 00:06
http://www.hotnewdeal.com/2019/04/16/289483_Dell_Inspiron_7580_156_Laptop_i58265U__8GB_DD/20%Monthly2019-04-16 00:06
http://www.hotnewdeal.com/2019/04/15/289482_The_Land_Before_Time_The_Complete_Collection_DVD_/20%Monthly2019-04-15 23:57
http://www.hotnewdeal.com/2019/04/15/289481_Anker_42W_PowerDrive_Speed_Duo_2_Port_USB_Car_Ch/20%Monthly2019-04-15 23:34
http://www.hotnewdeal.com/2019/04/15/289480_Martha_Stewart_Mint_Electric_Pressure_Washer__145/20%Monthly2019-04-15 23:34
http://www.hotnewdeal.com/2019/04/15/289479_Bose_QuietComfort_35_Series_II_Wireless_Noise_Canc/20%Monthly2019-04-15 23:16
http://www.hotnewdeal.com/2019/04/15/289478_Gopro_Hero_7_silver__180__AAFES/20%Monthly2019-04-15 23:10
http://www.hotnewdeal.com/2019/04/15/289477_Marantz_MPH4_50mm_OverEar_Monitoring_Headphone_/20%Monthly2019-04-15 23:10
http://www.hotnewdeal.com/2019/04/15/289476_Dell__Inspiron_2in1_173_FHD_TouchScreen_Lapt/20%Monthly2019-04-15 22:24
http://www.hotnewdeal.com/2019/04/15/289475_Nest_3rd_Generation_Thermostat_Stainless_Steel_/20%Monthly2019-04-15 22:24
http://www.hotnewdeal.com/2019/04/15/289474_22Ounce_Tetra_Goldfish_Flakes_Clear_Water_Formu/20%Monthly2019-04-15 22:24
http://www.hotnewdeal.com/2019/04/15/289473_Weider_300LB_Iron_Weight_Set_w_Olympic_Bar__150/20%Monthly2019-04-15 22:16
http://www.hotnewdeal.com/2019/04/15/289472_Kiinde_Twist_Pouch_Breast_Milk_Storage_Bags_for_Pu/20%Monthly2019-04-15 21:48
http://www.hotnewdeal.com/2019/04/15/289471_Nike_Free_x_Metcon_Cross_Training_Shoes_Various_C/20%Monthly2019-04-15 21:18
http://www.hotnewdeal.com/2019/04/15/289469_2Pack_TPLink_HS200_Smart_WiFi_Light_Switch_40_/20%Monthly2019-04-15 21:05
http://www.hotnewdeal.com/2019/04/15/289468_DropMix_Music_Gaming_System_Standard_Packaging_/20%Monthly2019-04-15 21:05
http://www.hotnewdeal.com/2019/04/15/289467_Boston_to_St_Thomas_USVI_285_RT_Airfares_on_Ameri/20%Monthly2019-04-15 21:05
http://www.hotnewdeal.com/2019/04/15/289466_LG_75_inch_4K_HDR_LED_Smart_TV_w_250_Dell_GC_1/20%Monthly2019-04-15 21:05
http://www.hotnewdeal.com/2019/04/15/289465_SanDisk_SSD_PLUS_1TB_Internal_SSD_9599/20%Monthly2019-04-15 21:04
http://www.hotnewdeal.com/2019/04/15/289464_14_x_12_Cedar_Pavilion_with_Aluminum_Roof_129/20%Monthly2019-04-15 20:55
http://www.hotnewdeal.com/2019/04/15/289463_Fluance_RT81_High_Fidelity_Vinyl_Turntable_Record_/20%Monthly2019-04-15 20:47
http://www.hotnewdeal.com/2019/04/15/289462_Toro_Ultra_Electric_Blower_Vac_Red_5804__Free/20%Monthly2019-04-15 20:47
http://www.hotnewdeal.com/2019/04/15/289461_Logitech_Harmony_Elite_Advanced_TV_and_Home_Entert/20%Monthly2019-04-15 20:47
http://www.hotnewdeal.com/2019/04/15/289460_Sigma_1750mm_f28_EX_DC_OS_HSM_Lens_fNikon_USA/20%Monthly2019-04-15 20:37
http://www.hotnewdeal.com/2019/04/15/289459_Costco_Mobil_1_Full_Synthetic_6_quart_packs_1669/20%Monthly2019-04-15 20:31
http://www.hotnewdeal.com/2019/04/15/289458_Canon_T6_digital_camera_299__Walmart_YMMV/20%Monthly2019-04-15 20:31
http://www.hotnewdeal.com/2019/04/15/289457_Insignia_Stainless_Steel_20_Cup_52_Quart_Rice_Coo/20%Monthly2019-04-15 20:07
http://www.hotnewdeal.com/2019/04/15/289456_Hersheys_candy_bar_full_box_at_woot_for_699/20%Monthly2019-04-15 20:04
http://www.hotnewdeal.com/2019/04/15/289455_Amex_Offers_Spend_25_or_more_get_5_back_Save_a/20%Monthly2019-04-15 20:04
http://www.hotnewdeal.com/2019/04/15/289454_WD__My_Passport_X_2TB_External_USB_3020_Portab/20%Monthly2019-04-15 20:03
http://www.hotnewdeal.com/2019/04/15/289453_Hanes_10_Off_Your_Purchase_of_40_or_More_with_c/20%Monthly2019-04-15 20:03
http://www.hotnewdeal.com/2019/04/15/289452_Ryobi_One_Lithium_Ion_Batteries_2_Pack_18v_4ah/20%Monthly2019-04-15 19:45
http://www.hotnewdeal.com/2019/04/15/289451_6Count_65lb_Bags_of_Kraft_Cheez_Whiz_Spread_for/20%Monthly2019-04-15 19:30
http://www.hotnewdeal.com/2019/04/15/289450_Intel_660P_M2_nVME_2TB_SSD_19124_AC__FS/20%Monthly2019-04-15 19:30
http://www.hotnewdeal.com/2019/04/15/289449_250_with_promo_code_AUKEY_GFCI_Outlet_Adapter/20%Monthly2019-04-15 19:14
http://www.hotnewdeal.com/2019/04/15/289448_Bodybuildingcom__Orange_Triad_270_Count__2572/20%Monthly2019-04-15 19:01
http://www.hotnewdeal.com/2019/04/15/289447_25GB_Silicon_Power_Ace_A55_25_SATA_III_3D_NAND_I/20%Monthly2019-04-15 19:01
http://www.hotnewdeal.com/2019/04/15/289446_64GB_Nokia_71_GSM_Unlocked_Phone_29999__Free_S/20%Monthly2019-04-15 19:00
http://www.hotnewdeal.com/2019/04/15/289445_Huawei_p30_lite_615_4GB128GB_300/20%Monthly2019-04-15 18:47
http://www.hotnewdeal.com/2019/04/15/289444_Sony_PlayStation_4_Pro_1TB_Console__Black_3399/20%Monthly2019-04-15 18:47
http://www.hotnewdeal.com/2019/04/15/289443_Ring_Pro_Doorbell_for_189__Costco_membership_req/20%Monthly2019-04-15 18:39
http://www.hotnewdeal.com/2019/04/15/289441_TPLink_AC1750_Smart_WiFi_Router_Works_with_Alexa/20%Monthly2019-04-15 18:22
http://www.hotnewdeal.com/2019/04/15/289440_50_Off_Ting_Mobile_Sim_Starter_Kit_with_30_FREE_/20%Monthly2019-04-15 18:22
http://www.hotnewdeal.com/2019/04/15/289439_Rechargeable_64_LED_Motion_Sensor_Closet_Light_16/20%Monthly2019-04-15 18:14
http://www.hotnewdeal.com/2019/04/15/289438_Coway_Airmega_400S_WiFi_Connected_Smart_Air_Purif/20%Monthly2019-04-15 18:14
http://www.hotnewdeal.com/2019/04/15/289437_FB_marketplace_25_UberUbereats_EGC_for_20/20%Monthly2019-04-15 18:01
http://www.hotnewdeal.com/2019/04/15/289436_50_VIZIO_V505G9_4K_Ultra_HD_Smart_TV_w_100_Del/20%Monthly2019-04-15 18:01
http://www.hotnewdeal.com/2019/04/15/289435_Acme_Tools__Tax_Day_Sale/20%Monthly2019-04-15 17:44
http://www.hotnewdeal.com/2019/04/15/289434_Bang_and_Olufsen_headphones_min_59_Jomashop_2/20%Monthly2019-04-15 17:37
http://www.hotnewdeal.com/2019/04/15/289433_BestBuy_Grinch_DVD__BluRay__Digital_Steelboo/20%Monthly2019-04-15 17:28
http://www.hotnewdeal.com/2019/04/15/289432_GNC_Vitamins_Minerals_and_Supplements_Sale_3_for_/20%Monthly2019-04-15 16:59
http://www.hotnewdeal.com/2019/04/15/289431_Polk_LSI_Speakers_2x_M707__2x_M703__LSi_M706c_/20%Monthly2019-04-15 16:49
http://www.hotnewdeal.com/2019/04/15/289430_ADATA_XPG_GAMMIX_D10_16GB_2_X_8GB_288Pin_DDR4_S/20%Monthly2019-04-15 16:44
http://www.hotnewdeal.com/2019/04/15/289428_Music_Man_Cutlass_white_with_maple_fretboard_for_9/20%Monthly2019-04-15 16:11
http://www.hotnewdeal.com/2019/04/15/289427_Izze_24_Variety_Pack_812/20%Monthly2019-04-15 16:10
http://www.hotnewdeal.com/2019/04/15/289426_ASRock_Phantom_Gaming_X_Radeon_VII_637__neweggbu/20%Monthly2019-04-15 16:10
http://www.hotnewdeal.com/2019/04/15/289425_32_Degrees_Mens_Active_Mesh_Boxer_Brief_or_Women/20%Monthly2019-04-15 16:10
http://www.hotnewdeal.com/2019/04/15/289424_VIZIO_24_Class_HD_720P_LED_TV_D24hnG9_WalMar/20%Monthly2019-04-15 16:10
http://www.hotnewdeal.com/2019/04/15/289423_Sun_Joe_20_Manual_Reel_Mower_w_Grass_Catcher_Re/20%Monthly2019-04-15 15:59
http://www.hotnewdeal.com/2019/04/15/289422_Tax_Day_Freebies__Promotions_104/20%Monthly2019-04-15 15:42
http://www.hotnewdeal.com/2019/04/15/289421_512GB_HP_EX920_M2_PCIe_30_x4_NVMe_3D_TLC_NAND_SS/20%Monthly2019-04-15 15:42
http://www.hotnewdeal.com/2019/04/15/289420_Diono_Radian_RXT_199/20%Monthly2019-04-15 15:42
http://www.hotnewdeal.com/2019/04/15/289419_The_Curse_of_La_Llorona_Movie_Tickets_Buy_2_Ticke/20%Monthly2019-04-15 15:42
http://www.hotnewdeal.com/2019/04/15/289418_5500_Lumen_4_LED_Shop_Light_1498/20%Monthly2019-04-15 15:27
http://www.hotnewdeal.com/2019/04/15/289417_Amex_Offer_for_Select_Accounts_Get_10_back_as_a_/20%Monthly2019-04-15 15:11
http://www.hotnewdeal.com/2019/04/15/289416_Dell_XPS_15_9570_Laptop_Intel_i5_8300H_256GB_SSD_8/20%Monthly2019-04-15 14:59
http://www.hotnewdeal.com/2019/04/15/289415_Lowes_Craftsman_VersaStack_toolbox/20%Monthly2019-04-15 14:29
http://www.hotnewdeal.com/2019/04/15/289414_ECOVACS_DEEBOT_601_Robotic_Vacuum_Cleaner_with_App/20%Monthly2019-04-15 14:29
http://www.hotnewdeal.com/2019/04/15/289413_KitchenAid_KSMMGA_Metal_Food_Grinder_Attachment_5/20%Monthly2019-04-15 14:20
http://www.hotnewdeal.com/2019/04/15/289412_CORSAIR_K70_RGB_MK2_Mechanical_Gaming_KeyboardChe/20%Monthly2019-04-15 14:20
http://www.hotnewdeal.com/2019/04/15/289411_Home_Depot_Lighting_Clearance_Select_Pendants_fro/20%Monthly2019-04-15 14:09
http://www.hotnewdeal.com/2019/04/15/289410_Forbidden_History_Season_3_Digital_HD_or_SD_2/20%Monthly2019-04-15 14:09
http://www.hotnewdeal.com/2019/04/15/289409_Auto_Drive_Backseat_Tablet_Holder_5/20%Monthly2019-04-15 13:59
http://www.hotnewdeal.com/2019/04/15/289408_Target_Cartwheel_3Count_12Giant_Rolls_Bounty_Se/20%Monthly2019-04-15 13:58
http://www.hotnewdeal.com/2019/04/15/289407_San_Francisco_to_Hong_Kong_396446_RT_Nonstop_Ai/20%Monthly2019-04-15 13:41
http://www.hotnewdeal.com/2019/04/15/289406_Costco_Members_10Piece_Ring_Alarm_Wireless_Secur/20%Monthly2019-04-15 13:41
http://www.hotnewdeal.com/2019/04/15/289405_UNIQLO_Buy_2_or_more_Adult_UT_for_990_each/20%Monthly2019-04-15 13:41
http://www.hotnewdeal.com/2019/04/15/289403_32Pack_RoomMates_StickTiles_Peel_and_Stick_Wall_/20%Monthly2019-04-15 13:41
http://www.hotnewdeal.com/2019/04/15/289402_18Count_Hershey_Candy_Bar_Assorted_Variety_Box_H/20%Monthly2019-04-15 13:25
http://www.hotnewdeal.com/2019/04/15/289401_Borderlands_Game_of_the_Year_Enhanced_Edition_PC/20%Monthly2019-04-15 13:25
http://www.hotnewdeal.com/2019/04/15/289400_WalMart_Scoop_Mainstays_11x14_Wood_Picture_Frame_/20%Monthly2019-04-15 13:25
http://www.hotnewdeal.com/2019/04/15/289399_Dark_Spot_Corrector_Treatment_for_Even_Skin_Tone_b/20%Monthly2019-04-15 13:25
http://www.hotnewdeal.com/2019/04/15/289398_AMC_Theatres_Free_Digital_Download_of_John_Wick_o/20%Monthly2019-04-15 13:09
http://www.hotnewdeal.com/2019/04/15/289396_WD_8TB_My_Book_Desktop_External_Hard_Drive_USB_3/20%Monthly2019-04-15 12:56
http://www.hotnewdeal.com/2019/04/15/289395_Blue_Diamond_Almonds_Wasabi__Soy_599/20%Monthly2019-04-15 12:39
http://www.hotnewdeal.com/2019/04/15/289394_ECOVACS_DEEBOT_711_Robot_Vacuum_Cleaner_with_Smart/20%Monthly2019-04-15 12:39
http://www.hotnewdeal.com/2019/04/15/289393_Coway_AP1512HH_Mighty_Air_Purifier_with_True_HEPA/20%Monthly2019-04-15 12:38
http://www.hotnewdeal.com/2019/04/15/289392_Google_Pixelbook_Open_Box_Excellent_Condition_INT/20%Monthly2019-04-15 12:23
http://www.hotnewdeal.com/2019/04/15/289391_Arm__Hammer_Odor_Allergen_and_Pet_Dander_Control_/20%Monthly2019-04-15 12:23
http://www.hotnewdeal.com/2019/04/15/289390_Westone_W60_SixDriver_TrueFit_Earphones_with_MMC/20%Monthly2019-04-15 12:23
http://www.hotnewdeal.com/2019/04/15/289389_Light_My_Fire_by_Morakniv_Swedish_FireKnife_with_3/20%Monthly2019-04-15 12:09
http://www.hotnewdeal.com/2019/04/15/289388_open_box_Amazon_Echo_2nd_Generation_for_3878__t/20%Monthly2019-04-15 12:04
http://www.hotnewdeal.com/2019/04/15/289387_Reebok_Mens_and_Womens_Shoes_Mens_Lite_Shoes_/20%Monthly2019-04-15 11:56
http://www.hotnewdeal.com/2019/04/15/289386_WORX_via_eBay_20_off_Coupon_WORX_WG506_75_Amp_2/20%Monthly2019-04-15 11:56
http://www.hotnewdeal.com/2019/04/15/289385_Vizio_P65F1_65_inch_LED_Smart_TV__250_eGC__10/20%Monthly2019-04-15 11:56
http://www.hotnewdeal.com/2019/04/15/289384_Vizio_PQ65F1_65_inch_Quantum_4K_HDR_Smart_TV__4/20%Monthly2019-04-15 11:56
http://www.hotnewdeal.com/2019/04/15/289383_Easter_Toys_from_Hasbro_Up_to_40_Off_DropMix_Mu/20%Monthly2019-04-15 11:56
http://www.hotnewdeal.com/2019/04/15/289382_32_Degrees_cool_tee_and_polos_sale__8_Costco_st/20%Monthly2019-04-15 11:44
http://www.hotnewdeal.com/2019/04/15/289381_41Piece_Melissa__Doug_Star_Diner_Restaurant_Play/20%Monthly2019-04-15 11:29
http://www.hotnewdeal.com/2019/04/15/289380_Beast_Mobile_Unlimited_TalkUnlimited_Texts1GB_Mo/20%Monthly2019-04-15 10:24
http://www.hotnewdeal.com/2019/04/15/289379_GoPro_Accessories_Sale_20_off_Additional_discoun/20%Monthly2019-04-15 10:24
http://www.hotnewdeal.com/2019/04/15/289378_BampampH_Photo_LG_24GL600F_24ampquot_169_14/20%Monthly2019-04-15 10:24
http://www.hotnewdeal.com/2019/04/15/289377_ASUS_GeForce_GTX_1060_PHGTX10606G_6GB_Video_Card/20%Monthly2019-04-15 10:13
http://www.hotnewdeal.com/2019/04/15/289376_2Pack_Mainstays_NoTools_End_Tables_black_for_/20%Monthly2019-04-15 10:00
http://www.hotnewdeal.com/2019/04/15/289375_Enermax_ETSN31_Universal_CPU_Cooler_5_after_Reba/20%Monthly2019-04-15 10:00
http://www.hotnewdeal.com/2019/04/15/289374_Microsoft_Xbox_One_Play_and_Charge_Kit_New_in_Bul/20%Monthly2019-04-15 10:00
http://www.hotnewdeal.com/2019/04/15/289373_3_Pack_Micro_USB_Cable_10ft_Android_Charger_Cable/20%Monthly2019-04-15 09:43
http://www.hotnewdeal.com/2019/04/15/289372_Dell_Alienware_aw3418dw_ips_34_inch_1440p_49990_/20%Monthly2019-04-15 09:28
http://www.hotnewdeal.com/2019/04/15/289371_Ozark_Trail_Small_Compact_Side_Table_in_Warm_Gray_/20%Monthly2019-04-15 09:27
http://www.hotnewdeal.com/2019/04/15/289370_Forever_21_Extra_50_OFF_Sale_Styles__Womens_To/20%Monthly2019-04-15 09:22
http://www.hotnewdeal.com/2019/04/15/289369_Mobil_1_0W40_Advanced_Full_Synthetic_Motor_Oil_5/20%Monthly2019-04-15 08:48
http://www.hotnewdeal.com/2019/04/15/289368_Dunkin_Donuts_1_medium_iced_or_hot_coffee_Today_o/20%Monthly2019-04-15 08:35
http://www.hotnewdeal.com/2019/04/15/289367_Planet_Earth_II_Narrated_by_David_Attenborough_4/20%Monthly2019-04-15 07:59
http://www.hotnewdeal.com/2019/04/15/289366_MILWAUKEE_M18_REDLITHIUM_HIGH_OUTPUT_HD_120Ah_Bat/20%Monthly2019-04-15 07:27
http://www.hotnewdeal.com/2019/04/15/289365_8Pack_of_235oz_Dole_Pineapple_Chunks_in_100_Jui/20%Monthly2019-04-15 07:00
http://www.hotnewdeal.com/2019/04/15/289364_Microsoft_Rewards_12_Month_Xbox_Live_Gold_Members/20%Monthly2019-04-15 06:42
http://www.hotnewdeal.com/2019/04/15/289363_Chefs_Choice_615A_Electric_Meat_Slicer_8999_Shi/20%Monthly2019-04-15 06:28
http://www.hotnewdeal.com/2019/04/15/289362_ASUS_AREZ_Radeon_RX_580_8GB_Video_Card_160_AR_Ne/20%Monthly2019-04-15 06:28
http://www.hotnewdeal.com/2019/04/15/289361_Finishline_40_Off_Select_Styles_Womens_Brooks_G/20%Monthly2019-04-15 06:28
http://www.hotnewdeal.com/2019/04/15/289360_1day_only__Western_Digital_WD_10TB_My_Book_Des/20%Monthly2019-04-15 04:40
http://www.hotnewdeal.com/2019/04/15/289359_1TB_SanDisk_SSD_Plus_SATA_III_25_96_or_1TB_SanD/20%Monthly2019-04-15 04:27
http://www.hotnewdeal.com/2019/04/15/289358_SanDisk_MemoryStorage_Up_to_50_Off_1TB_SanDisk/20%Monthly2019-04-15 04:27
http://www.hotnewdeal.com/2019/04/15/289357_Plantronics_Voyager_Legend_Bluetooth_Earpiece_39/20%Monthly2019-04-15 01:30
http://www.hotnewdeal.com/2019/04/15/289356_Sony_XB41__One_of_the_Best_Bluetooth_Speakers_1/20%Monthly2019-04-15 01:12
http://www.hotnewdeal.com/2019/04/15/289355_Xbox_One_Games_Physical_Call_of_Duty_Black_Ops/20%Monthly2019-04-15 01:12
http://www.hotnewdeal.com/2019/04/15/289354_Pyrex_Simply_Store_10Piece_Glass_Food_Storage_Set/20%Monthly2019-04-15 01:12
http://www.hotnewdeal.com/2019/04/15/289353_Best_Buy_has_Amazon_Echo_Dot_3rd_Gen_Charcoal_w/20%Monthly2019-04-15 01:12
http://www.hotnewdeal.com/2019/04/15/289352_Kidrobot_Yummy_World_Large_Plush_Toys_Pea_Pod_Cl/20%Monthly2019-04-15 00:17
http://www.hotnewdeal.com/2019/04/14/289351_Stranger_Things_Season_1_Collectors_Edition_Blu/20%Monthly2019-04-14 23:59
http://www.hotnewdeal.com/2019/04/14/289350_Blue_Microphones__Blue_Blackout_Yeti__Far_Cry_5_/20%Monthly2019-04-14 23:59
http://www.hotnewdeal.com/2019/04/14/289348_Insignia__114_Electric_Induction_Cooktop_299/20%Monthly2019-04-14 23:36
http://www.hotnewdeal.com/2019/04/14/289347_Groupon_Additional_30_Savings_on_Massages__Faci/20%Monthly2019-04-14 23:26
http://www.hotnewdeal.com/2019/04/14/289346_256GB_Samsung_EVO_Select_U3_microSD_Memory_Card_w/20%Monthly2019-04-14 23:26
http://www.hotnewdeal.com/2019/04/14/289344_Lands_End__40_off_regular_price_items_and_free_/20%Monthly2019-04-14 22:40
http://www.hotnewdeal.com/2019/04/14/289343_Ultra_Purex_Laundry_Detergent_50oz_099_AC_BM/20%Monthly2019-04-14 22:35
http://www.hotnewdeal.com/2019/04/14/289342_Diablo_III_Battle_Chest_PC_Online_Game_Code_14/20%Monthly2019-04-14 22:27
http://www.hotnewdeal.com/2019/04/14/289341_Peltor_Sport_Tactical_300_Electronic_Hearing_Prote/20%Monthly2019-04-14 21:57
http://www.hotnewdeal.com/2019/04/14/289340_Cooler_Master_MWE_Gold_750_Watt_Fully_Modular_80_/20%Monthly2019-04-14 21:10
http://www.hotnewdeal.com/2019/04/14/289339_iRobot_i7_7550_Robotic_Vacuum_800/20%Monthly2019-04-14 20:41
http://www.hotnewdeal.com/2019/04/14/289338_55_Samsung_UN55NU8000_4K_UHD_HDR_Smart_LED_HDTV_/20%Monthly2019-04-14 20:35
http://www.hotnewdeal.com/2019/04/14/289337_LG_OLED_B8P_HDTVs_55_OLED55B8PUA_1029_65_OLED/20%Monthly2019-04-14 19:57
http://www.hotnewdeal.com/2019/04/14/289336_Aquaman_Bluray_15__Amazon/20%Monthly2019-04-14 19:41
http://www.hotnewdeal.com/2019/04/14/289335_Kobalt_40Volt_Max_24in_Dual_Cordless_Electric_He/20%Monthly2019-04-14 19:41
http://www.hotnewdeal.com/2019/04/14/289332_Anthony_Bourdains_Appetites_A_Cookbook_3_eBook_/20%Monthly2019-04-14 18:32
http://www.hotnewdeal.com/2019/04/14/289331_Ecobee3_Lite_119_at_Target_Ecobee4_also_175/20%Monthly2019-04-14 17:40
http://www.hotnewdeal.com/2019/04/14/289330_SanDisk_64GB_High_Endurance_Video_MicroSDXC_Card_w/20%Monthly2019-04-14 17:40
http://www.hotnewdeal.com/2019/04/14/289329_ANBES_Bluetooth_Headphones_Wireless_Earbuds_Pink_/20%Monthly2019-04-14 17:24
http://www.hotnewdeal.com/2019/04/14/289328_4Count_Quaker_Baked_Squares_Soft_Baked_Bars_App/20%Monthly2019-04-14 17:24
http://www.hotnewdeal.com/2019/04/14/289327_Torin_Jack_Stands_30_OFF_883_Weight_capacity_/20%Monthly2019-04-14 16:55
http://www.hotnewdeal.com/2019/04/14/289326_HP_ENVY_x360__15cp0013nr__HP_Clearance_Deals_th/20%Monthly2019-04-14 16:26
http://www.hotnewdeal.com/2019/04/14/289325_MilitaryVeteran_65_4K_Samsung_Smart_TV_UN65NU60/20%Monthly2019-04-14 16:23
http://www.hotnewdeal.com/2019/04/14/289324_HoneyCanDo_Rolling_Garment_Racks_from_2353__F/20%Monthly2019-04-14 16:16
http://www.hotnewdeal.com/2019/04/14/289323_Ecobee_4_with_Room_Sensor_175_Amazoncom/20%Monthly2019-04-14 16:07
http://www.hotnewdeal.com/2019/04/14/289322_Buy_a_50_Sephora_gift_card_and_get_a_5_Best_Buy_/20%Monthly2019-04-14 15:56
http://www.hotnewdeal.com/2019/04/14/289321_Dragon_Age_Bundle_Online_Game_Code_PC_All_3_Game/20%Monthly2019-04-14 15:56
http://www.hotnewdeal.com/2019/04/14/289320_Learn_Japanese_to_Survive_Trilogy_PC_Digital_Dow/20%Monthly2019-04-14 15:56
http://www.hotnewdeal.com/2019/04/14/289319_Fire_TV_Stick_4K_with_Alexa_Voice_Remote_streamin/20%Monthly2019-04-14 15:39
http://www.hotnewdeal.com/2019/04/14/289318_SpiderMan_Into_the_SpiderVerse_Bluray__Digit/20%Monthly2019-04-14 15:24
http://www.hotnewdeal.com/2019/04/14/289317_Ainope_Crystal_Clear_iPhone_Xs_Max_X_Max_Case_An/20%Monthly2019-04-14 14:56
http://www.hotnewdeal.com/2019/04/14/289316_Aveeno_2Pack_25oz_Daily_Moisturizing_Lotion_49/20%Monthly2019-04-14 14:39
http://www.hotnewdeal.com/2019/04/14/289315_LEE_Mens_Mastermind_Basic_Jeans_1344__Free_Shi/20%Monthly2019-04-14 14:16
http://www.hotnewdeal.com/2019/04/14/289314_Get_two_Audible_books_for_one_credit/20%Monthly2019-04-14 14:07
http://www.hotnewdeal.com/2019/04/14/289313_Ring_Alarm_14_Piece_Kit__Echo_Dot_3rd_Gen_279_/20%Monthly2019-04-14 13:56
http://www.hotnewdeal.com/2019/04/14/289312_Nintendo_Switch_Digital_Games_The_LEGO_Movie_2_Vi/20%Monthly2019-04-14 13:39
http://www.hotnewdeal.com/2019/04/14/289311_Dyson_Small_Ball_Multi_Floor_Upright_Vacuum_Cleane/20%Monthly2019-04-14 13:24
http://www.hotnewdeal.com/2019/04/14/289310_LEGO_Technic_Dozer_Compactor_42071_Building_Kit_1/20%Monthly2019-04-14 12:50
http://www.hotnewdeal.com/2019/04/14/289309_Sony_a7II_Mirrorless_Digital_Camera_with_2870mm_L/20%Monthly2019-04-14 12:46
http://www.hotnewdeal.com/2019/04/14/289308_Jersey_Mikes_BOGO_on_regular_subs_Today_only_41/20%Monthly2019-04-14 12:38
http://www.hotnewdeal.com/2019/04/14/289307_Petco_Get_a_25_eGift_Card_with_your_order_of_10/20%Monthly2019-04-14 12:31
http://www.hotnewdeal.com/2019/04/14/289306_Ring_Spotlight_Cam_Wired__169__Amazon/20%Monthly2019-04-14 12:24
http://www.hotnewdeal.com/2019/04/14/289305_Starbucks_K_Cups_at_Target_64_ct_2474_or_32_ct_/20%Monthly2019-04-14 12:16
http://www.hotnewdeal.com/2019/04/14/289304_Sams_Club_Members_iTunes_Gift_Card_Multipacks_6/20%Monthly2019-04-14 12:07
http://www.hotnewdeal.com/2019/04/14/289303_Indiana_Jones_The_Complete_Adventures_RegionFre/20%Monthly2019-04-14 11:56
http://www.hotnewdeal.com/2019/04/14/289302_KitchenAid_100Year_Limited_Edition_Queen_of_Heart/20%Monthly2019-04-14 11:56
http://www.hotnewdeal.com/2019/04/14/289300_RX_570_4gb_9995_No_code_required/20%Monthly2019-04-14 11:24
http://www.hotnewdeal.com/2019/04/14/289299_Ring_Stick_Up_Cam_Wired_HD_Security_Camera_with_fr/20%Monthly2019-04-14 11:24
http://www.hotnewdeal.com/2019/04/14/289298_3818_Meross_Smart_WiFi_Garage_Door_Opener_Remot/20%Monthly2019-04-14 11:24
http://www.hotnewdeal.com/2019/04/14/289297_Scotts_Turf_Builder_Weed_and_Feed_Lawn_Fertilizer/20%Monthly2019-04-14 11:24
http://www.hotnewdeal.com/2019/04/14/289296_32GB_Samsung_PRO_Endurance_UHS1_Class10_microSDHC/20%Monthly2019-04-14 11:08
http://www.hotnewdeal.com/2019/04/14/289295_Sony_E_Mount_Lenses_FE_85mm_F18_548_1018mm_f/20%Monthly2019-04-14 11:08
http://www.hotnewdeal.com/2019/04/14/289294_DC_Shoes_Extra_40_Off_Sale_Styles_Mens_Trase_TX/20%Monthly2019-04-14 10:55
http://www.hotnewdeal.com/2019/04/14/289293_Sapiens_A_Brief_History_of_Humankind_Kindle__Ama/20%Monthly2019-04-14 10:46
http://www.hotnewdeal.com/2019/04/14/289292_HP_Omen_15Inch_Gaming_Laptop_144Hz_IPS_Display_/20%Monthly2019-04-14 10:46
http://www.hotnewdeal.com/2019/04/14/289291_August_Smart_Lock_Pro__Connect_3rd_gen_technolog/20%Monthly2019-04-14 10:46
http://www.hotnewdeal.com/2019/04/14/289290_SIMPSON_MegaShot_2800PSI_23GPM_Cold_Water_Gas_P/20%Monthly2019-04-14 10:23
http://www.hotnewdeal.com/2019/04/14/289289_11_x_14_Wood_Hanger_Board_Print_750__free_pic/20%Monthly2019-04-14 10:15
http://www.hotnewdeal.com/2019/04/14/289288_Prepaid_Refill_Cards_Cricket_ATT_Tracfone__Mo/20%Monthly2019-04-14 09:55
http://www.hotnewdeal.com/2019/04/14/289287_15_off_100_App_Store__iTunes_Gift_Code_EDeliv/20%Monthly2019-04-14 09:07
http://www.hotnewdeal.com/2019/04/14/289286_2000ct_Domino_Sugar_Packets_11/20%Monthly2019-04-14 08:45
http://www.hotnewdeal.com/2019/04/14/289285_AUTOPHIX_OBD2_Scanner_Car_Code_Reader_2499/20%Monthly2019-04-14 08:33
http://www.hotnewdeal.com/2019/04/14/289284_Microsoft_Natural_Ergonomic_4000_Keyboard_1499_/20%Monthly2019-04-14 08:30
http://www.hotnewdeal.com/2019/04/14/289283_Nike_Coupon_20_off_Sale_Items__free_shipping/20%Monthly2019-04-14 08:06
http://www.hotnewdeal.com/2019/04/14/289281_Denver_to_London_487_RT_Nonstop_Airfares_on_Unite/20%Monthly2019-04-14 07:38
http://www.hotnewdeal.com/2019/04/14/289280_Samsung_Gear_Sport_Blue_and_Black__99_YMMV_Wal/20%Monthly2019-04-14 05:28
http://www.hotnewdeal.com/2019/04/14/289279_Xenoblade_Chronicles_2_Torna_the_Golden_Country_/20%Monthly2019-04-14 05:07
http://www.hotnewdeal.com/2019/04/14/289278_Quiksilver_Extra_40_Off_Sale_Styles_1969_28L_La/20%Monthly2019-04-14 04:55
http://www.hotnewdeal.com/2019/04/14/289277_Video_Games_Middleearth_Shadow_of_War_PS4_or_X/20%Monthly2019-04-14 02:24
http://www.hotnewdeal.com/2019/04/14/289276_Marvels_SpiderMan_PS4_30_or_24_w_GCU__Free/20%Monthly2019-04-14 02:07
http://www.hotnewdeal.com/2019/04/14/289275_PowerBlock_Elite_EXP_Adjustable_Dumbbell_Set__Sta/20%Monthly2019-04-14 01:55
http://www.hotnewdeal.com/2019/04/14/289274_Sony_a7_II_Mirrorless_Camera_w_2870mm_Lens__Van/20%Monthly2019-04-14 01:08
http://www.hotnewdeal.com/2019/04/14/289273_Milorganite_Price_Match_at_Local_HomeDepot/20%Monthly2019-04-14 01:08
http://www.hotnewdeal.com/2019/04/14/289272_Sun_Joe_SPX3500_2300PSI_148_GPM_Brushless_Induct/20%Monthly2019-04-14 00:14
http://www.hotnewdeal.com/2019/04/14/289271_NewsDemon_Usenet_GoT_Promo__1TB_blocks_8_500GB_/20%Monthly2019-04-14 00:14
http://www.hotnewdeal.com/2019/04/13/289270_Alive_again_Samsung_Galaxy_Tab_S4_105_Tablet_w/20%Monthly2019-04-13 23:59
http://www.hotnewdeal.com/2019/04/13/289269_Milwaukee_M12_12V_ScrewdriverHackzall_Combo_Kit_/20%Monthly2019-04-13 23:39
http://www.hotnewdeal.com/2019/04/13/289268_Wall_Sculptures_by_Stratton_Home_Decor_from_1560/20%Monthly2019-04-13 23:23
http://www.hotnewdeal.com/2019/04/13/289266_Seasonic_FOCUS_SSR450FM_450W_80_Gold_SemiModula/20%Monthly2019-04-13 23:07
http://www.hotnewdeal.com/2019/04/13/289265_Gigabyte_Brix_i58250_Barebone_PC_at_Frys_26863_/20%Monthly2019-04-13 22:16
http://www.hotnewdeal.com/2019/04/13/289264_MiloS_dog_treats_Duck_Jerky_Recipe_Dog_Treat_15/20%Monthly2019-04-13 22:06
http://www.hotnewdeal.com/2019/04/13/289263_5_Qt_Mobil_1_0W20_Advanced_Fuel_Economy_Full_Synt/20%Monthly2019-04-13 22:06
http://www.hotnewdeal.com/2019/04/13/289262_New_York_to_Phnom_Penh_Cambodia_511520_RT_Airfa/20%Monthly2019-04-13 21:54
http://www.hotnewdeal.com/2019/04/13/289260_Wolfgang_Puck_72_Quart_Air_Fryer_4999__New__O/20%Monthly2019-04-13 21:37
http://www.hotnewdeal.com/2019/04/13/289259_12Count_219oz_Garden_of_Life_Organic_GOL_Bars_V/20%Monthly2019-04-13 21:26
http://www.hotnewdeal.com/2019/04/13/289258_Cosco_Topside_Booster_Car_Set_Turquoise_1100_/20%Monthly2019-04-13 21:22
http://www.hotnewdeal.com/2019/04/13/289257_AMD_RYZEN_5_1600__Gigabyte_AX370Gaming_Motherboa/20%Monthly2019-04-13 21:22
http://www.hotnewdeal.com/2019/04/13/289256_1Month_of_Philo_Streaming_Service_Free_NEW_SUBSC/20%Monthly2019-04-13 21:06
http://www.hotnewdeal.com/2019/04/13/289255_Samsung_NU8000_Series_55_inch_Class_LED_Ultra_HD_4/20%Monthly2019-04-13 20:09
http://www.hotnewdeal.com/2019/04/13/289254_Samsung__SmartThings_ADT_Motion_Detector_5__Bes/20%Monthly2019-04-13 20:09
http://www.hotnewdeal.com/2019/04/13/289253_Staples__Tribeca_Black_Glass_Desk_only_30__Onli/20%Monthly2019-04-13 20:05
http://www.hotnewdeal.com/2019/04/13/289252_Asus_2in1_Laptop_Intel_Core_i58250U_14_1080p/20%Monthly2019-04-13 18:55
http://www.hotnewdeal.com/2019/04/13/289251_LG_55UK6090_55_inch_4K_UHD_HDR_Smart_LED_TV_329_f/20%Monthly2019-04-13 18:55
http://www.hotnewdeal.com/2019/04/13/289250_Husky_52_in_W_x_187_in_D_1Drawer_Mobile_Workbe/20%Monthly2019-04-13 18:45
http://www.hotnewdeal.com/2019/04/13/289248_FREE_one_year_subscription_to_Saveur_Popular_Scie/20%Monthly2019-04-13 18:08
http://www.hotnewdeal.com/2019/04/13/289247_Macys_Pyrex_12Piece_Round_Food_Storage_Set_15/20%Monthly2019-04-13 18:07
http://www.hotnewdeal.com/2019/04/13/289245_Frys_SAMSUNG_QN82Q6FN_82_QLED_1999_BM/20%Monthly2019-04-13 17:40
http://www.hotnewdeal.com/2019/04/13/289244_CamelBak_40oz_Magnetic_Cute_doublewall_insulated_/20%Monthly2019-04-13 17:25
http://www.hotnewdeal.com/2019/04/13/289243_Polar_Explorations_HD_Full_Season_and_Many_More_0/20%Monthly2019-04-13 17:25
http://www.hotnewdeal.com/2019/04/13/289242_Ryobi_Tool_Lanyard_997/20%Monthly2019-04-13 17:25
http://www.hotnewdeal.com/2019/04/13/289241_Peerless_Cheswick_Chrome_1handle_4in_Centerset_W/20%Monthly2019-04-13 16:56
http://www.hotnewdeal.com/2019/04/13/289239_Lodge_7Piece_Cast_Iron_Camping_Set_6997_Free_S/20%Monthly2019-04-13 16:35
http://www.hotnewdeal.com/2019/04/13/289238_Mens_Hoka_One_One_Ora_Recovery_2_Slide_Limited_S/20%Monthly2019-04-13 15:58
http://www.hotnewdeal.com/2019/04/13/289237_512GB_Intel_660p_Series_M2_2280_3D_NAND_SSD_60_A/20%Monthly2019-04-13 15:58
http://www.hotnewdeal.com/2019/04/13/289236_CrockPot_6Qt_Express_Crock_Stainless_Steel_Press/20%Monthly2019-04-13 15:05
http://www.hotnewdeal.com/2019/04/13/289235_KitchenAid_2Slice_Toaster_at_Home_Depot_3499__/20%Monthly2019-04-13 14:10
http://www.hotnewdeal.com/2019/04/13/289234_Starts_0414__Target_Xenoblade_Chronicles_2_Sw/20%Monthly2019-04-13 13:59
http://www.hotnewdeal.com/2019/04/13/289233_Few_of_lego_sets_50_barnes_and_noble_from_497/20%Monthly2019-04-13 13:59
http://www.hotnewdeal.com/2019/04/13/289232_Shazam_4_Tickets_for_30_Works_for_IMAX_DOLBY_3/20%Monthly2019-04-13 13:59
http://www.hotnewdeal.com/2019/04/13/289231_KrogerSmiths_InstantPot_8_qt_60_with_20_off_an/20%Monthly2019-04-13 13:55
http://www.hotnewdeal.com/2019/04/13/289230_Target_Cartwheel_3Count_12oz_Starbucks_House_Ble/20%Monthly2019-04-13 13:42
http://www.hotnewdeal.com/2019/04/13/289229_Spectracide_Weed_Stop_For_Lawns_32fl_oz_Crabgrass/20%Monthly2019-04-13 13:38
http://www.hotnewdeal.com/2019/04/13/289228_12_Month_EA_Access_Subscription_for_1939/20%Monthly2019-04-13 13:27
http://www.hotnewdeal.com/2019/04/13/289227_CIGARcom_Starter_Set_IV__10_Cigars__Humidor_29/20%Monthly2019-04-13 13:23
http://www.hotnewdeal.com/2019/04/13/289226_Gigabyte_GeForce_GTX1060_WINDFORCE_OC_3G_3GB_192B/20%Monthly2019-04-13 13:23
http://www.hotnewdeal.com/2019/04/13/289225_48oz_REESES_PIECES_Candies_733_5_or_636_15/20%Monthly2019-04-13 12:56
http://www.hotnewdeal.com/2019/04/13/289224_Synology_DiskStation_DS1019_5Bay_NAS_Enclosure_/20%Monthly2019-04-13 12:46
http://www.hotnewdeal.com/2019/04/13/289222_3_amazon_echo_dots_3rd_gen_for_6997/20%Monthly2019-04-13 12:30
http://www.hotnewdeal.com/2019/04/13/289221_auth_dealer_Yamaha_Receivers_RXA2080_92Ch_1/20%Monthly2019-04-13 11:55
http://www.hotnewdeal.com/2019/04/13/289220_GIGABYTE_Radeon_RX_570_4GB_Video_Card_115_AR_New/20%Monthly2019-04-13 11:43
http://www.hotnewdeal.com/2019/04/13/289219_OontZ_Angle_3XL_Ultra_Bluetooth_Speaker_7999/20%Monthly2019-04-13 11:23
http://www.hotnewdeal.com/2019/04/13/289218_Marpac_Dohm_White_Noise_Sound_Machines_Your_Choic/20%Monthly2019-04-13 11:23
http://www.hotnewdeal.com/2019/04/13/289217_Victorinox_Swiss_Army_WWP_Tinker_879_Evolution_/20%Monthly2019-04-13 10:22
http://www.hotnewdeal.com/2019/04/13/289216_Milwaukee_445Lumen_Pocket_Floodlight_w_2_batteri/20%Monthly2019-04-13 10:11
http://www.hotnewdeal.com/2019/04/13/289215_Monopoly_Fortnite_Board_Game_7_at_Walmart/20%Monthly2019-04-13 09:39
http://www.hotnewdeal.com/2019/04/13/289214_PlayStation_Plus_12_Month_Membership_Digital_Cod/20%Monthly2019-04-13 09:39
http://www.hotnewdeal.com/2019/04/13/289213_SingleStep_Folding_Stool_1499_or_2Step_Steel_F/20%Monthly2019-04-13 08:56
http://www.hotnewdeal.com/2019/04/13/289211_Xbox_Gift_Card_80_US_Email_Delivery__Free_Xbox/20%Monthly2019-04-13 06:10
http://www.hotnewdeal.com/2019/04/13/289209_Aqua_Joe_2Pack_Adjustable_Hose_Nozzles__Smart_Th/20%Monthly2019-04-13 03:44
http://www.hotnewdeal.com/2019/04/13/289208_Lenovo_ThinkCentre_M715Q_Tiny_Ryzen_5_Pro_2400GE/20%Monthly2019-04-13 03:13
http://www.hotnewdeal.com/2019/04/13/289207_16GB_2x8GB_Team_TForce_Delta_II_RGB_DDR4_3000_D/20%Monthly2019-04-13 02:43
http://www.hotnewdeal.com/2019/04/13/289206_USB_C_Hub_9_in_1_for_1799/20%Monthly2019-04-13 02:37
http://www.hotnewdeal.com/2019/04/13/289205_Starts_Sunday_414_Repeat_STARTS_SUNDAY_Meijer_S/20%Monthly2019-04-13 02:05
http://www.hotnewdeal.com/2019/04/13/289204_HP__156_HD_TouchScreen_Laptop__AMD_Ryzen_5_35/20%Monthly2019-04-13 01:37
http://www.hotnewdeal.com/2019/04/13/289202_Fender_American_Guitars_Pro_Jazzmaster_6String_E/20%Monthly2019-04-13 01:16
http://www.hotnewdeal.com/2019/04/13/289201_Kohls_Cardholders_15_The_Big_One_Gel_Memory_Foa/20%Monthly2019-04-13 01:15
http://www.hotnewdeal.com/2019/04/13/289200_Lenox_Middleton_104PC_Flatware_Set_Service_for_1/20%Monthly2019-04-13 01:15
http://www.hotnewdeal.com/2019/04/13/289199_Logitech_G513_Wired_Gaming_Keyboard_Mechanical_Rom/20%Monthly2019-04-13 01:08
http://www.hotnewdeal.com/2019/04/13/289198_17_Ounce_Zojirushi_SVGWE50_Stainless_Steel_Mug_1/20%Monthly2019-04-13 00:23
http://www.hotnewdeal.com/2019/04/13/289197_Star_Wars_Black_series_Obi_wan_Lightsaber_10000_/20%Monthly2019-04-13 00:04
http://www.hotnewdeal.com/2019/04/12/289196_Cafe_Du_Monde_Coffee_Chicory_15_Ounce_Ground_74/20%Monthly2019-04-12 23:47
http://www.hotnewdeal.com/2019/04/12/289195_LG__27UK600W_27_IPS_LED_4K_UHD_FreeSync_Monitor/20%Monthly2019-04-12 23:06
http://www.hotnewdeal.com/2019/04/12/289194_HP_15CX0056WM_Laptop_156_FHD_Intel_i58300H_/20%Monthly2019-04-12 23:06
http://www.hotnewdeal.com/2019/04/12/289193_64GB_Patriot_LX_microSDXC_V10_A1_Memory_Card_with_/20%Monthly2019-04-12 22:56
http://www.hotnewdeal.com/2019/04/12/289192_Patriot_Memory_Slate_32GB_USB_30_Flash_Drive_5_P/20%Monthly2019-04-12 22:46
http://www.hotnewdeal.com/2019/04/12/289191_Google_Home_Hub__Google_Home_Mini_95__free_sh/20%Monthly2019-04-12 22:08
http://www.hotnewdeal.com/2019/04/12/289190_Buy_One_Get_One_LG_Fiesta_2__1_Year_of_Service_B/20%Monthly2019-04-12 22:08
http://www.hotnewdeal.com/2019/04/12/289189_Rack_It_Up_Half_Moon_Wall_Rack__Utensil_Bar_19/20%Monthly2019-04-12 21:58
http://www.hotnewdeal.com/2019/04/12/289188_Screwdriver_Bits_76in1_with_56_Precision_Bits_/20%Monthly2019-04-12 21:58
http://www.hotnewdeal.com/2019/04/12/289187_Discountmags_Family_Handyman_699_Dwell_450/20%Monthly2019-04-12 21:42
http://www.hotnewdeal.com/2019/04/12/289186_2499__MSI_GE75_Raider023_173_Ultra_Thin_Bezel/20%Monthly2019-04-12 21:42
http://www.hotnewdeal.com/2019/04/12/289185_PNY_Turbo_128GB_USB_30_Flash_Drive_15/20%Monthly2019-04-12 21:32
http://www.hotnewdeal.com/2019/04/12/289184_Ghirardelli_Peppermint_Bark_Milk_Chocolate_Bar35/20%Monthly2019-04-12 21:32
http://www.hotnewdeal.com/2019/04/12/289183_Fix_it_Felix_Wreck_It_Ralph_Mini_Arcade_Walmart/20%Monthly2019-04-12 21:32
http://www.hotnewdeal.com/2019/04/12/289182_Graco_50_Off_Recline_N_Ride_3in1_Car_Seat_no/20%Monthly2019-04-12 20:28
http://www.hotnewdeal.com/2019/04/12/289180_Sony_WH1000XM3_Wireless_Noise_Canceling_Headphone/20%Monthly2019-04-12 20:27
http://www.hotnewdeal.com/2019/04/12/289179_Cooler_Master_MasterBox_Q300P_Mini_Tower_Case__4/20%Monthly2019-04-12 20:27
http://www.hotnewdeal.com/2019/04/12/289178_Crux_14636_Sous_Vide_Professional_Style_Cooker_Cr/20%Monthly2019-04-12 20:13
http://www.hotnewdeal.com/2019/04/12/289177_SimCity_4_Deluxe_Edition_MacPC_Digital_Downloa/20%Monthly2019-04-12 19:48
http://www.hotnewdeal.com/2019/04/12/289176_Arms__Nintendo_Switch_4799__More_Best_Buy_Swi/20%Monthly2019-04-12 19:32
http://www.hotnewdeal.com/2019/04/12/289175_4K_UHD_Digital_Films_Venom__SpiderMan_Homecomi/20%Monthly2019-04-12 19:09
http://www.hotnewdeal.com/2019/04/12/289174_Pepboys_35_off_75_Coupon_InStore_only_Exp_4151/20%Monthly2019-04-12 19:02
http://www.hotnewdeal.com/2019/04/12/289173_Anime_The_Ancient_Magus_Bride_Season_1_Digital/20%Monthly2019-04-12 19:02
http://www.hotnewdeal.com/2019/04/12/289172_SmilePowo_GoPro_Accessory_Kit_for_GoPro_Hero_65_B/20%Monthly2019-04-12 18:48
http://www.hotnewdeal.com/2019/04/12/289171_Hitachi_D13VF__Drill_90_Amp_EVS_Reversible_R/20%Monthly2019-04-12 18:13
http://www.hotnewdeal.com/2019/04/12/289170_Zinus_Tax_Day__20_off_on_BioFusion_Mattresses_/20%Monthly2019-04-12 17:47
http://www.hotnewdeal.com/2019/04/12/289169_Mikasa_Gold_Harmony_65_Pc_Flatware_Set_Service_fo/20%Monthly2019-04-12 17:32
http://www.hotnewdeal.com/2019/04/12/289168_Xfasten_Gaffer_Tape_2x30_Black_499_Amazon_Prim/20%Monthly2019-04-12 17:32
http://www.hotnewdeal.com/2019/04/12/289167_BenQ_GL2460BH_24_75Hz_1ms_GtG_LCDLED_Gaming_Mo/20%Monthly2019-04-12 17:16
http://www.hotnewdeal.com/2019/04/12/289165_12Pack_Propel_16oz_Water_With_Electrolytes_606/20%Monthly2019-04-12 16:57
http://www.hotnewdeal.com/2019/04/12/289164_New_York__New_Jersey_to_Costa_Rica_369_RT_Nonsto/20%Monthly2019-04-12 16:48
http://www.hotnewdeal.com/2019/04/12/289163_ADATA_XPG_SX8200_Pro_1TB_3D_NAND_NVMe_Gen3x4_PCIe_/20%Monthly2019-04-12 16:37
http://www.hotnewdeal.com/2019/04/12/289162_Synology_4_bay_NAS_DiskStation_DS918_Diskless_/20%Monthly2019-04-12 16:37
http://www.hotnewdeal.com/2019/04/12/289161_Walmart_Family_Mobile_Samsung_Galaxy_S8_Prepaid_Ph/20%Monthly2019-04-12 16:27
http://www.hotnewdeal.com/2019/04/12/289160_Xbox_One_S_1TB_Console__Battlefield_V_Bundle_Oth/20%Monthly2019-04-12 16:20
http://www.hotnewdeal.com/2019/04/12/289159_15oz_Medline_MSC095010H_MedSpa_RollOn_Antiperspi/20%Monthly2019-04-12 16:11
http://www.hotnewdeal.com/2019/04/12/289158_AMD_RYZEN_7_2700X_8Core_CPU__ASRock_X470_AMD_AM4/20%Monthly2019-04-12 16:11
http://www.hotnewdeal.com/2019/04/12/289157_Over_Ear_Gaming_Headphone__Headset_for_PS4_PC_X/20%Monthly2019-04-12 16:10
http://www.hotnewdeal.com/2019/04/12/289156_Skullgirls_Complete_Bundle_PC_Digital_Download_/20%Monthly2019-04-12 16:04
http://www.hotnewdeal.com/2019/04/12/289155_Xenoblade_Chronicles_2_Torna_The_Golden_Country_/20%Monthly2019-04-12 15:59
http://www.hotnewdeal.com/2019/04/12/289154_PlayStation_4_Platinum_Wireless_Headset_Black_am/20%Monthly2019-04-12 15:59
http://www.hotnewdeal.com/2019/04/12/289153_GMY_Vintage_LED_Edison_Bulb_45W__Dimmable_ST19_A/20%Monthly2019-04-12 15:05
http://www.hotnewdeal.com/2019/04/12/289151_6Pack_Energizer_3V_WatchElectronic_Lithium_Coin_/20%Monthly2019-04-12 14:37
http://www.hotnewdeal.com/2019/04/12/289150_9_Avengers_Endgame_Funko_POP_Nearly_complete_se/20%Monthly2019-04-12 14:37
http://www.hotnewdeal.com/2019/04/12/289149_Carters_Baby_Boys_or_Girls_Short_Sleeve_Bodysuits/20%Monthly2019-04-12 14:37
http://www.hotnewdeal.com/2019/04/12/289148_WD_Elements_8TB_USB_30_Desktop_Hard_Drive_WDBWLG0/20%Monthly2019-04-12 14:37
http://www.hotnewdeal.com/2019/04/12/289147_Guns_Germs_and_Steel_Kindle_eBook_299/20%Monthly2019-04-12 14:36
http://www.hotnewdeal.com/2019/04/12/289146_49_LG_49UK6300PUE_4K_HDR_Smart_TV_259__free_sh/20%Monthly2019-04-12 14:36
http://www.hotnewdeal.com/2019/04/12/289145_Ecovacs_Deebot_901_Robotic_Vacuum_Cleaner_w_Smart/20%Monthly2019-04-12 14:17
http://www.hotnewdeal.com/2019/04/12/289144_Dual_Controller_Charger_Station_for_PS4_Slim__PS4/20%Monthly2019-04-12 13:57
http://www.hotnewdeal.com/2019/04/12/289143_40_Off__Adidas_UltraBOOST_40_Running_Shoe__10/20%Monthly2019-04-12 13:42
http://www.hotnewdeal.com/2019/04/12/289142_click_image_to_see_larger_view_Gigabyte_GeForce_GT/20%Monthly2019-04-12 13:42
http://www.hotnewdeal.com/2019/04/12/289141_Milwaukee_M18_battery_with_charger_79_at_HD/20%Monthly2019-04-12 13:27
http://www.hotnewdeal.com/2019/04/12/289140_50_Off_Coupon_For_A_Lot_of_High_Quality_Dog__Cat/20%Monthly2019-04-12 13:27
http://www.hotnewdeal.com/2019/04/12/289139_Preorder_Samsung_Galaxy_Tab_S5e_Tablet_Promotions/20%Monthly2019-04-12 13:27
http://www.hotnewdeal.com/2019/04/12/289138_Free_5_lbs_Paper_Shredding_at_Office_Depot_4141/20%Monthly2019-04-12 13:12
http://www.hotnewdeal.com/2019/04/12/289137_A_Game_of_Thrones_A_Song_of_Ice_and_Fire_Book_1/20%Monthly2019-04-12 13:12
http://www.hotnewdeal.com/2019/04/12/289136_AudioTechnica_LP120XUSB_Direct_Drive_Analog_Turn/20%Monthly2019-04-12 12:52
http://www.hotnewdeal.com/2019/04/12/289135_XPS_13_white_hot_119999/20%Monthly2019-04-12 12:44
http://www.hotnewdeal.com/2019/04/12/289134_Prison_Break_The_Complete_Series_Digital_HD_TV_S/20%Monthly2019-04-12 12:36
http://www.hotnewdeal.com/2019/04/12/289133_Intel_Core_i99900K_Coffee_Lake_8Core_CPU__ASUS_/20%Monthly2019-04-12 12:35
http://www.hotnewdeal.com/2019/04/12/289132_ProForm_905_CST_Treadmill_for_699__Home_Depot/20%Monthly2019-04-12 12:24
http://www.hotnewdeal.com/2019/04/12/289131_iBUYPOWER_BB953_Gaming_Desktop_Intel_Core_i78700/20%Monthly2019-04-12 12:24
http://www.hotnewdeal.com/2019/04/12/289129_Citi_Credit_Card_Easy_deals_Walmart_gift_card_10_/20%Monthly2019-04-12 12:16
http://www.hotnewdeal.com/2019/04/12/289128_Analon__Woks_2999_3Qt_Covered_Saut_Pan_29/20%Monthly2019-04-12 12:03
http://www.hotnewdeal.com/2019/04/12/289127_Enermax_TB_Silence_120mm_Case_Fan_Free_after_9_Re/20%Monthly2019-04-12 12:03
http://www.hotnewdeal.com/2019/04/12/289126_1TB_XBox_One_X_Console_w_The_Division_2__Apex_Le/20%Monthly2019-04-12 12:02
http://www.hotnewdeal.com/2019/04/12/289125_Gap_50_off_Select_Clearance_Boys_Ankle_Boots_8/20%Monthly2019-04-12 12:02
http://www.hotnewdeal.com/2019/04/12/289124_Cookware_Cast_Iron_Skillet_75Qt_Covered_Wok_4/20%Monthly2019-04-12 11:44
http://www.hotnewdeal.com/2019/04/12/289123_WD_My_Book_6TB_USB_30_Desktop_Hard_Drive_100_AC_/20%Monthly2019-04-12 11:44
http://www.hotnewdeal.com/2019/04/12/289122_32GB_Samsung_EVO_U1_Class_10_microSD_Card_5_Frys/20%Monthly2019-04-12 11:44
http://www.hotnewdeal.com/2019/04/12/289121_20_Amazon_Credit_for_using_Amazon_Photos_Prime_O/20%Monthly2019-04-12 11:29
http://www.hotnewdeal.com/2019/04/12/289120_Samsung_The_Frame_SL03_55inch_4K_UltraHD_LED_HDTV/20%Monthly2019-04-12 11:13
http://www.hotnewdeal.com/2019/04/12/289119_Seasonic_FOCUS_Plus_Series_550W_80_Gold_Modular_P/20%Monthly2019-04-12 10:57
http://www.hotnewdeal.com/2019/04/12/289118_28lb_Taste_of_the_Wild_Dry_Dog_Food_Multiple_Op/20%Monthly2019-04-12 10:53
http://www.hotnewdeal.com/2019/04/12/289117_Braun_70S_Series_7_Shaver_Replacement_Head_2544_/20%Monthly2019-04-12 10:52
http://www.hotnewdeal.com/2019/04/12/289116_Assassins_Creed_Odyssey_XBOX_Deluxe_2640_Ulti/20%Monthly2019-04-12 10:52
http://www.hotnewdeal.com/2019/04/12/289115_Peets_Coffee_Espresso_Capsules_Variety_Pack_10_Ea/20%Monthly2019-04-12 10:39
http://www.hotnewdeal.com/2019/04/12/289114_Keurig_K200_SingleServe_KCup_Pod_Coffee_Maker_V/20%Monthly2019-04-12 10:32
http://www.hotnewdeal.com/2019/04/12/289113_Bumblebee_2018_Digital_HD_Rental_299_for_Ama/20%Monthly2019-04-12 10:15
http://www.hotnewdeal.com/2019/04/12/289112_Apple_MacBook_Pro_With_Touch_Bar_FPTR2LLA_154_L/20%Monthly2019-04-12 09:45
http://www.hotnewdeal.com/2019/04/12/289111_Digital_HD_Anime_Movies_Your_Name_Original_Japa/20%Monthly2019-04-12 09:45
http://www.hotnewdeal.com/2019/04/12/289110_Intel_660p_Series_M2_2280_512GB_SSD__16GB_GSkil/20%Monthly2019-04-12 09:45
http://www.hotnewdeal.com/2019/04/12/289109_Amazon_Tap_AlexaEnabled_Portable_Bluetooth_Speake/20%Monthly2019-04-12 09:44
http://www.hotnewdeal.com/2019/04/12/289108_HP_173_Laptop_i38GB1TB_35999/20%Monthly2019-04-12 09:44
http://www.hotnewdeal.com/2019/04/12/289106_PSA_Google_and_Huawei_agree_to_pay_owners_of_faul/20%Monthly2019-04-12 09:29
http://www.hotnewdeal.com/2019/04/12/289105_Wicked_WICWI3054_Jade_Earbuds_with_Mic_Strawber/20%Monthly2019-04-12 09:29
http://www.hotnewdeal.com/2019/04/12/289104_Nespresso_by_Breville_Essenza_Mini_Espresso_Machin/20%Monthly2019-04-12 09:14
http://www.hotnewdeal.com/2019/04/12/289103_Development_Plus_Inc__T51_Power_Armor_Wireless_B/20%Monthly2019-04-12 08:55
http://www.hotnewdeal.com/2019/04/12/289102_Arm__Hammer_255_oz_HE_Clean_Burst_Liquid_Laundry/20%Monthly2019-04-12 08:16
http://www.hotnewdeal.com/2019/04/12/289101_LEGO_Disney_Pixars_The_Incredibles__Xbox_One__P/20%Monthly2019-04-12 08:05
http://www.hotnewdeal.com/2019/04/12/289099_Jabra_Elite_Active_65t_Alexa_Enabled_True_Wireless/20%Monthly2019-04-12 07:30
http://www.hotnewdeal.com/2019/04/12/289098_Amazon__50_off_your_first_subscribe_and_save_o/20%Monthly2019-04-12 07:16
http://www.hotnewdeal.com/2019/04/12/289097_TV_Show_Seasons_Amazon_Digital_HD_The_American_F/20%Monthly2019-04-12 07:16
http://www.hotnewdeal.com/2019/04/12/289096_Market_pantry_chocolate_nutritional_shake_16ct_5/20%Monthly2019-04-12 06:33
http://www.hotnewdeal.com/2019/04/12/289095_Westinghouse_49_Class_LED_1080p__HDTV_150__Bes/20%Monthly2019-04-12 06:04
http://www.hotnewdeal.com/2019/04/12/289094_Apple_Airpods_2_with_charging_case_by_Costco_throu/20%Monthly2019-04-12 03:31
http://www.hotnewdeal.com/2019/04/12/289093_New_Apple_AirPods_Wireless_Headphones_with_Charger/20%Monthly2019-04-12 03:13
http://www.hotnewdeal.com/2019/04/12/289092_Stoic_Packable_Insulated_Hooded_Jacket_998__6/20%Monthly2019-04-12 02:44
http://www.hotnewdeal.com/2019/04/12/289090_Kingsford_Charcoal_186_lb_2pack_766_Home_Dep/20%Monthly2019-04-12 02:01
http://www.hotnewdeal.com/2019/04/12/289089_Harbor_freight_Hercules_10_in_15_Amp_Compact_Job/20%Monthly2019-04-12 01:43
http://www.hotnewdeal.com/2019/04/12/289088_Digital_4K_UHD_Movies_American_Hustle_Jerry_Magu/20%Monthly2019-04-12 01:30
http://www.hotnewdeal.com/2019/04/12/289087_Blizzard_Gear_Store__Spring_Clearance_up_to_75_o/20%Monthly2019-04-12 01:30
http://www.hotnewdeal.com/2019/04/12/289086_GSKILL_Ripjaws_Series_16GB_2_x_8G_260Pin_DDR4_/20%Monthly2019-04-12 01:23
http://www.hotnewdeal.com/2019/04/12/289085_DuckTales_Remastered__Steam_164_Cheapest_Ever/20%Monthly2019-04-12 01:12
http://www.hotnewdeal.com/2019/04/12/289084_Samsung_UN55NU800D_4K_UHD_TV_for_569_BJs_Membe/20%Monthly2019-04-12 01:12
http://www.hotnewdeal.com/2019/04/12/289083_399_Mobil_1_Extended_Performance_Oil_filter_M1C/20%Monthly2019-04-12 01:12
http://www.hotnewdeal.com/2019/04/12/289082_Linksys_Velop_Dual_Band_AC3600_Mesh_WiFi_System__/20%Monthly2019-04-12 01:12
http://www.hotnewdeal.com/2019/04/11/289080_Microsoft_Xbox_One_Controller_NEW_Black_or_White/20%Monthly2019-04-11 23:44
http://www.hotnewdeal.com/2019/04/11/289079_4Pc_Fresh_Ideas_Comforter_Clips_3__free_shippin/20%Monthly2019-04-11 23:44
http://www.hotnewdeal.com/2019/04/11/289078_Muslin_Burp_Cloths_100_Cotton_6_Layers_Extra_Abso/20%Monthly2019-04-11 23:28
http://www.hotnewdeal.com/2019/04/11/289077_2Pack_Incase_City_Brief_13_MacBook_Pro_Shoulder_/20%Monthly2019-04-11 22:55
http://www.hotnewdeal.com/2019/04/11/289076_1999_for_ZeroLemon_22800mAH_Power_Bank_on_Amazon/20%Monthly2019-04-11 22:47
http://www.hotnewdeal.com/2019/04/11/289075_John_deere_gator_power_wheel_169/20%Monthly2019-04-11 22:47
http://www.hotnewdeal.com/2019/04/11/289074_SAWZALL_Demolition_Wood_and_Metal_Cutting_Reciproc/20%Monthly2019-04-11 22:36
http://www.hotnewdeal.com/2019/04/11/289073_Seattle_to_Tokyo_Japan_445461_RT_Nonstop_Airfar/20%Monthly2019-04-11 22:24
http://www.hotnewdeal.com/2019/04/11/289072_Nintendo_Switch_Digital_Games_Lumo_1197_Mulaka/20%Monthly2019-04-11 21:49
http://www.hotnewdeal.com/2019/04/11/289071_Frys_25A_micro_usb_Power_Supply149/20%Monthly2019-04-11 21:27
http://www.hotnewdeal.com/2019/04/11/289070_EasyGoing_Reversible_water_resistant_sofa_covers_/20%Monthly2019-04-11 21:26
http://www.hotnewdeal.com/2019/04/11/289069_Hardees_free_Sausage_Biscuit_Sandwich_on_April_15/20%Monthly2019-04-11 21:11
http://www.hotnewdeal.com/2019/04/11/289068_Vudu_Convert_10_Discs_to_Digital_get_5_credit/20%Monthly2019-04-11 21:11
http://www.hotnewdeal.com/2019/04/11/289066_LG_43MU79B_Matte_Black_43_4251_diagonal_UHD_/20%Monthly2019-04-11 21:10
http://www.hotnewdeal.com/2019/04/11/289065_Air_Wick_Stick_Ups_Car_Air_Freshener_Crisp_Breeze/20%Monthly2019-04-11 20:49
http://www.hotnewdeal.com/2019/04/11/289064_Intel_SSDPE2ME012T401_12tb_P3600_Series_Ssd_Pcie_/20%Monthly2019-04-11 20:49
http://www.hotnewdeal.com/2019/04/11/289063_YMMV_Tillamook_montrey_jack_cheese_16_oz_Missmark/20%Monthly2019-04-11 20:29
http://www.hotnewdeal.com/2019/04/11/289062_8Pack_Chemical_Guys_MIC_292_08_Premium_Grade_Micr/20%Monthly2019-04-11 20:29
http://www.hotnewdeal.com/2019/04/11/289061_Steelcase_Leap_chair_for_63999_new_from_Wayfair_/20%Monthly2019-04-11 20:29
http://www.hotnewdeal.com/2019/04/11/289060_40_off_Chemical_Guys_Car_Cleaning_Kits_2687/20%Monthly2019-04-11 20:20
http://www.hotnewdeal.com/2019/04/11/289058_Brother_MFCL2750DW_Monochrome_AllinOne_Wireless_/20%Monthly2019-04-11 20:08
http://www.hotnewdeal.com/2019/04/11/289057_Starts_0417_KitchenAid_6Quart_Professional_Seri/20%Monthly2019-04-11 20:08
http://www.hotnewdeal.com/2019/04/11/289056_Lumber_Liquidators__Waterproof_Flooring_Starting_/20%Monthly2019-04-11 19:58
http://www.hotnewdeal.com/2019/04/11/289055_Skytech_Archangel_Elite_Desktop_Ryzen_5_2600_8GB/20%Monthly2019-04-11 19:41
http://www.hotnewdeal.com/2019/04/11/289054_Gretsch_G5420TG_Limited_Edition_Electromatic_Singl/20%Monthly2019-04-11 19:26
http://www.hotnewdeal.com/2019/04/11/289053_ASUS_TUF_B450PLUS_GAMING_AM4_B450_Motherboard_92/20%Monthly2019-04-11 18:59
http://www.hotnewdeal.com/2019/04/11/289052_Genuine_Philips_Sonicare_C2_replacement_toothbrush/20%Monthly2019-04-11 18:35
http://www.hotnewdeal.com/2019/04/11/289051_Keurig_KCafe_Single_Serve_KCup_Pod_Coffee_Latt/20%Monthly2019-04-11 18:35
http://www.hotnewdeal.com/2019/04/11/289050_TCL_55S515B_Factory_refurbished_TCL_55_4K_Smart_TV/20%Monthly2019-04-11 18:06
http://www.hotnewdeal.com/2019/04/11/289049_Tacklife_USB_Rechargeable_Cordless_Electric_Screwd/20%Monthly2019-04-11 18:06
http://www.hotnewdeal.com/2019/04/11/289048_GoPro_HERO7_Black_with_Free_Dual_Battery_Charger_a/20%Monthly2019-04-11 18:06
http://www.hotnewdeal.com/2019/04/11/289047_SanDisk_32GB_Ultra_Fit_USB_31_Flash_Drive__SDCZ4/20%Monthly2019-04-11 17:47
http://www.hotnewdeal.com/2019/04/11/289045_DEWALT_ToughSystem_DS400_22_in_XL_Tool_Box_2497/20%Monthly2019-04-11 17:33
http://www.hotnewdeal.com/2019/04/11/289044_Cases_and_Accessories_for_Galaxy_S10_Galaxy_S10/20%Monthly2019-04-11 17:33
http://www.hotnewdeal.com/2019/04/11/289043_VMODA_Crossfade_Wireless_OverEar_Headphone_999/20%Monthly2019-04-11 17:25
http://www.hotnewdeal.com/2019/04/11/289042_Alienware_m17_Gaming_Laptop_173_Intel_i78750H_N/20%Monthly2019-04-11 17:09
http://www.hotnewdeal.com/2019/04/11/289041_Google_Home_Hub_7_Touchscreen_Smart_Display_Perso/20%Monthly2019-04-11 17:03
http://www.hotnewdeal.com/2019/04/11/289040_Star_Wars_Black_Series_Dewback_2898/20%Monthly2019-04-11 16:55
http://www.hotnewdeal.com/2019/04/11/289039_Duluth_Trading_Co_Mens_Buck_Naked_Performance_Bo/20%Monthly2019-04-11 16:45
http://www.hotnewdeal.com/2019/04/11/289038_Lag_Tramontane_T270PE_Parlor_Satin_Acoustic_Electr/20%Monthly2019-04-11 16:31
http://www.hotnewdeal.com/2019/04/11/289036_ELEMENT_55_Class_4K_2160P_UHD_Smart_LED_TV_E4S/20%Monthly2019-04-11 16:16
http://www.hotnewdeal.com/2019/04/11/289035_27_LG_27MP59HTP_1080p_5ms_75Hz_FreeSync_IPS_Moni/20%Monthly2019-04-11 16:16
http://www.hotnewdeal.com/2019/04/11/289034_Kohls_Cardholders_Mens_Croft__Barrow_Pajama_Pan/20%Monthly2019-04-11 15:56
http://www.hotnewdeal.com/2019/04/11/289033_Olive_Garden_1_Kids_meal_with_adult_entree_purch/20%Monthly2019-04-11 15:45
http://www.hotnewdeal.com/2019/04/11/289032_Hisense__55_Class__LED__H6_Series__2160p__Sm/20%Monthly2019-04-11 15:24
http://www.hotnewdeal.com/2019/04/11/289031_2Pack_Anker_Soundcore_Flare_Portable_Bluetooth_Sp/20%Monthly2019-04-11 15:14
http://www.hotnewdeal.com/2019/04/11/289030_Moto_G6_32GB3GB_with_Project_Fi_activation_99/20%Monthly2019-04-11 15:14
http://www.hotnewdeal.com/2019/04/11/289029_Set_of_4_Cubo_Foldable_Fabric_Bins__Pink__576/20%Monthly2019-04-11 15:08
http://www.hotnewdeal.com/2019/04/11/289028_Aukey_Latitude_Wireless_Bluetooth_41_Headphones_w/20%Monthly2019-04-11 14:40
http://www.hotnewdeal.com/2019/04/11/289027_Jamo_S809_Floor_standing_speakers_249_with_Promo_/20%Monthly2019-04-11 14:39
http://www.hotnewdeal.com/2019/04/11/289026_Costco_has_Kirkland_signature_microfiber_towel_ult/20%Monthly2019-04-11 14:13
http://www.hotnewdeal.com/2019/04/11/289025_HP__Sprocket_2in1_Photo_Printer_5995/20%Monthly2019-04-11 14:12
http://www.hotnewdeal.com/2019/04/11/289024_AudioTechnica_ATHM50x_Headphones__Fiio_A3_Ampli/20%Monthly2019-04-11 14:12
http://www.hotnewdeal.com/2019/04/11/289023_50_Off_Your_Delivery_Order_with_Panera_Bread_1/20%Monthly2019-04-11 14:12
http://www.hotnewdeal.com/2019/04/11/289022_Kingston_HyperX_Fury_16GB_DDR4_2933_Mhz_42/20%Monthly2019-04-11 14:05
http://www.hotnewdeal.com/2019/04/11/289021_Part_PREMIUM_ECONOMY_Houston_to_Rio_de_Janeiro_6/20%Monthly2019-04-11 14:04
http://www.hotnewdeal.com/2019/04/11/289020_Sony_KD65X750F_499_Walmart_YMMV/20%Monthly2019-04-11 13:46
http://www.hotnewdeal.com/2019/04/11/289019_Apple_Watch_Series_3_GPS__42mm__Sport_Band__Alu/20%Monthly2019-04-11 13:46
http://www.hotnewdeal.com/2019/04/11/289018_Microsoft_Windows_Store_Gift_Cards_Digital_Delive/20%Monthly2019-04-11 13:46
http://www.hotnewdeal.com/2019/04/11/289017_LG_OLED_E8_55_OLED55E8PUA__Sold_by_Newegg__13/20%Monthly2019-04-11 13:39
http://www.hotnewdeal.com/2019/04/11/289016_Pep_Boys_BOGOThon_From_219_to_1999/20%Monthly2019-04-11 13:39
http://www.hotnewdeal.com/2019/04/11/289015_Brother_MFCJ497DW_Wireless_Color_Inkjet_AllInOn/20%Monthly2019-04-11 13:31
http://www.hotnewdeal.com/2019/04/11/289014_2Count_Paladone_Call_of_Duty_Heat_Activated_Color/20%Monthly2019-04-11 13:31
http://www.hotnewdeal.com/2019/04/11/289013_Voltron_Ultimate_14_Electronic_Figure_1598_Fre/20%Monthly2019-04-11 13:31
http://www.hotnewdeal.com/2019/04/11/289012_LaView_83MP_4K_IP67_Outdoor_H265_ONVIF_RTSP_PoE_/20%Monthly2019-04-11 13:16
http://www.hotnewdeal.com/2019/04/11/289011_ASUS_ROG_Maximus_IX_Extreme_Z270_EATX_AC_Wifi_Moth/20%Monthly2019-04-11 13:16
http://www.hotnewdeal.com/2019/04/11/289010_BIC_XtraSparkle_Mechanical_Pencil_Medium_Point_/20%Monthly2019-04-11 13:15
http://www.hotnewdeal.com/2019/04/11/289009_AMD_RYZEN_7_2700_8Core_CPU_wWraith_Spire_LED_C/20%Monthly2019-04-11 13:09
http://www.hotnewdeal.com/2019/04/11/289008_Kohls_Cardholders_Cuddl_Duds_Flannel_Sherpa_Quilt/20%Monthly2019-04-11 13:03
http://www.hotnewdeal.com/2019/04/11/289007_Canon_imageCLASS_MF731Cdw_Laser_AllInOne_200_P/20%Monthly2019-04-11 13:02
http://www.hotnewdeal.com/2019/04/11/289006_ClosetMaid_Premium_6Cube_Organizer_in_Weathered_T/20%Monthly2019-04-11 13:02
http://www.hotnewdeal.com/2019/04/11/289005_569PC_LEGO_Nexo_Knights_Aarons_Xbow_72005_30/20%Monthly2019-04-11 12:45
http://www.hotnewdeal.com/2019/04/11/289004_Spray_Nine_26801_Heavy_Duty_CleanerDegreaser_and_/20%Monthly2019-04-11 12:31
http://www.hotnewdeal.com/2019/04/11/289003_Target_Pet_Products_Food_Included_30_off_Today_On/20%Monthly2019-04-11 12:18
http://www.hotnewdeal.com/2019/04/11/289002_YMMV_Gladiator_4_GearWall_Panels_2Pack_2749/20%Monthly2019-04-11 12:17
http://www.hotnewdeal.com/2019/04/11/289001_Today_Only__30_Off_Entire_Order_on_Callaway_Golf/20%Monthly2019-04-11 12:04
http://www.hotnewdeal.com/2019/04/11/289000_Lifestyle_Solutions_Ireland_Sofa_Grey_17900__/20%Monthly2019-04-11 12:04
http://www.hotnewdeal.com/2019/04/11/288999_Capresso_56001_Infinity_Conical_Burr_Black_Coffee/20%Monthly2019-04-11 12:03
http://www.hotnewdeal.com/2019/04/11/288998_20_off_UPS_Ground_40_off_UPS_1_2_3day_Air_Sh/20%Monthly2019-04-11 11:45
http://www.hotnewdeal.com/2019/04/11/288996_SanDisk_Ultra_128GB_microSDXC_UHSI_card_with_Adap/20%Monthly2019-04-11 11:13
http://www.hotnewdeal.com/2019/04/11/288995_TORK_15_Amp_24Hour_Outdoor_Weatherproof_PlugIn_M/20%Monthly2019-04-11 11:13
http://www.hotnewdeal.com/2019/04/11/288994_Alesis_Coda_Pro_88Key_Digital_Piano_with_Stand_at/20%Monthly2019-04-11 11:13
http://www.hotnewdeal.com/2019/04/11/288993_AcousticElectric_Guitar__Lag_Tramontane_T100ACE_/20%Monthly2019-04-11 11:13
http://www.hotnewdeal.com/2019/04/11/288992_MECH15_G2__Silm__Light_Gaming_Laptop_500GB_SSD/20%Monthly2019-04-11 10:43
http://www.hotnewdeal.com/2019/04/11/288991_4Count_Mr_Clean_Magic_Eraser_MultiSurface_Clean/20%Monthly2019-04-11 10:36
http://www.hotnewdeal.com/2019/04/11/288990_ASUS_Dual_GeForce_RTX_2070_Video_Card_447_AR_New/20%Monthly2019-04-11 10:36
http://www.hotnewdeal.com/2019/04/11/288989_Floor_Squeegee_Adjustable_Water_Squeegee_Foam_With/20%Monthly2019-04-11 10:08
http://www.hotnewdeal.com/2019/04/11/288988_PORTER_CABLE_20Volt_Max_12in_Cordless_Drill_YMM/20%Monthly2019-04-11 10:04
http://www.hotnewdeal.com/2019/04/11/288987_DeWALT_DCF889B_20V_MAX_Lithiumion_12_High_Torqu/20%Monthly2019-04-11 09:45
http://www.hotnewdeal.com/2019/04/11/288986_32GB_2x_16_GSKILL_Aegis_DDR4_2666_12949_AC__/20%Monthly2019-04-11 09:45
http://www.hotnewdeal.com/2019/04/11/288985_Select_Wellness_Core_Dry_Dog_Food_30_Off_26Pou/20%Monthly2019-04-11 09:45
http://www.hotnewdeal.com/2019/04/11/288984_Staples_Rewards_Recycle_Electronics_InStore_Get/20%Monthly2019-04-11 09:29
http://www.hotnewdeal.com/2019/04/11/288983_Kohls_Cardholders_3Piece_Fiesta_Bistro_Place_Set/20%Monthly2019-04-11 09:01
http://www.hotnewdeal.com/2019/04/11/288982_Castrol_POWER1_20W50_Synthetic_Motorcycle_Oil_1_/20%Monthly2019-04-11 08:36
http://www.hotnewdeal.com/2019/04/11/288981_Costco_Members_via_Google_Express_43_Hisense_43R/20%Monthly2019-04-11 08:36
http://www.hotnewdeal.com/2019/04/11/288980_PUMA_Mens_WarmUp_Jacket_in_Black_L_XXL_for_1/20%Monthly2019-04-11 08:15
http://www.hotnewdeal.com/2019/04/11/288979_The_Hunger_Games_4K_Ultra_HD__Bluray__Digital_/20%Monthly2019-04-11 07:44
http://www.hotnewdeal.com/2019/04/11/288978_TPLink_HS110_WiFi_Smart_Plug_with_Energy_Monitor/20%Monthly2019-04-11 05:36
http://www.hotnewdeal.com/2019/04/11/288977_Frys__Blurays_The_Usual_Suspects_093_Unleas/20%Monthly2019-04-11 05:36
http://www.hotnewdeal.com/2019/04/11/288976_GSKILL_Ripjaws_Series_16GB_2_x_8G_260Pin_DDR4_/20%Monthly2019-04-11 05:36
http://www.hotnewdeal.com/2019/04/11/288975_Ring_Alarm_DoorWindow_Sensor_1199__Motion_Dete/20%Monthly2019-04-11 04:37
http://www.hotnewdeal.com/2019/04/11/288974_Anker_SoundBuds_Slim_Wireless_Headphones_aptX_Hi/20%Monthly2019-04-11 04:10
http://www.hotnewdeal.com/2019/04/11/288972_Livewire_Cable_Tester_at_Musicians_Friend_13__F/20%Monthly2019-04-11 02:38
http://www.hotnewdeal.com/2019/04/11/288971_Amazon_Fire_TV_with_4K_Ultra_HD_and_Alexa_Voice_Re/20%Monthly2019-04-11 01:31
http://www.hotnewdeal.com/2019/04/11/288970_Jackson_Guitars_CBXNT_IV_Electric_Bass_300_X_Se/20%Monthly2019-04-11 01:17
http://www.hotnewdeal.com/2019/04/11/288969_AData_960GB_SU630_25_SSD_80_Frys_411/20%Monthly2019-04-11 00:23
http://www.hotnewdeal.com/2019/04/11/288968_AMD_RYZEN_7_2700X_8Core_CPU__GIGABYTE_GAAX370G/20%Monthly2019-04-11 00:03
http://www.hotnewdeal.com/2019/04/10/288967_Ring_Video_Doorbell_Pro_and_Chime_Pro_Bundle__Fre/20%Monthly2019-04-10 23:47
http://www.hotnewdeal.com/2019/04/10/288966_Dewalt_DCF899B_20v_MAX_XR_Brushless_12_Impact_W/20%Monthly2019-04-10 23:31
http://www.hotnewdeal.com/2019/04/10/288965_Lenovo_Laptop_IdeaPad_330_81D20002US_AMD_Ryzen_3_2/20%Monthly2019-04-10 23:24
http://www.hotnewdeal.com/2019/04/10/288964_400__Zeiss_PreMoistened_Lens_Cleaning_Wipes__2/20%Monthly2019-04-10 23:16
http://www.hotnewdeal.com/2019/04/10/288963_LG_OLED_65_B7A_Open_Box__Fair_condition_at_Best_/20%Monthly2019-04-10 22:46
http://www.hotnewdeal.com/2019/04/10/288961_Walmart_12_Multicolor_Wall_clock_450_10_Roun/20%Monthly2019-04-10 22:30
http://www.hotnewdeal.com/2019/04/10/288960_RollUp_Dish_Drying_Rack_1002__FS_wPrime_Amaz/20%Monthly2019-04-10 22:30
http://www.hotnewdeal.com/2019/04/10/288959_Modvel_Faux_Leather_Seat_Cushion_for_Back_Pain_15/20%Monthly2019-04-10 22:16
http://www.hotnewdeal.com/2019/04/10/288958_TP_Link_Smart_WiFi_Light_Switch_with_3Way_Kit_/20%Monthly2019-04-10 21:55
http://www.hotnewdeal.com/2019/04/10/288957_Eluktronics_MECH17_Gaming_Laptop__RTX_2070_NOT_/20%Monthly2019-04-10 21:31
http://www.hotnewdeal.com/2019/04/10/288956_Aukey_Keyboards_104key_Antighosting_Mechanical_/20%Monthly2019-04-10 21:24
http://www.hotnewdeal.com/2019/04/10/288955_50_Nintendo_eShop_Gift_Card_Email_Delivery_for_/20%Monthly2019-04-10 21:15
http://www.hotnewdeal.com/2019/04/10/288954_10Pc_Hasbro_PlayDoh_Minis_Party_Pack_multicolo/20%Monthly2019-04-10 21:03
http://www.hotnewdeal.com/2019/04/10/288953_City_Pickers_20_W_x_24_L_x_10_H_Earth_Brown_Res/20%Monthly2019-04-10 20:45
http://www.hotnewdeal.com/2019/04/10/288952_Costco__HP_Pavilion_27_Class_QHD_Monitor_21999_/20%Monthly2019-04-10 19:28
http://www.hotnewdeal.com/2019/04/10/288951_Bayonetta_PC_Digital_Download_399/20%Monthly2019-04-10 19:28
http://www.hotnewdeal.com/2019/04/10/288950_Closetmaid_Impressions_White_Laminate_Closet_Syste/20%Monthly2019-04-10 19:28
http://www.hotnewdeal.com/2019/04/10/288949_HP_Pavilion_590p0053w_Intel_i58400_8GB_RAM_1_/20%Monthly2019-04-10 19:13
http://www.hotnewdeal.com/2019/04/10/288948_Chamberlain_B970_Amazon_Like_New_SmartphoneCont/20%Monthly2019-04-10 18:52
http://www.hotnewdeal.com/2019/04/10/288947_55_LG_OLED55E8PUA_4K_UHD_HDR_AI_Smart_OLED_HDTV_/20%Monthly2019-04-10 18:38
http://www.hotnewdeal.com/2019/04/10/288946_10_Masterpieces_You_Have_to_Listen_to_Before_You_D/20%Monthly2019-04-10 18:15
http://www.hotnewdeal.com/2019/04/10/288945_HP_OMEN_X_35_Class_WQHD_Curved_Monitor_with_NVIDI/20%Monthly2019-04-10 18:15
http://www.hotnewdeal.com/2019/04/10/288944_HOT_TOTO_SW204401_C200_WASHLET_Electronic_Bidet_/20%Monthly2019-04-10 17:44
http://www.hotnewdeal.com/2019/04/10/288943_Polk_Audio_LSiM_sale_29999/20%Monthly2019-04-10 17:44
http://www.hotnewdeal.com/2019/04/10/288942_Reebok_Tax_Day_Offer__Save_40_off_100_purchase/20%Monthly2019-04-10 17:23
http://www.hotnewdeal.com/2019/04/10/288941_306P_MkII_Kit__Two_Powered_65_TwoWay_Studio_Mo/20%Monthly2019-04-10 16:59
http://www.hotnewdeal.com/2019/04/10/288939_HomeDepot__Keter_Brightwood_Deck_Box__120_gallon/20%Monthly2019-04-10 16:53
http://www.hotnewdeal.com/2019/04/10/288938_Targets_2Day_Home_Sale_30_Off_Patio_Furniture/20%Monthly2019-04-10 16:45
http://www.hotnewdeal.com/2019/04/10/288937_PSA_Utz_Quality_Foods__Bachman_Settlement__Clai/20%Monthly2019-04-10 16:38
http://www.hotnewdeal.com/2019/04/10/288936_Disney_Doc_McStuffins_ORIGINAL_Doctors_Bag_658_/20%Monthly2019-04-10 16:38
http://www.hotnewdeal.com/2019/04/10/288935_Monoprice_5w_Guitar_Tube_amp__8999__Shipping/20%Monthly2019-04-10 16:27
http://www.hotnewdeal.com/2019/04/10/288934_Runebound_Third_Edition_for_1883_for_Amazon_prim/20%Monthly2019-04-10 16:27
http://www.hotnewdeal.com/2019/04/10/288933_Fender_Special_Edition_Standard_Stratocaster_Elect/20%Monthly2019-04-10 16:21
http://www.hotnewdeal.com/2019/04/10/288932_SamAsh_Clearance_Deals_on_Lefty_2018_Gibson_Les_Pa/20%Monthly2019-04-10 16:14
http://www.hotnewdeal.com/2019/04/10/288931_AMC_Theatres_See_Pokemon_Detective_Pikachu__Get_/20%Monthly2019-04-10 16:14
http://www.hotnewdeal.com/2019/04/10/288930_Ninja_Professional_Touchscreen_Blender_59_tax/20%Monthly2019-04-10 16:01
http://www.hotnewdeal.com/2019/04/10/288929_2x_Seagate_4TB_Ironwolf_NAS_Hard_Drive_200_Neweg/20%Monthly2019-04-10 15:54
http://www.hotnewdeal.com/2019/04/10/288928_Hot_Wheels__Marvel_Avengers_vs_Thanos_Showdown_Pl/20%Monthly2019-04-10 15:28
http://www.hotnewdeal.com/2019/04/10/288927_The_Game_of_Things_New_Edition_1397_Funko_POP/20%Monthly2019-04-10 15:22
http://www.hotnewdeal.com/2019/04/10/288926_Target_Threshold_7Piece_Metal_Folding_Patio_Dini/20%Monthly2019-04-10 15:12
http://www.hotnewdeal.com/2019/04/10/288925_Reebok_MidSeason_Sale_Save_up_to_60_off_at_Ree/20%Monthly2019-04-10 15:12
http://www.hotnewdeal.com/2019/04/10/288924_SanDisk_256GB_Ultra_MicroSDXC_UHSI_Memory_Card_wi/20%Monthly2019-04-10 15:12
http://www.hotnewdeal.com/2019/04/10/288923_AUKEY_10Port_Powered_USB_Hub_7_USB_30_Data_Port/20%Monthly2019-04-10 14:59
http://www.hotnewdeal.com/2019/04/10/288922_Klipsch_Speakers_pair_R610F_Floors__Pair_R/20%Monthly2019-04-10 14:36
http://www.hotnewdeal.com/2019/04/10/288921_2_TPLink_HS103P2_Kasa_Smart_WiFi_Plug_Lites__Am/20%Monthly2019-04-10 14:24
http://www.hotnewdeal.com/2019/04/10/288920_Nintendo_eShop_Digital_Download_20XX_for_1079/20%Monthly2019-04-10 14:24
http://www.hotnewdeal.com/2019/04/10/288919_Sony_75_inch_850F_1299__Frys_free_Local_Deliver/20%Monthly2019-04-10 14:16
http://www.hotnewdeal.com/2019/04/10/288918_Unlimited_Usenet_350_1TB_15__Thundernews_Stor/20%Monthly2019-04-10 14:13
http://www.hotnewdeal.com/2019/04/10/288917_TruFuel_501_premixed_gas_and_oil_32oz_403/20%Monthly2019-04-10 14:00
http://www.hotnewdeal.com/2019/04/10/288916_AMC_Stubs_Bonus_Points_for_Hellboy_Register_ASA/20%Monthly2019-04-10 13:44
http://www.hotnewdeal.com/2019/04/10/288915_Greenworks_13Inch_40V_Cordless_String_trimmer_Ba/20%Monthly2019-04-10 13:44
http://www.hotnewdeal.com/2019/04/10/288914_12MP_1080P_HD_ECOOPRO_Trail_Camera_385/20%Monthly2019-04-10 13:43
http://www.hotnewdeal.com/2019/04/10/288912_Wrinkle__Fade_Resistant_4_Piece_3000TC_Soft_Micro/20%Monthly2019-04-10 13:37
http://www.hotnewdeal.com/2019/04/10/288911_Nike_SBCourthouse_Backpack_2750_adidas_Santiago/20%Monthly2019-04-10 13:28
http://www.hotnewdeal.com/2019/04/10/288909_Amazon_Prime_Get_4_Power_Strips_for_398_each_E/20%Monthly2019-04-10 13:12
http://www.hotnewdeal.com/2019/04/10/288908_Crucial_Technology_1TB_P1_3D_NAND_NVMe_PCIe_M2_SS/20%Monthly2019-04-10 13:12
http://www.hotnewdeal.com/2019/04/10/288907_Google_Pixel_XL_G2PW2100_128GB_Fully_UnlockedN/20%Monthly2019-04-10 13:12
http://www.hotnewdeal.com/2019/04/10/288906_Wayfairs_allout_Way_Day_sale__up_to_80_off_/20%Monthly2019-04-10 13:00
http://www.hotnewdeal.com/2019/04/10/288905_QSEE_Wireless_1080p_WiFi_Mini_Eco_Cube_Surveilla/20%Monthly2019-04-10 13:00
http://www.hotnewdeal.com/2019/04/10/288904_Disney_Movie_Rewards_101_Dalmatians_Bluray_DVD/20%Monthly2019-04-10 12:51
http://www.hotnewdeal.com/2019/04/10/288903_Tissot_PR_100_Automatic_Mens_Watch_279__free_s/20%Monthly2019-04-10 12:44
http://www.hotnewdeal.com/2019/04/10/288902_Ring__Alarm_Home_Security_Kit__White_5_piece__f/20%Monthly2019-04-10 12:37
http://www.hotnewdeal.com/2019/04/10/288901_Defiant_48LED_180Degree_Motion_Activated_Solar_Li/20%Monthly2019-04-10 12:28
http://www.hotnewdeal.com/2019/04/10/288900_Logitech_G433_71_Gaming_Headset__Red_4999/20%Monthly2019-04-10 12:21
http://www.hotnewdeal.com/2019/04/10/288899_Keurig__K_Classic_K50_Single_Serve_KCup_Pod_Cof/20%Monthly2019-04-10 12:14
http://www.hotnewdeal.com/2019/04/10/288898_Massdrop_x_Meze_99_Noir_ClosedBack_Headphones__/20%Monthly2019-04-10 12:06
http://www.hotnewdeal.com/2019/04/10/288897_Zotac_RTX_2080_TI_AMP_EXTREME_CORE_1080_AC/20%Monthly2019-04-10 12:02
http://www.hotnewdeal.com/2019/04/10/288896_Greenworks_40V_300W_Cordless_Power_Inverter_IV40A0/20%Monthly2019-04-10 12:02
http://www.hotnewdeal.com/2019/04/10/288895_Market_Pantry_Original_Milk_Chocolate_Shake_16ct/20%Monthly2019-04-10 12:01
http://www.hotnewdeal.com/2019/04/10/288894_HP_EX920_1TB_PCIe_30_x4_NVMe_3D_TLC_NAND_Internal/20%Monthly2019-04-10 12:01
http://www.hotnewdeal.com/2019/04/10/288893_Microfiber_Tub_Accent_Chair_berry_red_for_65__/20%Monthly2019-04-10 12:01
http://www.hotnewdeal.com/2019/04/10/288892_Soulcalibur_VI_PCDD_1999_IndieGala_20/20%Monthly2019-04-10 11:54
http://www.hotnewdeal.com/2019/04/10/288891_Apple_iPad_Pro_2017_105_64GB_WiFi_Tablet_App/20%Monthly2019-04-10 11:29
http://www.hotnewdeal.com/2019/04/10/288890_5200mA_Rechargeable_Battery_Powered_Personal_Desk_/20%Monthly2019-04-10 11:29
http://www.hotnewdeal.com/2019/04/10/288889_69Piece_Black_Chrome_and_Laser_Etched_Socket_Set_/20%Monthly2019-04-10 11:29
http://www.hotnewdeal.com/2019/04/10/288888_Sun_Joe_SWJ807E_Electric_Convertible_Pole_Chain_Sa/20%Monthly2019-04-10 11:13
http://www.hotnewdeal.com/2019/04/10/288887_12999_Graco_Milestone_3in1_Convertible_Car_Sea/20%Monthly2019-04-10 11:13
http://www.hotnewdeal.com/2019/04/10/288886_32GB_Kingston_Class_10_UHSI_U1_microSDHC_Memory_C/20%Monthly2019-04-10 11:01
http://www.hotnewdeal.com/2019/04/10/288885_4_Piece_American_Tourister_Fieldbrook_XLT_Luggage_/20%Monthly2019-04-10 10:55
http://www.hotnewdeal.com/2019/04/10/288884_Quest_Hero_Protein_Bar_4ctVanilla_Caramel_for_/20%Monthly2019-04-10 10:52
http://www.hotnewdeal.com/2019/04/10/288883_CamelBak_Podium_Chill_21Ounce_Insulated_Water_Bot/20%Monthly2019-04-10 10:36
http://www.hotnewdeal.com/2019/04/10/288882_Frys_75NU8000_1249/20%Monthly2019-04-10 10:22
http://www.hotnewdeal.com/2019/04/10/288881_65L_Emerald_Digital_Air_Fryer_Black_4999__Fr/20%Monthly2019-04-10 10:22
http://www.hotnewdeal.com/2019/04/10/288880_NETGEAR_Orbi_Whole_Home_WiFi_System__router_and_2/20%Monthly2019-04-10 10:22
http://www.hotnewdeal.com/2019/04/10/288879_Nintendo_Switch__Super_Smash_Bros_Ultimate_for_4/20%Monthly2019-04-10 09:59
http://www.hotnewdeal.com/2019/04/10/288878_YI_27_Screen_Full_HD_1080P60_165_Wide_Angle_Dash/20%Monthly2019-04-10 09:37
http://www.hotnewdeal.com/2019/04/10/288877_Greenworks_40V_20Ah_Lithium_Ion_Battery_4699__/20%Monthly2019-04-10 09:30
http://www.hotnewdeal.com/2019/04/10/288876_Apple_Watch_Series_3_GPS_42mm__Space_Gray_Alum/20%Monthly2019-04-10 09:13
http://www.hotnewdeal.com/2019/04/10/288875_Makita_BL1850B2_18_Volt_LXT_LithiumIon_50Ah_Bat/20%Monthly2019-04-10 08:57
http://www.hotnewdeal.com/2019/04/10/288874_Thermos_Element_5_Vacuum_Insulated_32_oz_Beverage_/20%Monthly2019-04-10 08:52
http://www.hotnewdeal.com/2019/04/10/288873_40Count_YumEarth_Organic_Lollipops_Assorted_Flav/20%Monthly2019-04-10 08:30
http://www.hotnewdeal.com/2019/04/10/288872_Frozen_Planet_Complete_Series_Collection_3Disc_/20%Monthly2019-04-10 08:15
http://www.hotnewdeal.com/2019/04/10/288871_ASRock_Phantom_Gaming_X_Radeon_RX_580_Video_Graphi/20%Monthly2019-04-10 08:15
http://www.hotnewdeal.com/2019/04/10/288870_Logitech__Harmony_650_8Device_Universal_Remote_/20%Monthly2019-04-10 08:15
http://www.hotnewdeal.com/2019/04/10/288869_12Pack_V8_Healthy_Greens_Juice_12oz_Bottle_98/20%Monthly2019-04-10 08:15
http://www.hotnewdeal.com/2019/04/10/288868_PCDD_Next_Up_Hero_The_Flame_in_the_Flood_War_Te/20%Monthly2019-04-10 08:01
http://www.hotnewdeal.com/2019/04/10/288866_Mega_Moto_212cc_Mega_Max_Mini_Bike_50_off_Walmar/20%Monthly2019-04-10 07:13
http://www.hotnewdeal.com/2019/04/10/288865_Modvel_Athletic_Knee_Brace_Support_5/20%Monthly2019-04-10 07:13
http://www.hotnewdeal.com/2019/04/10/288864_4_Piece_Hotel_Luxury_Bed_Sheets_Extra_Soft_Wrink/20%Monthly2019-04-10 07:13
http://www.hotnewdeal.com/2019/04/10/288863_43_43UD79B_LG_4K_IPS_LED_Monitor__1YR_Extended/20%Monthly2019-04-10 05:07
http://www.hotnewdeal.com/2019/04/10/288862_Fallout_4_VR_Steam_1199/20%Monthly2019-04-10 04:12
http://www.hotnewdeal.com/2019/04/10/288860_Uber_Gift_Cards_100_for_90_50_for_45_25_fo/20%Monthly2019-04-10 03:29
http://www.hotnewdeal.com/2019/04/10/288859_MSI_RX_580_Gaming_X_8GB_RX580_16499/20%Monthly2019-04-10 03:00
http://www.hotnewdeal.com/2019/04/10/288858_Dewalt_DCF890B_38_20v_Max_XR_impact_wrench_105/20%Monthly2019-04-10 02:11
http://www.hotnewdeal.com/2019/04/10/288857_ECCO_Mens_Melbourne_Bike_Tie_70_Womens_Shape_6/20%Monthly2019-04-10 01:43
http://www.hotnewdeal.com/2019/04/10/288856_Simple_Mobile_Apple_iPhone_SE_32GB__30Day_40_Pr/20%Monthly2019-04-10 01:11
http://www.hotnewdeal.com/2019/04/10/288855_Walmart__6_piece_Mainstay_mens_towel_set_799__/20%Monthly2019-04-10 01:11
http://www.hotnewdeal.com/2019/04/10/288854_Corsair_K70_RGB_MK2_Low_Profile_Mechanical_Gaming/20%Monthly2019-04-10 01:11
http://www.hotnewdeal.com/2019/04/10/288853_2x_Ring_Stickup_Camera__2_free_Echo_Dot_3rd_Gen/20%Monthly2019-04-10 01:06
http://www.hotnewdeal.com/2019/04/09/288852_Assassins_Creed_Odyssey__PS4Xbox__1999_Games/20%Monthly2019-04-09 23:28
http://www.hotnewdeal.com/2019/04/09/288851_iZotope_RX_Elements_Audio_Restoration_and_Enhancem/20%Monthly2019-04-09 23:22
http://www.hotnewdeal.com/2019/04/09/288850_15oz_Medline_MSC095010H_MedSpa_RollOn_Antiperspi/20%Monthly2019-04-09 23:13
http://www.hotnewdeal.com/2019/04/09/288849_6Pack_Cuisinart_Walnut_Triple_Rivet_Steak_Knife_a/20%Monthly2019-04-09 23:13
http://www.hotnewdeal.com/2019/04/09/288848_Risk_of_Rain_2__Early_Access_PC_Digital_Download/20%Monthly2019-04-09 23:13
http://www.hotnewdeal.com/2019/04/09/288846_Columbia_Womens_Ice_Maiden_II_Waterproof_Boot_40/20%Monthly2019-04-09 22:52
http://www.hotnewdeal.com/2019/04/09/288845_CREE_XML_T6_LED_Tactical_Flashlight_with_USB_Charg/20%Monthly2019-04-09 22:24
http://www.hotnewdeal.com/2019/04/09/288844_Sealy_Response_Kenney_Queen_mattress_and_FREE_Box_/20%Monthly2019-04-09 22:00
http://www.hotnewdeal.com/2019/04/09/288843_Fender_FA235E_Concert_Acoustic_Electric_Guitar_1/20%Monthly2019-04-09 22:00
http://www.hotnewdeal.com/2019/04/09/288842_Moto_G7_Power_170_shipped_AC/20%Monthly2019-04-09 21:30
http://www.hotnewdeal.com/2019/04/09/288841_ViewTV_AT163_ATSC_Digital_TV_Converter_Box_and_Me/20%Monthly2019-04-09 21:30
http://www.hotnewdeal.com/2019/04/09/288838_Moose_Toys__Pikmi_Pops_Season_3_Surprise_Pack_by_/20%Monthly2019-04-09 21:06
http://www.hotnewdeal.com/2019/04/09/288837_65_Samsung_QN65Q9FN_4K_QLED_Smart_TV_1829__free/20%Monthly2019-04-09 20:42
http://www.hotnewdeal.com/2019/04/09/288836_Refurbished_Jabra_Talk_25_Gray_Black_Bluetooth_Mon/20%Monthly2019-04-09 20:30
http://www.hotnewdeal.com/2019/04/09/288835_CORSAIR_LL_Series_LL120_RGB_120mm_RGB_LED_Fan_T/20%Monthly2019-04-09 20:20
http://www.hotnewdeal.com/2019/04/09/288834_Brainwavz_Hybrid_Memory_Foam_Earpad__Black_PUVel/20%Monthly2019-04-09 20:14
http://www.hotnewdeal.com/2019/04/09/288833_Arlo_Pro_2_WiFi_HD_WireFree_5pack_Camera_Securit/20%Monthly2019-04-09 20:14
http://www.hotnewdeal.com/2019/04/09/288832_Dell_G5_15_Laptop_Intel_Core_i58300H_156_1080/20%Monthly2019-04-09 20:02
http://www.hotnewdeal.com/2019/04/09/288831_Swych_App_115_Macys_Gift_Card_Digital_Delivery/20%Monthly2019-04-09 20:02
http://www.hotnewdeal.com/2019/04/09/288830_Century_21_Teacup__Saucer_Set_699_French_Pres/20%Monthly2019-04-09 19:56
http://www.hotnewdeal.com/2019/04/09/288829_LG_21_Channel_Hi_Res_Audio_Sound_Bar_with_Dolby_A/20%Monthly2019-04-09 19:29
http://www.hotnewdeal.com/2019/04/09/288828_4Piece_IMAX_Watercolor_Butterflies_Framed_Oil_P/20%Monthly2019-04-09 19:07
http://www.hotnewdeal.com/2019/04/09/288827_Vitamix_Standard_Certified_Reconditioned_Blender_/20%Monthly2019-04-09 19:07
http://www.hotnewdeal.com/2019/04/09/288826_Sun_Joe_SWJ803E_Electric_MultiAngle_Pole_Chain_Sa/20%Monthly2019-04-09 18:35
http://www.hotnewdeal.com/2019/04/09/288825_4Pack_of_80Count_Lysol_Disinfecting_Wipes_Lemon/20%Monthly2019-04-09 18:29
http://www.hotnewdeal.com/2019/04/09/288824_Anker_USB_C_Hub_5in1_USB_C_Adapter_with_4K_USB_/20%Monthly2019-04-09 18:29
http://www.hotnewdeal.com/2019/04/09/288823_Starbucks_Veranda_Blend_Light_Blonde_Roast_Ground_/20%Monthly2019-04-09 18:03
http://www.hotnewdeal.com/2019/04/09/288822_1st_Gen_New_Kindle_Oasis_6_Ereader_with_Leather_/20%Monthly2019-04-09 17:45
http://www.hotnewdeal.com/2019/04/09/288821_Lowes_Lighting_and_Ceiling_Fan_Sale_From_15_Sa/20%Monthly2019-04-09 17:29
http://www.hotnewdeal.com/2019/04/09/288820_Amazon_Seagate_8TB_SATA_6Gbs_256MB_Cache_5400_rp/20%Monthly2019-04-09 17:02
http://www.hotnewdeal.com/2019/04/09/288819_NETGEAR_CM5001AZNAS_16x4_DOCSIS_30_Cable_Modem/20%Monthly2019-04-09 17:02
http://www.hotnewdeal.com/2019/04/09/288818_MSI_219_Ultrawide_34_3440_x_1440_100Hz_FreeSync_/20%Monthly2019-04-09 17:02
http://www.hotnewdeal.com/2019/04/09/288817_99_at_BRICK_STORE_RYOBI_24_in_40Volt_LithiumI/20%Monthly2019-04-09 16:46
http://www.hotnewdeal.com/2019/04/09/288816_Eurocopter_AS350BA_650/20%Monthly2019-04-09 16:46
http://www.hotnewdeal.com/2019/04/09/288815_Refurbished_Apple_Watch_Series_4_GPS__40mm__Spor/20%Monthly2019-04-09 16:32
http://www.hotnewdeal.com/2019/04/09/288814_2Pack_Lifetime_8ft_Lotus_Blue_Kayak__Home_Depo/20%Monthly2019-04-09 16:32
http://www.hotnewdeal.com/2019/04/09/288813_Dragon_Ball_Super_seasons_17_for_699_per_season/20%Monthly2019-04-09 16:32
http://www.hotnewdeal.com/2019/04/09/288812_Adguard_Premium_Lifetime_Subscription_for_2_Andro/20%Monthly2019-04-09 16:18
http://www.hotnewdeal.com/2019/04/09/288811_refurb_Fuji_FinePix_XP130_Rugged_Waterproof_Digi/20%Monthly2019-04-09 15:46
http://www.hotnewdeal.com/2019/04/09/288810_2Pack_TPLink_LB200_WiFi_Smart_LED_Bulb_25__fr/20%Monthly2019-04-09 15:39
http://www.hotnewdeal.com/2019/04/09/288809_BH_or_Samsungcom_Samsung_HMD_Odyssey_Windows_/20%Monthly2019-04-09 15:12
http://www.hotnewdeal.com/2019/04/09/288808_Kingdom_Hearts_III_for_PS4Xbox__Walmart__3799/20%Monthly2019-04-09 15:12
http://www.hotnewdeal.com/2019/04/09/288807_Olympia_15_oz_Clear_SmartGuard_MultiSurface_Seal/20%Monthly2019-04-09 15:11
http://www.hotnewdeal.com/2019/04/09/288806_DJI_Mavic_Air_Aerial_Camera_Bundle__Costco_6499/20%Monthly2019-04-09 15:06
http://www.hotnewdeal.com/2019/04/09/288805_Craftsman_265_6_drawer_Steel_Rolling_Tool_Cabine/20%Monthly2019-04-09 15:06
http://www.hotnewdeal.com/2019/04/09/288804_1TB_HP_EX950_M2_NVMe_SSD_160_NF/20%Monthly2019-04-09 14:50
http://www.hotnewdeal.com/2019/04/09/288803_Serestro_Collar_at_Costco_4599/20%Monthly2019-04-09 14:41
http://www.hotnewdeal.com/2019/04/09/288802_Borderlands_The_Handsome_Collection_PC_Digital_C/20%Monthly2019-04-09 14:35
http://www.hotnewdeal.com/2019/04/09/288801_2Pack_Swiffer_Wetjet_Hardwood_Floor_Mopping_and_C/20%Monthly2019-04-09 14:09
http://www.hotnewdeal.com/2019/04/09/288800_Pizza_Hut_Large_2Topping_pizza_for_599_until_4/20%Monthly2019-04-09 13:59
http://www.hotnewdeal.com/2019/04/09/288799_12Month_EA_Access_Subscription_Xbox_One_Digital_/20%Monthly2019-04-09 13:59
http://www.hotnewdeal.com/2019/04/09/288798_Apple_Watch_Series_4_GPS_44mm_Refurbished_330_/20%Monthly2019-04-09 13:58
http://www.hotnewdeal.com/2019/04/09/288797_Mens_Stormtech_Performance_Jackets_up_to_90_Off_/20%Monthly2019-04-09 13:58
http://www.hotnewdeal.com/2019/04/09/288796_36Pack_BIC_Velocity_Bold_Retractable_Ballpoint_Pe/20%Monthly2019-04-09 13:41
http://www.hotnewdeal.com/2019/04/09/288795_2Count_NANFU_AA_Lithium_Rechargeable_Batteries_wi/20%Monthly2019-04-09 13:41
http://www.hotnewdeal.com/2019/04/09/288794_Sandisk_USB_Flash_drive_31_Ultra_Fit_9_for_32gb/20%Monthly2019-04-09 13:41
http://www.hotnewdeal.com/2019/04/09/288793_MXL_V250_Condenser_Microphone_at_Musicians_Friend/20%Monthly2019-04-09 13:41
http://www.hotnewdeal.com/2019/04/09/288792_No_spill_125_Gallon_Gas_Can_1746/20%Monthly2019-04-09 13:41
http://www.hotnewdeal.com/2019/04/09/288791_Papa_Johns_BOGO_M_or_L_Pizza_YMMV_Expires_4919/20%Monthly2019-04-09 13:35
http://www.hotnewdeal.com/2019/04/09/288789_CF10285_Cabin_Air_Filter_for_Toyota_Lexus_Subaru_a/20%Monthly2019-04-09 13:26
http://www.hotnewdeal.com/2019/04/09/288788_Fanatical_Assassins_Creed_Origin_Season_Pass__/20%Monthly2019-04-09 13:26
http://www.hotnewdeal.com/2019/04/09/288787_LEGO_Friends_Mias_Tree_House_41335_1799/20%Monthly2019-04-09 13:25
http://www.hotnewdeal.com/2019/04/09/288786_Rechargeable_Hand_Held_Deep_Tissue_Massager_White_/20%Monthly2019-04-09 13:09
http://www.hotnewdeal.com/2019/04/09/288785_TMobile_LG_G7_ThinQ_Platinum_Grey_400/20%Monthly2019-04-09 12:56
http://www.hotnewdeal.com/2019/04/09/288784_Samsung_Gear_VR_Headset_2016_EDITION_SMR323_1/20%Monthly2019-04-09 12:48
http://www.hotnewdeal.com/2019/04/09/288783_256GB_Patriot_EP_Series_V30_A1_microSDXC_U3_Memory/20%Monthly2019-04-09 12:36
http://www.hotnewdeal.com/2019/04/09/288782_Manfrotto_Nitrotech_N12__545B_DualLeg_Tripod_Sys/20%Monthly2019-04-09 12:27
http://www.hotnewdeal.com/2019/04/09/288781_Nintendo_Switch_Bundle_with_Your_Game_of_Choice__/20%Monthly2019-04-09 12:17
http://www.hotnewdeal.com/2019/04/09/288780_8_lbs_Martha_Stewart_Living_All_Purpose_Plant_Foo/20%Monthly2019-04-09 12:06
http://www.hotnewdeal.com/2019/04/09/288779_Nest_Hello_Smart_WiFi_HD_Video_Doorbell_with_Night/20%Monthly2019-04-09 12:06
http://www.hotnewdeal.com/2019/04/09/288778_Refurb_Belkin_35mm_Audio__Charge_Rockstar_for_/20%Monthly2019-04-09 11:56
http://www.hotnewdeal.com/2019/04/09/288777_ASUS_ROG_Strix_Radeon_RX_580_O8G_Gaming_OC_17999/20%Monthly2019-04-09 11:42
http://www.hotnewdeal.com/2019/04/09/288776_Tascam_DR05_Portable_Handheld_Digital_Audio_Recor/20%Monthly2019-04-09 11:42
http://www.hotnewdeal.com/2019/04/09/288775_Suncast_18_Pusher_Snow_Shovel_250_Walmart_YMMV/20%Monthly2019-04-09 11:42
http://www.hotnewdeal.com/2019/04/09/288774_RevAShelf_35Quart_Plastic_Soft_Close_Pull_Out_/20%Monthly2019-04-09 11:27
http://www.hotnewdeal.com/2019/04/09/288773_Deco_Gear_Camera_Bag_for_Mirrorless_Cameras__Soft/20%Monthly2019-04-09 11:21
http://www.hotnewdeal.com/2019/04/09/288772_Simmons_SD550_Electronic_Drum_Set_w_Mesh_Pads_at_/20%Monthly2019-04-09 11:11
http://www.hotnewdeal.com/2019/04/09/288771_OneYear_BJs_Inner_Circle_Membership__20__Grou/20%Monthly2019-04-09 10:58
http://www.hotnewdeal.com/2019/04/09/288770_Lindt_LINDOR_Milk_Chocolate_Truffles_254_oz_60_/20%Monthly2019-04-09 10:35
http://www.hotnewdeal.com/2019/04/09/288769_AMD_RYZEN_5_1600_6Core_CPU_wWraith_Spire_115_AC/20%Monthly2019-04-09 10:35
http://www.hotnewdeal.com/2019/04/09/288768_LENOVO_L24Q_238INCH_QHD_MONITOR_238_2560x1440_/20%Monthly2019-04-09 10:35
http://www.hotnewdeal.com/2019/04/09/288767_Select_Sakrete_Quikrete_Concrete_Mixes_at_Home_De/20%Monthly2019-04-09 10:29
http://www.hotnewdeal.com/2019/04/09/288766_efluky_Mini_USB_Portable_Fan_2600mAh_Power_Bank_6/20%Monthly2019-04-09 10:22
http://www.hotnewdeal.com/2019/04/09/288765_Converse_Chuck_Taylor_All_Star_Limo_Leather_Shoes_/20%Monthly2019-04-09 10:22
http://www.hotnewdeal.com/2019/04/09/288764_16GB_2x8GB_Corsair_Vengeance_RGB_Pro_DDR4_3000_/20%Monthly2019-04-09 10:22
http://www.hotnewdeal.com/2019/04/09/288763_Aquaman_4K_DV_HDR_Digital_iTunes_Moviesanywhere_1/20%Monthly2019-04-09 09:28
http://www.hotnewdeal.com/2019/04/09/288762_VUDU_Mix__Match_Comics__SciFi_Digital_HDX_Mov/20%Monthly2019-04-09 09:11
http://www.hotnewdeal.com/2019/04/09/288761_Jabra_Elite_65T_Active_True_Wireless_Headphones_1/20%Monthly2019-04-09 09:11
http://www.hotnewdeal.com/2019/04/09/288760_LYCAON_Cycling_Gloves_GelPadded_NonSlip_Breat/20%Monthly2019-04-09 09:11
http://www.hotnewdeal.com/2019/04/09/288759_Little_House_on_the_Prairie_The_Complete_Series_D/20%Monthly2019-04-09 08:59
http://www.hotnewdeal.com/2019/04/09/288758_Home_Depot_Special_Buys__Ceiling_fans_starting_at/20%Monthly2019-04-09 08:27
http://www.hotnewdeal.com/2019/04/09/288757_Directv_HBO__Cinemax_7_day_FREE_preview_4819_to/20%Monthly2019-04-09 08:27
http://www.hotnewdeal.com/2019/04/09/288756_1749FS_Office_Chair_Caster_Wheels_Set_of_5/20%Monthly2019-04-09 07:43
http://www.hotnewdeal.com/2019/04/09/288755_Larabar_Apple_Pie_Bars_10ct__16oz_200__shippi/20%Monthly2019-04-09 07:42
http://www.hotnewdeal.com/2019/04/09/288754_Melissa__Doug_Kids_Toys_26Magnetic_Piece_Joey_D/20%Monthly2019-04-09 07:12
http://www.hotnewdeal.com/2019/04/09/288753_Tilt_TV_Wall_Mount_Bracket_for_3265__1699_AC/20%Monthly2019-04-09 07:01
http://www.hotnewdeal.com/2019/04/09/288752_Microsoft_Laptop_Surface_Laptop_JKM00001_Intel_Co/20%Monthly2019-04-09 04:31
http://www.hotnewdeal.com/2019/04/09/288751_Aropey_Ultra_Sharp_Premium_Heavy_Duty_Shears_amaz/20%Monthly2019-04-09 04:12
http://www.hotnewdeal.com/2019/04/09/288750_Spartacus_Digital_HD_TV_Show_War_of_the_Damned_/20%Monthly2019-04-09 04:00
http://www.hotnewdeal.com/2019/04/09/288749_The_Container_Store_Mens_Translucent_DropFront_S/20%Monthly2019-04-09 03:12
http://www.hotnewdeal.com/2019/04/09/288748_991_FS_wPrime_OPOLAR_Portable_Travel_Mini_Fan/20%Monthly2019-04-09 02:00
http://www.hotnewdeal.com/2019/04/09/288747_Bluetooth_Headphones_BassPal_TonePro_U14_Wireless/20%Monthly2019-04-09 01:44
http://www.hotnewdeal.com/2019/04/09/288746_LaView_8_Channel_5MP_DVR_Color_Night_Vision_Securi/20%Monthly2019-04-09 01:34
http://www.hotnewdeal.com/2019/04/09/288745_Great_Northern_AllInOne_Popcorn_PrePortioned_Pa/20%Monthly2019-04-09 01:14
http://www.hotnewdeal.com/2019/04/09/288744_Costco_Members_only_adidas_Mens_True_Chill_Shoe_/20%Monthly2019-04-09 01:14
http://www.hotnewdeal.com/2019/04/09/288743_Xbox_One_Digital_Downloads_Owlboy_1499_20XX_1/20%Monthly2019-04-09 00:20
http://www.hotnewdeal.com/2019/04/09/288742_Rawlings_Cincinnati_Bengals_Elite_Folding_Lawn_Cha/20%Monthly2019-04-09 00:19
http://www.hotnewdeal.com/2019/04/09/288741_Farberware_Edgekeeper_Forged_TripleRiveted_Knife_/20%Monthly2019-04-09 00:01
http://www.hotnewdeal.com/2019/04/08/288740_Bath__Body_Works_hand_Soap_615_or_512__shipp/20%Monthly2019-04-08 23:45
http://www.hotnewdeal.com/2019/04/08/288739_Refurbished_Red_Dead_Redemption_2_PS4_for_2372/20%Monthly2019-04-08 23:45
http://www.hotnewdeal.com/2019/04/08/288738_Coway_AP1512HH_Mighty_Air_Purifier_with_True_HEPA/20%Monthly2019-04-08 23:29
http://www.hotnewdeal.com/2019/04/08/288737_LaCie_Rugged_RAID_Thunderbolt__USB_30_Mobile_Har/20%Monthly2019-04-08 23:13
http://www.hotnewdeal.com/2019/04/08/288736_2Pack_of_55oz_Coppertone_Sport_Sunscreen_Spray_/20%Monthly2019-04-08 23:12
http://www.hotnewdeal.com/2019/04/08/288735_Sony_XBR65A9F_65_MASTER_Series_BRAVIA_OLED_4K_HD/20%Monthly2019-04-08 23:01
http://www.hotnewdeal.com/2019/04/08/288734_LG_OLED_E8_55_OLED55E8PUA__Newegg_via_eBay__1/20%Monthly2019-04-08 23:01
http://www.hotnewdeal.com/2019/04/08/288733_Monoprice_MP_35_ZeroG_Curved_Ultrawide_UWQHD_Gam/20%Monthly2019-04-08 23:01
http://www.hotnewdeal.com/2019/04/08/288732_Corsair_Gaming_MM300_AntiFray_Cloth_Gaming_Mouse_/20%Monthly2019-04-08 22:55
http://www.hotnewdeal.com/2019/04/08/288731_Samsung_Gear_S3_Frontier_Smartwatch_17999_Costco/20%Monthly2019-04-08 22:30
http://www.hotnewdeal.com/2019/04/08/288730_Samsung_QN82Q6FN_82_Class_HDR_UHD_Smart_QLED_TV_/20%Monthly2019-04-08 22:23
http://www.hotnewdeal.com/2019/04/08/288729_PlayStation_plus_12_month_membership_4299_with_d/20%Monthly2019-04-08 22:23
http://www.hotnewdeal.com/2019/04/08/288728_Gyft_GC_10_off_100_Whole_Foods_GC_Purchase/20%Monthly2019-04-08 22:23
http://www.hotnewdeal.com/2019/04/08/288727_Greenworks_1700PSI_12GPM_Cold_Water_Electric_Pr/20%Monthly2019-04-08 22:22
http://www.hotnewdeal.com/2019/04/08/288726_Pendaflex_Letter_Size_File_Folders_at_Staples_Ass/20%Monthly2019-04-08 22:00
http://www.hotnewdeal.com/2019/04/08/288725_Malwarebytes_AntiMalware_30__3_PCs__1_Year_Ke/20%Monthly2019-04-08 22:00
http://www.hotnewdeal.com/2019/04/08/288724_Apple_iPad_Air__Space_Gray_Early_2019__449/20%Monthly2019-04-08 22:00
http://www.hotnewdeal.com/2019/04/08/288723_Sony_PlayStation_Classic_Console_20_PreInstalled/20%Monthly2019-04-08 21:43
http://www.hotnewdeal.com/2019/04/08/288722_Denon_AVRx2400H_at_World_Wide_Stereo_for_296/20%Monthly2019-04-08 21:43
http://www.hotnewdeal.com/2019/04/08/288721_Apple_iPad__Latest_Model__32GB_with_WIFI_2516/20%Monthly2019-04-08 21:43
http://www.hotnewdeal.com/2019/04/08/288720_24Pack_V8_Vegetable_Juice_115oz_Can_for_856/20%Monthly2019-04-08 21:13
http://www.hotnewdeal.com/2019/04/08/288719_Lenovo_Legion_Y7000_Gaming_Laptop__i7_8750H_6GB_G/20%Monthly2019-04-08 21:00
http://www.hotnewdeal.com/2019/04/08/288717_Costco_Members_43_Hisense_43R7050E1_4K_UHD_HDR_R/20%Monthly2019-04-08 20:53
http://www.hotnewdeal.com/2019/04/08/288716_Pirime_Pantry_Up_to_30_Off_Frito_Lay/20%Monthly2019-04-08 20:36
http://www.hotnewdeal.com/2019/04/08/288715_Dell_Inspiron_14_5000_2in1_Laptop_14_Touch_Scr/20%Monthly2019-04-08 20:22
http://www.hotnewdeal.com/2019/04/08/288714_Zotac_GeForce_GTX_1080_Refurbished_31999/20%Monthly2019-04-08 20:11
http://www.hotnewdeal.com/2019/04/08/288713_Haltar_all_Monitor_Stands_40_Off_Amazon/20%Monthly2019-04-08 20:11
http://www.hotnewdeal.com/2019/04/08/288712_Tracfone_Motorola_G6_57_Smartphone_w_Case__150/20%Monthly2019-04-08 20:11
http://www.hotnewdeal.com/2019/04/08/288711_Free_shippping_Kmart__Luvs__Diaper_and_Tide_and_/20%Monthly2019-04-08 20:11
http://www.hotnewdeal.com/2019/04/08/288710_1TB_Microsoft_Xbox_One_X_Fallout_76_Console__Tita/20%Monthly2019-04-08 20:11
http://www.hotnewdeal.com/2019/04/08/288709_Vornado_279_Large_Panel_Air_Circulator_Fan_2999_/20%Monthly2019-04-08 19:58
http://www.hotnewdeal.com/2019/04/08/288708_Crabtree__Evelyn_Buy_4_Clearance_Items_Get_2_Fre/20%Monthly2019-04-08 19:58
http://www.hotnewdeal.com/2019/04/08/288707_Aerobie_Pro_Ring_Disc_676/20%Monthly2019-04-08 19:48
http://www.hotnewdeal.com/2019/04/08/288706_Kroger_4x_times_fuel_points_with_select_gift_cards/20%Monthly2019-04-08 19:31
http://www.hotnewdeal.com/2019/04/08/288705_Sony_Noise_Cancelling_Wireless_Bluetooth_Over_the_/20%Monthly2019-04-08 19:15
http://www.hotnewdeal.com/2019/04/08/288704_Extension_Cords_2ft_3Outlet_123_Power_by_Go_Gr/20%Monthly2019-04-08 19:15
http://www.hotnewdeal.com/2019/04/08/288703_JBL_Link_10_Bluetooth_Portable_Speaker_w_Google_A/20%Monthly2019-04-08 18:59
http://www.hotnewdeal.com/2019/04/08/288702_Kroger_New_Customers_24oz_Bobs_Red_Mill_Organic_/20%Monthly2019-04-08 18:59
http://www.hotnewdeal.com/2019/04/08/288701_Breedlove_USA_Concert_Sun_Light_E_Sitka_Spruce__M/20%Monthly2019-04-08 18:58
http://www.hotnewdeal.com/2019/04/08/288700_JBL_Studio_270_Floorstanding_Speaker_NEW__1299/20%Monthly2019-04-08 18:39
http://www.hotnewdeal.com/2019/04/08/288699_Refurbished_Straight_Talk_Samsung_Galaxy_S7_4G_LTE/20%Monthly2019-04-08 18:05
http://www.hotnewdeal.com/2019/04/08/288698_Uniden_Radar_Laser_Detector_R3_288/20%Monthly2019-04-08 18:05
http://www.hotnewdeal.com/2019/04/08/288697_Apply_for_a_new_Target_REDcard_and_get_onetime_us/20%Monthly2019-04-08 18:05
http://www.hotnewdeal.com/2019/04/08/288696_Wireless_Gamecube_Controller_for_Switch_3998/20%Monthly2019-04-08 18:04
http://www.hotnewdeal.com/2019/04/08/288695_NAPA_FULL_SYNTHETIC_5_Qt_jug__Instore_only_169/20%Monthly2019-04-08 17:45
http://www.hotnewdeal.com/2019/04/08/288694_38oz_KitchenAid_Brushed_Stainless_Steel_Cold_Brew_/20%Monthly2019-04-08 17:45
http://www.hotnewdeal.com/2019/04/08/288693_Vizio_P55F1_699__200_Dell_Gift_Card/20%Monthly2019-04-08 17:29
http://www.hotnewdeal.com/2019/04/08/288692_Lag_Tramontane_70_Solid_Wood_Acoustic_Electric_Gui/20%Monthly2019-04-08 17:13
http://www.hotnewdeal.com/2019/04/08/288691_HP_SSD_EX920_M2_NVME_1TB_for_14024_AC__FS/20%Monthly2019-04-08 17:13
http://www.hotnewdeal.com/2019/04/08/288690_Slacker_Radio_Plus_for_999__Year/20%Monthly2019-04-08 17:13
http://www.hotnewdeal.com/2019/04/08/288689_Apple_MacBook_Air_133_Laptop_2018_i5_8GB_DDR/20%Monthly2019-04-08 17:13
http://www.hotnewdeal.com/2019/04/08/288688_Samsung_55NU8000_for_627_FS_and_possibly_no_tax_/20%Monthly2019-04-08 16:54
http://www.hotnewdeal.com/2019/04/08/288687_Yoshis_Crafted_World__Nintendo_Switch_Import_Reg/20%Monthly2019-04-08 16:54
http://www.hotnewdeal.com/2019/04/08/288686_Target_has_Mobil_1_10W_30_on_clearance_for_as_low_/20%Monthly2019-04-08 16:54
http://www.hotnewdeal.com/2019/04/08/288684_Razer_Ornata_Backlit_Keyboard_3999__Free_Shippi/20%Monthly2019-04-08 16:36
http://www.hotnewdeal.com/2019/04/08/288683_Duke_Controller_Xbox_One__Windows_10_Black_399/20%Monthly2019-04-08 16:22
http://www.hotnewdeal.com/2019/04/08/288682_Sylvania_24pack_LED_Home_Lighting_Bulbs_Soft_Whit/20%Monthly2019-04-08 16:12
http://www.hotnewdeal.com/2019/04/08/288681_Ryobi_Spring_Black_Friday_Savings_on_Ryobi_lawn_mo/20%Monthly2019-04-08 15:59
http://www.hotnewdeal.com/2019/04/08/288680_Wemo_Smart_Dimmer_Switch_2pack_6999__299_ship/20%Monthly2019-04-08 15:59
http://www.hotnewdeal.com/2019/04/08/288679_Lenovo_Flex_14_2in1Ryzen_7_2700U_16GB_Ram_256GB_/20%Monthly2019-04-08 15:42
http://www.hotnewdeal.com/2019/04/08/288677_25_Off_Head_amp_Shoulders__Amazon/20%Monthly2019-04-08 15:42
http://www.hotnewdeal.com/2019/04/08/288676_Mentos_SugarFree_Chewing_Gum_with_Xylitol_Bubble/20%Monthly2019-04-08 15:36
http://www.hotnewdeal.com/2019/04/08/288675_Gretsch_Streamliner_G2420T_Hollow_Body_Single_Cut_/20%Monthly2019-04-08 15:26
http://www.hotnewdeal.com/2019/04/08/288674_Sony_Playstation_4_Pro_1TB_and_Gran_Turismo_Sport_/20%Monthly2019-04-08 15:26
http://www.hotnewdeal.com/2019/04/08/288673_Slime_10164_Tubeless_Tire_Sealant_24_oz_4_Amaz/20%Monthly2019-04-08 15:10
http://www.hotnewdeal.com/2019/04/08/288672_Intel_660p_2TB_QLC_m2_nvme_ssd_19125/20%Monthly2019-04-08 15:10
http://www.hotnewdeal.com/2019/04/08/288671_Pny_120_GB_SSD_Solid_State_Drive_Amazon__Free_S/20%Monthly2019-04-08 14:57
http://www.hotnewdeal.com/2019/04/08/288670_LG_27_Full_HD_IPS_Dual_HDMI_Gaming_Monitor_1920_x/20%Monthly2019-04-08 14:57
http://www.hotnewdeal.com/2019/04/08/288669_HP_EX920_M2_256GB_PCIe_30_x4_NVMe_3D_TLC_NAND_4/20%Monthly2019-04-08 14:34
http://www.hotnewdeal.com/2019/04/08/288668_Klipsch_RP140WM_HD_Premire_Wireless_Bookshelf_Spe/20%Monthly2019-04-08 14:33
http://www.hotnewdeal.com/2019/04/08/288667_Acer_Nitro_N50_Desktop_Intel_Core_i58400_12GB_D/20%Monthly2019-04-08 14:24
http://www.hotnewdeal.com/2019/04/08/288666_Logitech_Harmony_Elite_Remote_Control_w_Hub_aroun/20%Monthly2019-04-08 14:17
http://www.hotnewdeal.com/2019/04/08/288665_Google_Home_Hub_7_Touchscreen_Smart_Display_Perso/20%Monthly2019-04-08 14:17
http://www.hotnewdeal.com/2019/04/08/288664_Intel_9900K_Processor_48999_shipped__WalMart_a/20%Monthly2019-04-08 13:56
http://www.hotnewdeal.com/2019/04/08/288663_Kershaw_Cinder_1025X_Multifunction_Pocket_Knife_/20%Monthly2019-04-08 13:56
http://www.hotnewdeal.com/2019/04/08/288662_Razer__Blade_156_Gaming_Laptop__Intel_Core_i7_/20%Monthly2019-04-08 13:39
http://www.hotnewdeal.com/2019/04/08/288661_LG__27UK600W_27_IPS_LED_4K_UHD_FreeSync_Monitor/20%Monthly2019-04-08 13:34
http://www.hotnewdeal.com/2019/04/08/288660_Pokemon_TCG_Sun__Moon_Team_Up_Deck_Styles_May_V/20%Monthly2019-04-08 13:23
http://www.hotnewdeal.com/2019/04/08/288659_Sunglasses_Oakleys_from_55_or_Ray_Bans_from_65/20%Monthly2019-04-08 13:23
http://www.hotnewdeal.com/2019/04/08/288658_Supercuts__5_off_Coupon_for_Adult_Haircuts_on_We/20%Monthly2019-04-08 13:11
http://www.hotnewdeal.com/2019/04/08/288657_100Count_Solimo_KCup_Coffee_Pods_Various_Flavor/20%Monthly2019-04-08 13:11
http://www.hotnewdeal.com/2019/04/08/288656_Save_up_to_30_on_Easter_candy_gift_baskets_and_/20%Monthly2019-04-08 13:07
http://www.hotnewdeal.com/2019/04/08/288655_Teknor_Apex_Neverkink_58in_X_50ft_HeavyDuty_Ki/20%Monthly2019-04-08 12:58
http://www.hotnewdeal.com/2019/04/08/288654_Kingston_A400_240G_SATA_M2_2280_Internal_SSD__SA/20%Monthly2019-04-08 12:44
http://www.hotnewdeal.com/2019/04/08/288653_17lb_Weighted_Blanket_100_Cotton_with_Glass_Beads/20%Monthly2019-04-08 12:38
http://www.hotnewdeal.com/2019/04/08/288652_3Pack_75oz_Pepperidge_Farm_Milano_Cookies_Doubl/20%Monthly2019-04-08 12:35
http://www.hotnewdeal.com/2019/04/08/288651_The_Elder_Scrolls_V_Skyrim_Special_Edition__PS4_/20%Monthly2019-04-08 12:21
http://www.hotnewdeal.com/2019/04/08/288650_Duvet_Sets__Comforter_Sets_Truly_Soft_Twin_XL_fr/20%Monthly2019-04-08 12:06
http://www.hotnewdeal.com/2019/04/08/288649_TV_Seasons_Digital_HD_The_Son_Season_2_299_/20%Monthly2019-04-08 11:59
http://www.hotnewdeal.com/2019/04/08/288648_Little_Giant_VCMA20UL_115V_Condensate_Pump_3599/20%Monthly2019-04-08 11:59
http://www.hotnewdeal.com/2019/04/08/288647_TMobile_WiFi_CellSpot_AC1900_Gigabit_Router_Pre/20%Monthly2019-04-08 11:55
http://www.hotnewdeal.com/2019/04/08/288646_Dji_osmo_pocket_3axis_gimbal_stabilized_handheld_/20%Monthly2019-04-08 11:55
http://www.hotnewdeal.com/2019/04/08/288645_COSTCO_TPLink_Deco_M9_Plus_TriBand_WiFi_System_/20%Monthly2019-04-08 11:55
http://www.hotnewdeal.com/2019/04/08/288644_Crucial_MX500_1TB_SATA_6Gbps_25_Internal_SSD_11/20%Monthly2019-04-08 11:55
http://www.hotnewdeal.com/2019/04/08/288643_Sylvania_smart_LED_light_bulb_481_Amazon_AddOn/20%Monthly2019-04-08 11:42
http://www.hotnewdeal.com/2019/04/08/288642_Video_Games_Fallout_New_Vegas_UE_Xbox_One360_/20%Monthly2019-04-08 11:38
http://www.hotnewdeal.com/2019/04/08/288641_Nintendo_Switch_Games_Fire_Emblem_Warriors_2499/20%Monthly2019-04-08 11:23
http://www.hotnewdeal.com/2019/04/08/288640_Tiffen_77mm_Variable_Neutral_Density_Filter_4995/20%Monthly2019-04-08 11:23
http://www.hotnewdeal.com/2019/04/08/288639_315_Acer_ET322QU_2560x1440_75Hz_4ms_FreeSync_IPS/20%Monthly2019-04-08 10:57
http://www.hotnewdeal.com/2019/04/08/288638_Costco_Members_65_Vizio_PQ65F_1399/20%Monthly2019-04-08 10:48
http://www.hotnewdeal.com/2019/04/08/288637_AllClad_Stainless_Steel_7Pc_Cookware_Set__Oval/20%Monthly2019-04-08 10:48
http://www.hotnewdeal.com/2019/04/08/288636_PlayStation_Store_PSN_50_USD_Gift_Card_US_4299/20%Monthly2019-04-08 10:43
http://www.hotnewdeal.com/2019/04/08/288635_Don_Pepino_Spaghetti_Sauce_28_Ounce_Pack_of_12_/20%Monthly2019-04-08 10:39
http://www.hotnewdeal.com/2019/04/08/288634_Gerber_Curve_Keychain_MultiTool_Blue__Frys__/20%Monthly2019-04-08 10:31
http://www.hotnewdeal.com/2019/04/08/288633_Patagonia_Clothing_Sale_Shirts_Jackets_Hoodies/20%Monthly2019-04-08 10:28
http://www.hotnewdeal.com/2019/04/08/288632_Hitachi_RB24EAP_Gas_Powered_Leaf_Blower__99_Free/20%Monthly2019-04-08 10:23
http://www.hotnewdeal.com/2019/04/08/288631_ASUS_Expedition_GeForce_GTX_1060_6GB_Video_Card_1/20%Monthly2019-04-08 10:08
http://www.hotnewdeal.com/2019/04/08/288630_Chemical_Guys_Miracle_Dryer_Absorber_Premium_Micro/20%Monthly2019-04-08 09:41
http://www.hotnewdeal.com/2019/04/08/288629_Rakutencom_15_site_wide/20%Monthly2019-04-08 09:41
http://www.hotnewdeal.com/2019/04/08/288628_Sapphire_PULSE_Radeon_RX_570_4GB_256Bit_GDDR5_Vid/20%Monthly2019-04-08 09:41
http://www.hotnewdeal.com/2019/04/08/288627_ASRock_X470_Taichi_AM4_AMD_Promontory_ATX_Motherbo/20%Monthly2019-04-08 09:25
http://www.hotnewdeal.com/2019/04/08/288626_ESET_Internet_Security_2019__3_PCs_Product_Key_C/20%Monthly2019-04-08 09:25
http://www.hotnewdeal.com/2019/04/08/288625_Sylvania_Lighting_Products_Sylvania_Smart_ZigBee/20%Monthly2019-04-08 09:08
http://www.hotnewdeal.com/2019/04/08/288624_Samsung_Gear_S3_frontier_180_on_Amazon/20%Monthly2019-04-08 07:57
http://www.hotnewdeal.com/2019/04/08/288623_Forto_Coffee_Shot_Chocolate_Mocha_or_Sweet__Cr/20%Monthly2019-04-08 07:40
http://www.hotnewdeal.com/2019/04/08/288622_Walgreens_16_x_20_Canvas_Print_20__free_store_/20%Monthly2019-04-08 07:24
http://www.hotnewdeal.com/2019/04/08/288621_Microsoft_Xbox_Gift_Card_Email_Delivery_100_GC/20%Monthly2019-04-08 07:08
http://www.hotnewdeal.com/2019/04/08/288620_Beats_by_Dr_Dre__Geek_Squad_Certified_Refurbishe/20%Monthly2019-04-08 06:09
http://www.hotnewdeal.com/2019/04/08/288619_Amazon_Kindle_Paperwhite_10th_Generation_8GB_Wi/20%Monthly2019-04-08 03:29
http://www.hotnewdeal.com/2019/04/08/288618_2Pack_of_3oz_Biofreeze_Pain_Relief_Gel_RollOn_9/20%Monthly2019-04-08 03:23
http://www.hotnewdeal.com/2019/04/08/288617_GoPro_Hero_7_Black_Camera_Bundle__Costco_33999/20%Monthly2019-04-08 02:38
http://www.hotnewdeal.com/2019/04/08/288616_The_Company_Store_White_Bay_Down_Comforter_from_8/20%Monthly2019-04-08 02:25
http://www.hotnewdeal.com/2019/04/08/288615_LEGOLAND_New_York_Resort_Commemorative_1st_to_Play/20%Monthly2019-04-08 02:20
http://www.hotnewdeal.com/2019/04/08/288614_LG_4K_UHD_Laser_Smart_Home_Theater_CineBeam_Projec/20%Monthly2019-04-08 01:56
http://www.hotnewdeal.com/2019/04/08/288613_Nerf_AccuStrike_Elite_AlphaHawk_10__free_store_p/20%Monthly2019-04-08 01:08
http://www.hotnewdeal.com/2019/04/07/288612_DEWALT_ToughSystem_DS400_22_in_XL_Tool_Box_244/20%Monthly2019-04-07 23:58
http://www.hotnewdeal.com/2019/04/07/288611_Free_5_Dominos_Gift_Card_with_Karma_Project_Airba/20%Monthly2019-04-07 23:42
http://www.hotnewdeal.com/2019/04/07/288610_100ft_Cat_5e_Ethernet_Cable_590/20%Monthly2019-04-07 23:26
http://www.hotnewdeal.com/2019/04/07/288609_Active_Military_and_Veterans_Sony_65_in_x950G_se/20%Monthly2019-04-07 22:58
http://www.hotnewdeal.com/2019/04/07/288608_Lightning_Deal_Symphonized_NRG_30_Earbuds_Headp/20%Monthly2019-04-07 22:49
http://www.hotnewdeal.com/2019/04/07/288606_1TB_Microsoft_Xbox_One_S_Console_w_Titanfall_2__/20%Monthly2019-04-07 21:26
http://www.hotnewdeal.com/2019/04/07/288605_3_Months_Xbox_Game_Pass_for_1_from_4112019_thou/20%Monthly2019-04-07 21:26
http://www.hotnewdeal.com/2019/04/07/288604_Amped_Wireless_WiFi_Alexa_Enabled_Smart_Plug_AWP/20%Monthly2019-04-07 21:21
http://www.hotnewdeal.com/2019/04/07/288603_V8_Original_100_Vegetable_Juice_115_oz_Can_Pa/20%Monthly2019-04-07 20:49
http://www.hotnewdeal.com/2019/04/07/288602_Foodsaver_Flow_5000_Series_Equivalent_89_QVC_Clea/20%Monthly2019-04-07 20:49
http://www.hotnewdeal.com/2019/04/07/288601_Roundup_Poison_Ivy_Plus_Tough_Brush_Killer_Concent/20%Monthly2019-04-07 20:40
http://www.hotnewdeal.com/2019/04/07/288600_Addon_Item_The_Book_of_Life_Bluray__DVD__Dig/20%Monthly2019-04-07 20:35
http://www.hotnewdeal.com/2019/04/07/288599_Five_Ten_Hiangle_Synthetic_Climbing_Shoe_7555_f/20%Monthly2019-04-07 19:26
http://www.hotnewdeal.com/2019/04/07/288598_3Pack_36oz_Similac_ProAdvance_Infant_Formula_wit/20%Monthly2019-04-07 19:10
http://www.hotnewdeal.com/2019/04/07/288597_Just_a_Little_Critter_Collection_Hardcover_5_w/20%Monthly2019-04-07 18:40
http://www.hotnewdeal.com/2019/04/07/288596_Addon_Item_AmazonBasics_Car_Windshield_Sun_Shade/20%Monthly2019-04-07 18:35
http://www.hotnewdeal.com/2019/04/07/288595_Milwaukee_12_M18_Impact_Manufacture_Refurbished_/20%Monthly2019-04-07 17:27
http://www.hotnewdeal.com/2019/04/07/288594_Thames__Kosmos_Physics_Workshop_for_1799/20%Monthly2019-04-07 17:27
http://www.hotnewdeal.com/2019/04/07/288593_24_plus_shipping_Evezo_Mercedes_Benz_SLS_AMG_332_/20%Monthly2019-04-07 17:21
http://www.hotnewdeal.com/2019/04/07/288592_2_Memory_Foam_Mattress_Toppers_at_Home_Depot_Twi/20%Monthly2019-04-07 17:10
http://www.hotnewdeal.com/2019/04/07/288591_24Pack_8oz_V8_Energy_Drinks_Pomegranate_Blueber/20%Monthly2019-04-07 17:10
http://www.hotnewdeal.com/2019/04/07/288590_Nature_Power_100_Watt_High_Power_Complete_Solar_Ki/20%Monthly2019-04-07 17:10
http://www.hotnewdeal.com/2019/04/07/288589_Mission_Impossible_Fallout_Bluray__DVD__Digita/20%Monthly2019-04-07 16:47
http://www.hotnewdeal.com/2019/04/07/288588_Vizio_P55F1_629/20%Monthly2019-04-07 16:35
http://www.hotnewdeal.com/2019/04/07/288587_Enermax_Cluster_Advance_120mm_PWM_Case_Fan_Free_af/20%Monthly2019-04-07 16:29
http://www.hotnewdeal.com/2019/04/07/288586_MSI_Radeon_RX_570_ARMOR_MK2_8GB_Video_Card_140_AR/20%Monthly2019-04-07 16:19
http://www.hotnewdeal.com/2019/04/07/288585_Openbox_Excellent_HP__2in1_14_TouchScreen_Ch/20%Monthly2019-04-07 15:58
http://www.hotnewdeal.com/2019/04/07/288584_Jimu_Robot_BuzzBot_and_MuttBot_Kit__Target_YMMV_6/20%Monthly2019-04-07 15:26
http://www.hotnewdeal.com/2019/04/07/288583_Amped_Wireless_Outdoor_Smart_Plug_with_2_AC_Ports_/20%Monthly2019-04-07 14:40
http://www.hotnewdeal.com/2019/04/07/288582_Energizer_36_Pack_Max_AA_Alkaline_Batteries_997_/20%Monthly2019-04-07 14:35
http://www.hotnewdeal.com/2019/04/07/288581_New_Subscribers_1Month_Xbox_Game_Pass_1__Micro/20%Monthly2019-04-07 14:27
http://www.hotnewdeal.com/2019/04/07/288580_WD_Elements_8TB_USB_30_Desktop_Hard_Drive_WDBWLG0/20%Monthly2019-04-07 13:58
http://www.hotnewdeal.com/2019/04/07/288579_Caribou_Coffee__5Cup_French_Press__Clear_10_B/20%Monthly2019-04-07 13:58
http://www.hotnewdeal.com/2019/04/07/288578_ViewSonic_VX2757MHD_27Inch_1080p_Gaming_Monitor_/20%Monthly2019-04-07 13:42
http://www.hotnewdeal.com/2019/04/07/288577_Prime_Members_Kindle_Paperwhite_2016_EReader_/20%Monthly2019-04-07 13:42
http://www.hotnewdeal.com/2019/04/07/288576_Samsung_Odyssey___299__Amazon/20%Monthly2019-04-07 13:42
http://www.hotnewdeal.com/2019/04/07/288575_Nintendo_Switch_System_Carrying_Case__Protective_/20%Monthly2019-04-07 13:42
http://www.hotnewdeal.com/2019/04/07/288574_Thermaltake_F31_Suppressor_or_Versa_J24_Tempered_G/20%Monthly2019-04-07 13:41
http://www.hotnewdeal.com/2019/04/07/288573_6Pack_EastPoint_Sports_40mm_3Star_Table_Tennis_B/20%Monthly2019-04-07 13:36
http://www.hotnewdeal.com/2019/04/07/288572_Google_Express_New_Customers_HP_Laserjet_Pro_M148/20%Monthly2019-04-07 13:26
http://www.hotnewdeal.com/2019/04/07/288571_Dell_Refurbished_UltraSharp_49_inch_Curved_Monitor/20%Monthly2019-04-07 13:21
http://www.hotnewdeal.com/2019/04/07/288570_ViewSonic_4K_Projector_with_3500_Lumens_HDR_Suppor/20%Monthly2019-04-07 13:10
http://www.hotnewdeal.com/2019/04/07/288569_Whole_foods__Get_10_off_of_20_when_you_try_prim/20%Monthly2019-04-07 13:10
http://www.hotnewdeal.com/2019/04/07/288568_Blink_XT_Home_Security_Camera_Sets_Starting_at_80/20%Monthly2019-04-07 12:56
http://www.hotnewdeal.com/2019/04/07/288567_Van_Heusen_Mens_Flex_Slim_Fit_Suit_75__free_sto/20%Monthly2019-04-07 12:56
http://www.hotnewdeal.com/2019/04/07/288566_Old_Navy_50_Off_Jersey_Swing_Dress_350_Mens_/20%Monthly2019-04-07 12:43
http://www.hotnewdeal.com/2019/04/07/288565_Kingston_Technology_HyperX_Fury_Black_16GB_2666MHz/20%Monthly2019-04-07 12:35
http://www.hotnewdeal.com/2019/04/07/288564_Leviton_Decora_Smart_with_ZWave_Technology_600Wa/20%Monthly2019-04-07 12:18
http://www.hotnewdeal.com/2019/04/07/288562_Kingdom_Hearts_III_Xbox_One_30_or_Metro_Exodus_/20%Monthly2019-04-07 11:56
http://www.hotnewdeal.com/2019/04/07/288561_Breville_the_Compact_Smart_Oven_1800W_Convection_T/20%Monthly2019-04-07 11:40
http://www.hotnewdeal.com/2019/04/07/288560_WiFi_Smart_Plug_Outlet_Timer_Mini_Socket_Compatib/20%Monthly2019-04-07 11:40
http://www.hotnewdeal.com/2019/04/07/288559_Sony_A8F_65_OLED_TV__Refurbished_1520/20%Monthly2019-04-07 10:46
http://www.hotnewdeal.com/2019/04/07/288558_Greenes_Fence_16_in_x_8_ft_x_11_in_Raised_Garden_B/20%Monthly2019-04-07 10:46
http://www.hotnewdeal.com/2019/04/07/288557_Lodge_10_Inch_Scrub_Brush_Amazon_AddOn_477/20%Monthly2019-04-07 09:56
http://www.hotnewdeal.com/2019/04/07/288556_Premier_Comfort_Reversible_Micro_Velvet__Sherpa_C/20%Monthly2019-04-07 09:56
http://www.hotnewdeal.com/2019/04/07/288555_32_Marc_New_York_Carry_A_Ton_Duffel_750__Free_/20%Monthly2019-04-07 09:56
http://www.hotnewdeal.com/2019/04/07/288554_Sun_Joe_12_Dia_HeavyDuty_Stainless_Steel_Garden/20%Monthly2019-04-07 09:38
http://www.hotnewdeal.com/2019/04/07/288553_Klein_Tools_3Piece_Voltage_Tester_Receptable_Te/20%Monthly2019-04-07 09:38
http://www.hotnewdeal.com/2019/04/07/288552_Target_250_GC_with_iPhone_XS_64GB_Gold_when_fin/20%Monthly2019-04-07 09:38
http://www.hotnewdeal.com/2019/04/07/288551_FisherPrice_Nickelodeon_Sunny_Day_Sunnys_Hair_Dr/20%Monthly2019-04-07 09:07
http://www.hotnewdeal.com/2019/04/07/288550_Crucial_MX500_2TB_25_Internal_SSD_22499_22499/20%Monthly2019-04-07 08:54
http://www.hotnewdeal.com/2019/04/07/288549_BBC_Documentaries_Planet_Earth_Special_Edition_Gi/20%Monthly2019-04-07 08:54
http://www.hotnewdeal.com/2019/04/07/288548_Apple_iPad_Pro_105_2017_64GB_WiFi_Tablet_449/20%Monthly2019-04-07 08:37
http://www.hotnewdeal.com/2019/04/07/288547_Intel_SSD_660p_Series_10TB_M2_80mm_PCIe_30_x_4/20%Monthly2019-04-07 07:51
http://www.hotnewdeal.com/2019/04/07/288546_Apple_Watch_Nike_Series_3_42mm_Smartwatch_GPS__/20%Monthly2019-04-07 07:38
http://www.hotnewdeal.com/2019/04/07/288545_ASTRO_A10_Legend_Of_Zelda_BOTW_themed_Gaming_Heads/20%Monthly2019-04-07 07:07
http://www.hotnewdeal.com/2019/04/07/288544_California_Air_Tools_8010_Ultra_Quiet_Steel_Tank_A/20%Monthly2019-04-07 07:06
http://www.hotnewdeal.com/2019/04/07/288543_TV_Seasons_Digital_HD_Car_Fix_Season_8_299_/20%Monthly2019-04-07 05:55
http://www.hotnewdeal.com/2019/04/07/288542_Sony_a6400_Body__55210mm_Lens_Bundle_998__16/20%Monthly2019-04-07 05:37
http://www.hotnewdeal.com/2019/04/07/288541_Bissell_Big_Green_Professional_Carpet_Cleaner_Mach/20%Monthly2019-04-07 03:55
http://www.hotnewdeal.com/2019/04/07/288540_HP_Pavilion_Gaming_Desktop_AMD_Ryzen_7_1700_Proces/20%Monthly2019-04-07 03:55
http://www.hotnewdeal.com/2019/04/07/288538_Microsoft_Natural_Ergonomic_4000_Keyboard_1874_/20%Monthly2019-04-07 03:08
http://www.hotnewdeal.com/2019/04/07/288537_LectroFan_ASM1007_High_Fidelity_White_Noise_Machin/20%Monthly2019-04-07 02:55
http://www.hotnewdeal.com/2019/04/07/288536_de_Blob_2_or_de_Blob_Nintendo_Switch_999_This/20%Monthly2019-04-07 01:55
http://www.hotnewdeal.com/2019/04/07/288535_48Pack_Insignia_Alkaline_Batteries_AA_or_AAA_7/20%Monthly2019-04-07 01:55
http://www.hotnewdeal.com/2019/04/07/288534_Joseph_Abboud_VNeck_100_Cashmere_Sweater_Merlot/20%Monthly2019-04-07 01:55
http://www.hotnewdeal.com/2019/04/07/288533_Video_Games_Ni_no_Kuni_II_Revenant_Kingdom_PS4_/20%Monthly2019-04-07 01:07
http://www.hotnewdeal.com/2019/04/07/288532_Brondell_Bidet__Thinline_Dual_Nozzle_SimpleSpa_SS/20%Monthly2019-04-07 01:07
http://www.hotnewdeal.com/2019/04/07/288531_CuffArt_going_out_of_business_sale_12/20%Monthly2019-04-07 00:14
http://www.hotnewdeal.com/2019/04/06/288530_Samsung_Galaxy_Tab_A_105_SMT950_2018_Latest_Mod/20%Monthly2019-04-06 23:56
http://www.hotnewdeal.com/2019/04/06/288529_Umbra_Ribbon_Modern_12inch_Wall_Clock_Quartz_Move/20%Monthly2019-04-06 23:28
http://www.hotnewdeal.com/2019/04/06/288528_8ft_Blue_Cool_Wave_Slide_by_SwingNSlide_Playset/20%Monthly2019-04-06 23:23
http://www.hotnewdeal.com/2019/04/06/288527_Mainstays_HandHeld_steamer_iron__450/20%Monthly2019-04-06 22:46
http://www.hotnewdeal.com/2019/04/06/288526_104Pc_Lenox_1810_Stainless_Steel_Flatware_Set_S/20%Monthly2019-04-06 22:38
http://www.hotnewdeal.com/2019/04/06/288525_Ryzen_2700_8_core_CPU_200_AC/20%Monthly2019-04-06 22:38
http://www.hotnewdeal.com/2019/04/06/288524_PSA__New_Sprint_SWAC_Premium_Plan_Info_10_cheape/20%Monthly2019-04-06 22:33
http://www.hotnewdeal.com/2019/04/06/288523_Monster_Energy_Zero_Ultra_Energy_Drink_24_Pack_2/20%Monthly2019-04-06 22:31
http://www.hotnewdeal.com/2019/04/06/288522_AMC__Marcus_Theatres_Buy_One_Get_One_Free_Adult/20%Monthly2019-04-06 21:23
http://www.hotnewdeal.com/2019/04/06/288521_SAMSUNG_32GB_BAR_Plus_Metal_Gray_USB_31_Flash_D/20%Monthly2019-04-06 21:23
http://www.hotnewdeal.com/2019/04/06/288520_Fitbit_Blaze_Smart_Fitness_Watch_plum_large_or_s/20%Monthly2019-04-06 20:16
http://www.hotnewdeal.com/2019/04/06/288519_Borderlands_GOTY_Enhanced_Edition__750_Amazon_/20%Monthly2019-04-06 20:16
http://www.hotnewdeal.com/2019/04/06/288518_68_OFF_WEEKEND_ONLY_SALE_Bath_Towels__Wash_Clot/20%Monthly2019-04-06 19:56
http://www.hotnewdeal.com/2019/04/06/288517_Milwaukee_M18_FUEL_18Volt_LithiumIon_Brushless_C/20%Monthly2019-04-06 19:39
http://www.hotnewdeal.com/2019/04/06/288516_CUK_HP_OMEN_15t_Gamer_Notebook_Intel_i78750H_16/20%Monthly2019-04-06 19:25
http://www.hotnewdeal.com/2019/04/06/288515_2Pack_6_Aukey_USB_to_USB_Type_C_Fast_Charge_Brai/20%Monthly2019-04-06 19:09
http://www.hotnewdeal.com/2019/04/06/288514_Restonic_15_in_Cotton_300_Thread_Count_Mattress_P/20%Monthly2019-04-06 19:08
http://www.hotnewdeal.com/2019/04/06/288513_1__Walmart_BM_YMMV__1_Gallon_RainX_30_F_De/20%Monthly2019-04-06 18:39
http://www.hotnewdeal.com/2019/04/06/288512_4719_Callin_77_LG_OLED77C8PUA_4K_OLED_HDTV_/20%Monthly2019-04-06 18:39
http://www.hotnewdeal.com/2019/04/06/288511_Ebay_Open_Box_Samsung_Galaxy_Tab_A_SMT387A_32_GB_/20%Monthly2019-04-06 17:57
http://www.hotnewdeal.com/2019/04/06/288510_GUM_SoftPicks_Original_Dental_Picks_Pack_of_150/20%Monthly2019-04-06 17:57
http://www.hotnewdeal.com/2019/04/06/288509_80Count_Persil_Proclean_Powercaps_Laundry_Deterge/20%Monthly2019-04-06 17:25
http://www.hotnewdeal.com/2019/04/06/288508_24Pack_of_169oz_Perrier_Sparkling_Mineral_Water_/20%Monthly2019-04-06 17:25
http://www.hotnewdeal.com/2019/04/06/288507_DualShock_4_Wireless_Controller_for_PlayStation_4/20%Monthly2019-04-06 17:09
http://www.hotnewdeal.com/2019/04/06/288506_Good_Cook_Stainless_Steel_Kitchen_Sink_Strainer_0/20%Monthly2019-04-06 16:47
http://www.hotnewdeal.com/2019/04/06/288505_Vitamix_5300_Blender_ProfessionalGrade_64_oz_L/20%Monthly2019-04-06 16:47
http://www.hotnewdeal.com/2019/04/06/288504_ASICS_Tiger_Mens_Curreo_II_Running_Shoes_25_ASI/20%Monthly2019-04-06 16:27
http://www.hotnewdeal.com/2019/04/06/288503_Melissa__Doug_Hide__Seek_Farm_873__Amazon/20%Monthly2019-04-06 16:19
http://www.hotnewdeal.com/2019/04/06/288502_Home_Depot__Gorilla_Ladders_3Step_Lightweight_St/20%Monthly2019-04-06 16:09
http://www.hotnewdeal.com/2019/04/06/288501_PCDD_5_Games_For_1_Peregrin_Aporia_Beyond_The/20%Monthly2019-04-06 15:58
http://www.hotnewdeal.com/2019/04/06/288500_Castrol_03128C_EDGE_High_Mileage_5W30_Advanced_Fu/20%Monthly2019-04-06 15:27
http://www.hotnewdeal.com/2019/04/06/288499_Gibson_premium_guitar_cables_3999/20%Monthly2019-04-06 14:37
http://www.hotnewdeal.com/2019/04/06/288498_SiliconDust_HDHomeRun_Connect_Quatro_Receiver_with/20%Monthly2019-04-06 14:30
http://www.hotnewdeal.com/2019/04/06/288497_Husky_8_in_1_portable_jump_starter_with_hand_gener/20%Monthly2019-04-06 14:30
http://www.hotnewdeal.com/2019/04/06/288496_General_Grabber_STX_Tires_on_clearance__Walmart_A/20%Monthly2019-04-06 14:23
http://www.hotnewdeal.com/2019/04/06/288495_Nintendo_Switch_Console_with_Neon_Blue_and_Red_Joy/20%Monthly2019-04-06 14:11
http://www.hotnewdeal.com/2019/04/06/288494_Shazam_4_Tickets_for_30_Works_for_IMAX_DOLBY_3/20%Monthly2019-04-06 14:10
http://www.hotnewdeal.com/2019/04/06/288493_Limited_time__Apple_iPad_Air_or_iPad_Mini_suppor/20%Monthly2019-04-06 14:10
http://www.hotnewdeal.com/2019/04/06/288492_Burts_Bees_4Pc_Face_Essentials_Gift_Set_750/20%Monthly2019-04-06 13:35
http://www.hotnewdeal.com/2019/04/06/288491_Fujifilm_XT30_Mirrorless_Camera_with_XF_23mm_F2R/20%Monthly2019-04-06 13:26
http://www.hotnewdeal.com/2019/04/06/288490_Ballistix_Sport_LT_32GB_2x_16GB_2666_MTS_260Pi/20%Monthly2019-04-06 13:26
http://www.hotnewdeal.com/2019/04/06/288489_Xbox_Gift_Card_60_US_Email_Delivery__Free_Xbox/20%Monthly2019-04-06 13:17
http://www.hotnewdeal.com/2019/04/06/288488_Philips_Hue_464479_60W_Equivalent_White_and_Color_/20%Monthly2019-04-06 13:10
http://www.hotnewdeal.com/2019/04/06/288487_Greenworks_Pro_GPW2300_2300PSI_23GPM_Electric_P/20%Monthly2019-04-06 12:55
http://www.hotnewdeal.com/2019/04/06/288486_Yamaha_RXV2085_92Channel_4K_Ultra_HD_AV_Receiv/20%Monthly2019-04-06 12:35
http://www.hotnewdeal.com/2019/04/06/288485_Amazon_Crucial_BX500_240GB_3D_NAND_SATA_25Inch_/20%Monthly2019-04-06 11:52
http://www.hotnewdeal.com/2019/04/06/288484_Mentos_SugarFree_Chewing_Gum_with_Xylitol_50_Pie/20%Monthly2019-04-06 11:52
http://www.hotnewdeal.com/2019/04/06/288483_8GB_Corsair_Vengeance_DDR4_2400_SODIMM_Laptop_Mem/20%Monthly2019-04-06 11:42
http://www.hotnewdeal.com/2019/04/06/288482_AMD_RYZEN_5_2600_6Core_34_GHz_39_GHz_Max_Boost/20%Monthly2019-04-06 11:08
http://www.hotnewdeal.com/2019/04/06/288481_Sams_Club__Get_20_off_when_you_spend_80_online_/20%Monthly2019-04-06 10:40
http://www.hotnewdeal.com/2019/04/06/288480_Spikeball_3_Ball_Set_1499__Lowes_BM_YMMV/20%Monthly2019-04-06 10:40
http://www.hotnewdeal.com/2019/04/06/288479_HSN_Motorola_Moto_e5_57_16GB_Tracfone_w1500_Min/20%Monthly2019-04-06 10:09
http://www.hotnewdeal.com/2019/04/06/288477_Victorinox_Swiss_Army_Cadet_Alox_Multitool_With_Kn/20%Monthly2019-04-06 09:48
http://www.hotnewdeal.com/2019/04/06/288476_CapitalOne_360_Money_Market_500_bonus_with_50K_b/20%Monthly2019-04-06 09:48
http://www.hotnewdeal.com/2019/04/06/288475_33_OFF_SALE_Resident_Evil_2_for_XBOX_ONE_40/20%Monthly2019-04-06 09:10
http://www.hotnewdeal.com/2019/04/06/288474_Galaxy_Buds_Black_ATT_Store_97/20%Monthly2019-04-06 09:10
http://www.hotnewdeal.com/2019/04/06/288473_Milwaukee_M18_FUEL_120_MPH_450_CFM_18Volt_Lithium/20%Monthly2019-04-06 08:50
http://www.hotnewdeal.com/2019/04/06/288472_HDX_Tough_Storage_Tote_in_Black_27_gallon_698__/20%Monthly2019-04-06 08:43
http://www.hotnewdeal.com/2019/04/06/288471_Logitech_Harmony_650_Universal_Remote_Control_25_/20%Monthly2019-04-06 08:43
http://www.hotnewdeal.com/2019/04/06/288470_Marvels_Cloak__Dagger_Season_2_Digital_HD_or_S/20%Monthly2019-04-06 08:19
http://www.hotnewdeal.com/2019/04/06/288469_Nintendo_Switch__Lets_Sing_2018_for_2999_eSho/20%Monthly2019-04-06 06:12
http://www.hotnewdeal.com/2019/04/06/288468_Glacier_Bay_24_AllinOne_Undermount_Kitchen_Sink/20%Monthly2019-04-06 05:59
http://www.hotnewdeal.com/2019/04/06/288467_GameStop_Spring_Sale_47__420/20%Monthly2019-04-06 04:48
http://www.hotnewdeal.com/2019/04/06/288466_iphone_6_Refurbished_75_price_includes_mandatory/20%Monthly2019-04-06 03:19
http://www.hotnewdeal.com/2019/04/06/288465_Kodak_480GB_Internal_Solid_State_Drive_3999_Ship/20%Monthly2019-04-06 03:18
http://www.hotnewdeal.com/2019/04/06/288464_Motorola__Moto_Mod_Gamepad_Case_Reg_79_on_sale_/20%Monthly2019-04-06 03:18
http://www.hotnewdeal.com/2019/04/06/288463_Mario_Kart_8_Deluxe_Nintendo_Switch_Video_Game_Sea/20%Monthly2019-04-06 03:17
http://www.hotnewdeal.com/2019/04/06/288462_Resident_evil_2_remake_flash_sale_on_PSN_3959/20%Monthly2019-04-06 02:43
http://www.hotnewdeal.com/2019/04/06/288461_Adata_su800_ssd_2tb_18444_1tb_9434_512gb_5/20%Monthly2019-04-06 02:41
http://www.hotnewdeal.com/2019/04/06/288460_4994__Pokemon_Lets_Go_Eevee_w_Poke_Ball_Ni/20%Monthly2019-04-06 02:02
http://www.hotnewdeal.com/2019/04/06/288458_Makita_Impact_Gold_40_Pc_Torsion_Bit_Set_1260_/20%Monthly2019-04-06 02:01
http://www.hotnewdeal.com/2019/04/06/288457_Fender_LE_American_Professional_Stratocaster_Elect/20%Monthly2019-04-06 02:00
http://www.hotnewdeal.com/2019/04/06/288456_DJI_Ryze_Tello_Drone_6297__FS/20%Monthly2019-04-06 00:42
http://www.hotnewdeal.com/2019/04/05/288455_WD__Easystore_32GB_USB_30_Flash_Drive__Blue_6/20%Monthly2019-04-05 23:51
http://www.hotnewdeal.com/2019/04/05/288454_DiscountMags_US_Weekly_1699year_Bon_Appetit_/20%Monthly2019-04-05 23:51
http://www.hotnewdeal.com/2019/04/05/288453_299_BM_YMMV_EGO_21_in_56Volt_Lithiumion_Cordl/20%Monthly2019-04-05 23:05
http://www.hotnewdeal.com/2019/04/05/288452_Airheads_Candy_Individually_Wrapped_Bars_Blue_Ra/20%Monthly2019-04-05 23:05
http://www.hotnewdeal.com/2019/04/05/288451_3Pack_of_Nest_Indoor_Security_Cameras__Google_Ho/20%Monthly2019-04-05 22:02
http://www.hotnewdeal.com/2019/04/05/288450_Jabra_Extreme2_Bluetooth_Wireless_Universal_Heads/20%Monthly2019-04-05 22:01
http://www.hotnewdeal.com/2019/04/05/288448_CORSAIR_VOID_PRO_RGB_SE_Wireless_Dolby_71Channel/20%Monthly2019-04-05 21:59
http://www.hotnewdeal.com/2019/04/05/288447_LG_OLED_4K_TVs_55_OLED55B8PUA_999_65_OLED65B/20%Monthly2019-04-05 21:14
http://www.hotnewdeal.com/2019/04/05/288446_Lowes_sliding_glass_doors_599_from_799_yMmv/20%Monthly2019-04-05 21:14
http://www.hotnewdeal.com/2019/04/05/288445_Etymotic_Research_ER4XR_Extended_Response_Precisio/20%Monthly2019-04-05 21:13
http://www.hotnewdeal.com/2019/04/05/288443_24oz_Jar_Grey_Poupon_Dijon_Mustard_Pack_of_6_/20%Monthly2019-04-05 20:32
http://www.hotnewdeal.com/2019/04/05/288442_ADATA_Ultimate_SU650_3D_NAND_25_240GB_SSD_ASU65/20%Monthly2019-04-05 20:31
http://www.hotnewdeal.com/2019/04/05/288441_2Pack_Zero_Gravity_Chairs_4499_AC__FS/20%Monthly2019-04-05 20:30
http://www.hotnewdeal.com/2019/04/05/288440_GlobalGolf_20_off_Stacking_codes__Used_Titleist/20%Monthly2019-04-05 19:57
http://www.hotnewdeal.com/2019/04/05/288439_Atlas_Obscura_An_Explorers_Guide_to_the_Worlds_/20%Monthly2019-04-05 19:56
http://www.hotnewdeal.com/2019/04/05/288437_Apple_Watch_Series_3__GPSCellular__38mm_Aluminu/20%Monthly2019-04-05 19:13
http://www.hotnewdeal.com/2019/04/05/288436_Dynatrap_DT2000XLP_Full_Acre_Corded_All_Weather_Mo/20%Monthly2019-04-05 19:12
http://www.hotnewdeal.com/2019/04/05/288435_LG_OLED_B8_55_OLED55B8PUA__BuyDig_via_Google_Ex/20%Monthly2019-04-05 17:52
http://www.hotnewdeal.com/2019/04/05/288434_Sun_Joe_SPX3500_2300_PSI_Electric_Pressure_Washer_/20%Monthly2019-04-05 17:51
http://www.hotnewdeal.com/2019/04/05/288433_Harbor_Freight_Coupon_Extra_5_of_50/20%Monthly2019-04-05 17:28
http://www.hotnewdeal.com/2019/04/05/288432_Epson__Home_Cinema_4010_4K_UHD_Projector_with_HDR/20%Monthly2019-04-05 17:27
http://www.hotnewdeal.com/2019/04/05/288431_Ace_Rewards_Members_DeWalt_60T_10in_Carbide_Tipp/20%Monthly2019-04-05 17:26
http://www.hotnewdeal.com/2019/04/05/288430_Costco_Online__BM__HP__Gaming_Desktop__HP_Pav/20%Monthly2019-04-05 17:01
http://www.hotnewdeal.com/2019/04/05/288429_12_oz_White_Flat_General_Purpose_Spray_Paint_6P/20%Monthly2019-04-05 17:00
http://www.hotnewdeal.com/2019/04/05/288428_Digital_Download_Enter_the_Gungeon_Switch_PS4_/20%Monthly2019-04-05 17:00
http://www.hotnewdeal.com/2019/04/05/288427_BLUE_enCore_300_Condenser_Performance_Microphone_a/20%Monthly2019-04-05 16:59
http://www.hotnewdeal.com/2019/04/05/288426_Academy_Sports_InStore_Deal__Marcy_Weight_Bench_/20%Monthly2019-04-05 16:58
http://www.hotnewdeal.com/2019/04/05/288425_12pack_of_495oz_Heinz_Chicken_Broth_2019__fre/20%Monthly2019-04-05 16:57
http://www.hotnewdeal.com/2019/04/05/288424_RYOBI_2300_PSI_12_GPM_High_Performance_Electric_/20%Monthly2019-04-05 16:57
http://www.hotnewdeal.com/2019/04/05/288422_Insignia_32_LED_720p_Fire_TV_Edition_100_FS_Best/20%Monthly2019-04-05 16:55
http://www.hotnewdeal.com/2019/04/05/288421_Marshall_Code100H_100watt_Modeling_Guitar_Amplifi/20%Monthly2019-04-05 16:18
http://www.hotnewdeal.com/2019/04/05/288420_Milwaukee_M18_String_Trimmer_and_Pole_Saw_Kit_32/20%Monthly2019-04-05 16:04
http://www.hotnewdeal.com/2019/04/05/288419_Denon_AVRX6500H_112Ch_Receiver_1499_or_AVRX45/20%Monthly2019-04-05 15:54
http://www.hotnewdeal.com/2019/04/05/288418_NONSTOP_Boston_to_Honolulu_Hawaii_or_Vice_Versa_/20%Monthly2019-04-05 15:54
http://www.hotnewdeal.com/2019/04/05/288417_HumbleBundle_Monthly_Assassins_Creed_Origins__m/20%Monthly2019-04-05 15:15
http://www.hotnewdeal.com/2019/04/05/288416_amazon_Kleenex_ultra_soft_facial_tissue_only_599/20%Monthly2019-04-05 15:15
http://www.hotnewdeal.com/2019/04/05/288415_Lowes_Style_Selections_Euro_245in_Gray_Single_/20%Monthly2019-04-05 15:14
http://www.hotnewdeal.com/2019/04/05/288414_Team_16GB_2_x_8GB_DDR4_SDRAM_DDR4_3200_PC4_2560/20%Monthly2019-04-05 15:14
http://www.hotnewdeal.com/2019/04/05/288413_Hellblade_Senuas_Sacrifice_Xbox_One_1999_or_/20%Monthly2019-04-05 15:13
http://www.hotnewdeal.com/2019/04/05/288412_Logitech_MK335_Wireless_Keyboard__Mouse_Black_9/20%Monthly2019-04-05 15:12
http://www.hotnewdeal.com/2019/04/05/288410_Graco_20_Off_Sitewide_Excludes_4Ever_with_Code/20%Monthly2019-04-05 14:39
http://www.hotnewdeal.com/2019/04/05/288409_Allen_Edmonds_Anniversary_Sale_Save_up_to_175_on/20%Monthly2019-04-05 13:48
http://www.hotnewdeal.com/2019/04/05/288408_Reese_Carry_Power_UVenture_48_Round_Rooftop_Cros/20%Monthly2019-04-05 13:47
http://www.hotnewdeal.com/2019/04/05/288407_Samsung_QLED_4K_TVs_55_QN55Q7FNA_899_65_QN65/20%Monthly2019-04-05 13:47
http://www.hotnewdeal.com/2019/04/05/288406_Tcl_65_65r617_4k_uhd_dolby_vision_hdr_roku_smart_/20%Monthly2019-04-05 13:46
http://www.hotnewdeal.com/2019/04/05/288405_16GB_2x_8GSKILL_Ripjaws_V_DDR4_3000_Desktop_RAM/20%Monthly2019-04-05 13:45
http://www.hotnewdeal.com/2019/04/05/288404_Avery_Printable_Business_Cards_Inkjet_Printers_9/20%Monthly2019-04-05 13:45
http://www.hotnewdeal.com/2019/04/05/288403_H2OGO_Space_Ship_Inflatable_Play_Pool_9_at_Walm/20%Monthly2019-04-05 13:44
http://www.hotnewdeal.com/2019/04/05/288402_RYOBI_38_in_75_Ah_Battery_Electric_Rear_Engine_Ri/20%Monthly2019-04-05 13:06
http://www.hotnewdeal.com/2019/04/05/288401_Costco_25_off_250_coupon_Check_your_email_YMMV/20%Monthly2019-04-05 13:05
http://www.hotnewdeal.com/2019/04/05/288400_Honeywell_Air_Filters_Home_Depot_InStore_and_Toda/20%Monthly2019-04-05 13:05
http://www.hotnewdeal.com/2019/04/05/288399_Arlo_Pro_Smart_Home_HD_Wireless_IP_Security_Camera/20%Monthly2019-04-05 13:04
http://www.hotnewdeal.com/2019/04/05/288398_Best_Buy__Apple__MacBook_Air__133_Late_2018/20%Monthly2019-04-05 12:33
http://www.hotnewdeal.com/2019/04/05/288397_Sterilite_18_Gal_Tote_Cool_Water__Walmart_BM_YM/20%Monthly2019-04-05 12:00
http://www.hotnewdeal.com/2019/04/05/288396_raise_6_off/20%Monthly2019-04-05 12:00
http://www.hotnewdeal.com/2019/04/05/288395_DELONGHI_MAGNIFICA_ESPRESSO_MACHINE_ESAM_3300_for/20%Monthly2019-04-05 12:00
http://www.hotnewdeal.com/2019/04/05/288394_Costco_Jackets_Rugged_Elements_Mens_Trek_Jacket_/20%Monthly2019-04-05 11:44
http://www.hotnewdeal.com/2019/04/05/288393_2Pk_TPLink_Kasa_KL130_Smart_WiFi_LED_Dimmable_Li/20%Monthly2019-04-05 11:12
http://www.hotnewdeal.com/2019/04/05/288392_Groupon_Local_5_off_20_with_PayPal_thru_430_YMM/20%Monthly2019-04-05 11:11
http://www.hotnewdeal.com/2019/04/05/288391_Refurbed_Lenovo_ZA3R0001US_8_Smart_Display_with_G/20%Monthly2019-04-05 10:59
http://www.hotnewdeal.com/2019/04/05/288390_Abu_Garcia_Sliver_Max_Low_Profile_Baitcaster_Fishi/20%Monthly2019-04-05 10:43
http://www.hotnewdeal.com/2019/04/05/288389_Spectracide_32Fl_Oz_Concentrate_Weed_and_Grass_Ki/20%Monthly2019-04-05 10:36
http://www.hotnewdeal.com/2019/04/05/288388_Borderlands_1__2_GOTY_editions_1159/20%Monthly2019-04-05 10:23
http://www.hotnewdeal.com/2019/04/05/288387_Netgear_RBK50100NAR_Orbi_Home_Mesh_WiFi_System_A/20%Monthly2019-04-05 10:22
http://www.hotnewdeal.com/2019/04/05/288386_Steam__Return_of_the_Obra_Dinn__1499_25_off/20%Monthly2019-04-05 10:21
http://www.hotnewdeal.com/2019/04/05/288385_Nintendo_Switch_eShop_Graceful_Explosion_Machine_/20%Monthly2019-04-05 10:20
http://www.hotnewdeal.com/2019/04/05/288384_Scotts_Turf_Builder_23lb_Broadcast_Spreader_199/20%Monthly2019-04-05 09:38
http://www.hotnewdeal.com/2019/04/05/288383_NETGEAR__Arlo_Smart_Home_IndoorOutdoor_Wireless_/20%Monthly2019-04-05 09:38
http://www.hotnewdeal.com/2019/04/05/288382_Digital_HD_Films_Good_Burger_Jay_and_Silent_Bob_/20%Monthly2019-04-05 09:37
http://www.hotnewdeal.com/2019/04/05/288381_Samsung_QLED_QN75Q9FN__Gameliquidations_via_Rakut/20%Monthly2019-04-05 09:37
http://www.hotnewdeal.com/2019/04/05/288380_Samsung_QLED_QN65Q9FN__Gameliquidations_via_Rakut/20%Monthly2019-04-05 09:36
http://www.hotnewdeal.com/2019/04/05/288379_AAFES_MilitaryVeterans_Only_OLED65C8PUA__179/20%Monthly2019-04-05 09:35
http://www.hotnewdeal.com/2019/04/05/288378_VUDU_Digital_HDX_Movie_Bundles_50_Off_Sale_The_G/20%Monthly2019-04-05 09:35
http://www.hotnewdeal.com/2019/04/05/288377_Kingsford_Charcoal_Professional_Briquettes_and_Kin/20%Monthly2019-04-05 09:34
http://www.hotnewdeal.com/2019/04/05/288375_Ubisoft_Sale_Assassins_Creed_Bundle_Far_Cry_Bun/20%Monthly2019-04-05 09:33
http://www.hotnewdeal.com/2019/04/05/288374_49_Westinghouse_WD49FB1018_1080p_LED_HDTV_14999/20%Monthly2019-04-05 08:29
http://www.hotnewdeal.com/2019/04/05/288373_Chuck_The_Complete_Series_Digital_HD_TV_Show_1/20%Monthly2019-04-05 07:31
http://www.hotnewdeal.com/2019/04/05/288372_Staples_47__413_20_off_select_gift_cards_Subw/20%Monthly2019-04-05 06:56
http://www.hotnewdeal.com/2019/04/05/288370_64GB_Google_Pixel_2_XL_Smartphone_Verizon_Black/20%Monthly2019-04-05 01:47
http://www.hotnewdeal.com/2019/04/05/288369_Ridgid_R0230_18Volt_Cordless_Brushless_1_Gal_Port/20%Monthly2019-04-05 01:34
http://www.hotnewdeal.com/2019/04/05/288368_Sonos_Bean_Soundbar_Black_Only_at_the_NEX_Navye/20%Monthly2019-04-05 01:33
http://www.hotnewdeal.com/2019/04/05/288367_Tree_Hut_7_oz_Intense_Hydrating_Shea_Body_Butter_T/20%Monthly2019-04-05 01:15
http://www.hotnewdeal.com/2019/04/05/288366_Roland_VCompact_TD11K_Electronic_Drum_Set_499_/20%Monthly2019-04-05 01:14
http://www.hotnewdeal.com/2019/04/05/288365_Home_Depot__Scotts_EarthGro_Mulch_Sale_Black_Br/20%Monthly2019-04-05 00:21
http://www.hotnewdeal.com/2019/04/05/288364_OralB_Smart_Series_Toothbrush_Silver_and_Rose_Go/20%Monthly2019-04-05 00:14
http://www.hotnewdeal.com/2019/04/04/288363_Dell_Inspiron_15_7567_58999/20%Monthly2019-04-04 23:45
http://www.hotnewdeal.com/2019/04/04/288362_Horizon_Zero_Dawn_Complete_Edition_15_at_eBay/20%Monthly2019-04-04 23:37
http://www.hotnewdeal.com/2019/04/04/288361_Nvidia_Jetson_Nano_mini_single_board_computer_SBC_/20%Monthly2019-04-04 22:59
http://www.hotnewdeal.com/2019/04/04/288360_Klipsch_pair_R610F__Pair_R41M__R52C__R10/20%Monthly2019-04-04 22:04
http://www.hotnewdeal.com/2019/04/04/288359_PUR_11_Cup_Ultimate_Pitcher_with_LED__Lead_Reduct/20%Monthly2019-04-04 21:47
http://www.hotnewdeal.com/2019/04/04/288358_Sabrent_USB_Bluetooth_40_Micro_Adapter_for_PC_3/20%Monthly2019-04-04 21:46
http://www.hotnewdeal.com/2019/04/04/288357_HR_Block_Premium_25_Deluxe_15/20%Monthly2019-04-04 21:31
http://www.hotnewdeal.com/2019/04/04/288356_Logitech_Harmony_Elite_Remote_Control_with_Hub_16/20%Monthly2019-04-04 21:16
http://www.hotnewdeal.com/2019/04/04/288355_Earn_a_700_rebate_on_the_purchase_of_two_2_Bud/20%Monthly2019-04-04 21:08
http://www.hotnewdeal.com/2019/04/04/288354_TRICO_Ultra_Wiper_Blade_YMMV_7/20%Monthly2019-04-04 21:08
http://www.hotnewdeal.com/2019/04/04/288353_GOOLOO_Car_Jump_Starter__USB_Power_Bank_18000mAh/20%Monthly2019-04-04 21:02
http://www.hotnewdeal.com/2019/04/04/288352_Yamaha_AVENTAGE_RXA2080_92CH_4K_Ultra_HD_AV_Rec/20%Monthly2019-04-04 21:02
http://www.hotnewdeal.com/2019/04/04/288350_Walgreens__3_days_only_25_off_Sitewide_44__4/20%Monthly2019-04-04 19:47
http://www.hotnewdeal.com/2019/04/04/288349_Nvidia_shield_pro_stand/20%Monthly2019-04-04 19:39
http://www.hotnewdeal.com/2019/04/04/288348_Sun_Joe_SPXPCA10_10Inch_Surface_Deck_and_Patio_/20%Monthly2019-04-04 19:32
http://www.hotnewdeal.com/2019/04/04/288347_Harbor_Breeze_Armitage_52_Ceiling_Fan_at_Lowes_/20%Monthly2019-04-04 19:24
http://www.hotnewdeal.com/2019/04/04/288346_Polaroid_Digital_Photo_Frame_7inch_Screen__Black/20%Monthly2019-04-04 19:15
http://www.hotnewdeal.com/2019/04/04/288345_Pepboys_10_of_20_Coupon_InStore_only_Exp_4719/20%Monthly2019-04-04 18:56
http://www.hotnewdeal.com/2019/04/04/288344_Gris_on_Steam_1274/20%Monthly2019-04-04 18:56
http://www.hotnewdeal.com/2019/04/04/288343_3Pack_100oz_Tide_Liquid_Laundry_Detergent__10_T/20%Monthly2019-04-04 18:43
http://www.hotnewdeal.com/2019/04/04/288342_HP_Envy_x360_2in1_Laptop_Intel_Core_i58250U_1/20%Monthly2019-04-04 18:37
http://www.hotnewdeal.com/2019/04/04/288341_OLEBR_3_in_1_Charging_Stand_for_iWatch_AirPods_a/20%Monthly2019-04-04 18:36
http://www.hotnewdeal.com/2019/04/04/288340_Car_Charger_Mercase_30W_Metal_Dual_Ports_USB_Fast/20%Monthly2019-04-04 18:20
http://www.hotnewdeal.com/2019/04/04/288339_Fender_LE_Paramount_PM4CE_Auditorium_Guitar_w_Ha/20%Monthly2019-04-04 18:13
http://www.hotnewdeal.com/2019/04/04/288337_3_Piece_Duvet_Cover_Set_King_Size_1862/20%Monthly2019-04-04 18:13
http://www.hotnewdeal.com/2019/04/04/288335_Costway_3_pcs_Luggage_Travel_Set_Bag_with_Lock_28/20%Monthly2019-04-04 17:47
http://www.hotnewdeal.com/2019/04/04/288334_TARGET_Disneyland_5_day_park_hopper_tickets_289_p/20%Monthly2019-04-04 17:31
http://www.hotnewdeal.com/2019/04/04/288333_Under_Desk_Headphone__Headset_Hanger_with_Cable_O/20%Monthly2019-04-04 17:31
http://www.hotnewdeal.com/2019/04/04/288332_82Count_Finish_Powerball_Quantum_Dishwasher_Deter/20%Monthly2019-04-04 17:15
http://www.hotnewdeal.com/2019/04/04/288331_EVGA_120mm__140mm_PWM_fans_FX12__FX13_599_each/20%Monthly2019-04-04 17:02
http://www.hotnewdeal.com/2019/04/04/288330_Gigabyte_b450_aorus_m_7499/20%Monthly2019-04-04 17:02
http://www.hotnewdeal.com/2019/04/04/288329_NETGEAR_Orbi_Whole_Home_Mesh_AC2200_WiFi_System_wi/20%Monthly2019-04-04 16:54
http://www.hotnewdeal.com/2019/04/04/288328_Shazam_3_Tickets_for_20_Works_for_IMAX_DOLBY_3/20%Monthly2019-04-04 16:48
http://www.hotnewdeal.com/2019/04/04/288327_52_off_Hamilton_Beach_25500_7_Egg_Cooker_with_Bui/20%Monthly2019-04-04 16:41
http://www.hotnewdeal.com/2019/04/04/288326_Vizio_65_M_Seires_4K_2160p_Ultra_HD_HDR_Smart_L/20%Monthly2019-04-04 16:41
http://www.hotnewdeal.com/2019/04/04/288325_Great_Northern_Popcorn_Machine_8_Ounce_Model_6092_/20%Monthly2019-04-04 16:26
http://www.hotnewdeal.com/2019/04/04/288324_Kingsford_Match_Light_2Pack_116lb_Charcoal_Briq/20%Monthly2019-04-04 16:14
http://www.hotnewdeal.com/2019/04/04/288323_DEWALT_20Volt_MAX_Bluetooth_Speaker_With_Bonus_20/20%Monthly2019-04-04 15:48
http://www.hotnewdeal.com/2019/04/04/288320_Polk_Audio_R150_Bookshelf_Speakers__39pair_plus/20%Monthly2019-04-04 15:34
http://www.hotnewdeal.com/2019/04/04/288319_Tasty_Bite_Indian_Entree_Madras_Lentils_10_Ounce_/20%Monthly2019-04-04 15:34
http://www.hotnewdeal.com/2019/04/04/288317_Dungeon_Rushers_Nintendo_Switch_599/20%Monthly2019-04-04 15:33
http://www.hotnewdeal.com/2019/04/04/288316_Tomorrow_Sleep_50_off_everything_spring_sale_494/20%Monthly2019-04-04 15:33
http://www.hotnewdeal.com/2019/04/04/288315_Seasonic_S12III_650_80_650W_Bronze_Power_Supply_/20%Monthly2019-04-04 15:24
http://www.hotnewdeal.com/2019/04/04/288314_Dewalt_ToughSystem_DS400_2440__Home_Depot/20%Monthly2019-04-04 15:13
http://www.hotnewdeal.com/2019/04/04/288313_CORSAIR_Void_PRO_RGB_Wireless_Gaming_Headset__Dol/20%Monthly2019-04-04 15:06
http://www.hotnewdeal.com/2019/04/04/288312_Sun_Joe_SPX3200_176_GPM_145Amp_2030_PSI_Max_G/20%Monthly2019-04-04 14:50
http://www.hotnewdeal.com/2019/04/04/288311_LG_OLED_E8_55_OLED55E8PUA__Sold_by_Newegg__13/20%Monthly2019-04-04 14:50
http://www.hotnewdeal.com/2019/04/04/288310_Toyota_TRD_Accessories_40_off_wfree_ship/20%Monthly2019-04-04 14:50
http://www.hotnewdeal.com/2019/04/04/288309_iBuyPower_Gaming_RDY_CYIRG201_Aerocool_Case_Giga/20%Monthly2019-04-04 14:25
http://www.hotnewdeal.com/2019/04/04/288308_8_ft_Pressure_Treated_Landscape_Timber_250__Fre/20%Monthly2019-04-04 14:25
http://www.hotnewdeal.com/2019/04/04/288307_Samsung_UN65NU7300_Cuved_4K_TV_60Hz_599_Aafes_Mi/20%Monthly2019-04-04 14:25
http://www.hotnewdeal.com/2019/04/04/288306_425oz_Yardley_London_Bath_Bars_English_Lavender/20%Monthly2019-04-04 14:24
http://www.hotnewdeal.com/2019/04/04/288305_Gladiator_6_ft_Hardwood_Top_Adjustable_Height_Wor/20%Monthly2019-04-04 14:24
http://www.hotnewdeal.com/2019/04/04/288304_Dell_GSeries_17_7790_Gaming_Laptop_173_Intel_i7/20%Monthly2019-04-04 14:16
http://www.hotnewdeal.com/2019/04/04/288303_Elgato_Stream_Deck_15_11999_Customizable_LCD_Key/20%Monthly2019-04-04 13:49
http://www.hotnewdeal.com/2019/04/04/288302_338oz_Paul_Mitchell_Tea_Tree_Shampoo__Conditione/20%Monthly2019-04-04 13:49
http://www.hotnewdeal.com/2019/04/04/288301_Lenovo_IdeaPad_Flex_14_2in1_Laptop_Ryzen_3_2200/20%Monthly2019-04-04 13:31
http://www.hotnewdeal.com/2019/04/04/288300_Onkyo_TXRZ830_92_Channel_4k_AV_Receiver_50915_/20%Monthly2019-04-04 13:31
http://www.hotnewdeal.com/2019/04/04/288299_40Count_FritoLay_Snack_Packs_Various__Clue__/20%Monthly2019-04-04 13:31
http://www.hotnewdeal.com/2019/04/04/288298_Amazfit_verge_149/20%Monthly2019-04-04 13:31
http://www.hotnewdeal.com/2019/04/04/288297_Hitachi_DV16VSS_58quot_54Amp_Hammer_Drill_Gr/20%Monthly2019-04-04 13:18
http://www.hotnewdeal.com/2019/04/04/288296_TCL_65_Class_4K_6_series_Roku_Smart_LED_TV__65R/20%Monthly2019-04-04 13:18
http://www.hotnewdeal.com/2019/04/04/288295_40Piece_Gourmet_Expressions_Dinnerware_Sets_Serv/20%Monthly2019-04-04 13:17
http://www.hotnewdeal.com/2019/04/04/288294_2Pack_345oz_Planters_Honey_Roasted_Peanuts_8_w/20%Monthly2019-04-04 13:17
http://www.hotnewdeal.com/2019/04/04/288293_24Pack_of_84Oz_Red_Bull_Energy_Drink_2395_w_/20%Monthly2019-04-04 13:17
http://www.hotnewdeal.com/2019/04/04/288292_32GB_GSkill_2x_16_Ripjaws_V_DDR4_3000_Desktop_R/20%Monthly2019-04-04 13:17
http://www.hotnewdeal.com/2019/04/04/288291_5Tool_Ridgid_18Volt_Gen5X_Cordless_Liion_Combo_/20%Monthly2019-04-04 13:17
http://www.hotnewdeal.com/2019/04/04/288290_Toshiba_5TB_S300_internal_bare_hard_drive_9999_F/20%Monthly2019-04-04 13:17
http://www.hotnewdeal.com/2019/04/04/288289_24_Acer_KG241P_144Hz_1080p_1ms_TN_panel_Gaming_LE/20%Monthly2019-04-04 13:17
http://www.hotnewdeal.com/2019/04/04/288288_RYOBI_ONE_18Volt_Cordless_String_TrimmerEdger_a/20%Monthly2019-04-04 13:08
http://www.hotnewdeal.com/2019/04/04/288286_DELL_GSERIES_15_7590_RTX_20608750h1x16_ram128S/20%Monthly2019-04-04 13:05
http://www.hotnewdeal.com/2019/04/04/288284_Playstation_PS_Plus_12_month__4255__Email_Deli/20%Monthly2019-04-04 13:03
http://www.hotnewdeal.com/2019/04/04/288283_Bio_Bidet_A8_Serenity_Smart_Bidet_Toilet_Seat_29/20%Monthly2019-04-04 12:33
http://www.hotnewdeal.com/2019/04/04/288282_Hitachi_M12VC_225_HP_Fixed_Base_Router_99_NT50A/20%Monthly2019-04-04 12:32
http://www.hotnewdeal.com/2019/04/04/288281_3Pack_Glade_Jar_Candle_Air_Freshener_34_Ounce_B/20%Monthly2019-04-04 12:31
http://www.hotnewdeal.com/2019/04/04/288279_Target__40_Off_ONE_Select_Home_Item_TODAY_ONL/20%Monthly2019-04-04 12:30
http://www.hotnewdeal.com/2019/04/04/288278_Fender_PM2E_Parlor_Limited_AllMahogany_Acoustic/20%Monthly2019-04-04 12:29
http://www.hotnewdeal.com/2019/04/04/288277_TCL_65ampampquot_65S423_45124_With_RedCard_a/20%Monthly2019-04-04 12:28
http://www.hotnewdeal.com/2019/04/04/288276_refurb_Wacom_Tablets_Drawing_Tablet_w_BT_129/20%Monthly2019-04-04 12:27
http://www.hotnewdeal.com/2019/04/04/288274_Husky_52_in_W_x_187_in_D_1Drawer_Mobile_Workbe/20%Monthly2019-04-04 11:34
http://www.hotnewdeal.com/2019/04/04/288273_Milwaukee_M12_12V_Liion_Cordless_38_Ratchet_Kit/20%Monthly2019-04-04 11:13
http://www.hotnewdeal.com/2019/04/04/288272_Werner_6_Fiberglass_Step_Ladder_5996_at_Home_De/20%Monthly2019-04-04 11:13
http://www.hotnewdeal.com/2019/04/04/288271_HP_Pavilion_590p0053w_Intel_i58400_8GB_RAM_1_/20%Monthly2019-04-04 11:07
http://www.hotnewdeal.com/2019/04/04/288270_Today_only_442019_40_off_TRD_Toyota_parts_at_se/20%Monthly2019-04-04 11:06
http://www.hotnewdeal.com/2019/04/04/288269_512GB_Intel_660p_Series_M2_2280_PCIe_30x4_3D2_QL/20%Monthly2019-04-04 10:35
http://www.hotnewdeal.com/2019/04/04/288268_3Piece_Hitachi_KNT50AB_Finish_Combo_Kit_GradeA_/20%Monthly2019-04-04 10:21
http://www.hotnewdeal.com/2019/04/04/288267_Target_REDcard_Members_Borderlands_3_PreOrder_P/20%Monthly2019-04-04 10:21
http://www.hotnewdeal.com/2019/04/04/288266_Mens_Kenneth_Cole_ReactionPebbled_Messenger_Bag_a/20%Monthly2019-04-04 10:21
http://www.hotnewdeal.com/2019/04/04/288265_DJI_Mavic_Pro_Special_Combo_Alpine_White_779_/20%Monthly2019-04-04 10:14
http://www.hotnewdeal.com/2019/04/04/288264_RYOBI_ONE_18Volt_LithiumIon_Cordless_2_Gal_Che/20%Monthly2019-04-04 10:06
http://www.hotnewdeal.com/2019/04/04/288263_Kindle_Ebook_Paddle_Your_Own_Canoe_One_Mans_Fun/20%Monthly2019-04-04 10:06
http://www.hotnewdeal.com/2019/04/04/288262_National_Burrito_Day_The_Best_Deals_Coupons_and_/20%Monthly2019-04-04 09:47
http://www.hotnewdeal.com/2019/04/04/288261_295_Wilson_NCAA_Official_Game_Basketball_40__f/20%Monthly2019-04-04 09:30
http://www.hotnewdeal.com/2019/04/04/288260_LG_27BK85UW_3840x2160_4K_UHD_FreeSync_27_IPS_Mon/20%Monthly2019-04-04 09:13
http://www.hotnewdeal.com/2019/04/04/288258_Slime_2080A_Rubber_Tire_Valve_Stems_114_TR_41/20%Monthly2019-04-04 09:00
http://www.hotnewdeal.com/2019/04/04/288257_Dell_Small_Business_New_Vostro_15_5000_669_plus_/20%Monthly2019-04-04 08:33
http://www.hotnewdeal.com/2019/04/04/288256_Bio_Bidet_FLOW_Motion_Sensor_Kitchen_Faucet_Brushe/20%Monthly2019-04-04 08:33
http://www.hotnewdeal.com/2019/04/04/288255_PUMA_40_off_Select_Items_Mens_Astro_Cup_Suede_S/20%Monthly2019-04-04 07:48
http://www.hotnewdeal.com/2019/04/04/288254_Holland_4x8_Concrete_Paver_Bricks_various_color/20%Monthly2019-04-04 07:47
http://www.hotnewdeal.com/2019/04/04/288253_Petmate_Cat_Litter_Scoop_w_Microban_Large_89c_w/20%Monthly2019-04-04 07:47
http://www.hotnewdeal.com/2019/04/04/288252_Suncast_150_ft_Hideaway_Hose_Storage_Box_25__Ho/20%Monthly2019-04-04 07:30
http://www.hotnewdeal.com/2019/04/04/288251_Target_REDcard_Exclusive_Offer_Extra_5_Off_Onlin/20%Monthly2019-04-04 07:15
http://www.hotnewdeal.com/2019/04/04/288250_PowerColor_RED_DEVIL_Radeon_RX_580_8GBD53DHOC_8G/20%Monthly2019-04-04 07:15
http://www.hotnewdeal.com/2019/04/04/288248_Tide_Simply_Clean_and_Fresh_Refreshing_Breeze_4/20%Monthly2019-04-04 06:37
http://www.hotnewdeal.com/2019/04/04/288247_Suncast_124Gallon_Deck_Box_99__Lowes_bm/20%Monthly2019-04-04 06:37
http://www.hotnewdeal.com/2019/04/04/288246_Lenovo_Classic_Topload_Bag_by_NAVA_Blue_14_AC__/20%Monthly2019-04-04 05:27
http://www.hotnewdeal.com/2019/04/04/288245_1TB_Crucial_P1_3D_NAND_QLC_NVMe_PCIe_M2_SSD__C/20%Monthly2019-04-04 04:38
http://www.hotnewdeal.com/2019/04/04/288244_Digital_Refrigerator_Thermometer_635_at_Amazon/20%Monthly2019-04-04 04:14
http://www.hotnewdeal.com/2019/04/04/288243_Saw_8Film_Collection_Unrated_Digital_HD_1499/20%Monthly2019-04-04 01:45
http://www.hotnewdeal.com/2019/04/04/288242_Lodge_35_Inch_Cast_Iron_Mini_Skillet_with_prices_/20%Monthly2019-04-04 01:31
http://www.hotnewdeal.com/2019/04/04/288241_78CountCascade_Complete_ActionPacs_Dishwasher_Det/20%Monthly2019-04-04 01:31
http://www.hotnewdeal.com/2019/04/04/288240_Anker_Powercore_Elite_20000_Power_Bank_with_3Port/20%Monthly2019-04-04 01:30
http://www.hotnewdeal.com/2019/04/04/288239_Audible_Members_current_sub_preorders_Riley_M/20%Monthly2019-04-04 01:24
http://www.hotnewdeal.com/2019/04/04/288238_CORSAIR_Vengeance_LPX_32GB_2x_16_DDR4_3000_Deskt/20%Monthly2019-04-04 01:24
http://www.hotnewdeal.com/2019/04/04/288237_NVIDIA_SHIELD_TV_Pro_Stand_999_Shipped_via_Amazo/20%Monthly2019-04-04 00:24
http://www.hotnewdeal.com/2019/04/04/288236_Save_50_on_Anker_PowerWave_75W10W_Fast_Wireless/20%Monthly2019-04-04 00:06
http://www.hotnewdeal.com/2019/04/03/288235_TD_Cash_Credit_Card_Offers_200_cash_back_after_s/20%Monthly2019-04-03 23:48
http://www.hotnewdeal.com/2019/04/03/288234_PowerSpec_Gaming_Desktop__8700K_1070Ti_16GB_DDR/20%Monthly2019-04-03 23:32
http://www.hotnewdeal.com/2019/04/03/288233_7_Piece_Studio_Silversmiths_Diamond_Whiskey_Set_at/20%Monthly2019-04-03 23:32
http://www.hotnewdeal.com/2019/04/03/288232_Cuisinart_French_Classic_3_Piece_NonStick_Cookwar/20%Monthly2019-04-03 23:32
http://www.hotnewdeal.com/2019/04/03/288231_DeWalt_Impact_Ready_Multi_Size_in_x_38_in_L_Scr/20%Monthly2019-04-03 23:23
http://www.hotnewdeal.com/2019/04/03/288229_HP_15t_Laptop_i78550U_8GB_DDR4_128GB_SSD_156/20%Monthly2019-04-03 22:22
http://www.hotnewdeal.com/2019/04/03/288228_3Months_Pandora_Premium_Subscription_Free_Via_Gro/20%Monthly2019-04-03 22:11
http://www.hotnewdeal.com/2019/04/03/288227_DAP_101oz_Alex_Flex_White_Paintable_Latex_Caulk_/20%Monthly2019-04-03 22:10
http://www.hotnewdeal.com/2019/04/03/288225_Stephen_King_movies_from_199_vuducom/20%Monthly2019-04-03 21:42
http://www.hotnewdeal.com/2019/04/03/288224_2Pack_Tovolo_Spatulart_Smiley_Face_Heat_Resistant/20%Monthly2019-04-03 21:27
http://www.hotnewdeal.com/2019/04/03/288223_ZOBO_15000_BTU_Propane_Tank_Top_Heater_1124__H/20%Monthly2019-04-03 21:27
http://www.hotnewdeal.com/2019/04/03/288222_Canon_imageCLASS_MF733Cdw_AllinOne_Color_Laser_P/20%Monthly2019-04-03 21:27
http://www.hotnewdeal.com/2019/04/03/288221_480GB_SanDisk_SSD_Plus_SATA_III_Internal_Solid_Sta/20%Monthly2019-04-03 21:27
http://www.hotnewdeal.com/2019/04/03/288220_starts_44_Hugger_52_LED_Indoor_Brushed_Nickel_/20%Monthly2019-04-03 21:10
http://www.hotnewdeal.com/2019/04/03/288219_Tenergy_Lithium_CR123A_Nonrechargeable_Batteries_/20%Monthly2019-04-03 20:58
http://www.hotnewdeal.com/2019/04/03/288218_ECOVACS_DEEBOT_OZMO_937_2in1_Smart_Robotic_Vacuu/20%Monthly2019-04-03 20:58
http://www.hotnewdeal.com/2019/04/03/288217_starts_44_Ryobi_ONE_18Volt_Liion_Ultimate_6/20%Monthly2019-04-03 20:37
http://www.hotnewdeal.com/2019/04/03/288216_Dyson_Ball_Multi_Floor_Upright_Vacuum_NewEgg_190_/20%Monthly2019-04-03 20:28
http://www.hotnewdeal.com/2019/04/03/288215_Starts_44_12Piece_Bosch_Daredevil_High_Carbon_/20%Monthly2019-04-03 20:22
http://www.hotnewdeal.com/2019/04/03/288214_Starbucks_Stores_3_Grande_Handcrafted_Espresso_Ha/20%Monthly2019-04-03 20:21
http://www.hotnewdeal.com/2019/04/03/288213_15_75_off_Vornado_VH200_1500Watt_Electric_Spa/20%Monthly2019-04-03 20:11
http://www.hotnewdeal.com/2019/04/03/288211_3Pack_169oz_Cetaphil_Ultra_Gentle_Body_Wash_Ref/20%Monthly2019-04-03 20:00
http://www.hotnewdeal.com/2019/04/03/288210_Ryobi_18Volt_ONE_15K_BTU_Hybrid_Forced_Air_Propa/20%Monthly2019-04-03 19:42
http://www.hotnewdeal.com/2019/04/03/288208_50_off_Benefit_Precisely_My_Brow_Pencil_Ultra_Fi/20%Monthly2019-04-03 19:12
http://www.hotnewdeal.com/2019/04/03/288207_2_Chromecast_Ultras_on_sale_for_90_total/20%Monthly2019-04-03 18:48
http://www.hotnewdeal.com/2019/04/03/288206_Hopkins_05064_FloTool_Large_Funnel_FS_with_Prime_/20%Monthly2019-04-03 18:29
http://www.hotnewdeal.com/2019/04/03/288205_LEGO_Technic_Chevrolet_Corvette_ZR1_42093__Amazon/20%Monthly2019-04-03 18:29
http://www.hotnewdeal.com/2019/04/03/288204_Amcrest_Outdoor_PTZ_POE_Camera_PanTilt_12x_Opti/20%Monthly2019-04-03 18:21
http://www.hotnewdeal.com/2019/04/03/288203_COMMANDER_27Gallon_Tote_698_Price_April_6__A/20%Monthly2019-04-03 18:20
http://www.hotnewdeal.com/2019/04/03/288202_OnStage_SMS6000P_NearField_Monitor_Stand_Pair_/20%Monthly2019-04-03 18:09
http://www.hotnewdeal.com/2019/04/03/288201_70Count_Cascade_Platinum_Plus_Dishwasher_Detergen/20%Monthly2019-04-03 17:58
http://www.hotnewdeal.com/2019/04/03/288200_Furi_Nintendo_Switch_Digital_Download_899/20%Monthly2019-04-03 17:58
http://www.hotnewdeal.com/2019/04/03/288199_Air_China_Super_TwoDay_Only_Flash_Sale__RT_Fares/20%Monthly2019-04-03 17:41
http://www.hotnewdeal.com/2019/04/03/288198_Costco__Instore__Vital_Proteins_Collagen_Peptide/20%Monthly2019-04-03 17:32
http://www.hotnewdeal.com/2019/04/03/288197_Samsung_DV5300_Electric_Dryer_with_Steam_2018_fo/20%Monthly2019-04-03 17:32
http://www.hotnewdeal.com/2019/04/03/288196_Apple_Airpods_2_w_Free_Engraving__179__Militar/20%Monthly2019-04-03 17:32
http://www.hotnewdeal.com/2019/04/03/288195_Calico_Critters_Cozy_Cottage_Starter_Home_2126_/20%Monthly2019-04-03 17:32
http://www.hotnewdeal.com/2019/04/03/288194_RYOBI_15_Amp_10_in_Sliding_Miter_Saw_with_Laser_/20%Monthly2019-04-03 17:16
http://www.hotnewdeal.com/2019/04/03/288193_TPLink_AC1750_Archer_A7_Dual_Band_Gigabit_Wirel/20%Monthly2019-04-03 17:16
http://www.hotnewdeal.com/2019/04/03/288192_Acer_ED242QR_wi_24_Curved_FreeSync_1080P_75Hz_Gam/20%Monthly2019-04-03 17:09
http://www.hotnewdeal.com/2019/04/03/288191_Polk_Audio_Signature_Series_S35_Center_Channel_Spe/20%Monthly2019-04-03 16:59
http://www.hotnewdeal.com/2019/04/03/288190_LaView_4Port_60W__8_Port_120W_PoE_Switch_for_IP_/20%Monthly2019-04-03 16:59
http://www.hotnewdeal.com/2019/04/03/288189_PUMA_Girls_Number_1_Logo_Fleece_Hoodie_897/20%Monthly2019-04-03 16:33
http://www.hotnewdeal.com/2019/04/03/288188_Bluetooth_Headphones_with_IPX7_Waterproof_8_Hours_/20%Monthly2019-04-03 16:33
http://www.hotnewdeal.com/2019/04/03/288187_Samsung_58_UN58NU710DFXZA_4k_LCD_TV_at_Costco__/20%Monthly2019-04-03 16:32
http://www.hotnewdeal.com/2019/04/03/288186_Anker_Bolder_LC40_400_Lumens_Rechargeable_Flashlig/20%Monthly2019-04-03 16:08
http://www.hotnewdeal.com/2019/04/03/288185_Navy_Exchange_MilitaryVeterans_Only_7_Off_Site/20%Monthly2019-04-03 15:58
http://www.hotnewdeal.com/2019/04/03/288184_Coleman_Saluspa_59_x_22_Tahiti_Airjet_Hot_Tub_/20%Monthly2019-04-03 15:47
http://www.hotnewdeal.com/2019/04/03/288183_Garden_Treasures_Glass_Hummingbird_Feeder_at_Lowe/20%Monthly2019-04-03 15:32
http://www.hotnewdeal.com/2019/04/03/288182_OralB_Electric_toothbrushes_PRO_5000_6000_7000_/20%Monthly2019-04-03 15:32
http://www.hotnewdeal.com/2019/04/03/288181_Acer_Swift_3_SF31541GR6MP_Laptop_156_FHD_IPS/20%Monthly2019-04-03 15:17
http://www.hotnewdeal.com/2019/04/03/288180_Dell_Outlet_Inspiron_11_3000_3180_153/20%Monthly2019-04-03 15:17
http://www.hotnewdeal.com/2019/04/03/288179_Osprey_TRANSPORTER_130_Duffel_Bag__factory_2nd_7/20%Monthly2019-04-03 15:10
http://www.hotnewdeal.com/2019/04/03/288178_GearWrench_3756D_6Inch_Digital_Caliper_with_Large/20%Monthly2019-04-03 15:05
http://www.hotnewdeal.com/2019/04/03/288177_AR_Blue_Clean_1900_PSI_Electric_Pressure_Washer_/20%Monthly2019-04-03 15:05
http://www.hotnewdeal.com/2019/04/03/288176_RayBan_Aviator_Classic_GoldGreen_Mens_Sunglasse/20%Monthly2019-04-03 14:56
http://www.hotnewdeal.com/2019/04/03/288175_30Pack_Nabisco_Sweet_Treats_Variety_Pack_Cookies_/20%Monthly2019-04-03 14:49
http://www.hotnewdeal.com/2019/04/03/288174_3ft_x_50ft_StaGreen_Basic_Landscape_Fabric_at_L/20%Monthly2019-04-03 14:48
http://www.hotnewdeal.com/2019/04/03/288173_Azul_Board_Game_2285__Free_Shipping/20%Monthly2019-04-03 14:34
http://www.hotnewdeal.com/2019/04/03/288172_CharBroil_Performance_Black_And_Stainless_5Burne/20%Monthly2019-04-03 14:33
http://www.hotnewdeal.com/2019/04/03/288171_Bang__Olufsen_Beoplay_H9i_ANC_Wireless_Headphones/20%Monthly2019-04-03 14:33
http://www.hotnewdeal.com/2019/04/03/288170_Kasa_Smart_WiFi_Light_Bulb_Dimmable_by_TPLink_1/20%Monthly2019-04-03 14:33
http://www.hotnewdeal.com/2019/04/03/288169_Dragon_Ball_Fighters_Z__Nintendo_Switch_2999/20%Monthly2019-04-03 14:05
http://www.hotnewdeal.com/2019/04/03/288168_Gviewin_Cases_for_iphone_78_iphone_78__iphone/20%Monthly2019-04-03 13:57
http://www.hotnewdeal.com/2019/04/03/288167_Firman_W03081_33003000_Watt_Recoil_Start_Inverter/20%Monthly2019-04-03 13:56
http://www.hotnewdeal.com/2019/04/03/288166_Alpine_Swiss_Mens_Dress_ShoesBoots_Starting_at_/20%Monthly2019-04-03 13:46
http://www.hotnewdeal.com/2019/04/03/288165_Ryobi_P750_Transfer_Pump_Home_Depot_Clearance_25/20%Monthly2019-04-03 13:46
http://www.hotnewdeal.com/2019/04/03/288164_Pelican_iM2200_Storm_Case_with_Foam_Black_DealZo/20%Monthly2019-04-03 13:24
http://www.hotnewdeal.com/2019/04/03/288163_ASUS_GSYNC_PG348Q_34_Gaming_Monitor_Curved_Ultra/20%Monthly2019-04-03 13:14
http://www.hotnewdeal.com/2019/04/03/288162_2Pack_TPLink_Deco_M5_Whole_Home_Mesh_WiFi_System/20%Monthly2019-04-03 13:07
http://www.hotnewdeal.com/2019/04/03/288161_4Pack_of_50Piece_Mentos_Gum_829_or_less_w_SS/20%Monthly2019-04-03 12:56
http://www.hotnewdeal.com/2019/04/03/288160_Monoprice_Obsidian_USB_45W_PD_Wall_Charger__2x_3/20%Monthly2019-04-03 12:56
http://www.hotnewdeal.com/2019/04/03/288159_Vansky_Ear_Nose_Trimmer_Facial_Hair_Clipper_Remova/20%Monthly2019-04-03 12:56
http://www.hotnewdeal.com/2019/04/03/288158_Charlotte_to_Seattle_or_Vice_Versa_203_RT_Airfare/20%Monthly2019-04-03 12:41
http://www.hotnewdeal.com/2019/04/03/288156_Samsung_Galaxy_S9_SMG965F_256GB_Smartphone_for_/20%Monthly2019-04-03 12:40
http://www.hotnewdeal.com/2019/04/03/288155_Nursing_Cover__Breastfeeding_Cover_Carseat_Canopy/20%Monthly2019-04-03 12:39
http://www.hotnewdeal.com/2019/04/03/288154_Cosco_Shifter_300Pound_Capacity_MultiPosition_He/20%Monthly2019-04-03 12:39
http://www.hotnewdeal.com/2019/04/03/288153_WD_Blue_3D_NAND_1TB_Internal_25_SSD_114_AC_New/20%Monthly2019-04-03 12:39
http://www.hotnewdeal.com/2019/04/03/288152_Borderlands_The_Handsome_Collection_PC_Digital_D/20%Monthly2019-04-03 12:25
http://www.hotnewdeal.com/2019/04/03/288150_Electric_Razor_Shaver_for_Men_3D_Rechargeable_Bear/20%Monthly2019-04-03 12:05
http://www.hotnewdeal.com/2019/04/03/288149_Divinity_Original_Sin_II_Definitive_Edition_PS4/20%Monthly2019-04-03 12:05
http://www.hotnewdeal.com/2019/04/03/288148_Carnival_Cruise_200_eGift_Card_185_AC_Newegg/20%Monthly2019-04-03 11:49
http://www.hotnewdeal.com/2019/04/03/288147_UNSLICK_DEAL__Paypal_Will_No_Longer_Refund_Proces/20%Monthly2019-04-03 11:31
http://www.hotnewdeal.com/2019/04/03/288146_Spider_Camera_Holster_SpiderPro_Single_Camera_Syst/20%Monthly2019-04-03 11:24
http://www.hotnewdeal.com/2019/04/03/288145_Lowes__Scotts_Nature_Scapes_premium_mulch__2_pe/20%Monthly2019-04-03 11:15
http://www.hotnewdeal.com/2019/04/03/288144_Downtown_Minneapolis_Lyft__Captain_Morgan_20_C/20%Monthly2019-04-03 11:14
http://www.hotnewdeal.com/2019/04/03/288143_Digital_4K_UHD_Movies_Die_Hard_Collection_1999_/20%Monthly2019-04-03 11:08
http://www.hotnewdeal.com/2019/04/03/288141_Harry_Potter_Hogwarts_Potion_Bottle_Light_Up_Key_C/20%Monthly2019-04-03 11:01
http://www.hotnewdeal.com/2019/04/03/288140_TMobile_Customers_0409_4_movie_ticket_to_Hel/20%Monthly2019-04-03 10:47
http://www.hotnewdeal.com/2019/04/03/288139_Lowes_selected_grass_seed_inc_EZ_seed_50_off_/20%Monthly2019-04-03 10:35
http://www.hotnewdeal.com/2019/04/03/288138_TMobile_WiFi_CellSpot_AC1900_Gigabit_Router_Pre/20%Monthly2019-04-03 10:35
http://www.hotnewdeal.com/2019/04/03/288137_MiracleGro_All_Purpose_Garden_Soil_075_cu_ft/20%Monthly2019-04-03 10:34
http://www.hotnewdeal.com/2019/04/03/288136_Kingston_A400_SSD_240GB_SATA_3_25inch_Solid_Stat/20%Monthly2019-04-03 10:34
http://www.hotnewdeal.com/2019/04/03/288135_Legendary_Locations_Season_2_Digital_HD_or_SD_f/20%Monthly2019-04-03 10:34
http://www.hotnewdeal.com/2019/04/03/288134_CORSAIR_CX_Series_CX650_650W_ATX12V_80_PLUS_BRONZE/20%Monthly2019-04-03 10:34
http://www.hotnewdeal.com/2019/04/03/288133_Kung_Fu_Panda_Digital_HD_5__Apple_iTunes/20%Monthly2019-04-03 10:13
http://www.hotnewdeal.com/2019/04/03/288132_GearWrench_85035_35_Pc_MicroDriver_Set_131/20%Monthly2019-04-03 10:05
http://www.hotnewdeal.com/2019/04/03/288131_Microcenter_128GB_USB_31_flash_drive_1299_BM/20%Monthly2019-04-03 10:05
http://www.hotnewdeal.com/2019/04/03/288130_SwissGear_Bags_Skywalk_Double_Gusset_16_Padded_L/20%Monthly2019-04-03 09:47
http://www.hotnewdeal.com/2019/04/03/288129_Toys_Fingerlings_SeeSaw_Playset__2_Baby_Monkey_/20%Monthly2019-04-03 09:30
http://www.hotnewdeal.com/2019/04/03/288127_Select_BIC_Writing_Supplies_Up_to_40_Off_Pens_/20%Monthly2019-04-03 09:14
http://www.hotnewdeal.com/2019/04/03/288126_SToK_Caffeinated_Black_Coffee_Shots_264_SingleSe/20%Monthly2019-04-03 08:45
http://www.hotnewdeal.com/2019/04/03/288125_AMD_RYZEN_7_2700_CPU__ASUS_ROG_Strix_X470F_Gamin/20%Monthly2019-04-03 08:06
http://www.hotnewdeal.com/2019/04/03/288124_BAYER_ADVANCED_Season_Long_Weed_29Fl_Oz_Concentra/20%Monthly2019-04-03 08:06
http://www.hotnewdeal.com/2019/04/03/288123_22_Gorilla_Ladders_MultiPosition_Aluminum_Ladder/20%Monthly2019-04-03 07:50
http://www.hotnewdeal.com/2019/04/03/288122_DeWALT_DCK240C2_20V_MAX_Lithium_Drill_Driver__Imp/20%Monthly2019-04-03 06:33
http://www.hotnewdeal.com/2019/04/03/288121_TPLink_Networking_Products_Up_to_37_Off_Kasa_S/20%Monthly2019-04-03 04:17
http://www.hotnewdeal.com/2019/04/03/288120_White_Galaxy_Buds_99_on_First_Order_at_Google_Exp/20%Monthly2019-04-03 04:17
http://www.hotnewdeal.com/2019/04/03/288119_Sure_Deodorant_4_for_5_at_Walgreenscom__Free_st/20%Monthly2019-04-03 03:46
http://www.hotnewdeal.com/2019/04/03/288118_Origami_Kitchen_Countertop_3Drawer_Organizer_w_W/20%Monthly2019-04-03 03:25
http://www.hotnewdeal.com/2019/04/03/288117_Q9_Waterproof_Sports_Smartwatch_for_1712/20%Monthly2019-04-03 02:46
http://www.hotnewdeal.com/2019/04/03/288116_Dead_Like_Me_Season_1__Season_2_Digital_SD_4/20%Monthly2019-04-03 02:07
http://www.hotnewdeal.com/2019/04/03/288115_AmazonBasics_Silicone_BBQ_Gloves_Pair_313__Fr/20%Monthly2019-04-03 02:07
http://www.hotnewdeal.com/2019/04/03/288114_Apple_129_iPad_Pro_Mid_2017_64GB_WiFi__4G_L/20%Monthly2019-04-03 02:06
http://www.hotnewdeal.com/2019/04/03/288113_ASUS_VivoBook_156_FHD_Laptop_QuadCore_Ryzen_5_/20%Monthly2019-04-03 02:06
http://www.hotnewdeal.com/2019/04/03/288112_Nintendo_Switch_Digital_Games_Rive_Ultimate_Edit/20%Monthly2019-04-03 01:14
http://www.hotnewdeal.com/2019/04/03/288111_7__Ryobi_black_oxide_drill_and_drive_kit_120_pi/20%Monthly2019-04-03 01:14
http://www.hotnewdeal.com/2019/04/03/288110_2019_Wall_Calendars_Stranger_Things_Legend_of_Ze/20%Monthly2019-04-03 01:14
http://www.hotnewdeal.com/2019/04/03/288109_Hugger_52_and_56_in_LED_Ceiling_Fan__Home_depot_/20%Monthly2019-04-03 01:14
http://www.hotnewdeal.com/2019/04/03/288108_Southwest_Airlines__Nationwide_Sale_Starting_from/20%Monthly2019-04-03 01:14
http://www.hotnewdeal.com/2019/04/03/288107_DeWalt_Right_Angle_bit_flexible_extension_15/20%Monthly2019-04-03 00:30
http://www.hotnewdeal.com/2019/04/03/288106_Good_Smile_Nendoroid_Figures_DVa_Classic_Skin_2/20%Monthly2019-04-03 00:30
http://www.hotnewdeal.com/2019/04/03/288105_LG_C8PUA_65_4K_HDR_Smart_AI_OLED_TV_2018__18/20%Monthly2019-04-03 00:30
http://www.hotnewdeal.com/2019/04/02/288104_Apple_iPad_Pro_129_gold_512_gb_lte__screen_pr/20%Monthly2019-04-02 23:35
http://www.hotnewdeal.com/2019/04/02/288103_Nintendo_Switch_Console_Neon_Joy_Cons_or_Gray_Joy/20%Monthly2019-04-02 23:34
http://www.hotnewdeal.com/2019/04/02/288102_Living_Accents_Relaxer_Chair_w_Adjustable_Headres/20%Monthly2019-04-02 23:33
http://www.hotnewdeal.com/2019/04/02/288101_Detroit_to_London_407_RT_Airfares_on_Star_Allianc/20%Monthly2019-04-02 23:33
http://www.hotnewdeal.com/2019/04/02/288100_Brooks_Glycerin_16_Closeout_50_off__FREE_Shippin/20%Monthly2019-04-02 23:32
http://www.hotnewdeal.com/2019/04/02/288099_3_Pack_Samsung_Galaxy_S10__S10_Plus_Screen_Protec/20%Monthly2019-04-02 23:01
http://www.hotnewdeal.com/2019/04/02/288098_64GB_Samsung_EVO_Select_U3_MicroSD_Memory_Card_wit/20%Monthly2019-04-02 22:30
http://www.hotnewdeal.com/2019/04/02/288097_MOSSY_OAK_2Pack_Stainless_Steel_Water_Bottle_17_/20%Monthly2019-04-02 22:29
http://www.hotnewdeal.com/2019/04/02/288096_Makita_AF505N_Brad_18_gauge_nailer_Amazon_Home_d/20%Monthly2019-04-02 22:28
http://www.hotnewdeal.com/2019/04/02/288095_Refurbished_AOC_Q2778VQE_27inch_QHD_2560x1440p_TN/20%Monthly2019-04-02 22:27
http://www.hotnewdeal.com/2019/04/02/288094_Simmons_SD550_Electronic_Drum_Set_w_Mesh_Pads_at_/20%Monthly2019-04-02 21:26
http://www.hotnewdeal.com/2019/04/02/288093_Harbor_Freight_Coupon_25_off_single_item_Happy_Ea/20%Monthly2019-04-02 21:25
http://www.hotnewdeal.com/2019/04/02/288092_Dell_Inspiron_15_7000_Series_2in1_Touchscreen_La/20%Monthly2019-04-02 21:24
http://www.hotnewdeal.com/2019/04/02/288091_Lowes_various_weed_and_bug_killer_chemical_clearan/20%Monthly2019-04-02 20:30
http://www.hotnewdeal.com/2019/04/02/288090_ZOTAC_GAMING_GeForce_RTX_2080_AMP_8GB_Graphics_Car/20%Monthly2019-04-02 20:30
http://www.hotnewdeal.com/2019/04/02/288089_iFi_Retro_S50_Vacuum_Tube_Amplifier_w_Bluetooth_/20%Monthly2019-04-02 20:29
http://www.hotnewdeal.com/2019/04/02/288088_Today_Only_Sun_Joe_14_in_12_Amp_Corded_Electric_/20%Monthly2019-04-02 20:28
http://www.hotnewdeal.com/2019/04/02/288087_Netgear_Orbi_Mini_2Pack_AC2200_TriBand_WiFi_Syst/20%Monthly2019-04-02 20:27
http://www.hotnewdeal.com/2019/04/02/288086_Miami_to_Medellin_Colombia_204_RT_Nonstop_Airfare/20%Monthly2019-04-02 20:26
http://www.hotnewdeal.com/2019/04/02/288085_32_LG_32MA68HYP_1080p_IPS_Monitor_w_Google_Home/20%Monthly2019-04-02 20:25
http://www.hotnewdeal.com/2019/04/02/288084_Open_Box_Monoprice_Smartvac_20_High_Suction_Self/20%Monthly2019-04-02 20:24
http://www.hotnewdeal.com/2019/04/02/288083_1586_Coppertone_KIDS_Sunscreen_Continuous_Spray_/20%Monthly2019-04-02 19:42
http://www.hotnewdeal.com/2019/04/02/288082_EVGA_SuperNOVA_850_G_80_Plus_Gold_850W_Fully_Mo/20%Monthly2019-04-02 19:21
http://www.hotnewdeal.com/2019/04/02/288081_Corsair_Carbide_Series_275R_White_Steel_PC_case__/20%Monthly2019-04-02 18:47
http://www.hotnewdeal.com/2019/04/02/288080_iPad_Air_Latest_Gen__64GB__Micro_Center_4499/20%Monthly2019-04-02 18:46
http://www.hotnewdeal.com/2019/04/02/288079_Sun_Joe_Pressure_Joe_SPX3000_2030_psi_176_GPM_14/20%Monthly2019-04-02 18:02
http://www.hotnewdeal.com/2019/04/02/288078_Lag_Tramontane_T70_Dreadnought_Cutaway_Acoustic_El/20%Monthly2019-04-02 18:01
http://www.hotnewdeal.com/2019/04/02/288077_3_Audio_book__Chirp__What_If_Serious_Scient/20%Monthly2019-04-02 18:00
http://www.hotnewdeal.com/2019/04/02/288076_Humble_Bandai_Namco_Bundle_3_PC__PWYW_1/20%Monthly2019-04-02 18:00
http://www.hotnewdeal.com/2019/04/02/288075_Tom_Clancys_The_Division_2_PlayStation_4_Standard/20%Monthly2019-04-02 17:59
http://www.hotnewdeal.com/2019/04/02/288073_Google_Home_Hub_7_Touchscreen_Smart_Display_Perso/20%Monthly2019-04-02 17:58
http://www.hotnewdeal.com/2019/04/02/288072_Oakley_Sunglasses_Various_Styles_Including_Polari/20%Monthly2019-04-02 17:30
http://www.hotnewdeal.com/2019/04/02/288070_66lbs_Myprotein_100_whey_isolate__free_shipping/20%Monthly2019-04-02 17:03
http://www.hotnewdeal.com/2019/04/02/288069_Jetstream_ERAC3000_TriBand_WiFi_Gaming_Router_R/20%Monthly2019-04-02 17:03
http://www.hotnewdeal.com/2019/04/02/288068_Seattle_to_New_York_or_Vice_Versa_196198_RT_Non/20%Monthly2019-04-02 17:02
http://www.hotnewdeal.com/2019/04/02/288065_512GB_Micron_1100_M2_2280_SATA_III_SSD_45__Free/20%Monthly2019-04-02 15:57
http://www.hotnewdeal.com/2019/04/02/288064_Mackie_CR3__3_50W_Multimedia_Monitors_Limited_E/20%Monthly2019-04-02 15:56
http://www.hotnewdeal.com/2019/04/02/288063_99_Quest_For_The_Golden_Duck__Nintendo_Switch/20%Monthly2019-04-02 15:06
http://www.hotnewdeal.com/2019/04/02/288062_32_LG_32QK500W_QHD_2560x1440_Freesync_IPS_Monito/20%Monthly2019-04-02 15:05
http://www.hotnewdeal.com/2019/04/02/288061_CRAFTSMAN_100Pack_Carbon_Steel_Utility_Replacemen/20%Monthly2019-04-02 15:05
http://www.hotnewdeal.com/2019/04/02/288060_RustOleum_Transformations_1_qt_Pure_White_Cabine/20%Monthly2019-04-02 14:15
http://www.hotnewdeal.com/2019/04/02/288059_Sonos_One__Black_ONEG1US1BLK__the_Navy_Exchang/20%Monthly2019-04-02 14:15
http://www.hotnewdeal.com/2019/04/02/288058_3x_TPLink_HS100_WiFi_Smart_Plug_34_Newegg/20%Monthly2019-04-02 14:14
http://www.hotnewdeal.com/2019/04/02/288057_Target_Buy_One_Get_One_50_Off_All_Board_Games__/20%Monthly2019-04-02 13:41
http://www.hotnewdeal.com/2019/04/02/288056_Ebay__Aqua_Joe_Expandable_Lightweight_KinkFree_H/20%Monthly2019-04-02 13:41
http://www.hotnewdeal.com/2019/04/02/288054_Unlimited_Usenet_500GB_5_2_years_for_55__Usene/20%Monthly2019-04-02 13:40
http://www.hotnewdeal.com/2019/04/02/288053_Dyson_DC33_Multifloor_Bagless_Upright_Vacuum_154_/20%Monthly2019-04-02 13:39
http://www.hotnewdeal.com/2019/04/02/288052_LEGO_Technic_Dozer_Compactor_Building_Kit_42071_/20%Monthly2019-04-02 13:15
http://www.hotnewdeal.com/2019/04/02/288051_TPLINK_HS100_Smart_Plug_3_pack__34_w_free_sh/20%Monthly2019-04-02 13:15
http://www.hotnewdeal.com/2019/04/02/288050_Universal_Soldier__Digital_HD__iTunes_399/20%Monthly2019-04-02 12:37
http://www.hotnewdeal.com/2019/04/02/288049_Samsung_qn65q8fn_65_1499/20%Monthly2019-04-02 12:37
http://www.hotnewdeal.com/2019/04/02/288048_Up_to_44_OFF_Husky_Steel_Garage_Cabinet_Sets_3P/20%Monthly2019-04-02 12:36
http://www.hotnewdeal.com/2019/04/02/288047_16GB_2x8GB_GSKILL_Aegis_DDR4_3000_PC4_24000_D/20%Monthly2019-04-02 12:24
http://www.hotnewdeal.com/2019/04/02/288046_LG_24_Full_HD_TN_Monitor_with_AMD_FreeSync_238/20%Monthly2019-04-02 12:24
http://www.hotnewdeal.com/2019/04/02/288045_Sportsman_Generators_starting_at_14900_at_Home_D/20%Monthly2019-04-02 12:12
http://www.hotnewdeal.com/2019/04/02/288044_SpiderMan_Into_the_SpiderVerse_Digital_4k_12/20%Monthly2019-04-02 11:33
http://www.hotnewdeal.com/2019/04/02/288043_Refurb_Dell_U3818DW_38inch_Monitor__649/20%Monthly2019-04-02 11:17
http://www.hotnewdeal.com/2019/04/02/288042_GSkill_TridentZ_ddr4__32gb_RGB_for_175_17499/20%Monthly2019-04-02 11:17
http://www.hotnewdeal.com/2019/04/02/288041_Rawlings_NBA_Game_On_Basketball_Hoop_and_Ball_Se/20%Monthly2019-04-02 10:45
http://www.hotnewdeal.com/2019/04/02/288040_Ryobi_18v_90A_batteries_2_pack_139_was_19900/20%Monthly2019-04-02 10:45
http://www.hotnewdeal.com/2019/04/02/288039_Gildan_T_Shirts_Various_Colors_180_each_Free_s/20%Monthly2019-04-02 10:37
http://www.hotnewdeal.com/2019/04/02/288037_Wolfermans_Caramel_Apple_Sticky_Buns_2_Trays__/20%Monthly2019-04-02 10:36
http://www.hotnewdeal.com/2019/04/02/288036_Bunny_Rabbit_Plush_Kids_Backpack_For_under_5_yea/20%Monthly2019-04-02 10:08
http://www.hotnewdeal.com/2019/04/02/288035_CYLEN_Memory_Foam_Seat_Cushion__amazon_1399/20%Monthly2019-04-02 10:08
http://www.hotnewdeal.com/2019/04/02/288034_Quest_Protein_Bars_Buy_6_Cases_for_9250_1541/20%Monthly2019-04-02 09:59
http://www.hotnewdeal.com/2019/04/02/288033_Crucial_P1_1TB_3D_NAND_NVMe_PCIe_M2_SSD_for_104/20%Monthly2019-04-02 09:44
http://www.hotnewdeal.com/2019/04/02/288032_2TB_Intel_660p_nvme_ssd_M2_2280_PCIExpress_30_x/20%Monthly2019-04-02 09:44
http://www.hotnewdeal.com/2019/04/02/288030_Lysol_Lime__Rust_Remover_Toilet_Bowl_Cleaner_48o/20%Monthly2019-04-02 09:36
http://www.hotnewdeal.com/2019/04/02/288029_Cloudflare_now_offering_free_VPN__Warp__to_mobil/20%Monthly2019-04-02 09:27
http://www.hotnewdeal.com/2019/04/02/288028_DAngelico_Premier_Niagara_Mini_Dreadnought_Acoust/20%Monthly2019-04-02 09:12
http://www.hotnewdeal.com/2019/04/02/288027_RYOBI_1800_psi_12_GPM_Electric_Pressure_Washer_/20%Monthly2019-04-02 09:06
http://www.hotnewdeal.com/2019/04/02/288026_RYOBI_900_Starting_Watt_Propane_Powered_Inverter_G/20%Monthly2019-04-02 08:46
http://www.hotnewdeal.com/2019/04/02/288025_Phone_Camera_Lens11_in_1_Cell_Phone_Lens_Kit_for_/20%Monthly2019-04-02 08:43
http://www.hotnewdeal.com/2019/04/02/288024_Green_Book_Digital_4K_UHD_Film_999_via_VuduAp/20%Monthly2019-04-02 08:37
http://www.hotnewdeal.com/2019/04/02/288023_Suncast_Small_Storage_Seat_Deck_Box_31__Free_Shi/20%Monthly2019-04-02 08:37
http://www.hotnewdeal.com/2019/04/02/288022_Ryobi_One_12_in_18Volt_Brushless_LithiumIon_El/20%Monthly2019-04-02 08:13
http://www.hotnewdeal.com/2019/04/02/288021_One_Month_of_Philo_Streaming_5_New_Subscribers_o/20%Monthly2019-04-02 07:44
http://www.hotnewdeal.com/2019/04/02/288020_5Tool_Kit_RIDGID_18V_LiIon_Brushless_Cordless_5/20%Monthly2019-04-02 07:14
http://www.hotnewdeal.com/2019/04/02/288019_OVERPOWERED_Gaming_Laptop_15_2_Year_Warranty_144/20%Monthly2019-04-02 07:14
http://www.hotnewdeal.com/2019/04/02/288018_Digital_4K_UHD_Movies_The_Bourne_Ultimate_Collec/20%Monthly2019-04-02 07:02
http://www.hotnewdeal.com/2019/04/02/288017_4_Pack__Baby_Safety_Cabinet_Locks_only_599/20%Monthly2019-04-02 06:46
http://www.hotnewdeal.com/2019/04/02/288016_Loctite_spray_can_insulating_foam_at_Lowes_269/20%Monthly2019-04-02 06:46
http://www.hotnewdeal.com/2019/04/02/288015_12Pack_Hatchimals_Colleggtibles_Egg_Carton_Toy_0/20%Monthly2019-04-02 06:32
http://www.hotnewdeal.com/2019/04/02/288014_Marpac_Dohm_Classic_White_Noise_Sound_Machine_w_a/20%Monthly2019-04-02 06:32
http://www.hotnewdeal.com/2019/04/02/288013_Rowenta_Clothing_Iron_DW2170_2999/20%Monthly2019-04-02 05:45
http://www.hotnewdeal.com/2019/04/02/288011_Xbox_One_Digital_Game_Zombie_Vikings_239/20%Monthly2019-04-02 03:32
http://www.hotnewdeal.com/2019/04/02/288010_Amazon_First_Reads_Kindle_eBooks_for_April_199/20%Monthly2019-04-02 03:32
http://www.hotnewdeal.com/2019/04/02/288009_Karcher_15_power_washer_surface_cleaner_at_Amazon/20%Monthly2019-04-02 03:17
http://www.hotnewdeal.com/2019/04/02/288008_RayBan_Polarized_Chromance_Mens_Rimless_Sunglass/20%Monthly2019-04-02 02:14
http://www.hotnewdeal.com/2019/04/02/288007_6Months_Microsoft_Xbox_Game_Pass_Membership_Xbox/20%Monthly2019-04-02 02:08
http://www.hotnewdeal.com/2019/04/02/288006_20_off_Nanoleaf_products__9_panel_rhythm_starter/20%Monthly2019-04-02 01:33
http://www.hotnewdeal.com/2019/04/02/288005_Milwaukee_M18_18Volt_LithiumIon_Cordless_Combo_K/20%Monthly2019-04-02 01:21
http://www.hotnewdeal.com/2019/04/02/288004_TPLink_TLSG108_8Port_Unmanaged_Gigabit_Desktop_/20%Monthly2019-04-02 01:16
http://www.hotnewdeal.com/2019/04/02/288003_Sublue_US_WhiteShark_Mix_Underwater_Scooter_3_Cho/20%Monthly2019-04-02 01:15
http://www.hotnewdeal.com/2019/04/02/288002_Ipad_6th_Gen_wifi_only_128gb_32999/20%Monthly2019-04-02 01:15
http://www.hotnewdeal.com/2019/04/02/288001_50_Off_Everything_on_Mophiecom_Juice_Pack_AirA/20%Monthly2019-04-02 01:15
http://www.hotnewdeal.com/2019/04/02/288000_Energizer_HARDCASE_PROFESSIONAL_Work_Light_LED_Fla/20%Monthly2019-04-02 01:15
http://www.hotnewdeal.com/2019/04/02/287999_A_O_Smith_Tank_water_heater__Basic_Install__100/20%Monthly2019-04-02 00:23
http://www.hotnewdeal.com/2019/04/02/287998_Cuisinart_Small_Appliances_refurb_TOB135_Delux/20%Monthly2019-04-02 00:23
http://www.hotnewdeal.com/2019/04/02/287997_The_Autobiography_of_JeanLuc_Picard__Kindle_Edit/20%Monthly2019-04-02 00:23
http://www.hotnewdeal.com/2019/04/02/287996_Kohls_Cardholders_Coupon_for_Additional_Savings_/20%Monthly2019-04-02 00:04
http://www.hotnewdeal.com/2019/04/01/287995_PC_Digital_Downloads_Dead_Cells_1550/20%Monthly2019-04-01 23:32
http://www.hotnewdeal.com/2019/04/01/287994_Dorco_Pace_Comfort_Thin_II__2__Free_Shipping__/20%Monthly2019-04-01 23:32
http://www.hotnewdeal.com/2019/04/01/287993_Bowflex_SelectTech_552_for_20033_picked_up_from_/20%Monthly2019-04-01 23:01
http://www.hotnewdeal.com/2019/04/01/287992_Samsungcom_Save_200_with_any_smartphone_trade_in/20%Monthly2019-04-01 22:38
http://www.hotnewdeal.com/2019/04/01/287990_NERF_Zombie_Strike_RevReaper_Blaster_12_FS_wprim/20%Monthly2019-04-01 22:24
http://www.hotnewdeal.com/2019/04/01/287989_Anker_Soundbuds_Curve_Wireless_Bluetooth_Headphone/20%Monthly2019-04-01 22:00
http://www.hotnewdeal.com/2019/04/01/287988_Xbox_One_Digital_Games_Friday_the_13th_The_Game_/20%Monthly2019-04-01 21:43
http://www.hotnewdeal.com/2019/04/01/287987_Tide_PODS_3_in_1_HE_Turbo_Laundry_Detergent_Pacs_/20%Monthly2019-04-01 21:43
http://www.hotnewdeal.com/2019/04/01/287986_SOG_Sync_II_Multi_toolbuckle_at_Home_Depot_for_3/20%Monthly2019-04-01 21:28
http://www.hotnewdeal.com/2019/04/01/287985_Nintendo_Switch_JoyCon_LR_AA_Battery_Pack_99/20%Monthly2019-04-01 21:28
http://www.hotnewdeal.com/2019/04/01/287984_Yeti_Rambler_Vacuum_Bottle__26_fl_oz_Brick_Red/20%Monthly2019-04-01 21:28
http://www.hotnewdeal.com/2019/04/01/287983_Hitachi_KNT50AB_3_Pcs_Finish_Combo_Kit_Recon_Grad/20%Monthly2019-04-01 21:12
http://www.hotnewdeal.com/2019/04/01/287982_Amazon__The_Prestige_BluRay__More_599/20%Monthly2019-04-01 21:04
http://www.hotnewdeal.com/2019/04/01/287981_Tera_Nova_Complete_12Episode_Series_Digital_HD/20%Monthly2019-04-01 21:02
http://www.hotnewdeal.com/2019/04/01/287980_Makita_12Volt_MAX_CXT_LithiumIon_Cordless_38_in/20%Monthly2019-04-01 21:01
http://www.hotnewdeal.com/2019/04/01/287979_Waste_King_1HP_L8000_Garbage_Disposal_112/20%Monthly2019-04-01 21:01
http://www.hotnewdeal.com/2019/04/01/287978_Kinder_Joy_Kinder_Egg_Walgreens_Rewards_075/20%Monthly2019-04-01 20:52
http://www.hotnewdeal.com/2019/04/01/287976_DeWalt_DCK299P2_20Volt_MAX_XR_LithiumIon_Cordles/20%Monthly2019-04-01 19:59
http://www.hotnewdeal.com/2019/04/01/287975_2Lb_Orgain_Organic_Protein_Powder_Chocolate_Fudg/20%Monthly2019-04-01 19:42
http://www.hotnewdeal.com/2019/04/01/287974_WORX_WX051_Pegasus_Folding_Work_Table_and_Sawhorse/20%Monthly2019-04-01 19:27
http://www.hotnewdeal.com/2019/04/01/287973_2Pack_144Count_Durex_Latex_Condom_Fish_Bowls_40/20%Monthly2019-04-01 19:27
http://www.hotnewdeal.com/2019/04/01/287971_2Pack_3_Anker_PowerLine_USB_C_to_USB_A_20_Cabl/20%Monthly2019-04-01 19:11
http://www.hotnewdeal.com/2019/04/01/287970_BampHPhoto_Moto_X4_32GB_Unlocked_Android_One_wit/20%Monthly2019-04-01 19:11
http://www.hotnewdeal.com/2019/04/01/287969_Apple_iPad_Pro_105_64GB_WIFI_Space_Gray_45849_/20%Monthly2019-04-01 18:57
http://www.hotnewdeal.com/2019/04/01/287968_Washington_DC_to_Seoul_Korea_534586_RT_Airfares/20%Monthly2019-04-01 18:57
http://www.hotnewdeal.com/2019/04/01/287967_Gretsch_G2655T_Streamliner_Center_Block_Jr_Double/20%Monthly2019-04-01 18:57
http://www.hotnewdeal.com/2019/04/01/287966_WD_Blue_1TB_3D_NAND_Internal_SSD__SATA_III_6Gbs_/20%Monthly2019-04-01 18:47
http://www.hotnewdeal.com/2019/04/01/287965_RYOBI_18Volt_ONE_LithiumIon_Miter_Saw_Circular/20%Monthly2019-04-01 18:31
http://www.hotnewdeal.com/2019/04/01/287963_Mobil_1_Motor_Oil_and_Filter_rebates_up_to_17_of/20%Monthly2019-04-01 18:17
http://www.hotnewdeal.com/2019/04/01/287962_TCL_65_Class_4K_UHD_Roku_Smart_TV__65S423__489/20%Monthly2019-04-01 18:17
http://www.hotnewdeal.com/2019/04/01/287961_Harman_Kardon_Omni_10_Plus_Bluetooth_Speaker_Refur/20%Monthly2019-04-01 18:04
http://www.hotnewdeal.com/2019/04/01/287960_110_Piece_Bag_MARS_Chocolate__More_Easter_Spring_/20%Monthly2019-04-01 17:56
http://www.hotnewdeal.com/2019/04/01/287959_Bose_SoundTouch_10_Wireless_Speaker_Factory_Refurb/20%Monthly2019-04-01 17:47
http://www.hotnewdeal.com/2019/04/01/287957_Motorola_InstaShare_Projector_Moto_Mod_4999/20%Monthly2019-04-01 17:31
http://www.hotnewdeal.com/2019/04/01/287956_Dell_Inspiron_5676_Gaming_Desktop_AMD_Ryzen_7_2700/20%Monthly2019-04-01 17:31
http://www.hotnewdeal.com/2019/04/01/287955_Sigma_Macro_Lenses_for_Canon_Nikon_Sigma_70mm_f/20%Monthly2019-04-01 17:06
http://www.hotnewdeal.com/2019/04/01/287954_Anker_Roav_Jump_Starter_Pro_800A_Peak_12V__599/20%Monthly2019-04-01 16:56
http://www.hotnewdeal.com/2019/04/01/287953_AMC_Stubs_Member_Exclusive_Free_Movie_Tickets_to_/20%Monthly2019-04-01 16:47
http://www.hotnewdeal.com/2019/04/01/287951_11lbs_Myprotein_Impact_Whey_Protein__05lbs_Creat/20%Monthly2019-04-01 16:47
http://www.hotnewdeal.com/2019/04/01/287950_Apple_TV_4K_64GB_150_AC_Frys_OOS_for_ship/20%Monthly2019-04-01 16:38
http://www.hotnewdeal.com/2019/04/01/287949_Gibson_2018_Thunderbird_Electric_Bass_Guitar_Vint/20%Monthly2019-04-01 16:15
http://www.hotnewdeal.com/2019/04/01/287948_Corsair_Carbide_Series_270R_CC9011105WW_Black_St/20%Monthly2019-04-01 16:07
http://www.hotnewdeal.com/2019/04/01/287947_70_Vizio_V705G3_VSeries_4K_UHD_HDR_Smart_LED_HD/20%Monthly2019-04-01 16:02
http://www.hotnewdeal.com/2019/04/01/287946_Asus_ROG_Strix_Hero_II_156_144Hz_IPSType_Slim_B/20%Monthly2019-04-01 16:02
http://www.hotnewdeal.com/2019/04/01/287945_Turner_Triple_Reclining_Fabric_Sofa_Price_Drop_fr/20%Monthly2019-04-01 16:02
http://www.hotnewdeal.com/2019/04/01/287944_13_gallon_Automatic_sensor_STAINLESS_steelTRASH_CA/20%Monthly2019-04-01 15:45
http://www.hotnewdeal.com/2019/04/01/287943_3Piece_American_Tourister_Arona_Hardside_Spinner_/20%Monthly2019-04-01 15:44
http://www.hotnewdeal.com/2019/04/01/287942_Nest_x_Yale_Smart_Door_Lock_with_Nest_Connect_Sat/20%Monthly2019-04-01 15:38
http://www.hotnewdeal.com/2019/04/01/287941_VUDU_April_Fools_Day_50_off_Sale_Movies_TV_Sho/20%Monthly2019-04-01 15:15
http://www.hotnewdeal.com/2019/04/01/287940_EZ_Goal_6_x_6_Folding_Lacrosse_Goal__6078_Bac/20%Monthly2019-04-01 15:14
http://www.hotnewdeal.com/2019/04/01/287939_JBL_Studio_580_for_34995_with_FS/20%Monthly2019-04-01 15:07
http://www.hotnewdeal.com/2019/04/01/287938_Portable_Battery_Operated_Handheld_Personal_Desk_F/20%Monthly2019-04-01 14:55
http://www.hotnewdeal.com/2019/04/01/287937_Breitling_Transocean_Day_Date_Automatic_Watch_299/20%Monthly2019-04-01 14:39
http://www.hotnewdeal.com/2019/04/01/287936_Acer_XFA240_24_Gaming_GSYNC_Compatible144hz1ms/20%Monthly2019-04-01 14:39
http://www.hotnewdeal.com/2019/04/01/287935_Netgear_CM1100_DOCSIS_31_Cable_Modem_11999_cost/20%Monthly2019-04-01 14:24
http://www.hotnewdeal.com/2019/04/01/287934_5Quart_Pennzoil_Platinum_Full_Synthetic_Motor_Oil/20%Monthly2019-04-01 14:00
http://www.hotnewdeal.com/2019/04/01/287933_TCL_65S403_65_4K_UHD_Smart_Roku_LED_TV_with_White/20%Monthly2019-04-01 14:00
http://www.hotnewdeal.com/2019/04/01/287932_Rocky_Road_Quest_Bars__12_Pack/20%Monthly2019-04-01 13:43
http://www.hotnewdeal.com/2019/04/01/287931_Mens_Adidas_Originals_NMD_R2__40_Free_shipping/20%Monthly2019-04-01 13:43
http://www.hotnewdeal.com/2019/04/01/287930_25_UberEats_Uber_GC_20_50_GameStop_GC_45__/20%Monthly2019-04-01 13:12
http://www.hotnewdeal.com/2019/04/01/287929_Scary_Movie_Triple_Pack_Digital_HDX_Movies_699/20%Monthly2019-04-01 13:12
http://www.hotnewdeal.com/2019/04/01/287927_Bose_QuietComfort_35_Series_II_Wireless_Headphones/20%Monthly2019-04-01 12:55
http://www.hotnewdeal.com/2019/04/01/287926_Enermax_T40FRF_14cm_Universal_CPU_Cooler_16_AR_/20%Monthly2019-04-01 12:55
http://www.hotnewdeal.com/2019/04/01/287925_New_TPlink_OnHub_Google_WiFi_6499_NewEgg/20%Monthly2019-04-01 12:40
http://www.hotnewdeal.com/2019/04/01/287924_Longchamp_Cristal_DArques_Glassware_LeadFree_Cr/20%Monthly2019-04-01 12:39
http://www.hotnewdeal.com/2019/04/01/287923_RIDGID_18Volt_LithiumIon_Brushless_Cordless_5To/20%Monthly2019-04-01 12:39
http://www.hotnewdeal.com/2019/04/01/287922_256GB_Samsung_EVO_Select_U3_microSD_Memory_Card_w/20%Monthly2019-04-01 12:27
http://www.hotnewdeal.com/2019/04/01/287921_Craftsman_Extreme_Grip10_Adjustable_Wrench_16_/20%Monthly2019-04-01 12:21
http://www.hotnewdeal.com/2019/04/01/287920_100_Lowes_Physical_Gift_Card_90__Mail_Delivery/20%Monthly2019-04-01 12:10
http://www.hotnewdeal.com/2019/04/01/287919_Corsair_Gaming_MM100_Cloth_Mouse_Pad_499__Free_/20%Monthly2019-04-01 12:10
http://www.hotnewdeal.com/2019/04/01/287918_Costco_InStore_Offer_TMobile_Get_up_to_750_Bac/20%Monthly2019-04-01 11:59
http://www.hotnewdeal.com/2019/04/01/287917_Fitbit_blaze_100_are_Verizon/20%Monthly2019-04-01 11:59
http://www.hotnewdeal.com/2019/04/01/287916_Lenovo_Legion_Y740_156_FHD_144_Hz_GSync_IPS_/20%Monthly2019-04-01 11:42
http://www.hotnewdeal.com/2019/04/01/287915_30Count_Kelloggs_Breakfast_Cereal_Assortment_Pa/20%Monthly2019-04-01 11:42
http://www.hotnewdeal.com/2019/04/01/287914_Banana_Republic_40_off__10_Off_Womens_Soft_S/20%Monthly2019-04-01 11:42
http://www.hotnewdeal.com/2019/04/01/287913_Microsoft_Digital_4K_UHD_Sale_Select_Titles_Starti/20%Monthly2019-04-01 11:27
http://www.hotnewdeal.com/2019/04/01/287912_Big_Red_Rooster_White_Noise_Machine__Amazon__9/20%Monthly2019-04-01 11:27
http://www.hotnewdeal.com/2019/04/01/287911_ASRock_X470_Master_SLIAC_AM4_AMD_Motherboard_100/20%Monthly2019-04-01 11:27
http://www.hotnewdeal.com/2019/04/01/287910_Feiyu_SPG_Plus_3Axis_Gimbal_Rig_for_Select_Smartp/20%Monthly2019-04-01 11:26
http://www.hotnewdeal.com/2019/04/01/287909_Acer_Holo360_4K_360_Degree_Camera_New_from_Acer_St/20%Monthly2019-04-01 10:58
http://www.hotnewdeal.com/2019/04/01/287908_YMMV_Hyper_Tough_32_Gallon_Wheeled_Trash_Can_with/20%Monthly2019-04-01 10:57
http://www.hotnewdeal.com/2019/04/01/287907_Free_Box_of_items_for_parents_and_baby_valued_up_t/20%Monthly2019-04-01 10:57
http://www.hotnewdeal.com/2019/04/01/287906_Digital_Download_The_World_Ends_With_You_Final_M/20%Monthly2019-04-01 10:57
http://www.hotnewdeal.com/2019/04/01/287905_Eufy_BoostIQ_RoboVac_30_New__17999__FS_w_Am/20%Monthly2019-04-01 10:47
http://www.hotnewdeal.com/2019/04/01/287904_Charmin_Forever_Roll_starter_kit_30/20%Monthly2019-04-01 10:24
http://www.hotnewdeal.com/2019/04/01/287903_Home_Depot_Dewalt_Toughsystem_DS150_1853/20%Monthly2019-04-01 10:08
http://www.hotnewdeal.com/2019/04/01/287902_New_Balance_FuelCore_Coast_v4_Running_Shoes_Mens/20%Monthly2019-04-01 09:57
http://www.hotnewdeal.com/2019/04/01/287901_Craftsman_Mechanics_Tool_Sets_230Piece_85_or_Le/20%Monthly2019-04-01 09:57
http://www.hotnewdeal.com/2019/04/01/287899_32GB_2x_16_DDR4_2133_SODIMM_Laptop_Memory_Kit_/20%Monthly2019-04-01 09:25
http://www.hotnewdeal.com/2019/04/01/287898_Firefly_The_Complete_Series_Digital_HD_TV_Show_/20%Monthly2019-04-01 09:09
http://www.hotnewdeal.com/2019/04/01/287897_LG_70_Class_695_Diag_4K_Ultra_HD_LED_LCD_TV_/20%Monthly2019-04-01 08:50
http://www.hotnewdeal.com/2019/04/01/287896_Milwaukee_M18_18Volt_LithiumIon_Cordless_Combo_T/20%Monthly2019-04-01 08:47
http://www.hotnewdeal.com/2019/04/01/287895_Cuisinart__12Cup_Programmable_Coffee_Maker_DCC4/20%Monthly2019-04-01 08:47
http://www.hotnewdeal.com/2019/04/01/287894_ASRock_B450_PRO4_AM4_Motherboard__Free_SH__64/20%Monthly2019-04-01 08:31
http://www.hotnewdeal.com/2019/04/01/287893_Milwaukee_M12_12V_Liion_Cordless_38_Ratchet_Kit/20%Monthly2019-04-01 07:40
http://www.hotnewdeal.com/2019/04/01/287892_Jurassic_Park_Collection_Jurassic_Park__3D_Lost/20%Monthly2019-04-01 06:57
http://www.hotnewdeal.com/2019/04/01/287891_Ring_Video_Doorbell_2_with_Echo_Dot_3rd_Gen__Ch/20%Monthly2019-04-01 06:57
http://www.hotnewdeal.com/2019/04/01/287890_Martin_GPCRSG_Grand_Performance_AcousticElectric_/20%Monthly2019-04-01 06:57
http://www.hotnewdeal.com/2019/04/01/287889_5000_Awesome_Facts_About_Everything_National_/20%Monthly2019-04-01 06:45
http://www.hotnewdeal.com/2019/04/01/287888_Chappelles_Show_The_Complete_Series_Digital_SD_/20%Monthly2019-04-01 06:31
http://www.hotnewdeal.com/2019/04/01/287887_The_Newegg_iBrite_RGB_CPU_499999/20%Monthly2019-04-01 06:31
http://www.hotnewdeal.com/2019/04/01/287886_Sonax_48_Fillmore_TV_Stand__60_Back_in_SYWR_Poi/20%Monthly2019-04-01 06:26
http://www.hotnewdeal.com/2019/04/01/287885_Now_You_See_Me_2Movie_Collection_Digital_4K_UHD_/20%Monthly2019-04-01 06:11
http://www.hotnewdeal.com/2019/04/01/287884_JCrew_Mens_Mercantile_Brokenin_crewneck_Tshir/20%Monthly2019-04-01 03:57
http://www.hotnewdeal.com/2019/04/01/287883_84Count_McCafe_French_Roast_Dark_KCups_Pods_Bol/20%Monthly2019-04-01 03:40
http://www.hotnewdeal.com/2019/04/01/287882_52Count_Swiffer_Sweeper_Dry_Sweeping_Pad_Refills_/20%Monthly2019-04-01 03:40
http://www.hotnewdeal.com/2019/04/01/287881_Toshiba_Canvio_Advance_4TB_Portable_External_Hard_/20%Monthly2019-04-01 03:40
http://www.hotnewdeal.com/2019/04/01/287880_Walgreens_Custom_Framed_Photo_Magnet_4x4_or_4/20%Monthly2019-04-01 03:25
http://www.hotnewdeal.com/2019/04/01/287878_QNAP_TVS951X2GUS_54_Bay_NAS_Intel_Celeron_Dual/20%Monthly2019-04-01 00:23